<?xml version="1.0" encoding="UTF-8" standalone="no" ?>
<gpx xmlns="http://www.topografix.com/GPX/1/1" xmlns:xsi="http://www.w3.org/2001/XMLSchema-instance" xsi:schemaLocation="http://www.topografix.com/GPX/1/1 http://www.topografix.com/GPX/1/1/gpx.xsd" version="1.1" creator="VisuGPX - https://www.visugpx.com">
  <metadata>
    <name>Albi carlus</name>
  </metadata>
  <trk>
    <name><![CDATA[Trace 1756814311000]]></name>
    <trkseg>
      <trkpt lat="43.9204" lon="2.13362">
        <ele>224</ele>
        <time>2025-09-02T11:58:31.000Z</time>
      </trkpt>
      <trkpt lat="43.92039" lon="2.13364">
        <ele>219</ele>
        <time>2025-09-02T11:58:36.000Z</time>
      </trkpt>
      <trkpt lat="43.9204" lon="2.13365">
        <ele>217</ele>
        <time>2025-09-02T11:58:41.000Z</time>
      </trkpt>
      <trkpt lat="43.9204" lon="2.13363">
        <ele>216</ele>
        <time>2025-09-02T11:58:46.000Z</time>
      </trkpt>
      <trkpt lat="43.9204" lon="2.13364">
        <ele>216</ele>
        <time>2025-09-02T11:58:51.000Z</time>
      </trkpt>
      <trkpt lat="43.9204" lon="2.1336">
        <ele>218</ele>
        <time>2025-09-02T11:58:56.000Z</time>
      </trkpt>
      <trkpt lat="43.9204" lon="2.13354">
        <ele>221</ele>
        <time>2025-09-02T11:59:01.000Z</time>
      </trkpt>
      <trkpt lat="43.92037" lon="2.13348">
        <ele>222</ele>
        <time>2025-09-02T11:59:06.000Z</time>
      </trkpt>
      <trkpt lat="43.92031" lon="2.13346">
        <ele>221</ele>
        <time>2025-09-02T11:59:11.000Z</time>
      </trkpt>
      <trkpt lat="43.92027" lon="2.13344">
        <ele>219</ele>
        <time>2025-09-02T11:59:16.000Z</time>
      </trkpt>
      <trkpt lat="43.92022" lon="2.13343">
        <ele>219</ele>
        <time>2025-09-02T11:59:21.000Z</time>
      </trkpt>
      <trkpt lat="43.92014" lon="2.13341">
        <ele>219</ele>
        <time>2025-09-02T11:59:26.000Z</time>
      </trkpt>
      <trkpt lat="43.92009" lon="2.13337">
        <ele>222</ele>
        <time>2025-09-02T11:59:31.000Z</time>
      </trkpt>
      <trkpt lat="43.92002" lon="2.13337">
        <ele>222</ele>
        <time>2025-09-02T11:59:36.000Z</time>
      </trkpt>
      <trkpt lat="43.91996" lon="2.13335">
        <ele>221</ele>
        <time>2025-09-02T11:59:41.000Z</time>
      </trkpt>
      <trkpt lat="43.91991" lon="2.13334">
        <ele>220</ele>
        <time>2025-09-02T11:59:46.000Z</time>
      </trkpt>
      <trkpt lat="43.91987" lon="2.13333">
        <ele>220</ele>
        <time>2025-09-02T11:59:51.000Z</time>
      </trkpt>
      <trkpt lat="43.91981" lon="2.13332">
        <ele>220</ele>
        <time>2025-09-02T11:59:56.000Z</time>
      </trkpt>
      <trkpt lat="43.91975" lon="2.13328">
        <ele>222</ele>
        <time>2025-09-02T12:00:01.000Z</time>
      </trkpt>
      <trkpt lat="43.9197" lon="2.13321">
        <ele>221</ele>
        <time>2025-09-02T12:00:06.000Z</time>
      </trkpt>
      <trkpt lat="43.91966" lon="2.13315">
        <ele>221</ele>
        <time>2025-09-02T12:00:11.000Z</time>
      </trkpt>
      <trkpt lat="43.91965" lon="2.13306">
        <ele>221</ele>
        <time>2025-09-02T12:00:16.000Z</time>
      </trkpt>
      <trkpt lat="43.91964" lon="2.13299">
        <ele>222</ele>
        <time>2025-09-02T12:00:21.000Z</time>
      </trkpt>
      <trkpt lat="43.91964" lon="2.13289">
        <ele>222</ele>
        <time>2025-09-02T12:00:26.000Z</time>
      </trkpt>
      <trkpt lat="43.91963" lon="2.13283">
        <ele>223</ele>
        <time>2025-09-02T12:00:31.000Z</time>
      </trkpt>
      <trkpt lat="43.91962" lon="2.13275">
        <ele>223</ele>
        <time>2025-09-02T12:00:36.000Z</time>
      </trkpt>
      <trkpt lat="43.91961" lon="2.13268">
        <ele>224</ele>
        <time>2025-09-02T12:00:41.000Z</time>
      </trkpt>
      <trkpt lat="43.9196" lon="2.1326">
        <ele>224</ele>
        <time>2025-09-02T12:00:46.000Z</time>
      </trkpt>
      <trkpt lat="43.91958" lon="2.13254">
        <ele>225</ele>
        <time>2025-09-02T12:00:51.000Z</time>
      </trkpt>
      <trkpt lat="43.91956" lon="2.13247">
        <ele>225</ele>
        <time>2025-09-02T12:00:56.000Z</time>
      </trkpt>
      <trkpt lat="43.91955" lon="2.1324">
        <ele>228</ele>
        <time>2025-09-02T12:01:01.000Z</time>
      </trkpt>
      <trkpt lat="43.91955" lon="2.13232">
        <ele>229</ele>
        <time>2025-09-02T12:01:06.000Z</time>
      </trkpt>
      <trkpt lat="43.91955" lon="2.13221">
        <ele>229</ele>
        <time>2025-09-02T12:01:11.000Z</time>
      </trkpt>
      <trkpt lat="43.91955" lon="2.13211">
        <ele>227</ele>
        <time>2025-09-02T12:01:16.000Z</time>
      </trkpt>
      <trkpt lat="43.91955" lon="2.13201">
        <ele>226</ele>
        <time>2025-09-02T12:01:21.000Z</time>
      </trkpt>
      <trkpt lat="43.91954" lon="2.13192">
        <ele>225</ele>
        <time>2025-09-02T12:01:26.000Z</time>
      </trkpt>
      <trkpt lat="43.91955" lon="2.13183">
        <ele>223</ele>
        <time>2025-09-02T12:01:31.000Z</time>
      </trkpt>
      <trkpt lat="43.91954" lon="2.13177">
        <ele>224</ele>
        <time>2025-09-02T12:01:36.000Z</time>
      </trkpt>
      <trkpt lat="43.91954" lon="2.13169">
        <ele>224</ele>
        <time>2025-09-02T12:01:41.000Z</time>
      </trkpt>
      <trkpt lat="43.91953" lon="2.13162">
        <ele>223</ele>
        <time>2025-09-02T12:01:46.000Z</time>
      </trkpt>
      <trkpt lat="43.91954" lon="2.13153">
        <ele>221</ele>
        <time>2025-09-02T12:01:51.000Z</time>
      </trkpt>
      <trkpt lat="43.91954" lon="2.13144">
        <ele>221</ele>
        <time>2025-09-02T12:01:56.000Z</time>
      </trkpt>
      <trkpt lat="43.91954" lon="2.13135">
        <ele>221</ele>
        <time>2025-09-02T12:02:01.000Z</time>
      </trkpt>
      <trkpt lat="43.91953" lon="2.13128">
        <ele>223</ele>
        <time>2025-09-02T12:02:06.000Z</time>
      </trkpt>
      <trkpt lat="43.91952" lon="2.13124">
        <ele>224</ele>
        <time>2025-09-02T12:02:11.000Z</time>
      </trkpt>
      <trkpt lat="43.91952" lon="2.13117">
        <ele>226</ele>
        <time>2025-09-02T12:02:16.000Z</time>
      </trkpt>
      <trkpt lat="43.91951" lon="2.13106">
        <ele>226</ele>
        <time>2025-09-02T12:02:21.000Z</time>
      </trkpt>
      <trkpt lat="43.9195" lon="2.13098">
        <ele>226</ele>
        <time>2025-09-02T12:02:26.000Z</time>
      </trkpt>
      <trkpt lat="43.9195" lon="2.1309">
        <ele>225</ele>
        <time>2025-09-02T12:02:31.000Z</time>
      </trkpt>
      <trkpt lat="43.9195" lon="2.13079">
        <ele>222</ele>
        <time>2025-09-02T12:02:36.000Z</time>
      </trkpt>
      <trkpt lat="43.9195" lon="2.13068">
        <ele>221</ele>
        <time>2025-09-02T12:02:41.000Z</time>
      </trkpt>
      <trkpt lat="43.9195" lon="2.13059">
        <ele>219</ele>
        <time>2025-09-02T12:02:46.000Z</time>
      </trkpt>
      <trkpt lat="43.91946" lon="2.13052">
        <ele>218</ele>
        <time>2025-09-02T12:02:51.000Z</time>
      </trkpt>
      <trkpt lat="43.91941" lon="2.13047">
        <ele>218</ele>
        <time>2025-09-02T12:02:56.000Z</time>
      </trkpt>
      <trkpt lat="43.91939" lon="2.13039">
        <ele>216</ele>
        <time>2025-09-02T12:03:01.000Z</time>
      </trkpt>
      <trkpt lat="43.91938" lon="2.13032">
        <ele>216</ele>
        <time>2025-09-02T12:03:06.000Z</time>
      </trkpt>
      <trkpt lat="43.91938" lon="2.13024">
        <ele>217</ele>
        <time>2025-09-02T12:03:11.000Z</time>
      </trkpt>
      <trkpt lat="43.91937" lon="2.13015">
        <ele>217</ele>
        <time>2025-09-02T12:03:16.000Z</time>
      </trkpt>
      <trkpt lat="43.91935" lon="2.13008">
        <ele>217</ele>
        <time>2025-09-02T12:03:21.000Z</time>
      </trkpt>
      <trkpt lat="43.91932" lon="2.13003">
        <ele>217</ele>
        <time>2025-09-02T12:03:26.000Z</time>
      </trkpt>
      <trkpt lat="43.91928" lon="2.12997">
        <ele>218</ele>
        <time>2025-09-02T12:03:31.000Z</time>
      </trkpt>
      <trkpt lat="43.91923" lon="2.12992">
        <ele>219</ele>
        <time>2025-09-02T12:03:36.000Z</time>
      </trkpt>
      <trkpt lat="43.91918" lon="2.12988">
        <ele>219</ele>
        <time>2025-09-02T12:03:41.000Z</time>
      </trkpt>
      <trkpt lat="43.91914" lon="2.12983">
        <ele>219</ele>
        <time>2025-09-02T12:03:46.000Z</time>
      </trkpt>
      <trkpt lat="43.91909" lon="2.12979">
        <ele>219</ele>
        <time>2025-09-02T12:03:51.000Z</time>
      </trkpt>
      <trkpt lat="43.91902" lon="2.12974">
        <ele>218</ele>
        <time>2025-09-02T12:03:56.000Z</time>
      </trkpt>
      <trkpt lat="43.91896" lon="2.12971">
        <ele>217</ele>
        <time>2025-09-02T12:04:01.000Z</time>
      </trkpt>
      <trkpt lat="43.91891" lon="2.12967">
        <ele>217</ele>
        <time>2025-09-02T12:04:06.000Z</time>
      </trkpt>
      <trkpt lat="43.91886" lon="2.12963">
        <ele>218</ele>
        <time>2025-09-02T12:04:11.000Z</time>
      </trkpt>
      <trkpt lat="43.91881" lon="2.12961">
        <ele>218</ele>
        <time>2025-09-02T12:04:16.000Z</time>
      </trkpt>
      <trkpt lat="43.91876" lon="2.12956">
        <ele>220</ele>
        <time>2025-09-02T12:04:21.000Z</time>
      </trkpt>
      <trkpt lat="43.91871" lon="2.12952">
        <ele>220</ele>
        <time>2025-09-02T12:04:26.000Z</time>
      </trkpt>
      <trkpt lat="43.91864" lon="2.12949">
        <ele>221</ele>
        <time>2025-09-02T12:04:31.000Z</time>
      </trkpt>
      <trkpt lat="43.91858" lon="2.12948">
        <ele>222</ele>
        <time>2025-09-02T12:04:36.000Z</time>
      </trkpt>
      <trkpt lat="43.91852" lon="2.12944">
        <ele>222</ele>
        <time>2025-09-02T12:04:41.000Z</time>
      </trkpt>
      <trkpt lat="43.91846" lon="2.12941">
        <ele>222</ele>
        <time>2025-09-02T12:04:46.000Z</time>
      </trkpt>
      <trkpt lat="43.91839" lon="2.12938">
        <ele>222</ele>
        <time>2025-09-02T12:04:51.000Z</time>
      </trkpt>
      <trkpt lat="43.91833" lon="2.12934">
        <ele>223</ele>
        <time>2025-09-02T12:04:56.000Z</time>
      </trkpt>
      <trkpt lat="43.91827" lon="2.12931">
        <ele>222</ele>
        <time>2025-09-02T12:05:01.000Z</time>
      </trkpt>
      <trkpt lat="43.91821" lon="2.12927">
        <ele>223</ele>
        <time>2025-09-02T12:05:06.000Z</time>
      </trkpt>
      <trkpt lat="43.91815" lon="2.12923">
        <ele>223</ele>
        <time>2025-09-02T12:05:11.000Z</time>
      </trkpt>
      <trkpt lat="43.91808" lon="2.1292">
        <ele>222</ele>
        <time>2025-09-02T12:05:16.000Z</time>
      </trkpt>
      <trkpt lat="43.91803" lon="2.12916">
        <ele>221</ele>
        <time>2025-09-02T12:05:21.000Z</time>
      </trkpt>
      <trkpt lat="43.918" lon="2.12912">
        <ele>222</ele>
        <time>2025-09-02T12:05:26.000Z</time>
      </trkpt>
      <trkpt lat="43.91794" lon="2.12908">
        <ele>222</ele>
        <time>2025-09-02T12:05:31.000Z</time>
      </trkpt>
      <trkpt lat="43.91788" lon="2.12905">
        <ele>222</ele>
        <time>2025-09-02T12:05:36.000Z</time>
      </trkpt>
      <trkpt lat="43.91782" lon="2.12902">
        <ele>223</ele>
        <time>2025-09-02T12:05:41.000Z</time>
      </trkpt>
      <trkpt lat="43.91775" lon="2.12899">
        <ele>222</ele>
        <time>2025-09-02T12:05:46.000Z</time>
      </trkpt>
      <trkpt lat="43.91768" lon="2.12896">
        <ele>223</ele>
        <time>2025-09-02T12:05:51.000Z</time>
      </trkpt>
      <trkpt lat="43.91762" lon="2.12894">
        <ele>222</ele>
        <time>2025-09-02T12:05:56.000Z</time>
      </trkpt>
      <trkpt lat="43.91756" lon="2.12891">
        <ele>221</ele>
        <time>2025-09-02T12:06:01.000Z</time>
      </trkpt>
      <trkpt lat="43.91752" lon="2.12887">
        <ele>221</ele>
        <time>2025-09-02T12:06:06.000Z</time>
      </trkpt>
      <trkpt lat="43.91747" lon="2.12882">
        <ele>220</ele>
        <time>2025-09-02T12:06:11.000Z</time>
      </trkpt>
      <trkpt lat="43.91741" lon="2.12878">
        <ele>220</ele>
        <time>2025-09-02T12:06:16.000Z</time>
      </trkpt>
      <trkpt lat="43.91737" lon="2.12873">
        <ele>220</ele>
        <time>2025-09-02T12:06:21.000Z</time>
      </trkpt>
      <trkpt lat="43.91731" lon="2.12871">
        <ele>221</ele>
        <time>2025-09-02T12:06:26.000Z</time>
      </trkpt>
      <trkpt lat="43.91725" lon="2.12868">
        <ele>221</ele>
        <time>2025-09-02T12:06:31.000Z</time>
      </trkpt>
      <trkpt lat="43.91719" lon="2.12866">
        <ele>222</ele>
        <time>2025-09-02T12:06:36.000Z</time>
      </trkpt>
      <trkpt lat="43.91713" lon="2.12863">
        <ele>222</ele>
        <time>2025-09-02T12:06:41.000Z</time>
      </trkpt>
      <trkpt lat="43.91709" lon="2.12859">
        <ele>222</ele>
        <time>2025-09-02T12:06:46.000Z</time>
      </trkpt>
      <trkpt lat="43.91703" lon="2.12855">
        <ele>221</ele>
        <time>2025-09-02T12:06:51.000Z</time>
      </trkpt>
      <trkpt lat="43.91697" lon="2.12852">
        <ele>221</ele>
        <time>2025-09-02T12:06:56.000Z</time>
      </trkpt>
      <trkpt lat="43.91691" lon="2.12849">
        <ele>221</ele>
        <time>2025-09-02T12:07:01.000Z</time>
      </trkpt>
      <trkpt lat="43.91686" lon="2.12844">
        <ele>221</ele>
        <time>2025-09-02T12:07:06.000Z</time>
      </trkpt>
      <trkpt lat="43.91683" lon="2.12837">
        <ele>220</ele>
        <time>2025-09-02T12:07:11.000Z</time>
      </trkpt>
      <trkpt lat="43.9168" lon="2.12831">
        <ele>220</ele>
        <time>2025-09-02T12:07:16.000Z</time>
      </trkpt>
      <trkpt lat="43.91677" lon="2.12823">
        <ele>220</ele>
        <time>2025-09-02T12:07:21.000Z</time>
      </trkpt>
      <trkpt lat="43.91674" lon="2.12816">
        <ele>221</ele>
        <time>2025-09-02T12:07:26.000Z</time>
      </trkpt>
      <trkpt lat="43.91672" lon="2.12808">
        <ele>221</ele>
        <time>2025-09-02T12:07:31.000Z</time>
      </trkpt>
      <trkpt lat="43.91669" lon="2.12801">
        <ele>222</ele>
        <time>2025-09-02T12:07:36.000Z</time>
      </trkpt>
      <trkpt lat="43.91664" lon="2.12796">
        <ele>221</ele>
        <time>2025-09-02T12:07:41.000Z</time>
      </trkpt>
      <trkpt lat="43.9166" lon="2.12791">
        <ele>221</ele>
        <time>2025-09-02T12:07:46.000Z</time>
      </trkpt>
      <trkpt lat="43.91655" lon="2.12787">
        <ele>222</ele>
        <time>2025-09-02T12:07:51.000Z</time>
      </trkpt>
      <trkpt lat="43.9165" lon="2.12782">
        <ele>222</ele>
        <time>2025-09-02T12:07:56.000Z</time>
      </trkpt>
      <trkpt lat="43.91645" lon="2.12776">
        <ele>223</ele>
        <time>2025-09-02T12:08:01.000Z</time>
      </trkpt>
      <trkpt lat="43.91639" lon="2.12772">
        <ele>223</ele>
        <time>2025-09-02T12:08:06.000Z</time>
      </trkpt>
      <trkpt lat="43.91634" lon="2.12768">
        <ele>222</ele>
        <time>2025-09-02T12:08:11.000Z</time>
      </trkpt>
      <trkpt lat="43.91629" lon="2.12764">
        <ele>223</ele>
        <time>2025-09-02T12:08:16.000Z</time>
      </trkpt>
      <trkpt lat="43.91625" lon="2.12763">
        <ele>222</ele>
        <time>2025-09-02T12:08:21.000Z</time>
      </trkpt>
      <trkpt lat="43.9162" lon="2.1276">
        <ele>222</ele>
        <time>2025-09-02T12:08:26.000Z</time>
      </trkpt>
      <trkpt lat="43.91619" lon="2.12754">
        <ele>221</ele>
        <time>2025-09-02T12:08:31.000Z</time>
      </trkpt>
      <trkpt lat="43.9162" lon="2.12744">
        <ele>220</ele>
        <time>2025-09-02T12:08:36.000Z</time>
      </trkpt>
      <trkpt lat="43.91621" lon="2.12736">
        <ele>220</ele>
        <time>2025-09-02T12:08:41.000Z</time>
      </trkpt>
      <trkpt lat="43.91623" lon="2.12728">
        <ele>220</ele>
        <time>2025-09-02T12:08:46.000Z</time>
      </trkpt>
      <trkpt lat="43.91624" lon="2.12722">
        <ele>221</ele>
        <time>2025-09-02T12:08:51.000Z</time>
      </trkpt>
      <trkpt lat="43.91625" lon="2.12715">
        <ele>221</ele>
        <time>2025-09-02T12:08:56.000Z</time>
      </trkpt>
      <trkpt lat="43.91626" lon="2.12706">
        <ele>221</ele>
        <time>2025-09-02T12:09:01.000Z</time>
      </trkpt>
      <trkpt lat="43.91628" lon="2.12698">
        <ele>220</ele>
        <time>2025-09-02T12:09:06.000Z</time>
      </trkpt>
      <trkpt lat="43.9163" lon="2.12692">
        <ele>219</ele>
        <time>2025-09-02T12:09:11.000Z</time>
      </trkpt>
      <trkpt lat="43.91632" lon="2.12684">
        <ele>219</ele>
        <time>2025-09-02T12:09:16.000Z</time>
      </trkpt>
      <trkpt lat="43.91633" lon="2.12676">
        <ele>218</ele>
        <time>2025-09-02T12:09:21.000Z</time>
      </trkpt>
      <trkpt lat="43.91636" lon="2.12666">
        <ele>219</ele>
        <time>2025-09-02T12:09:26.000Z</time>
      </trkpt>
      <trkpt lat="43.91638" lon="2.12657">
        <ele>218</ele>
        <time>2025-09-02T12:09:31.000Z</time>
      </trkpt>
      <trkpt lat="43.91641" lon="2.12648">
        <ele>217</ele>
        <time>2025-09-02T12:09:36.000Z</time>
      </trkpt>
      <trkpt lat="43.91643" lon="2.1264">
        <ele>217</ele>
        <time>2025-09-02T12:09:41.000Z</time>
      </trkpt>
      <trkpt lat="43.91645" lon="2.12634">
        <ele>216</ele>
        <time>2025-09-02T12:09:46.000Z</time>
      </trkpt>
      <trkpt lat="43.91648" lon="2.12624">
        <ele>216</ele>
        <time>2025-09-02T12:09:51.000Z</time>
      </trkpt>
      <trkpt lat="43.91651" lon="2.12616">
        <ele>216</ele>
        <time>2025-09-02T12:09:56.000Z</time>
      </trkpt>
      <trkpt lat="43.91652" lon="2.1261">
        <ele>217</ele>
        <time>2025-09-02T12:10:01.000Z</time>
      </trkpt>
      <trkpt lat="43.91654" lon="2.12603">
        <ele>219</ele>
        <time>2025-09-02T12:10:06.000Z</time>
      </trkpt>
      <trkpt lat="43.91655" lon="2.12596">
        <ele>219</ele>
        <time>2025-09-02T12:10:11.000Z</time>
      </trkpt>
      <trkpt lat="43.91656" lon="2.12589">
        <ele>220</ele>
        <time>2025-09-02T12:10:16.000Z</time>
      </trkpt>
      <trkpt lat="43.91659" lon="2.1258">
        <ele>220</ele>
        <time>2025-09-02T12:10:21.000Z</time>
      </trkpt>
      <trkpt lat="43.9166" lon="2.12573">
        <ele>220</ele>
        <time>2025-09-02T12:10:26.000Z</time>
      </trkpt>
      <trkpt lat="43.91661" lon="2.12564">
        <ele>221</ele>
        <time>2025-09-02T12:10:31.000Z</time>
      </trkpt>
      <trkpt lat="43.91663" lon="2.12556">
        <ele>221</ele>
        <time>2025-09-02T12:10:36.000Z</time>
      </trkpt>
      <trkpt lat="43.91666" lon="2.12548">
        <ele>221</ele>
        <time>2025-09-02T12:10:41.000Z</time>
      </trkpt>
      <trkpt lat="43.91668" lon="2.12542">
        <ele>220</ele>
        <time>2025-09-02T12:10:46.000Z</time>
      </trkpt>
      <trkpt lat="43.91671" lon="2.12533">
        <ele>220</ele>
        <time>2025-09-02T12:10:51.000Z</time>
      </trkpt>
      <trkpt lat="43.91673" lon="2.12526">
        <ele>220</ele>
        <time>2025-09-02T12:10:56.000Z</time>
      </trkpt>
      <trkpt lat="43.91673" lon="2.12519">
        <ele>221</ele>
        <time>2025-09-02T12:11:01.000Z</time>
      </trkpt>
      <trkpt lat="43.91674" lon="2.12511">
        <ele>222</ele>
        <time>2025-09-02T12:11:06.000Z</time>
      </trkpt>
      <trkpt lat="43.91674" lon="2.12509">
        <ele>225</ele>
        <time>2025-09-02T12:11:11.000Z</time>
      </trkpt>
      <trkpt lat="43.91675" lon="2.125">
        <ele>225</ele>
        <time>2025-09-02T12:11:16.000Z</time>
      </trkpt>
      <trkpt lat="43.91676" lon="2.1249">
        <ele>224</ele>
        <time>2025-09-02T12:11:21.000Z</time>
      </trkpt>
      <trkpt lat="43.91676" lon="2.1248">
        <ele>223</ele>
        <time>2025-09-02T12:11:26.000Z</time>
      </trkpt>
      <trkpt lat="43.91678" lon="2.1247">
        <ele>223</ele>
        <time>2025-09-02T12:11:31.000Z</time>
      </trkpt>
      <trkpt lat="43.91679" lon="2.12462">
        <ele>223</ele>
        <time>2025-09-02T12:11:36.000Z</time>
      </trkpt>
      <trkpt lat="43.9168" lon="2.12455">
        <ele>222</ele>
        <time>2025-09-02T12:11:41.000Z</time>
      </trkpt>
      <trkpt lat="43.9168" lon="2.12447">
        <ele>223</ele>
        <time>2025-09-02T12:11:46.000Z</time>
      </trkpt>
      <trkpt lat="43.91681" lon="2.12439">
        <ele>222</ele>
        <time>2025-09-02T12:11:51.000Z</time>
      </trkpt>
      <trkpt lat="43.91682" lon="2.12432">
        <ele>220</ele>
        <time>2025-09-02T12:11:56.000Z</time>
      </trkpt>
      <trkpt lat="43.91682" lon="2.12424">
        <ele>220</ele>
        <time>2025-09-02T12:12:01.000Z</time>
      </trkpt>
      <trkpt lat="43.91683" lon="2.12416">
        <ele>220</ele>
        <time>2025-09-02T12:12:06.000Z</time>
      </trkpt>
      <trkpt lat="43.91684" lon="2.1241">
        <ele>219</ele>
        <time>2025-09-02T12:12:11.000Z</time>
      </trkpt>
      <trkpt lat="43.91685" lon="2.12402">
        <ele>218</ele>
        <time>2025-09-02T12:12:16.000Z</time>
      </trkpt>
      <trkpt lat="43.91685" lon="2.12393">
        <ele>218</ele>
        <time>2025-09-02T12:12:21.000Z</time>
      </trkpt>
      <trkpt lat="43.91681" lon="2.12387">
        <ele>219</ele>
        <time>2025-09-02T12:12:26.000Z</time>
      </trkpt>
      <trkpt lat="43.91678" lon="2.12382">
        <ele>220</ele>
        <time>2025-09-02T12:12:31.000Z</time>
      </trkpt>
      <trkpt lat="43.91674" lon="2.12377">
        <ele>220</ele>
        <time>2025-09-02T12:12:36.000Z</time>
      </trkpt>
      <trkpt lat="43.91669" lon="2.12374">
        <ele>220</ele>
        <time>2025-09-02T12:12:41.000Z</time>
      </trkpt>
      <trkpt lat="43.91663" lon="2.12369">
        <ele>220</ele>
        <time>2025-09-02T12:12:46.000Z</time>
      </trkpt>
      <trkpt lat="43.91657" lon="2.12365">
        <ele>219</ele>
        <time>2025-09-02T12:12:51.000Z</time>
      </trkpt>
      <trkpt lat="43.91652" lon="2.12361">
        <ele>220</ele>
        <time>2025-09-02T12:12:56.000Z</time>
      </trkpt>
      <trkpt lat="43.91649" lon="2.12357">
        <ele>220</ele>
        <time>2025-09-02T12:13:01.000Z</time>
      </trkpt>
      <trkpt lat="43.91646" lon="2.12353">
        <ele>221</ele>
        <time>2025-09-02T12:13:06.000Z</time>
      </trkpt>
      <trkpt lat="43.91641" lon="2.12349">
        <ele>222</ele>
        <time>2025-09-02T12:13:11.000Z</time>
      </trkpt>
      <trkpt lat="43.91634" lon="2.12347">
        <ele>223</ele>
        <time>2025-09-02T12:13:16.000Z</time>
      </trkpt>
      <trkpt lat="43.91628" lon="2.12343">
        <ele>223</ele>
        <time>2025-09-02T12:13:21.000Z</time>
      </trkpt>
      <trkpt lat="43.91621" lon="2.12341">
        <ele>221</ele>
        <time>2025-09-02T12:13:26.000Z</time>
      </trkpt>
      <trkpt lat="43.91614" lon="2.12339">
        <ele>221</ele>
        <time>2025-09-02T12:13:31.000Z</time>
      </trkpt>
      <trkpt lat="43.91607" lon="2.12337">
        <ele>221</ele>
        <time>2025-09-02T12:13:36.000Z</time>
      </trkpt>
      <trkpt lat="43.916" lon="2.12335">
        <ele>221</ele>
        <time>2025-09-02T12:13:41.000Z</time>
      </trkpt>
      <trkpt lat="43.91596" lon="2.12334">
        <ele>220</ele>
        <time>2025-09-02T12:13:46.000Z</time>
      </trkpt>
      <trkpt lat="43.91593" lon="2.12332">
        <ele>219</ele>
        <time>2025-09-02T12:13:51.000Z</time>
      </trkpt>
      <trkpt lat="43.91589" lon="2.12331">
        <ele>221</ele>
        <time>2025-09-02T12:13:56.000Z</time>
      </trkpt>
      <trkpt lat="43.91582" lon="2.12329">
        <ele>220</ele>
        <time>2025-09-02T12:14:01.000Z</time>
      </trkpt>
      <trkpt lat="43.91576" lon="2.12327">
        <ele>221</ele>
        <time>2025-09-02T12:14:06.000Z</time>
      </trkpt>
      <trkpt lat="43.91572" lon="2.12326">
        <ele>221</ele>
        <time>2025-09-02T12:14:11.000Z</time>
      </trkpt>
      <trkpt lat="43.91566" lon="2.12322">
        <ele>223</ele>
        <time>2025-09-02T12:14:16.000Z</time>
      </trkpt>
      <trkpt lat="43.9156" lon="2.12321">
        <ele>223</ele>
        <time>2025-09-02T12:14:21.000Z</time>
      </trkpt>
      <trkpt lat="43.91556" lon="2.12319">
        <ele>223</ele>
        <time>2025-09-02T12:14:26.000Z</time>
      </trkpt>
      <trkpt lat="43.9155" lon="2.12317">
        <ele>223</ele>
        <time>2025-09-02T12:14:31.000Z</time>
      </trkpt>
      <trkpt lat="43.91545" lon="2.12314">
        <ele>224</ele>
        <time>2025-09-02T12:14:36.000Z</time>
      </trkpt>
      <trkpt lat="43.9154" lon="2.12311">
        <ele>225</ele>
        <time>2025-09-02T12:14:41.000Z</time>
      </trkpt>
      <trkpt lat="43.91534" lon="2.12308">
        <ele>224</ele>
        <time>2025-09-02T12:14:46.000Z</time>
      </trkpt>
      <trkpt lat="43.91529" lon="2.12304">
        <ele>223</ele>
        <time>2025-09-02T12:14:51.000Z</time>
      </trkpt>
      <trkpt lat="43.91524" lon="2.123">
        <ele>223</ele>
        <time>2025-09-02T12:14:56.000Z</time>
      </trkpt>
      <trkpt lat="43.91519" lon="2.12298">
        <ele>224</ele>
        <time>2025-09-02T12:15:01.000Z</time>
      </trkpt>
      <trkpt lat="43.91514" lon="2.12294">
        <ele>224</ele>
        <time>2025-09-02T12:15:06.000Z</time>
      </trkpt>
      <trkpt lat="43.91509" lon="2.12292">
        <ele>224</ele>
        <time>2025-09-02T12:15:11.000Z</time>
      </trkpt>
      <trkpt lat="43.91504" lon="2.1229">
        <ele>222</ele>
        <time>2025-09-02T12:15:16.000Z</time>
      </trkpt>
      <trkpt lat="43.91495" lon="2.12286">
        <ele>222</ele>
        <time>2025-09-02T12:15:21.000Z</time>
      </trkpt>
      <trkpt lat="43.9149" lon="2.12283">
        <ele>224</ele>
        <time>2025-09-02T12:15:26.000Z</time>
      </trkpt>
      <trkpt lat="43.91488" lon="2.12283">
        <ele>225</ele>
        <time>2025-09-02T12:15:31.000Z</time>
      </trkpt>
      <trkpt lat="43.91486" lon="2.12279">
        <ele>226</ele>
        <time>2025-09-02T12:15:36.000Z</time>
      </trkpt>
      <trkpt lat="43.91483" lon="2.12279">
        <ele>227</ele>
        <time>2025-09-02T12:15:41.000Z</time>
      </trkpt>
      <trkpt lat="43.91454" lon="2.12263">
        <ele>227</ele>
        <time>2025-09-02T12:15:54.000Z</time>
      </trkpt>
      <trkpt lat="43.91449" lon="2.12257">
        <ele>225</ele>
        <time>2025-09-02T12:15:59.000Z</time>
      </trkpt>
      <trkpt lat="43.91446" lon="2.12253">
        <ele>223</ele>
        <time>2025-09-02T12:16:04.000Z</time>
      </trkpt>
      <trkpt lat="43.91445" lon="2.12246">
        <ele>220</ele>
        <time>2025-09-02T12:16:09.000Z</time>
      </trkpt>
      <trkpt lat="43.91444" lon="2.1224">
        <ele>221</ele>
        <time>2025-09-02T12:16:14.000Z</time>
      </trkpt>
      <trkpt lat="43.9144" lon="2.12232">
        <ele>222</ele>
        <time>2025-09-02T12:16:19.000Z</time>
      </trkpt>
      <trkpt lat="43.91435" lon="2.1223">
        <ele>221</ele>
        <time>2025-09-02T12:16:24.000Z</time>
      </trkpt>
      <trkpt lat="43.91431" lon="2.1223">
        <ele>224</ele>
        <time>2025-09-02T12:16:29.000Z</time>
      </trkpt>
      <trkpt lat="43.91424" lon="2.12233">
        <ele>224</ele>
        <time>2025-09-02T12:16:34.000Z</time>
      </trkpt>
      <trkpt lat="43.91419" lon="2.12235">
        <ele>223</ele>
        <time>2025-09-02T12:16:39.000Z</time>
      </trkpt>
      <trkpt lat="43.91414" lon="2.12235">
        <ele>224</ele>
        <time>2025-09-02T12:16:44.000Z</time>
      </trkpt>
      <trkpt lat="43.9141" lon="2.12233">
        <ele>223</ele>
        <time>2025-09-02T12:16:49.000Z</time>
      </trkpt>
      <trkpt lat="43.91405" lon="2.1223">
        <ele>222</ele>
        <time>2025-09-02T12:16:54.000Z</time>
      </trkpt>
      <trkpt lat="43.91401" lon="2.12227">
        <ele>223</ele>
        <time>2025-09-02T12:16:59.000Z</time>
      </trkpt>
      <trkpt lat="43.91396" lon="2.12224">
        <ele>223</ele>
        <time>2025-09-02T12:17:04.000Z</time>
      </trkpt>
      <trkpt lat="43.91391" lon="2.1222">
        <ele>222</ele>
        <time>2025-09-02T12:17:09.000Z</time>
      </trkpt>
      <trkpt lat="43.91385" lon="2.12216">
        <ele>221</ele>
        <time>2025-09-02T12:17:14.000Z</time>
      </trkpt>
      <trkpt lat="43.9138" lon="2.12213">
        <ele>221</ele>
        <time>2025-09-02T12:17:19.000Z</time>
      </trkpt>
      <trkpt lat="43.91375" lon="2.12209">
        <ele>220</ele>
        <time>2025-09-02T12:17:24.000Z</time>
      </trkpt>
      <trkpt lat="43.91369" lon="2.12205">
        <ele>221</ele>
        <time>2025-09-02T12:17:29.000Z</time>
      </trkpt>
      <trkpt lat="43.91363" lon="2.122">
        <ele>221</ele>
        <time>2025-09-02T12:17:34.000Z</time>
      </trkpt>
      <trkpt lat="43.91357" lon="2.12195">
        <ele>220</ele>
        <time>2025-09-02T12:17:39.000Z</time>
      </trkpt>
      <trkpt lat="43.91351" lon="2.12191">
        <ele>219</ele>
        <time>2025-09-02T12:17:44.000Z</time>
      </trkpt>
      <trkpt lat="43.91349" lon="2.12189">
        <ele>221</ele>
        <time>2025-09-02T12:17:49.000Z</time>
      </trkpt>
      <trkpt lat="43.91344" lon="2.12185">
        <ele>222</ele>
        <time>2025-09-02T12:17:54.000Z</time>
      </trkpt>
      <trkpt lat="43.91339" lon="2.12181">
        <ele>223</ele>
        <time>2025-09-02T12:17:59.000Z</time>
      </trkpt>
      <trkpt lat="43.91335" lon="2.12175">
        <ele>223</ele>
        <time>2025-09-02T12:18:04.000Z</time>
      </trkpt>
      <trkpt lat="43.91329" lon="2.1217">
        <ele>222</ele>
        <time>2025-09-02T12:18:09.000Z</time>
      </trkpt>
      <trkpt lat="43.91323" lon="2.12166">
        <ele>221</ele>
        <time>2025-09-02T12:18:14.000Z</time>
      </trkpt>
      <trkpt lat="43.91317" lon="2.12162">
        <ele>221</ele>
        <time>2025-09-02T12:18:19.000Z</time>
      </trkpt>
      <trkpt lat="43.91313" lon="2.12157">
        <ele>221</ele>
        <time>2025-09-02T12:18:24.000Z</time>
      </trkpt>
      <trkpt lat="43.91307" lon="2.12154">
        <ele>221</ele>
        <time>2025-09-02T12:18:29.000Z</time>
      </trkpt>
      <trkpt lat="43.91301" lon="2.12149">
        <ele>220</ele>
        <time>2025-09-02T12:18:34.000Z</time>
      </trkpt>
      <trkpt lat="43.91295" lon="2.12144">
        <ele>219</ele>
        <time>2025-09-02T12:18:39.000Z</time>
      </trkpt>
      <trkpt lat="43.9129" lon="2.12139">
        <ele>220</ele>
        <time>2025-09-02T12:18:44.000Z</time>
      </trkpt>
      <trkpt lat="43.91287" lon="2.12137">
        <ele>221</ele>
        <time>2025-09-02T12:18:49.000Z</time>
      </trkpt>
      <trkpt lat="43.91281" lon="2.12133">
        <ele>222</ele>
        <time>2025-09-02T12:18:54.000Z</time>
      </trkpt>
      <trkpt lat="43.91275" lon="2.12127">
        <ele>221</ele>
        <time>2025-09-02T12:18:59.000Z</time>
      </trkpt>
      <trkpt lat="43.91271" lon="2.12124">
        <ele>222</ele>
        <time>2025-09-02T12:19:04.000Z</time>
      </trkpt>
      <trkpt lat="43.91265" lon="2.12121">
        <ele>223</ele>
        <time>2025-09-02T12:19:09.000Z</time>
      </trkpt>
      <trkpt lat="43.91261" lon="2.12116">
        <ele>223</ele>
        <time>2025-09-02T12:19:14.000Z</time>
      </trkpt>
      <trkpt lat="43.91257" lon="2.12113">
        <ele>223</ele>
        <time>2025-09-02T12:19:19.000Z</time>
      </trkpt>
      <trkpt lat="43.91252" lon="2.12111">
        <ele>224</ele>
        <time>2025-09-02T12:19:24.000Z</time>
      </trkpt>
      <trkpt lat="43.91246" lon="2.12104">
        <ele>224</ele>
        <time>2025-09-02T12:19:29.000Z</time>
      </trkpt>
      <trkpt lat="43.9124" lon="2.12099">
        <ele>223</ele>
        <time>2025-09-02T12:19:34.000Z</time>
      </trkpt>
      <trkpt lat="43.91234" lon="2.12095">
        <ele>223</ele>
        <time>2025-09-02T12:19:39.000Z</time>
      </trkpt>
      <trkpt lat="43.9123" lon="2.1209">
        <ele>223</ele>
        <time>2025-09-02T12:19:44.000Z</time>
      </trkpt>
      <trkpt lat="43.91226" lon="2.12088">
        <ele>223</ele>
        <time>2025-09-02T12:19:49.000Z</time>
      </trkpt>
      <trkpt lat="43.9122" lon="2.12093">
        <ele>225</ele>
        <time>2025-09-02T12:19:54.000Z</time>
      </trkpt>
      <trkpt lat="43.91215" lon="2.12091">
        <ele>224</ele>
        <time>2025-09-02T12:19:59.000Z</time>
      </trkpt>
      <trkpt lat="43.9121" lon="2.12087">
        <ele>223</ele>
        <time>2025-09-02T12:20:04.000Z</time>
      </trkpt>
      <trkpt lat="43.91207" lon="2.12083">
        <ele>223</ele>
        <time>2025-09-02T12:20:09.000Z</time>
      </trkpt>
      <trkpt lat="43.91204" lon="2.12077">
        <ele>225</ele>
        <time>2025-09-02T12:20:14.000Z</time>
      </trkpt>
      <trkpt lat="43.91198" lon="2.12072">
        <ele>226</ele>
        <time>2025-09-02T12:20:19.000Z</time>
      </trkpt>
      <trkpt lat="43.91195" lon="2.12069">
        <ele>226</ele>
        <time>2025-09-02T12:20:24.000Z</time>
      </trkpt>
      <trkpt lat="43.91191" lon="2.12063">
        <ele>227</ele>
        <time>2025-09-02T12:20:29.000Z</time>
      </trkpt>
      <trkpt lat="43.91187" lon="2.12059">
        <ele>226</ele>
        <time>2025-09-02T12:20:34.000Z</time>
      </trkpt>
      <trkpt lat="43.91181" lon="2.12055">
        <ele>228</ele>
        <time>2025-09-02T12:20:39.000Z</time>
      </trkpt>
      <trkpt lat="43.91176" lon="2.12049">
        <ele>228</ele>
        <time>2025-09-02T12:20:44.000Z</time>
      </trkpt>
      <trkpt lat="43.9117" lon="2.12046">
        <ele>227</ele>
        <time>2025-09-02T12:20:49.000Z</time>
      </trkpt>
      <trkpt lat="43.91163" lon="2.12045">
        <ele>227</ele>
        <time>2025-09-02T12:20:54.000Z</time>
      </trkpt>
      <trkpt lat="43.91157" lon="2.12044">
        <ele>226</ele>
        <time>2025-09-02T12:20:59.000Z</time>
      </trkpt>
      <trkpt lat="43.91151" lon="2.12043">
        <ele>224</ele>
        <time>2025-09-02T12:21:04.000Z</time>
      </trkpt>
      <trkpt lat="43.91145" lon="2.12041">
        <ele>224</ele>
        <time>2025-09-02T12:21:09.000Z</time>
      </trkpt>
      <trkpt lat="43.9114" lon="2.12039">
        <ele>224</ele>
        <time>2025-09-02T12:21:14.000Z</time>
      </trkpt>
      <trkpt lat="43.91133" lon="2.12037">
        <ele>224</ele>
        <time>2025-09-02T12:21:19.000Z</time>
      </trkpt>
      <trkpt lat="43.91127" lon="2.12036">
        <ele>225</ele>
        <time>2025-09-02T12:21:24.000Z</time>
      </trkpt>
      <trkpt lat="43.91121" lon="2.12034">
        <ele>224</ele>
        <time>2025-09-02T12:21:29.000Z</time>
      </trkpt>
      <trkpt lat="43.91115" lon="2.12032">
        <ele>224</ele>
        <time>2025-09-02T12:21:34.000Z</time>
      </trkpt>
      <trkpt lat="43.91108" lon="2.1203">
        <ele>224</ele>
        <time>2025-09-02T12:21:39.000Z</time>
      </trkpt>
      <trkpt lat="43.91103" lon="2.12027">
        <ele>223</ele>
        <time>2025-09-02T12:21:44.000Z</time>
      </trkpt>
      <trkpt lat="43.91097" lon="2.12023">
        <ele>224</ele>
        <time>2025-09-02T12:21:49.000Z</time>
      </trkpt>
      <trkpt lat="43.91092" lon="2.12019">
        <ele>223</ele>
        <time>2025-09-02T12:21:54.000Z</time>
      </trkpt>
      <trkpt lat="43.91087" lon="2.12016">
        <ele>223</ele>
        <time>2025-09-02T12:21:59.000Z</time>
      </trkpt>
      <trkpt lat="43.91082" lon="2.12012">
        <ele>223</ele>
        <time>2025-09-02T12:22:04.000Z</time>
      </trkpt>
      <trkpt lat="43.91076" lon="2.12008">
        <ele>222</ele>
        <time>2025-09-02T12:22:09.000Z</time>
      </trkpt>
      <trkpt lat="43.91071" lon="2.12001">
        <ele>223</ele>
        <time>2025-09-02T12:22:14.000Z</time>
      </trkpt>
      <trkpt lat="43.91067" lon="2.11997">
        <ele>224</ele>
        <time>2025-09-02T12:22:19.000Z</time>
      </trkpt>
      <trkpt lat="43.91062" lon="2.11992">
        <ele>224</ele>
        <time>2025-09-02T12:22:24.000Z</time>
      </trkpt>
      <trkpt lat="43.91059" lon="2.11987">
        <ele>225</ele>
        <time>2025-09-02T12:22:29.000Z</time>
      </trkpt>
      <trkpt lat="43.91054" lon="2.11984">
        <ele>226</ele>
        <time>2025-09-02T12:22:34.000Z</time>
      </trkpt>
      <trkpt lat="43.91048" lon="2.11979">
        <ele>224</ele>
        <time>2025-09-02T12:22:39.000Z</time>
      </trkpt>
      <trkpt lat="43.91043" lon="2.11974">
        <ele>224</ele>
        <time>2025-09-02T12:22:44.000Z</time>
      </trkpt>
      <trkpt lat="43.91038" lon="2.11969">
        <ele>225</ele>
        <time>2025-09-02T12:22:49.000Z</time>
      </trkpt>
      <trkpt lat="43.91034" lon="2.11964">
        <ele>226</ele>
        <time>2025-09-02T12:22:54.000Z</time>
      </trkpt>
      <trkpt lat="43.91029" lon="2.1196">
        <ele>224</ele>
        <time>2025-09-02T12:22:59.000Z</time>
      </trkpt>
      <trkpt lat="43.91024" lon="2.11955">
        <ele>226</ele>
        <time>2025-09-02T12:23:04.000Z</time>
      </trkpt>
      <trkpt lat="43.91019" lon="2.1195">
        <ele>226</ele>
        <time>2025-09-02T12:23:09.000Z</time>
      </trkpt>
      <trkpt lat="43.91014" lon="2.11946">
        <ele>225</ele>
        <time>2025-09-02T12:23:14.000Z</time>
      </trkpt>
      <trkpt lat="43.91009" lon="2.11941">
        <ele>225</ele>
        <time>2025-09-02T12:23:19.000Z</time>
      </trkpt>
      <trkpt lat="43.91003" lon="2.11936">
        <ele>226</ele>
        <time>2025-09-02T12:23:24.000Z</time>
      </trkpt>
      <trkpt lat="43.90999" lon="2.11932">
        <ele>226</ele>
        <time>2025-09-02T12:23:29.000Z</time>
      </trkpt>
      <trkpt lat="43.90995" lon="2.11927">
        <ele>228</ele>
        <time>2025-09-02T12:23:34.000Z</time>
      </trkpt>
      <trkpt lat="43.9099" lon="2.11922">
        <ele>228</ele>
        <time>2025-09-02T12:23:39.000Z</time>
      </trkpt>
      <trkpt lat="43.90984" lon="2.11917">
        <ele>228</ele>
        <time>2025-09-02T12:23:44.000Z</time>
      </trkpt>
      <trkpt lat="43.90978" lon="2.11912">
        <ele>229</ele>
        <time>2025-09-02T12:23:49.000Z</time>
      </trkpt>
      <trkpt lat="43.90973" lon="2.11907">
        <ele>227</ele>
        <time>2025-09-02T12:23:54.000Z</time>
      </trkpt>
      <trkpt lat="43.90969" lon="2.11902">
        <ele>229</ele>
        <time>2025-09-02T12:23:59.000Z</time>
      </trkpt>
      <trkpt lat="43.90964" lon="2.11897">
        <ele>229</ele>
        <time>2025-09-02T12:24:04.000Z</time>
      </trkpt>
      <trkpt lat="43.90958" lon="2.11891">
        <ele>227</ele>
        <time>2025-09-02T12:24:09.000Z</time>
      </trkpt>
      <trkpt lat="43.90957" lon="2.11884">
        <ele>226</ele>
        <time>2025-09-02T12:24:14.000Z</time>
      </trkpt>
      <trkpt lat="43.90955" lon="2.11879">
        <ele>227</ele>
        <time>2025-09-02T12:24:19.000Z</time>
      </trkpt>
      <trkpt lat="43.90952" lon="2.11875">
        <ele>228</ele>
        <time>2025-09-02T12:24:24.000Z</time>
      </trkpt>
      <trkpt lat="43.90948" lon="2.11871">
        <ele>229</ele>
        <time>2025-09-02T12:24:29.000Z</time>
      </trkpt>
      <trkpt lat="43.90943" lon="2.11866">
        <ele>229</ele>
        <time>2025-09-02T12:24:34.000Z</time>
      </trkpt>
      <trkpt lat="43.9094" lon="2.11859">
        <ele>230</ele>
        <time>2025-09-02T12:24:39.000Z</time>
      </trkpt>
      <trkpt lat="43.90937" lon="2.11852">
        <ele>229</ele>
        <time>2025-09-02T12:24:44.000Z</time>
      </trkpt>
      <trkpt lat="43.90934" lon="2.11842">
        <ele>230</ele>
        <time>2025-09-02T12:24:49.000Z</time>
      </trkpt>
      <trkpt lat="43.9093" lon="2.11833">
        <ele>231</ele>
        <time>2025-09-02T12:24:54.000Z</time>
      </trkpt>
      <trkpt lat="43.90929" lon="2.11829">
        <ele>231</ele>
        <time>2025-09-02T12:24:59.000Z</time>
      </trkpt>
      <trkpt lat="43.90926" lon="2.11822">
        <ele>231</ele>
        <time>2025-09-02T12:25:04.000Z</time>
      </trkpt>
      <trkpt lat="43.90924" lon="2.11815">
        <ele>231</ele>
        <time>2025-09-02T12:25:09.000Z</time>
      </trkpt>
      <trkpt lat="43.90921" lon="2.11808">
        <ele>232</ele>
        <time>2025-09-02T12:25:14.000Z</time>
      </trkpt>
      <trkpt lat="43.90919" lon="2.11799">
        <ele>230</ele>
        <time>2025-09-02T12:25:19.000Z</time>
      </trkpt>
      <trkpt lat="43.90918" lon="2.11791">
        <ele>229</ele>
        <time>2025-09-02T12:25:24.000Z</time>
      </trkpt>
      <trkpt lat="43.90915" lon="2.11784">
        <ele>229</ele>
        <time>2025-09-02T12:25:29.000Z</time>
      </trkpt>
      <trkpt lat="43.90913" lon="2.11777">
        <ele>229</ele>
        <time>2025-09-02T12:25:34.000Z</time>
      </trkpt>
      <trkpt lat="43.90909" lon="2.1177">
        <ele>229</ele>
        <time>2025-09-02T12:25:39.000Z</time>
      </trkpt>
      <trkpt lat="43.90907" lon="2.11763">
        <ele>229</ele>
        <time>2025-09-02T12:25:44.000Z</time>
      </trkpt>
      <trkpt lat="43.90905" lon="2.11756">
        <ele>230</ele>
        <time>2025-09-02T12:25:49.000Z</time>
      </trkpt>
      <trkpt lat="43.90902" lon="2.11748">
        <ele>231</ele>
        <time>2025-09-02T12:25:54.000Z</time>
      </trkpt>
      <trkpt lat="43.909" lon="2.11741">
        <ele>231</ele>
        <time>2025-09-02T12:25:59.000Z</time>
      </trkpt>
      <trkpt lat="43.90897" lon="2.11733">
        <ele>231</ele>
        <time>2025-09-02T12:26:04.000Z</time>
      </trkpt>
      <trkpt lat="43.90894" lon="2.11728">
        <ele>233</ele>
        <time>2025-09-02T12:26:09.000Z</time>
      </trkpt>
      <trkpt lat="43.90893" lon="2.11721">
        <ele>234</ele>
        <time>2025-09-02T12:26:14.000Z</time>
      </trkpt>
      <trkpt lat="43.9089" lon="2.11712">
        <ele>231</ele>
        <time>2025-09-02T12:26:19.000Z</time>
      </trkpt>
      <trkpt lat="43.90887" lon="2.11704">
        <ele>231</ele>
        <time>2025-09-02T12:26:24.000Z</time>
      </trkpt>
      <trkpt lat="43.90885" lon="2.11697">
        <ele>231</ele>
        <time>2025-09-02T12:26:29.000Z</time>
      </trkpt>
      <trkpt lat="43.90882" lon="2.11689">
        <ele>230</ele>
        <time>2025-09-02T12:26:34.000Z</time>
      </trkpt>
      <trkpt lat="43.90881" lon="2.11684">
        <ele>229</ele>
        <time>2025-09-02T12:26:39.000Z</time>
      </trkpt>
      <trkpt lat="43.90881" lon="2.11684">
        <ele>229</ele>
        <time>2025-09-02T12:26:44.000Z</time>
      </trkpt>
      <trkpt lat="43.9088" lon="2.11681">
        <ele>230</ele>
        <time>2025-09-02T12:26:49.000Z</time>
      </trkpt>
      <trkpt lat="43.90878" lon="2.11674">
        <ele>230</ele>
        <time>2025-09-02T12:26:54.000Z</time>
      </trkpt>
      <trkpt lat="43.90876" lon="2.11668">
        <ele>231</ele>
        <time>2025-09-02T12:26:59.000Z</time>
      </trkpt>
      <trkpt lat="43.90874" lon="2.11661">
        <ele>233</ele>
        <time>2025-09-02T12:27:04.000Z</time>
      </trkpt>
      <trkpt lat="43.90872" lon="2.11654">
        <ele>233</ele>
        <time>2025-09-02T12:27:09.000Z</time>
      </trkpt>
      <trkpt lat="43.90869" lon="2.11646">
        <ele>233</ele>
        <time>2025-09-02T12:27:14.000Z</time>
      </trkpt>
      <trkpt lat="43.90866" lon="2.11639">
        <ele>232</ele>
        <time>2025-09-02T12:27:19.000Z</time>
      </trkpt>
      <trkpt lat="43.90864" lon="2.11633">
        <ele>231</ele>
        <time>2025-09-02T12:27:24.000Z</time>
      </trkpt>
      <trkpt lat="43.90862" lon="2.11625">
        <ele>230</ele>
        <time>2025-09-02T12:27:29.000Z</time>
      </trkpt>
      <trkpt lat="43.90859" lon="2.11617">
        <ele>231</ele>
        <time>2025-09-02T12:27:34.000Z</time>
      </trkpt>
      <trkpt lat="43.90857" lon="2.11611">
        <ele>230</ele>
        <time>2025-09-02T12:27:39.000Z</time>
      </trkpt>
      <trkpt lat="43.90855" lon="2.11604">
        <ele>230</ele>
        <time>2025-09-02T12:27:44.000Z</time>
      </trkpt>
      <trkpt lat="43.90853" lon="2.11596">
        <ele>229</ele>
        <time>2025-09-02T12:27:49.000Z</time>
      </trkpt>
      <trkpt lat="43.90849" lon="2.11588">
        <ele>229</ele>
        <time>2025-09-02T12:27:54.000Z</time>
      </trkpt>
      <trkpt lat="43.90847" lon="2.11581">
        <ele>230</ele>
        <time>2025-09-02T12:27:59.000Z</time>
      </trkpt>
      <trkpt lat="43.90844" lon="2.11576">
        <ele>230</ele>
        <time>2025-09-02T12:28:04.000Z</time>
      </trkpt>
      <trkpt lat="43.90842" lon="2.11569">
        <ele>230</ele>
        <time>2025-09-02T12:28:09.000Z</time>
      </trkpt>
      <trkpt lat="43.90839" lon="2.11563">
        <ele>230</ele>
        <time>2025-09-02T12:28:14.000Z</time>
      </trkpt>
      <trkpt lat="43.90837" lon="2.11556">
        <ele>230</ele>
        <time>2025-09-02T12:28:19.000Z</time>
      </trkpt>
      <trkpt lat="43.90834" lon="2.11551">
        <ele>231</ele>
        <time>2025-09-02T12:28:24.000Z</time>
      </trkpt>
      <trkpt lat="43.90832" lon="2.11544">
        <ele>231</ele>
        <time>2025-09-02T12:28:29.000Z</time>
      </trkpt>
      <trkpt lat="43.9083" lon="2.11537">
        <ele>232</ele>
        <time>2025-09-02T12:28:34.000Z</time>
      </trkpt>
      <trkpt lat="43.90828" lon="2.11529">
        <ele>231</ele>
        <time>2025-09-02T12:28:39.000Z</time>
      </trkpt>
      <trkpt lat="43.90824" lon="2.11522">
        <ele>231</ele>
        <time>2025-09-02T12:28:44.000Z</time>
      </trkpt>
      <trkpt lat="43.90822" lon="2.11515">
        <ele>230</ele>
        <time>2025-09-02T12:28:49.000Z</time>
      </trkpt>
      <trkpt lat="43.9082" lon="2.11507">
        <ele>230</ele>
        <time>2025-09-02T12:28:54.000Z</time>
      </trkpt>
      <trkpt lat="43.90818" lon="2.115">
        <ele>230</ele>
        <time>2025-09-02T12:28:59.000Z</time>
      </trkpt>
      <trkpt lat="43.90815" lon="2.11492">
        <ele>229</ele>
        <time>2025-09-02T12:29:04.000Z</time>
      </trkpt>
      <trkpt lat="43.90813" lon="2.11486">
        <ele>230</ele>
        <time>2025-09-02T12:29:09.000Z</time>
      </trkpt>
      <trkpt lat="43.90811" lon="2.11481">
        <ele>231</ele>
        <time>2025-09-02T12:29:14.000Z</time>
      </trkpt>
      <trkpt lat="43.90809" lon="2.11474">
        <ele>232</ele>
        <time>2025-09-02T12:29:19.000Z</time>
      </trkpt>
      <trkpt lat="43.90805" lon="2.11466">
        <ele>232</ele>
        <time>2025-09-02T12:29:24.000Z</time>
      </trkpt>
      <trkpt lat="43.90802" lon="2.11459">
        <ele>233</ele>
        <time>2025-09-02T12:29:29.000Z</time>
      </trkpt>
      <trkpt lat="43.908" lon="2.11451">
        <ele>233</ele>
        <time>2025-09-02T12:29:34.000Z</time>
      </trkpt>
      <trkpt lat="43.90797" lon="2.11445">
        <ele>232</ele>
        <time>2025-09-02T12:29:39.000Z</time>
      </trkpt>
      <trkpt lat="43.90796" lon="2.11438">
        <ele>233</ele>
        <time>2025-09-02T12:29:44.000Z</time>
      </trkpt>
      <trkpt lat="43.90793" lon="2.11431">
        <ele>234</ele>
        <time>2025-09-02T12:29:49.000Z</time>
      </trkpt>
      <trkpt lat="43.9079" lon="2.11424">
        <ele>234</ele>
        <time>2025-09-02T12:29:54.000Z</time>
      </trkpt>
      <trkpt lat="43.90788" lon="2.11417">
        <ele>234</ele>
        <time>2025-09-02T12:29:59.000Z</time>
      </trkpt>
      <trkpt lat="43.90786" lon="2.11411">
        <ele>235</ele>
        <time>2025-09-02T12:30:04.000Z</time>
      </trkpt>
      <trkpt lat="43.90783" lon="2.11405">
        <ele>234</ele>
        <time>2025-09-02T12:30:09.000Z</time>
      </trkpt>
      <trkpt lat="43.9078" lon="2.11396">
        <ele>234</ele>
        <time>2025-09-02T12:30:14.000Z</time>
      </trkpt>
      <trkpt lat="43.90776" lon="2.11393">
        <ele>234</ele>
        <time>2025-09-02T12:30:19.000Z</time>
      </trkpt>
      <trkpt lat="43.90771" lon="2.11392">
        <ele>235</ele>
        <time>2025-09-02T12:30:24.000Z</time>
      </trkpt>
      <trkpt lat="43.90765" lon="2.11392">
        <ele>236</ele>
        <time>2025-09-02T12:30:29.000Z</time>
      </trkpt>
      <trkpt lat="43.9076" lon="2.11392">
        <ele>237</ele>
        <time>2025-09-02T12:30:34.000Z</time>
      </trkpt>
      <trkpt lat="43.90755" lon="2.11392">
        <ele>240</ele>
        <time>2025-09-02T12:30:39.000Z</time>
      </trkpt>
      <trkpt lat="43.90751" lon="2.11392">
        <ele>240</ele>
        <time>2025-09-02T12:30:44.000Z</time>
      </trkpt>
      <trkpt lat="43.90746" lon="2.11393">
        <ele>240</ele>
        <time>2025-09-02T12:30:49.000Z</time>
      </trkpt>
      <trkpt lat="43.9074" lon="2.11395">
        <ele>240</ele>
        <time>2025-09-02T12:30:54.000Z</time>
      </trkpt>
      <trkpt lat="43.90735" lon="2.11397">
        <ele>241</ele>
        <time>2025-09-02T12:30:59.000Z</time>
      </trkpt>
      <trkpt lat="43.90731" lon="2.11397">
        <ele>241</ele>
        <time>2025-09-02T12:31:04.000Z</time>
      </trkpt>
      <trkpt lat="43.90725" lon="2.11399">
        <ele>242</ele>
        <time>2025-09-02T12:31:09.000Z</time>
      </trkpt>
      <trkpt lat="43.90721" lon="2.11399">
        <ele>242</ele>
        <time>2025-09-02T12:31:14.000Z</time>
      </trkpt>
      <trkpt lat="43.90717" lon="2.114">
        <ele>243</ele>
        <time>2025-09-02T12:31:19.000Z</time>
      </trkpt>
      <trkpt lat="43.90713" lon="2.11401">
        <ele>244</ele>
        <time>2025-09-02T12:31:24.000Z</time>
      </trkpt>
      <trkpt lat="43.90708" lon="2.11402">
        <ele>243</ele>
        <time>2025-09-02T12:31:29.000Z</time>
      </trkpt>
      <trkpt lat="43.90703" lon="2.11403">
        <ele>244</ele>
        <time>2025-09-02T12:31:34.000Z</time>
      </trkpt>
      <trkpt lat="43.90698" lon="2.11403">
        <ele>244</ele>
        <time>2025-09-02T12:31:39.000Z</time>
      </trkpt>
      <trkpt lat="43.90694" lon="2.11404">
        <ele>244</ele>
        <time>2025-09-02T12:31:44.000Z</time>
      </trkpt>
      <trkpt lat="43.9069" lon="2.11407">
        <ele>244</ele>
        <time>2025-09-02T12:31:49.000Z</time>
      </trkpt>
      <trkpt lat="43.90686" lon="2.11408">
        <ele>243</ele>
        <time>2025-09-02T12:31:54.000Z</time>
      </trkpt>
      <trkpt lat="43.90686" lon="2.11408">
        <ele>243</ele>
        <time>2025-09-02T12:31:59.000Z</time>
      </trkpt>
      <trkpt lat="43.90686" lon="2.11409">
        <ele>243</ele>
        <time>2025-09-02T12:32:04.000Z</time>
      </trkpt>
      <trkpt lat="43.90683" lon="2.11409">
        <ele>243</ele>
        <time>2025-09-02T12:32:09.000Z</time>
      </trkpt>
      <trkpt lat="43.90677" lon="2.11411">
        <ele>244</ele>
        <time>2025-09-02T12:32:14.000Z</time>
      </trkpt>
      <trkpt lat="43.90674" lon="2.11411">
        <ele>245</ele>
        <time>2025-09-02T12:32:19.000Z</time>
      </trkpt>
      <trkpt lat="43.9067" lon="2.11411">
        <ele>247</ele>
        <time>2025-09-02T12:32:24.000Z</time>
      </trkpt>
      <trkpt lat="43.90667" lon="2.11411">
        <ele>250</ele>
        <time>2025-09-02T12:32:29.000Z</time>
      </trkpt>
      <trkpt lat="43.90662" lon="2.11412">
        <ele>250</ele>
        <time>2025-09-02T12:32:34.000Z</time>
      </trkpt>
      <trkpt lat="43.90659" lon="2.11413">
        <ele>251</ele>
        <time>2025-09-02T12:32:39.000Z</time>
      </trkpt>
      <trkpt lat="43.90654" lon="2.11414">
        <ele>252</ele>
        <time>2025-09-02T12:32:44.000Z</time>
      </trkpt>
      <trkpt lat="43.90649" lon="2.11415">
        <ele>250</ele>
        <time>2025-09-02T12:32:49.000Z</time>
      </trkpt>
      <trkpt lat="43.90644" lon="2.11415">
        <ele>251</ele>
        <time>2025-09-02T12:32:54.000Z</time>
      </trkpt>
      <trkpt lat="43.90639" lon="2.11415">
        <ele>251</ele>
        <time>2025-09-02T12:32:59.000Z</time>
      </trkpt>
      <trkpt lat="43.90636" lon="2.11417">
        <ele>251</ele>
        <time>2025-09-02T12:33:04.000Z</time>
      </trkpt>
      <trkpt lat="43.90633" lon="2.11415">
        <ele>252</ele>
        <time>2025-09-02T12:33:09.000Z</time>
      </trkpt>
      <trkpt lat="43.9063" lon="2.11413">
        <ele>253</ele>
        <time>2025-09-02T12:33:14.000Z</time>
      </trkpt>
      <trkpt lat="43.90626" lon="2.1141">
        <ele>252</ele>
        <time>2025-09-02T12:33:19.000Z</time>
      </trkpt>
      <trkpt lat="43.90621" lon="2.11406">
        <ele>253</ele>
        <time>2025-09-02T12:33:24.000Z</time>
      </trkpt>
      <trkpt lat="43.90618" lon="2.11401">
        <ele>255</ele>
        <time>2025-09-02T12:33:29.000Z</time>
      </trkpt>
      <trkpt lat="43.90615" lon="2.11397">
        <ele>256</ele>
        <time>2025-09-02T12:33:34.000Z</time>
      </trkpt>
      <trkpt lat="43.90611" lon="2.11391">
        <ele>256</ele>
        <time>2025-09-02T12:33:39.000Z</time>
      </trkpt>
      <trkpt lat="43.90607" lon="2.11386">
        <ele>257</ele>
        <time>2025-09-02T12:33:44.000Z</time>
      </trkpt>
      <trkpt lat="43.90602" lon="2.11381">
        <ele>256</ele>
        <time>2025-09-02T12:33:49.000Z</time>
      </trkpt>
      <trkpt lat="43.90598" lon="2.11376">
        <ele>256</ele>
        <time>2025-09-02T12:33:54.000Z</time>
      </trkpt>
      <trkpt lat="43.90593" lon="2.11372">
        <ele>255</ele>
        <time>2025-09-02T12:33:59.000Z</time>
      </trkpt>
      <trkpt lat="43.90587" lon="2.11368">
        <ele>254</ele>
        <time>2025-09-02T12:34:04.000Z</time>
      </trkpt>
      <trkpt lat="43.90583" lon="2.11364">
        <ele>254</ele>
        <time>2025-09-02T12:34:09.000Z</time>
      </trkpt>
      <trkpt lat="43.90579" lon="2.1136">
        <ele>255</ele>
        <time>2025-09-02T12:34:14.000Z</time>
      </trkpt>
      <trkpt lat="43.90574" lon="2.11358">
        <ele>254</ele>
        <time>2025-09-02T12:34:19.000Z</time>
      </trkpt>
      <trkpt lat="43.90569" lon="2.11353">
        <ele>255</ele>
        <time>2025-09-02T12:34:24.000Z</time>
      </trkpt>
      <trkpt lat="43.90564" lon="2.1135">
        <ele>255</ele>
        <time>2025-09-02T12:34:29.000Z</time>
      </trkpt>
      <trkpt lat="43.9056" lon="2.11348">
        <ele>256</ele>
        <time>2025-09-02T12:34:34.000Z</time>
      </trkpt>
      <trkpt lat="43.90555" lon="2.11346">
        <ele>255</ele>
        <time>2025-09-02T12:34:39.000Z</time>
      </trkpt>
      <trkpt lat="43.9055" lon="2.11344">
        <ele>255</ele>
        <time>2025-09-02T12:34:44.000Z</time>
      </trkpt>
      <trkpt lat="43.90544" lon="2.11342">
        <ele>254</ele>
        <time>2025-09-02T12:34:49.000Z</time>
      </trkpt>
      <trkpt lat="43.90539" lon="2.1134">
        <ele>254</ele>
        <time>2025-09-02T12:34:54.000Z</time>
      </trkpt>
      <trkpt lat="43.90532" lon="2.11341">
        <ele>253</ele>
        <time>2025-09-02T12:34:59.000Z</time>
      </trkpt>
      <trkpt lat="43.90524" lon="2.11341">
        <ele>254</ele>
        <time>2025-09-02T12:35:04.000Z</time>
      </trkpt>
      <trkpt lat="43.9052" lon="2.1134">
        <ele>256</ele>
        <time>2025-09-02T12:35:09.000Z</time>
      </trkpt>
      <trkpt lat="43.90514" lon="2.1134">
        <ele>259</ele>
        <time>2025-09-02T12:35:14.000Z</time>
      </trkpt>
      <trkpt lat="43.9051" lon="2.11341">
        <ele>260</ele>
        <time>2025-09-02T12:35:19.000Z</time>
      </trkpt>
      <trkpt lat="43.90504" lon="2.11342">
        <ele>260</ele>
        <time>2025-09-02T12:35:24.000Z</time>
      </trkpt>
      <trkpt lat="43.90497" lon="2.11344">
        <ele>259</ele>
        <time>2025-09-02T12:35:29.000Z</time>
      </trkpt>
      <trkpt lat="43.90491" lon="2.11344">
        <ele>259</ele>
        <time>2025-09-02T12:35:34.000Z</time>
      </trkpt>
      <trkpt lat="43.90485" lon="2.11345">
        <ele>259</ele>
        <time>2025-09-02T12:35:39.000Z</time>
      </trkpt>
      <trkpt lat="43.9048" lon="2.11347">
        <ele>261</ele>
        <time>2025-09-02T12:35:44.000Z</time>
      </trkpt>
      <trkpt lat="43.90477" lon="2.11348">
        <ele>260</ele>
        <time>2025-09-02T12:35:49.000Z</time>
      </trkpt>
      <trkpt lat="43.90473" lon="2.11347">
        <ele>260</ele>
        <time>2025-09-02T12:35:54.000Z</time>
      </trkpt>
      <trkpt lat="43.90469" lon="2.11344">
        <ele>261</ele>
        <time>2025-09-02T12:35:59.000Z</time>
      </trkpt>
      <trkpt lat="43.90463" lon="2.11343">
        <ele>261</ele>
        <time>2025-09-02T12:36:04.000Z</time>
      </trkpt>
      <trkpt lat="43.90456" lon="2.11343">
        <ele>259</ele>
        <time>2025-09-02T12:36:09.000Z</time>
      </trkpt>
      <trkpt lat="43.9045" lon="2.11344">
        <ele>258</ele>
        <time>2025-09-02T12:36:14.000Z</time>
      </trkpt>
      <trkpt lat="43.90444" lon="2.11348">
        <ele>260</ele>
        <time>2025-09-02T12:36:19.000Z</time>
      </trkpt>
      <trkpt lat="43.9044" lon="2.1135">
        <ele>260</ele>
        <time>2025-09-02T12:36:24.000Z</time>
      </trkpt>
      <trkpt lat="43.90436" lon="2.11351">
        <ele>260</ele>
        <time>2025-09-02T12:36:29.000Z</time>
      </trkpt>
      <trkpt lat="43.90435" lon="2.11348">
        <ele>261</ele>
        <time>2025-09-02T12:36:34.000Z</time>
      </trkpt>
      <trkpt lat="43.9043" lon="2.11345">
        <ele>260</ele>
        <time>2025-09-02T12:36:39.000Z</time>
      </trkpt>
      <trkpt lat="43.90422" lon="2.11347">
        <ele>261</ele>
        <time>2025-09-02T12:36:44.000Z</time>
      </trkpt>
      <trkpt lat="43.90418" lon="2.11347">
        <ele>263</ele>
        <time>2025-09-02T12:36:49.000Z</time>
      </trkpt>
      <trkpt lat="43.90415" lon="2.11349">
        <ele>264</ele>
        <time>2025-09-02T12:36:54.000Z</time>
      </trkpt>
      <trkpt lat="43.90411" lon="2.11353">
        <ele>265</ele>
        <time>2025-09-02T12:36:59.000Z</time>
      </trkpt>
      <trkpt lat="43.90407" lon="2.11356">
        <ele>265</ele>
        <time>2025-09-02T12:37:04.000Z</time>
      </trkpt>
      <trkpt lat="43.90405" lon="2.1136">
        <ele>266</ele>
        <time>2025-09-02T12:37:09.000Z</time>
      </trkpt>
      <trkpt lat="43.90401" lon="2.11365">
        <ele>263</ele>
        <time>2025-09-02T12:37:14.000Z</time>
      </trkpt>
      <trkpt lat="43.90398" lon="2.11366">
        <ele>263</ele>
        <time>2025-09-02T12:37:19.000Z</time>
      </trkpt>
      <trkpt lat="43.90393" lon="2.11364">
        <ele>264</ele>
        <time>2025-09-02T12:37:24.000Z</time>
      </trkpt>
      <trkpt lat="43.9039" lon="2.11364">
        <ele>263</ele>
        <time>2025-09-02T12:37:29.000Z</time>
      </trkpt>
      <trkpt lat="43.90389" lon="2.11362">
        <ele>263</ele>
        <time>2025-09-02T12:37:34.000Z</time>
      </trkpt>
      <trkpt lat="43.90388" lon="2.11355">
        <ele>262</ele>
        <time>2025-09-02T12:37:39.000Z</time>
      </trkpt>
      <trkpt lat="43.90387" lon="2.11346">
        <ele>262</ele>
        <time>2025-09-02T12:37:44.000Z</time>
      </trkpt>
      <trkpt lat="43.90387" lon="2.1134">
        <ele>263</ele>
        <time>2025-09-02T12:37:49.000Z</time>
      </trkpt>
      <trkpt lat="43.90386" lon="2.11334">
        <ele>264</ele>
        <time>2025-09-02T12:37:54.000Z</time>
      </trkpt>
      <trkpt lat="43.90386" lon="2.11326">
        <ele>262</ele>
        <time>2025-09-02T12:37:59.000Z</time>
      </trkpt>
      <trkpt lat="43.90386" lon="2.11321">
        <ele>263</ele>
        <time>2025-09-02T12:38:04.000Z</time>
      </trkpt>
      <trkpt lat="43.90386" lon="2.11315">
        <ele>262</ele>
        <time>2025-09-02T12:38:09.000Z</time>
      </trkpt>
      <trkpt lat="43.90386" lon="2.11306">
        <ele>260</ele>
        <time>2025-09-02T12:38:14.000Z</time>
      </trkpt>
      <trkpt lat="43.90386" lon="2.11299">
        <ele>261</ele>
        <time>2025-09-02T12:38:19.000Z</time>
      </trkpt>
      <trkpt lat="43.90383" lon="2.11291">
        <ele>261</ele>
        <time>2025-09-02T12:38:24.000Z</time>
      </trkpt>
      <trkpt lat="43.90381" lon="2.11287">
        <ele>262</ele>
        <time>2025-09-02T12:38:29.000Z</time>
      </trkpt>
      <trkpt lat="43.9038" lon="2.11282">
        <ele>262</ele>
        <time>2025-09-02T12:38:34.000Z</time>
      </trkpt>
      <trkpt lat="43.9038" lon="2.11277">
        <ele>262</ele>
        <time>2025-09-02T12:38:39.000Z</time>
      </trkpt>
      <trkpt lat="43.90381" lon="2.11271">
        <ele>262</ele>
        <time>2025-09-02T12:38:44.000Z</time>
      </trkpt>
      <trkpt lat="43.90381" lon="2.11263">
        <ele>263</ele>
        <time>2025-09-02T12:38:49.000Z</time>
      </trkpt>
      <trkpt lat="43.9038" lon="2.11257">
        <ele>263</ele>
        <time>2025-09-02T12:38:54.000Z</time>
      </trkpt>
      <trkpt lat="43.90379" lon="2.1125">
        <ele>263</ele>
        <time>2025-09-02T12:38:59.000Z</time>
      </trkpt>
      <trkpt lat="43.90379" lon="2.11243">
        <ele>265</ele>
        <time>2025-09-02T12:39:04.000Z</time>
      </trkpt>
      <trkpt lat="43.90378" lon="2.1124">
        <ele>265</ele>
        <time>2025-09-02T12:39:09.000Z</time>
      </trkpt>
      <trkpt lat="43.90379" lon="2.11234">
        <ele>266</ele>
        <time>2025-09-02T12:39:14.000Z</time>
      </trkpt>
      <trkpt lat="43.9038" lon="2.11228">
        <ele>265</ele>
        <time>2025-09-02T12:39:19.000Z</time>
      </trkpt>
      <trkpt lat="43.90381" lon="2.11219">
        <ele>266</ele>
        <time>2025-09-02T12:39:24.000Z</time>
      </trkpt>
      <trkpt lat="43.90382" lon="2.11212">
        <ele>263</ele>
        <time>2025-09-02T12:39:29.000Z</time>
      </trkpt>
      <trkpt lat="43.90383" lon="2.11205">
        <ele>264</ele>
        <time>2025-09-02T12:39:34.000Z</time>
      </trkpt>
      <trkpt lat="43.90383" lon="2.11198">
        <ele>264</ele>
        <time>2025-09-02T12:39:39.000Z</time>
      </trkpt>
      <trkpt lat="43.90384" lon="2.11193">
        <ele>263</ele>
        <time>2025-09-02T12:39:44.000Z</time>
      </trkpt>
      <trkpt lat="43.90385" lon="2.11187">
        <ele>263</ele>
        <time>2025-09-02T12:39:49.000Z</time>
      </trkpt>
      <trkpt lat="43.90387" lon="2.1118">
        <ele>264</ele>
        <time>2025-09-02T12:39:54.000Z</time>
      </trkpt>
      <trkpt lat="43.90388" lon="2.11171">
        <ele>263</ele>
        <time>2025-09-02T12:39:59.000Z</time>
      </trkpt>
      <trkpt lat="43.90388" lon="2.11163">
        <ele>263</ele>
        <time>2025-09-02T12:40:04.000Z</time>
      </trkpt>
      <trkpt lat="43.90386" lon="2.11157">
        <ele>263</ele>
        <time>2025-09-02T12:40:09.000Z</time>
      </trkpt>
      <trkpt lat="43.90385" lon="2.1115">
        <ele>263</ele>
        <time>2025-09-02T12:40:14.000Z</time>
      </trkpt>
      <trkpt lat="43.90385" lon="2.11144">
        <ele>263</ele>
        <time>2025-09-02T12:40:19.000Z</time>
      </trkpt>
      <trkpt lat="43.90384" lon="2.1114">
        <ele>266</ele>
        <time>2025-09-02T12:40:24.000Z</time>
      </trkpt>
      <trkpt lat="43.90383" lon="2.11134">
        <ele>265</ele>
        <time>2025-09-02T12:40:29.000Z</time>
      </trkpt>
      <trkpt lat="43.90382" lon="2.11129">
        <ele>266</ele>
        <time>2025-09-02T12:40:34.000Z</time>
      </trkpt>
      <trkpt lat="43.90382" lon="2.11122">
        <ele>265</ele>
        <time>2025-09-02T12:40:39.000Z</time>
      </trkpt>
      <trkpt lat="43.9038" lon="2.11114">
        <ele>267</ele>
        <time>2025-09-02T12:40:44.000Z</time>
      </trkpt>
      <trkpt lat="43.90379" lon="2.11109">
        <ele>267</ele>
        <time>2025-09-02T12:40:49.000Z</time>
      </trkpt>
      <trkpt lat="43.90379" lon="2.11104">
        <ele>269</ele>
        <time>2025-09-02T12:40:54.000Z</time>
      </trkpt>
      <trkpt lat="43.90377" lon="2.11096">
        <ele>268</ele>
        <time>2025-09-02T12:40:59.000Z</time>
      </trkpt>
      <trkpt lat="43.90375" lon="2.1109">
        <ele>267</ele>
        <time>2025-09-02T12:41:04.000Z</time>
      </trkpt>
      <trkpt lat="43.90374" lon="2.11084">
        <ele>268</ele>
        <time>2025-09-02T12:41:09.000Z</time>
      </trkpt>
      <trkpt lat="43.90372" lon="2.1108">
        <ele>269</ele>
        <time>2025-09-02T12:41:14.000Z</time>
      </trkpt>
      <trkpt lat="43.90367" lon="2.11074">
        <ele>270</ele>
        <time>2025-09-02T12:41:19.000Z</time>
      </trkpt>
      <trkpt lat="43.90365" lon="2.1107">
        <ele>270</ele>
        <time>2025-09-02T12:41:24.000Z</time>
      </trkpt>
      <trkpt lat="43.90364" lon="2.11069">
        <ele>272</ele>
        <time>2025-09-02T12:41:29.000Z</time>
      </trkpt>
      <trkpt lat="43.90364" lon="2.11066">
        <ele>277</ele>
        <time>2025-09-02T12:41:34.000Z</time>
      </trkpt>
      <trkpt lat="43.90363" lon="2.11064">
        <ele>278</ele>
        <time>2025-09-02T12:41:39.000Z</time>
      </trkpt>
      <trkpt lat="43.90362" lon="2.11062">
        <ele>279</ele>
        <time>2025-09-02T12:41:44.000Z</time>
      </trkpt>
      <trkpt lat="43.90361" lon="2.11058">
        <ele>280</ele>
        <time>2025-09-02T12:41:49.000Z</time>
      </trkpt>
      <trkpt lat="43.90358" lon="2.11055">
        <ele>281</ele>
        <time>2025-09-02T12:41:54.000Z</time>
      </trkpt>
      <trkpt lat="43.90355" lon="2.11055">
        <ele>281</ele>
        <time>2025-09-02T12:41:59.000Z</time>
      </trkpt>
      <trkpt lat="43.90351" lon="2.11056">
        <ele>284</ele>
        <time>2025-09-02T12:42:04.000Z</time>
      </trkpt>
      <trkpt lat="43.90349" lon="2.11055">
        <ele>284</ele>
        <time>2025-09-02T12:42:09.000Z</time>
      </trkpt>
      <trkpt lat="43.90344" lon="2.11057">
        <ele>285</ele>
        <time>2025-09-02T12:42:14.000Z</time>
      </trkpt>
      <trkpt lat="43.9034" lon="2.1106">
        <ele>285</ele>
        <time>2025-09-02T12:42:19.000Z</time>
      </trkpt>
      <trkpt lat="43.90337" lon="2.1106">
        <ele>287</ele>
        <time>2025-09-02T12:42:24.000Z</time>
      </trkpt>
      <trkpt lat="43.90333" lon="2.1106">
        <ele>286</ele>
        <time>2025-09-02T12:42:29.000Z</time>
      </trkpt>
      <trkpt lat="43.90328" lon="2.11059">
        <ele>288</ele>
        <time>2025-09-02T12:42:34.000Z</time>
      </trkpt>
      <trkpt lat="43.90324" lon="2.11059">
        <ele>289</ele>
        <time>2025-09-02T12:42:39.000Z</time>
      </trkpt>
      <trkpt lat="43.90321" lon="2.11061">
        <ele>290</ele>
        <time>2025-09-02T12:42:44.000Z</time>
      </trkpt>
      <trkpt lat="43.90319" lon="2.11065">
        <ele>292</ele>
        <time>2025-09-02T12:42:49.000Z</time>
      </trkpt>
      <trkpt lat="43.90316" lon="2.11067">
        <ele>296</ele>
        <time>2025-09-02T12:42:54.000Z</time>
      </trkpt>
      <trkpt lat="43.90312" lon="2.11068">
        <ele>296</ele>
        <time>2025-09-02T12:42:59.000Z</time>
      </trkpt>
      <trkpt lat="43.90308" lon="2.11069">
        <ele>298</ele>
        <time>2025-09-02T12:43:04.000Z</time>
      </trkpt>
      <trkpt lat="43.90306" lon="2.11073">
        <ele>298</ele>
        <time>2025-09-02T12:43:09.000Z</time>
      </trkpt>
      <trkpt lat="43.90303" lon="2.11074">
        <ele>297</ele>
        <time>2025-09-02T12:43:14.000Z</time>
      </trkpt>
      <trkpt lat="43.903" lon="2.11071">
        <ele>296</ele>
        <time>2025-09-02T12:43:19.000Z</time>
      </trkpt>
      <trkpt lat="43.90296" lon="2.1107">
        <ele>296</ele>
        <time>2025-09-02T12:43:24.000Z</time>
      </trkpt>
      <trkpt lat="43.90291" lon="2.11068">
        <ele>295</ele>
        <time>2025-09-02T12:43:29.000Z</time>
      </trkpt>
      <trkpt lat="43.90287" lon="2.11069">
        <ele>296</ele>
        <time>2025-09-02T12:43:34.000Z</time>
      </trkpt>
      <trkpt lat="43.90285" lon="2.11068">
        <ele>297</ele>
        <time>2025-09-02T12:43:39.000Z</time>
      </trkpt>
      <trkpt lat="43.9028" lon="2.11067">
        <ele>296</ele>
        <time>2025-09-02T12:43:44.000Z</time>
      </trkpt>
      <trkpt lat="43.90276" lon="2.11066">
        <ele>296</ele>
        <time>2025-09-02T12:43:49.000Z</time>
      </trkpt>
      <trkpt lat="43.90274" lon="2.11062">
        <ele>296</ele>
        <time>2025-09-02T12:43:54.000Z</time>
      </trkpt>
      <trkpt lat="43.90272" lon="2.11058">
        <ele>297</ele>
        <time>2025-09-02T12:43:59.000Z</time>
      </trkpt>
      <trkpt lat="43.9027" lon="2.11053">
        <ele>296</ele>
        <time>2025-09-02T12:44:04.000Z</time>
      </trkpt>
      <trkpt lat="43.90271" lon="2.11045">
        <ele>296</ele>
        <time>2025-09-02T12:44:09.000Z</time>
      </trkpt>
      <trkpt lat="43.90272" lon="2.1104">
        <ele>297</ele>
        <time>2025-09-02T12:44:14.000Z</time>
      </trkpt>
      <trkpt lat="43.90273" lon="2.11032">
        <ele>296</ele>
        <time>2025-09-02T12:44:19.000Z</time>
      </trkpt>
      <trkpt lat="43.90274" lon="2.11025">
        <ele>296</ele>
        <time>2025-09-02T12:44:24.000Z</time>
      </trkpt>
      <trkpt lat="43.90275" lon="2.11019">
        <ele>296</ele>
        <time>2025-09-02T12:44:29.000Z</time>
      </trkpt>
      <trkpt lat="43.90276" lon="2.11013">
        <ele>295</ele>
        <time>2025-09-02T12:44:34.000Z</time>
      </trkpt>
      <trkpt lat="43.90278" lon="2.11006">
        <ele>295</ele>
        <time>2025-09-02T12:44:39.000Z</time>
      </trkpt>
      <trkpt lat="43.9028" lon="2.11">
        <ele>294</ele>
        <time>2025-09-02T12:44:44.000Z</time>
      </trkpt>
      <trkpt lat="43.90283" lon="2.10994">
        <ele>295</ele>
        <time>2025-09-02T12:44:49.000Z</time>
      </trkpt>
      <trkpt lat="43.90286" lon="2.10986">
        <ele>294</ele>
        <time>2025-09-02T12:44:54.000Z</time>
      </trkpt>
      <trkpt lat="43.90288" lon="2.10979">
        <ele>295</ele>
        <time>2025-09-02T12:44:59.000Z</time>
      </trkpt>
      <trkpt lat="43.90291" lon="2.10972">
        <ele>295</ele>
        <time>2025-09-02T12:45:04.000Z</time>
      </trkpt>
      <trkpt lat="43.90293" lon="2.10965">
        <ele>295</ele>
        <time>2025-09-02T12:45:09.000Z</time>
      </trkpt>
      <trkpt lat="43.90296" lon="2.10958">
        <ele>294</ele>
        <time>2025-09-02T12:45:14.000Z</time>
      </trkpt>
      <trkpt lat="43.90299" lon="2.10951">
        <ele>293</ele>
        <time>2025-09-02T12:45:19.000Z</time>
      </trkpt>
      <trkpt lat="43.90303" lon="2.10945">
        <ele>295</ele>
        <time>2025-09-02T12:45:24.000Z</time>
      </trkpt>
      <trkpt lat="43.90306" lon="2.10938">
        <ele>294</ele>
        <time>2025-09-02T12:45:29.000Z</time>
      </trkpt>
      <trkpt lat="43.9031" lon="2.10931">
        <ele>293</ele>
        <time>2025-09-02T12:45:34.000Z</time>
      </trkpt>
      <trkpt lat="43.90314" lon="2.10925">
        <ele>293</ele>
        <time>2025-09-02T12:45:39.000Z</time>
      </trkpt>
      <trkpt lat="43.90317" lon="2.10918">
        <ele>292</ele>
        <time>2025-09-02T12:45:44.000Z</time>
      </trkpt>
      <trkpt lat="43.9032" lon="2.10913">
        <ele>291</ele>
        <time>2025-09-02T12:45:49.000Z</time>
      </trkpt>
      <trkpt lat="43.90324" lon="2.10908">
        <ele>291</ele>
        <time>2025-09-02T12:45:54.000Z</time>
      </trkpt>
      <trkpt lat="43.90328" lon="2.10902">
        <ele>290</ele>
        <time>2025-09-02T12:45:59.000Z</time>
      </trkpt>
      <trkpt lat="43.90332" lon="2.10898">
        <ele>291</ele>
        <time>2025-09-02T12:46:04.000Z</time>
      </trkpt>
      <trkpt lat="43.90336" lon="2.10893">
        <ele>291</ele>
        <time>2025-09-02T12:46:09.000Z</time>
      </trkpt>
      <trkpt lat="43.90341" lon="2.10887">
        <ele>291</ele>
        <time>2025-09-02T12:46:14.000Z</time>
      </trkpt>
      <trkpt lat="43.90347" lon="2.10882">
        <ele>291</ele>
        <time>2025-09-02T12:46:19.000Z</time>
      </trkpt>
      <trkpt lat="43.90351" lon="2.10875">
        <ele>292</ele>
        <time>2025-09-02T12:46:24.000Z</time>
      </trkpt>
      <trkpt lat="43.90356" lon="2.1087">
        <ele>291</ele>
        <time>2025-09-02T12:46:29.000Z</time>
      </trkpt>
      <trkpt lat="43.90361" lon="2.10864">
        <ele>290</ele>
        <time>2025-09-02T12:46:34.000Z</time>
      </trkpt>
      <trkpt lat="43.90366" lon="2.1086">
        <ele>290</ele>
        <time>2025-09-02T12:46:39.000Z</time>
      </trkpt>
      <trkpt lat="43.9037" lon="2.10856">
        <ele>289</ele>
        <time>2025-09-02T12:46:44.000Z</time>
      </trkpt>
      <trkpt lat="43.90375" lon="2.10852">
        <ele>289</ele>
        <time>2025-09-02T12:46:49.000Z</time>
      </trkpt>
      <trkpt lat="43.90379" lon="2.10848">
        <ele>289</ele>
        <time>2025-09-02T12:46:54.000Z</time>
      </trkpt>
      <trkpt lat="43.90382" lon="2.10841">
        <ele>291</ele>
        <time>2025-09-02T12:46:59.000Z</time>
      </trkpt>
      <trkpt lat="43.90381" lon="2.10834">
        <ele>290</ele>
        <time>2025-09-02T12:47:04.000Z</time>
      </trkpt>
      <trkpt lat="43.90377" lon="2.10828">
        <ele>290</ele>
        <time>2025-09-02T12:47:09.000Z</time>
      </trkpt>
      <trkpt lat="43.90372" lon="2.10827">
        <ele>290</ele>
        <time>2025-09-02T12:47:14.000Z</time>
      </trkpt>
      <trkpt lat="43.90366" lon="2.10827">
        <ele>290</ele>
        <time>2025-09-02T12:47:19.000Z</time>
      </trkpt>
      <trkpt lat="43.90361" lon="2.10826">
        <ele>290</ele>
        <time>2025-09-02T12:47:24.000Z</time>
      </trkpt>
      <trkpt lat="43.90354" lon="2.10826">
        <ele>290</ele>
        <time>2025-09-02T12:47:29.000Z</time>
      </trkpt>
      <trkpt lat="43.90348" lon="2.10827">
        <ele>289</ele>
        <time>2025-09-02T12:47:34.000Z</time>
      </trkpt>
      <trkpt lat="43.90343" lon="2.10827">
        <ele>288</ele>
        <time>2025-09-02T12:47:39.000Z</time>
      </trkpt>
      <trkpt lat="43.90337" lon="2.10828">
        <ele>286</ele>
        <time>2025-09-02T12:47:44.000Z</time>
      </trkpt>
      <trkpt lat="43.90333" lon="2.10828">
        <ele>287</ele>
        <time>2025-09-02T12:47:49.000Z</time>
      </trkpt>
      <trkpt lat="43.90327" lon="2.10827">
        <ele>287</ele>
        <time>2025-09-02T12:47:54.000Z</time>
      </trkpt>
      <trkpt lat="43.90321" lon="2.10828">
        <ele>289</ele>
        <time>2025-09-02T12:47:59.000Z</time>
      </trkpt>
      <trkpt lat="43.90317" lon="2.10829">
        <ele>289</ele>
        <time>2025-09-02T12:48:04.000Z</time>
      </trkpt>
      <trkpt lat="43.90312" lon="2.1083">
        <ele>288</ele>
        <time>2025-09-02T12:48:09.000Z</time>
      </trkpt>
      <trkpt lat="43.90308" lon="2.1083">
        <ele>290</ele>
        <time>2025-09-02T12:48:14.000Z</time>
      </trkpt>
      <trkpt lat="43.90302" lon="2.1083">
        <ele>289</ele>
        <time>2025-09-02T12:48:19.000Z</time>
      </trkpt>
      <trkpt lat="43.90296" lon="2.10833">
        <ele>290</ele>
        <time>2025-09-02T12:48:24.000Z</time>
      </trkpt>
      <trkpt lat="43.9029" lon="2.10835">
        <ele>290</ele>
        <time>2025-09-02T12:48:29.000Z</time>
      </trkpt>
      <trkpt lat="43.90284" lon="2.10838">
        <ele>289</ele>
        <time>2025-09-02T12:48:34.000Z</time>
      </trkpt>
      <trkpt lat="43.9028" lon="2.10841">
        <ele>288</ele>
        <time>2025-09-02T12:48:39.000Z</time>
      </trkpt>
      <trkpt lat="43.90275" lon="2.10844">
        <ele>289</ele>
        <time>2025-09-02T12:48:44.000Z</time>
      </trkpt>
      <trkpt lat="43.90271" lon="2.10846">
        <ele>289</ele>
        <time>2025-09-02T12:48:49.000Z</time>
      </trkpt>
      <trkpt lat="43.90266" lon="2.10849">
        <ele>290</ele>
        <time>2025-09-02T12:48:54.000Z</time>
      </trkpt>
      <trkpt lat="43.90261" lon="2.10851">
        <ele>289</ele>
        <time>2025-09-02T12:48:59.000Z</time>
      </trkpt>
      <trkpt lat="43.90257" lon="2.10853">
        <ele>288</ele>
        <time>2025-09-02T12:49:04.000Z</time>
      </trkpt>
      <trkpt lat="43.90253" lon="2.10855">
        <ele>288</ele>
        <time>2025-09-02T12:49:09.000Z</time>
      </trkpt>
      <trkpt lat="43.90247" lon="2.10857">
        <ele>289</ele>
        <time>2025-09-02T12:49:14.000Z</time>
      </trkpt>
      <trkpt lat="43.90242" lon="2.1086">
        <ele>290</ele>
        <time>2025-09-02T12:49:19.000Z</time>
      </trkpt>
      <trkpt lat="43.90236" lon="2.10863">
        <ele>290</ele>
        <time>2025-09-02T12:49:24.000Z</time>
      </trkpt>
      <trkpt lat="43.90232" lon="2.10869">
        <ele>289</ele>
        <time>2025-09-02T12:49:29.000Z</time>
      </trkpt>
      <trkpt lat="43.90228" lon="2.10873">
        <ele>289</ele>
        <time>2025-09-02T12:49:34.000Z</time>
      </trkpt>
      <trkpt lat="43.90223" lon="2.10878">
        <ele>287</ele>
        <time>2025-09-02T12:49:39.000Z</time>
      </trkpt>
      <trkpt lat="43.90217" lon="2.10884">
        <ele>285</ele>
        <time>2025-09-02T12:49:44.000Z</time>
      </trkpt>
      <trkpt lat="43.90213" lon="2.10893">
        <ele>284</ele>
        <time>2025-09-02T12:49:49.000Z</time>
      </trkpt>
      <trkpt lat="43.9021" lon="2.10901">
        <ele>282</ele>
        <time>2025-09-02T12:49:54.000Z</time>
      </trkpt>
      <trkpt lat="43.90205" lon="2.10907">
        <ele>280</ele>
        <time>2025-09-02T12:49:59.000Z</time>
      </trkpt>
      <trkpt lat="43.90202" lon="2.10911">
        <ele>279</ele>
        <time>2025-09-02T12:50:04.000Z</time>
      </trkpt>
      <trkpt lat="43.90197" lon="2.10915">
        <ele>278</ele>
        <time>2025-09-02T12:50:09.000Z</time>
      </trkpt>
      <trkpt lat="43.90193" lon="2.10921">
        <ele>277</ele>
        <time>2025-09-02T12:50:14.000Z</time>
      </trkpt>
      <trkpt lat="43.90189" lon="2.10926">
        <ele>275</ele>
        <time>2025-09-02T12:50:19.000Z</time>
      </trkpt>
      <trkpt lat="43.90184" lon="2.10932">
        <ele>274</ele>
        <time>2025-09-02T12:50:24.000Z</time>
      </trkpt>
      <trkpt lat="43.9018" lon="2.10936">
        <ele>272</ele>
        <time>2025-09-02T12:50:29.000Z</time>
      </trkpt>
      <trkpt lat="43.90175" lon="2.10939">
        <ele>271</ele>
        <time>2025-09-02T12:50:34.000Z</time>
      </trkpt>
      <trkpt lat="43.90171" lon="2.10943">
        <ele>270</ele>
        <time>2025-09-02T12:50:39.000Z</time>
      </trkpt>
      <trkpt lat="43.90167" lon="2.10946">
        <ele>271</ele>
        <time>2025-09-02T12:50:44.000Z</time>
      </trkpt>
      <trkpt lat="43.90164" lon="2.10951">
        <ele>272</ele>
        <time>2025-09-02T12:50:49.000Z</time>
      </trkpt>
      <trkpt lat="43.90161" lon="2.10954">
        <ele>271</ele>
        <time>2025-09-02T12:50:54.000Z</time>
      </trkpt>
      <trkpt lat="43.90156" lon="2.10957">
        <ele>271</ele>
        <time>2025-09-02T12:50:59.000Z</time>
      </trkpt>
      <trkpt lat="43.90153" lon="2.10961">
        <ele>270</ele>
        <time>2025-09-02T12:51:04.000Z</time>
      </trkpt>
      <trkpt lat="43.9015" lon="2.10964">
        <ele>271</ele>
        <time>2025-09-02T12:51:09.000Z</time>
      </trkpt>
      <trkpt lat="43.90147" lon="2.10971">
        <ele>270</ele>
        <time>2025-09-02T12:51:14.000Z</time>
      </trkpt>
      <trkpt lat="43.90143" lon="2.10975">
        <ele>271</ele>
        <time>2025-09-02T12:51:19.000Z</time>
      </trkpt>
      <trkpt lat="43.90139" lon="2.10981">
        <ele>270</ele>
        <time>2025-09-02T12:51:24.000Z</time>
      </trkpt>
      <trkpt lat="43.90135" lon="2.10985">
        <ele>270</ele>
        <time>2025-09-02T12:51:29.000Z</time>
      </trkpt>
      <trkpt lat="43.9013" lon="2.10989">
        <ele>270</ele>
        <time>2025-09-02T12:51:34.000Z</time>
      </trkpt>
      <trkpt lat="43.90126" lon="2.10995">
        <ele>270</ele>
        <time>2025-09-02T12:51:39.000Z</time>
      </trkpt>
      <trkpt lat="43.90122" lon="2.11002">
        <ele>270</ele>
        <time>2025-09-02T12:51:44.000Z</time>
      </trkpt>
      <trkpt lat="43.90117" lon="2.11008">
        <ele>270</ele>
        <time>2025-09-02T12:51:49.000Z</time>
      </trkpt>
      <trkpt lat="43.90113" lon="2.11015">
        <ele>270</ele>
        <time>2025-09-02T12:51:54.000Z</time>
      </trkpt>
      <trkpt lat="43.90108" lon="2.11021">
        <ele>269</ele>
        <time>2025-09-02T12:51:59.000Z</time>
      </trkpt>
      <trkpt lat="43.90104" lon="2.11029">
        <ele>268</ele>
        <time>2025-09-02T12:52:04.000Z</time>
      </trkpt>
      <trkpt lat="43.90101" lon="2.11036">
        <ele>266</ele>
        <time>2025-09-02T12:52:09.000Z</time>
      </trkpt>
      <trkpt lat="43.90096" lon="2.11042">
        <ele>264</ele>
        <time>2025-09-02T12:52:14.000Z</time>
      </trkpt>
      <trkpt lat="43.90092" lon="2.11048">
        <ele>261</ele>
        <time>2025-09-02T12:52:19.000Z</time>
      </trkpt>
      <trkpt lat="43.90088" lon="2.11052">
        <ele>260</ele>
        <time>2025-09-02T12:52:24.000Z</time>
      </trkpt>
      <trkpt lat="43.90083" lon="2.11057">
        <ele>259</ele>
        <time>2025-09-02T12:52:29.000Z</time>
      </trkpt>
      <trkpt lat="43.90078" lon="2.11061">
        <ele>258</ele>
        <time>2025-09-02T12:52:34.000Z</time>
      </trkpt>
      <trkpt lat="43.90074" lon="2.11067">
        <ele>257</ele>
        <time>2025-09-02T12:52:39.000Z</time>
      </trkpt>
      <trkpt lat="43.90068" lon="2.11072">
        <ele>256</ele>
        <time>2025-09-02T12:52:44.000Z</time>
      </trkpt>
      <trkpt lat="43.90064" lon="2.11075">
        <ele>256</ele>
        <time>2025-09-02T12:52:49.000Z</time>
      </trkpt>
      <trkpt lat="43.90059" lon="2.1108">
        <ele>255</ele>
        <time>2025-09-02T12:52:54.000Z</time>
      </trkpt>
      <trkpt lat="43.90055" lon="2.11086">
        <ele>254</ele>
        <time>2025-09-02T12:52:59.000Z</time>
      </trkpt>
      <trkpt lat="43.90051" lon="2.11093">
        <ele>254</ele>
        <time>2025-09-02T12:53:04.000Z</time>
      </trkpt>
      <trkpt lat="43.90046" lon="2.11099">
        <ele>254</ele>
        <time>2025-09-02T12:53:09.000Z</time>
      </trkpt>
      <trkpt lat="43.90043" lon="2.11103">
        <ele>254</ele>
        <time>2025-09-02T12:53:14.000Z</time>
      </trkpt>
      <trkpt lat="43.90038" lon="2.11106">
        <ele>254</ele>
        <time>2025-09-02T12:53:19.000Z</time>
      </trkpt>
      <trkpt lat="43.90033" lon="2.11111">
        <ele>254</ele>
        <time>2025-09-02T12:53:24.000Z</time>
      </trkpt>
      <trkpt lat="43.90029" lon="2.11116">
        <ele>252</ele>
        <time>2025-09-02T12:53:29.000Z</time>
      </trkpt>
      <trkpt lat="43.90025" lon="2.11122">
        <ele>253</ele>
        <time>2025-09-02T12:53:34.000Z</time>
      </trkpt>
      <trkpt lat="43.9002" lon="2.11125">
        <ele>253</ele>
        <time>2025-09-02T12:53:39.000Z</time>
      </trkpt>
      <trkpt lat="43.90016" lon="2.1113">
        <ele>252</ele>
        <time>2025-09-02T12:53:44.000Z</time>
      </trkpt>
      <trkpt lat="43.90011" lon="2.11135">
        <ele>251</ele>
        <time>2025-09-02T12:53:49.000Z</time>
      </trkpt>
      <trkpt lat="43.90006" lon="2.11138">
        <ele>251</ele>
        <time>2025-09-02T12:53:54.000Z</time>
      </trkpt>
      <trkpt lat="43.90002" lon="2.11141">
        <ele>250</ele>
        <time>2025-09-02T12:53:59.000Z</time>
      </trkpt>
      <trkpt lat="43.89997" lon="2.11144">
        <ele>250</ele>
        <time>2025-09-02T12:54:04.000Z</time>
      </trkpt>
      <trkpt lat="43.89992" lon="2.11153">
        <ele>250</ele>
        <time>2025-09-02T12:54:09.000Z</time>
      </trkpt>
      <trkpt lat="43.89988" lon="2.11157">
        <ele>249</ele>
        <time>2025-09-02T12:54:14.000Z</time>
      </trkpt>
      <trkpt lat="43.89983" lon="2.11162">
        <ele>249</ele>
        <time>2025-09-02T12:54:19.000Z</time>
      </trkpt>
      <trkpt lat="43.89978" lon="2.11165">
        <ele>248</ele>
        <time>2025-09-02T12:54:24.000Z</time>
      </trkpt>
      <trkpt lat="43.89973" lon="2.1117">
        <ele>247</ele>
        <time>2025-09-02T12:54:29.000Z</time>
      </trkpt>
      <trkpt lat="43.89967" lon="2.11174">
        <ele>246</ele>
        <time>2025-09-02T12:54:34.000Z</time>
      </trkpt>
      <trkpt lat="43.89962" lon="2.11177">
        <ele>246</ele>
        <time>2025-09-02T12:54:39.000Z</time>
      </trkpt>
      <trkpt lat="43.89957" lon="2.11181">
        <ele>245</ele>
        <time>2025-09-02T12:54:44.000Z</time>
      </trkpt>
      <trkpt lat="43.89952" lon="2.11185">
        <ele>247</ele>
        <time>2025-09-02T12:54:49.000Z</time>
      </trkpt>
      <trkpt lat="43.89948" lon="2.1119">
        <ele>246</ele>
        <time>2025-09-02T12:54:54.000Z</time>
      </trkpt>
      <trkpt lat="43.89944" lon="2.11195">
        <ele>246</ele>
        <time>2025-09-02T12:54:59.000Z</time>
      </trkpt>
      <trkpt lat="43.89939" lon="2.11202">
        <ele>247</ele>
        <time>2025-09-02T12:55:04.000Z</time>
      </trkpt>
      <trkpt lat="43.89934" lon="2.11208">
        <ele>244</ele>
        <time>2025-09-02T12:55:09.000Z</time>
      </trkpt>
      <trkpt lat="43.8993" lon="2.11214">
        <ele>242</ele>
        <time>2025-09-02T12:55:14.000Z</time>
      </trkpt>
      <trkpt lat="43.89926" lon="2.11219">
        <ele>242</ele>
        <time>2025-09-02T12:55:19.000Z</time>
      </trkpt>
      <trkpt lat="43.89921" lon="2.11223">
        <ele>241</ele>
        <time>2025-09-02T12:55:24.000Z</time>
      </trkpt>
      <trkpt lat="43.89917" lon="2.11229">
        <ele>241</ele>
        <time>2025-09-02T12:55:29.000Z</time>
      </trkpt>
      <trkpt lat="43.89912" lon="2.11235">
        <ele>239</ele>
        <time>2025-09-02T12:55:34.000Z</time>
      </trkpt>
      <trkpt lat="43.89908" lon="2.11239">
        <ele>239</ele>
        <time>2025-09-02T12:55:39.000Z</time>
      </trkpt>
      <trkpt lat="43.89903" lon="2.11244">
        <ele>238</ele>
        <time>2025-09-02T12:55:44.000Z</time>
      </trkpt>
      <trkpt lat="43.89898" lon="2.11249">
        <ele>238</ele>
        <time>2025-09-02T12:55:49.000Z</time>
      </trkpt>
      <trkpt lat="43.89892" lon="2.11252">
        <ele>235</ele>
        <time>2025-09-02T12:55:54.000Z</time>
      </trkpt>
      <trkpt lat="43.89887" lon="2.11253">
        <ele>233</ele>
        <time>2025-09-02T12:55:59.000Z</time>
      </trkpt>
      <trkpt lat="43.89883" lon="2.11251">
        <ele>231</ele>
        <time>2025-09-02T12:56:04.000Z</time>
      </trkpt>
      <trkpt lat="43.8988" lon="2.11246">
        <ele>229</ele>
        <time>2025-09-02T12:56:09.000Z</time>
      </trkpt>
      <trkpt lat="43.89876" lon="2.11241">
        <ele>230</ele>
        <time>2025-09-02T12:56:14.000Z</time>
      </trkpt>
      <trkpt lat="43.89871" lon="2.11237">
        <ele>232</ele>
        <time>2025-09-02T12:56:19.000Z</time>
      </trkpt>
      <trkpt lat="43.89865" lon="2.11235">
        <ele>232</ele>
        <time>2025-09-02T12:56:24.000Z</time>
      </trkpt>
      <trkpt lat="43.89859" lon="2.11233">
        <ele>232</ele>
        <time>2025-09-02T12:56:29.000Z</time>
      </trkpt>
      <trkpt lat="43.89853" lon="2.11233">
        <ele>231</ele>
        <time>2025-09-02T12:56:34.000Z</time>
      </trkpt>
      <trkpt lat="43.89849" lon="2.11231">
        <ele>232</ele>
        <time>2025-09-02T12:56:39.000Z</time>
      </trkpt>
      <trkpt lat="43.89843" lon="2.11229">
        <ele>231</ele>
        <time>2025-09-02T12:56:44.000Z</time>
      </trkpt>
      <trkpt lat="43.89838" lon="2.11231">
        <ele>232</ele>
        <time>2025-09-02T12:56:49.000Z</time>
      </trkpt>
      <trkpt lat="43.89833" lon="2.11234">
        <ele>231</ele>
        <time>2025-09-02T12:56:54.000Z</time>
      </trkpt>
      <trkpt lat="43.89827" lon="2.11238">
        <ele>233</ele>
        <time>2025-09-02T12:56:59.000Z</time>
      </trkpt>
      <trkpt lat="43.89822" lon="2.11241">
        <ele>233</ele>
        <time>2025-09-02T12:57:04.000Z</time>
      </trkpt>
      <trkpt lat="43.89816" lon="2.11242">
        <ele>234</ele>
        <time>2025-09-02T12:57:09.000Z</time>
      </trkpt>
      <trkpt lat="43.8981" lon="2.11242">
        <ele>235</ele>
        <time>2025-09-02T12:57:14.000Z</time>
      </trkpt>
      <trkpt lat="43.89806" lon="2.11241">
        <ele>235</ele>
        <time>2025-09-02T12:57:19.000Z</time>
      </trkpt>
      <trkpt lat="43.898" lon="2.11239">
        <ele>235</ele>
        <time>2025-09-02T12:57:24.000Z</time>
      </trkpt>
      <trkpt lat="43.89793" lon="2.11236">
        <ele>235</ele>
        <time>2025-09-02T12:57:29.000Z</time>
      </trkpt>
      <trkpt lat="43.89787" lon="2.11235">
        <ele>236</ele>
        <time>2025-09-02T12:57:34.000Z</time>
      </trkpt>
      <trkpt lat="43.89782" lon="2.11232">
        <ele>235</ele>
        <time>2025-09-02T12:57:39.000Z</time>
      </trkpt>
      <trkpt lat="43.89779" lon="2.1123">
        <ele>235</ele>
        <time>2025-09-02T12:57:44.000Z</time>
      </trkpt>
      <trkpt lat="43.89777" lon="2.11228">
        <ele>237</ele>
        <time>2025-09-02T12:57:49.000Z</time>
      </trkpt>
      <trkpt lat="43.89772" lon="2.11227">
        <ele>236</ele>
        <time>2025-09-02T12:57:54.000Z</time>
      </trkpt>
      <trkpt lat="43.89765" lon="2.11226">
        <ele>236</ele>
        <time>2025-09-02T12:57:59.000Z</time>
      </trkpt>
      <trkpt lat="43.89759" lon="2.11223">
        <ele>237</ele>
        <time>2025-09-02T12:58:04.000Z</time>
      </trkpt>
      <trkpt lat="43.89753" lon="2.11222">
        <ele>237</ele>
        <time>2025-09-02T12:58:09.000Z</time>
      </trkpt>
      <trkpt lat="43.89747" lon="2.11219">
        <ele>237</ele>
        <time>2025-09-02T12:58:14.000Z</time>
      </trkpt>
      <trkpt lat="43.89741" lon="2.11216">
        <ele>237</ele>
        <time>2025-09-02T12:58:19.000Z</time>
      </trkpt>
      <trkpt lat="43.89736" lon="2.11214">
        <ele>238</ele>
        <time>2025-09-02T12:58:24.000Z</time>
      </trkpt>
      <trkpt lat="43.89732" lon="2.11212">
        <ele>238</ele>
        <time>2025-09-02T12:58:29.000Z</time>
      </trkpt>
      <trkpt lat="43.89727" lon="2.1121">
        <ele>238</ele>
        <time>2025-09-02T12:58:34.000Z</time>
      </trkpt>
      <trkpt lat="43.89723" lon="2.11207">
        <ele>239</ele>
        <time>2025-09-02T12:58:39.000Z</time>
      </trkpt>
      <trkpt lat="43.89717" lon="2.11205">
        <ele>239</ele>
        <time>2025-09-02T12:58:44.000Z</time>
      </trkpt>
      <trkpt lat="43.89713" lon="2.11202">
        <ele>240</ele>
        <time>2025-09-02T12:58:49.000Z</time>
      </trkpt>
      <trkpt lat="43.89711" lon="2.112">
        <ele>241</ele>
        <time>2025-09-02T12:58:54.000Z</time>
      </trkpt>
      <trkpt lat="43.89707" lon="2.11197">
        <ele>241</ele>
        <time>2025-09-02T12:58:59.000Z</time>
      </trkpt>
      <trkpt lat="43.89702" lon="2.11193">
        <ele>241</ele>
        <time>2025-09-02T12:59:04.000Z</time>
      </trkpt>
      <trkpt lat="43.89699" lon="2.11191">
        <ele>241</ele>
        <time>2025-09-02T12:59:09.000Z</time>
      </trkpt>
      <trkpt lat="43.89695" lon="2.11188">
        <ele>242</ele>
        <time>2025-09-02T12:59:14.000Z</time>
      </trkpt>
      <trkpt lat="43.89693" lon="2.11187">
        <ele>244</ele>
        <time>2025-09-02T12:59:19.000Z</time>
      </trkpt>
      <trkpt lat="43.89691" lon="2.11187">
        <ele>244</ele>
        <time>2025-09-02T12:59:24.000Z</time>
      </trkpt>
      <trkpt lat="43.89688" lon="2.11186">
        <ele>244</ele>
        <time>2025-09-02T12:59:29.000Z</time>
      </trkpt>
      <trkpt lat="43.89684" lon="2.11185">
        <ele>244</ele>
        <time>2025-09-02T12:59:34.000Z</time>
      </trkpt>
      <trkpt lat="43.89681" lon="2.11184">
        <ele>245</ele>
        <time>2025-09-02T12:59:39.000Z</time>
      </trkpt>
      <trkpt lat="43.89678" lon="2.11182">
        <ele>246</ele>
        <time>2025-09-02T12:59:44.000Z</time>
      </trkpt>
      <trkpt lat="43.89678" lon="2.11182">
        <ele>246</ele>
        <time>2025-09-02T12:59:49.000Z</time>
      </trkpt>
      <trkpt lat="43.89677" lon="2.11181">
        <ele>247</ele>
        <time>2025-09-02T12:59:54.000Z</time>
      </trkpt>
      <trkpt lat="43.89677" lon="2.11181">
        <ele>247</ele>
        <time>2025-09-02T12:59:59.000Z</time>
      </trkpt>
      <trkpt lat="43.89677" lon="2.11181">
        <ele>247</ele>
        <time>2025-09-02T13:00:04.000Z</time>
      </trkpt>
      <trkpt lat="43.89677" lon="2.11181">
        <ele>247</ele>
        <time>2025-09-02T13:00:09.000Z</time>
      </trkpt>
      <trkpt lat="43.89677" lon="2.11181">
        <ele>247</ele>
        <time>2025-09-02T13:00:14.000Z</time>
      </trkpt>
      <trkpt lat="43.89677" lon="2.11181">
        <ele>247</ele>
        <time>2025-09-02T13:00:19.000Z</time>
      </trkpt>
      <trkpt lat="43.89677" lon="2.11181">
        <ele>247</ele>
        <time>2025-09-02T13:00:24.000Z</time>
      </trkpt>
      <trkpt lat="43.89677" lon="2.11181">
        <ele>247</ele>
        <time>2025-09-02T13:00:29.000Z</time>
      </trkpt>
      <trkpt lat="43.89677" lon="2.11181">
        <ele>247</ele>
        <time>2025-09-02T13:00:34.000Z</time>
      </trkpt>
      <trkpt lat="43.89677" lon="2.11181">
        <ele>247</ele>
        <time>2025-09-02T13:00:39.000Z</time>
      </trkpt>
      <trkpt lat="43.89677" lon="2.11181">
        <ele>247</ele>
        <time>2025-09-02T13:00:44.000Z</time>
      </trkpt>
      <trkpt lat="43.89675" lon="2.1118">
        <ele>248</ele>
        <time>2025-09-02T13:00:49.000Z</time>
      </trkpt>
      <trkpt lat="43.89673" lon="2.1118">
        <ele>249</ele>
        <time>2025-09-02T13:00:54.000Z</time>
      </trkpt>
      <trkpt lat="43.89669" lon="2.11181">
        <ele>249</ele>
        <time>2025-09-02T13:00:59.000Z</time>
      </trkpt>
      <trkpt lat="43.89665" lon="2.1118">
        <ele>250</ele>
        <time>2025-09-02T13:01:04.000Z</time>
      </trkpt>
      <trkpt lat="43.89661" lon="2.1118">
        <ele>251</ele>
        <time>2025-09-02T13:01:09.000Z</time>
      </trkpt>
      <trkpt lat="43.89657" lon="2.1118">
        <ele>252</ele>
        <time>2025-09-02T13:01:14.000Z</time>
      </trkpt>
      <trkpt lat="43.89652" lon="2.11181">
        <ele>252</ele>
        <time>2025-09-02T13:01:19.000Z</time>
      </trkpt>
      <trkpt lat="43.89648" lon="2.11184">
        <ele>251</ele>
        <time>2025-09-02T13:01:24.000Z</time>
      </trkpt>
      <trkpt lat="43.89645" lon="2.11184">
        <ele>253</ele>
        <time>2025-09-02T13:01:29.000Z</time>
      </trkpt>
      <trkpt lat="43.89642" lon="2.11183">
        <ele>254</ele>
        <time>2025-09-02T13:01:34.000Z</time>
      </trkpt>
      <trkpt lat="43.89639" lon="2.11184">
        <ele>253</ele>
        <time>2025-09-02T13:01:39.000Z</time>
      </trkpt>
      <trkpt lat="43.89634" lon="2.11184">
        <ele>254</ele>
        <time>2025-09-02T13:01:44.000Z</time>
      </trkpt>
      <trkpt lat="43.8963" lon="2.11184">
        <ele>254</ele>
        <time>2025-09-02T13:01:49.000Z</time>
      </trkpt>
      <trkpt lat="43.89626" lon="2.11183">
        <ele>255</ele>
        <time>2025-09-02T13:01:54.000Z</time>
      </trkpt>
      <trkpt lat="43.89623" lon="2.11183">
        <ele>255</ele>
        <time>2025-09-02T13:01:59.000Z</time>
      </trkpt>
      <trkpt lat="43.8962" lon="2.11183">
        <ele>256</ele>
        <time>2025-09-02T13:02:04.000Z</time>
      </trkpt>
      <trkpt lat="43.89616" lon="2.11184">
        <ele>257</ele>
        <time>2025-09-02T13:02:09.000Z</time>
      </trkpt>
      <trkpt lat="43.89612" lon="2.11183">
        <ele>258</ele>
        <time>2025-09-02T13:02:14.000Z</time>
      </trkpt>
      <trkpt lat="43.89609" lon="2.11183">
        <ele>259</ele>
        <time>2025-09-02T13:02:19.000Z</time>
      </trkpt>
      <trkpt lat="43.89606" lon="2.11181">
        <ele>258</ele>
        <time>2025-09-02T13:02:24.000Z</time>
      </trkpt>
      <trkpt lat="43.89602" lon="2.1118">
        <ele>259</ele>
        <time>2025-09-02T13:02:29.000Z</time>
      </trkpt>
      <trkpt lat="43.89598" lon="2.11179">
        <ele>260</ele>
        <time>2025-09-02T13:02:34.000Z</time>
      </trkpt>
      <trkpt lat="43.89594" lon="2.11177">
        <ele>259</ele>
        <time>2025-09-02T13:02:39.000Z</time>
      </trkpt>
      <trkpt lat="43.8959" lon="2.11178">
        <ele>260</ele>
        <time>2025-09-02T13:02:44.000Z</time>
      </trkpt>
      <trkpt lat="43.89588" lon="2.1118">
        <ele>262</ele>
        <time>2025-09-02T13:02:49.000Z</time>
      </trkpt>
      <trkpt lat="43.89584" lon="2.11181">
        <ele>262</ele>
        <time>2025-09-02T13:02:54.000Z</time>
      </trkpt>
      <trkpt lat="43.8958" lon="2.11182">
        <ele>263</ele>
        <time>2025-09-02T13:02:59.000Z</time>
      </trkpt>
      <trkpt lat="43.89576" lon="2.11182">
        <ele>263</ele>
        <time>2025-09-02T13:03:04.000Z</time>
      </trkpt>
      <trkpt lat="43.89572" lon="2.11181">
        <ele>262</ele>
        <time>2025-09-02T13:03:09.000Z</time>
      </trkpt>
      <trkpt lat="43.89569" lon="2.1118">
        <ele>264</ele>
        <time>2025-09-02T13:03:14.000Z</time>
      </trkpt>
      <trkpt lat="43.89565" lon="2.11179">
        <ele>265</ele>
        <time>2025-09-02T13:03:19.000Z</time>
      </trkpt>
      <trkpt lat="43.89561" lon="2.11179">
        <ele>266</ele>
        <time>2025-09-02T13:03:24.000Z</time>
      </trkpt>
      <trkpt lat="43.89558" lon="2.11178">
        <ele>266</ele>
        <time>2025-09-02T13:03:29.000Z</time>
      </trkpt>
      <trkpt lat="43.89553" lon="2.11178">
        <ele>267</ele>
        <time>2025-09-02T13:03:34.000Z</time>
      </trkpt>
      <trkpt lat="43.89548" lon="2.11178">
        <ele>268</ele>
        <time>2025-09-02T13:03:39.000Z</time>
      </trkpt>
      <trkpt lat="43.89544" lon="2.11177">
        <ele>268</ele>
        <time>2025-09-02T13:03:44.000Z</time>
      </trkpt>
      <trkpt lat="43.8954" lon="2.11176">
        <ele>269</ele>
        <time>2025-09-02T13:03:49.000Z</time>
      </trkpt>
      <trkpt lat="43.89536" lon="2.11177">
        <ele>271</ele>
        <time>2025-09-02T13:03:54.000Z</time>
      </trkpt>
      <trkpt lat="43.89531" lon="2.11176">
        <ele>271</ele>
        <time>2025-09-02T13:03:59.000Z</time>
      </trkpt>
      <trkpt lat="43.89526" lon="2.11174">
        <ele>269</ele>
        <time>2025-09-02T13:04:04.000Z</time>
      </trkpt>
      <trkpt lat="43.89521" lon="2.11171">
        <ele>267</ele>
        <time>2025-09-02T13:04:09.000Z</time>
      </trkpt>
      <trkpt lat="43.89514" lon="2.11168">
        <ele>268</ele>
        <time>2025-09-02T13:04:14.000Z</time>
      </trkpt>
      <trkpt lat="43.89509" lon="2.11165">
        <ele>269</ele>
        <time>2025-09-02T13:04:19.000Z</time>
      </trkpt>
      <trkpt lat="43.89505" lon="2.1116">
        <ele>269</ele>
        <time>2025-09-02T13:04:24.000Z</time>
      </trkpt>
      <trkpt lat="43.895" lon="2.11156">
        <ele>269</ele>
        <time>2025-09-02T13:04:29.000Z</time>
      </trkpt>
      <trkpt lat="43.89496" lon="2.1115">
        <ele>269</ele>
        <time>2025-09-02T13:04:34.000Z</time>
      </trkpt>
      <trkpt lat="43.89492" lon="2.11146">
        <ele>268</ele>
        <time>2025-09-02T13:04:39.000Z</time>
      </trkpt>
      <trkpt lat="43.8949" lon="2.11139">
        <ele>267</ele>
        <time>2025-09-02T13:04:44.000Z</time>
      </trkpt>
      <trkpt lat="43.89487" lon="2.11134">
        <ele>267</ele>
        <time>2025-09-02T13:04:49.000Z</time>
      </trkpt>
      <trkpt lat="43.89482" lon="2.11129">
        <ele>265</ele>
        <time>2025-09-02T13:04:54.000Z</time>
      </trkpt>
      <trkpt lat="43.89477" lon="2.11127">
        <ele>263</ele>
        <time>2025-09-02T13:04:59.000Z</time>
      </trkpt>
      <trkpt lat="43.89469" lon="2.11126">
        <ele>264</ele>
        <time>2025-09-02T13:05:04.000Z</time>
      </trkpt>
      <trkpt lat="43.89462" lon="2.11123">
        <ele>265</ele>
        <time>2025-09-02T13:05:09.000Z</time>
      </trkpt>
      <trkpt lat="43.89455" lon="2.11123">
        <ele>265</ele>
        <time>2025-09-02T13:05:14.000Z</time>
      </trkpt>
      <trkpt lat="43.89449" lon="2.11125">
        <ele>263</ele>
        <time>2025-09-02T13:05:19.000Z</time>
      </trkpt>
      <trkpt lat="43.89443" lon="2.11126">
        <ele>263</ele>
        <time>2025-09-02T13:05:24.000Z</time>
      </trkpt>
      <trkpt lat="43.89438" lon="2.1113">
        <ele>264</ele>
        <time>2025-09-02T13:05:29.000Z</time>
      </trkpt>
      <trkpt lat="43.89433" lon="2.11132">
        <ele>264</ele>
        <time>2025-09-02T13:05:34.000Z</time>
      </trkpt>
      <trkpt lat="43.89428" lon="2.11135">
        <ele>264</ele>
        <time>2025-09-02T13:05:39.000Z</time>
      </trkpt>
      <trkpt lat="43.89424" lon="2.11137">
        <ele>265</ele>
        <time>2025-09-02T13:05:44.000Z</time>
      </trkpt>
      <trkpt lat="43.89419" lon="2.11139">
        <ele>266</ele>
        <time>2025-09-02T13:05:49.000Z</time>
      </trkpt>
      <trkpt lat="43.89416" lon="2.11142">
        <ele>267</ele>
        <time>2025-09-02T13:05:54.000Z</time>
      </trkpt>
      <trkpt lat="43.89414" lon="2.11147">
        <ele>268</ele>
        <time>2025-09-02T13:05:59.000Z</time>
      </trkpt>
      <trkpt lat="43.89409" lon="2.11152">
        <ele>267</ele>
        <time>2025-09-02T13:06:04.000Z</time>
      </trkpt>
      <trkpt lat="43.89406" lon="2.11156">
        <ele>267</ele>
        <time>2025-09-02T13:06:09.000Z</time>
      </trkpt>
      <trkpt lat="43.89402" lon="2.11161">
        <ele>268</ele>
        <time>2025-09-02T13:06:14.000Z</time>
      </trkpt>
      <trkpt lat="43.89399" lon="2.11165">
        <ele>268</ele>
        <time>2025-09-02T13:06:19.000Z</time>
      </trkpt>
      <trkpt lat="43.89395" lon="2.11169">
        <ele>268</ele>
        <time>2025-09-02T13:06:24.000Z</time>
      </trkpt>
      <trkpt lat="43.89391" lon="2.11173">
        <ele>267</ele>
        <time>2025-09-02T13:06:29.000Z</time>
      </trkpt>
      <trkpt lat="43.89388" lon="2.11176">
        <ele>270</ele>
        <time>2025-09-02T13:06:34.000Z</time>
      </trkpt>
      <trkpt lat="43.89383" lon="2.11178">
        <ele>268</ele>
        <time>2025-09-02T13:06:39.000Z</time>
      </trkpt>
      <trkpt lat="43.89378" lon="2.11179">
        <ele>268</ele>
        <time>2025-09-02T13:06:44.000Z</time>
      </trkpt>
      <trkpt lat="43.89373" lon="2.11181">
        <ele>270</ele>
        <time>2025-09-02T13:06:49.000Z</time>
      </trkpt>
      <trkpt lat="43.89369" lon="2.11183">
        <ele>270</ele>
        <time>2025-09-02T13:06:54.000Z</time>
      </trkpt>
      <trkpt lat="43.89364" lon="2.11186">
        <ele>271</ele>
        <time>2025-09-02T13:06:59.000Z</time>
      </trkpt>
      <trkpt lat="43.89358" lon="2.11187">
        <ele>271</ele>
        <time>2025-09-02T13:07:04.000Z</time>
      </trkpt>
      <trkpt lat="43.89354" lon="2.11189">
        <ele>272</ele>
        <time>2025-09-02T13:07:09.000Z</time>
      </trkpt>
      <trkpt lat="43.89349" lon="2.11189">
        <ele>273</ele>
        <time>2025-09-02T13:07:14.000Z</time>
      </trkpt>
      <trkpt lat="43.89344" lon="2.11191">
        <ele>273</ele>
        <time>2025-09-02T13:07:19.000Z</time>
      </trkpt>
      <trkpt lat="43.8934" lon="2.11193">
        <ele>273</ele>
        <time>2025-09-02T13:07:24.000Z</time>
      </trkpt>
      <trkpt lat="43.89338" lon="2.11194">
        <ele>272</ele>
        <time>2025-09-02T13:07:29.000Z</time>
      </trkpt>
      <trkpt lat="43.89337" lon="2.11195">
        <ele>272</ele>
        <time>2025-09-02T13:07:34.000Z</time>
      </trkpt>
      <trkpt lat="43.89332" lon="2.11194">
        <ele>272</ele>
        <time>2025-09-02T13:07:39.000Z</time>
      </trkpt>
      <trkpt lat="43.89328" lon="2.11195">
        <ele>272</ele>
        <time>2025-09-02T13:07:44.000Z</time>
      </trkpt>
      <trkpt lat="43.89325" lon="2.11195">
        <ele>275</ele>
        <time>2025-09-02T13:07:49.000Z</time>
      </trkpt>
      <trkpt lat="43.89322" lon="2.11197">
        <ele>278</ele>
        <time>2025-09-02T13:07:54.000Z</time>
      </trkpt>
      <trkpt lat="43.89319" lon="2.11198">
        <ele>277</ele>
        <time>2025-09-02T13:07:59.000Z</time>
      </trkpt>
      <trkpt lat="43.89313" lon="2.11197">
        <ele>277</ele>
        <time>2025-09-02T13:08:04.000Z</time>
      </trkpt>
      <trkpt lat="43.89306" lon="2.11196">
        <ele>277</ele>
        <time>2025-09-02T13:08:09.000Z</time>
      </trkpt>
      <trkpt lat="43.893" lon="2.11193">
        <ele>276</ele>
        <time>2025-09-02T13:08:14.000Z</time>
      </trkpt>
      <trkpt lat="43.89296" lon="2.1119">
        <ele>276</ele>
        <time>2025-09-02T13:08:19.000Z</time>
      </trkpt>
      <trkpt lat="43.89293" lon="2.11183">
        <ele>275</ele>
        <time>2025-09-02T13:08:24.000Z</time>
      </trkpt>
      <trkpt lat="43.8929" lon="2.11178">
        <ele>276</ele>
        <time>2025-09-02T13:08:29.000Z</time>
      </trkpt>
      <trkpt lat="43.89289" lon="2.11172">
        <ele>276</ele>
        <time>2025-09-02T13:08:34.000Z</time>
      </trkpt>
      <trkpt lat="43.89286" lon="2.11165">
        <ele>276</ele>
        <time>2025-09-02T13:08:39.000Z</time>
      </trkpt>
      <trkpt lat="43.89284" lon="2.11158">
        <ele>278</ele>
        <time>2025-09-02T13:08:44.000Z</time>
      </trkpt>
      <trkpt lat="43.89283" lon="2.1115">
        <ele>278</ele>
        <time>2025-09-02T13:08:49.000Z</time>
      </trkpt>
      <trkpt lat="43.89285" lon="2.11143">
        <ele>278</ele>
        <time>2025-09-02T13:08:54.000Z</time>
      </trkpt>
      <trkpt lat="43.89285" lon="2.11137">
        <ele>280</ele>
        <time>2025-09-02T13:08:59.000Z</time>
      </trkpt>
      <trkpt lat="43.89286" lon="2.11131">
        <ele>282</ele>
        <time>2025-09-02T13:09:04.000Z</time>
      </trkpt>
      <trkpt lat="43.89287" lon="2.11126">
        <ele>282</ele>
        <time>2025-09-02T13:09:09.000Z</time>
      </trkpt>
      <trkpt lat="43.89287" lon="2.11119">
        <ele>284</ele>
        <time>2025-09-02T13:09:14.000Z</time>
      </trkpt>
      <trkpt lat="43.8929" lon="2.11113">
        <ele>284</ele>
        <time>2025-09-02T13:09:19.000Z</time>
      </trkpt>
      <trkpt lat="43.89291" lon="2.11106">
        <ele>283</ele>
        <time>2025-09-02T13:09:24.000Z</time>
      </trkpt>
      <trkpt lat="43.89294" lon="2.111">
        <ele>283</ele>
        <time>2025-09-02T13:09:29.000Z</time>
      </trkpt>
      <trkpt lat="43.89297" lon="2.11095">
        <ele>282</ele>
        <time>2025-09-02T13:09:34.000Z</time>
      </trkpt>
      <trkpt lat="43.893" lon="2.1109">
        <ele>285</ele>
        <time>2025-09-02T13:09:39.000Z</time>
      </trkpt>
      <trkpt lat="43.89304" lon="2.11086">
        <ele>285</ele>
        <time>2025-09-02T13:09:44.000Z</time>
      </trkpt>
      <trkpt lat="43.8931" lon="2.11081">
        <ele>285</ele>
        <time>2025-09-02T13:09:49.000Z</time>
      </trkpt>
      <trkpt lat="43.89314" lon="2.11077">
        <ele>285</ele>
        <time>2025-09-02T13:09:54.000Z</time>
      </trkpt>
      <trkpt lat="43.89319" lon="2.11072">
        <ele>286</ele>
        <time>2025-09-02T13:09:59.000Z</time>
      </trkpt>
      <trkpt lat="43.89325" lon="2.11067">
        <ele>285</ele>
        <time>2025-09-02T13:10:04.000Z</time>
      </trkpt>
      <trkpt lat="43.8933" lon="2.11063">
        <ele>283</ele>
        <time>2025-09-02T13:10:09.000Z</time>
      </trkpt>
      <trkpt lat="43.89334" lon="2.1106">
        <ele>283</ele>
        <time>2025-09-02T13:10:14.000Z</time>
      </trkpt>
      <trkpt lat="43.89339" lon="2.11055">
        <ele>284</ele>
        <time>2025-09-02T13:10:19.000Z</time>
      </trkpt>
      <trkpt lat="43.89344" lon="2.11049">
        <ele>284</ele>
        <time>2025-09-02T13:10:24.000Z</time>
      </trkpt>
      <trkpt lat="43.89348" lon="2.11045">
        <ele>284</ele>
        <time>2025-09-02T13:10:29.000Z</time>
      </trkpt>
      <trkpt lat="43.89351" lon="2.11039">
        <ele>283</ele>
        <time>2025-09-02T13:10:34.000Z</time>
      </trkpt>
      <trkpt lat="43.89355" lon="2.11034">
        <ele>283</ele>
        <time>2025-09-02T13:10:39.000Z</time>
      </trkpt>
      <trkpt lat="43.89359" lon="2.11029">
        <ele>285</ele>
        <time>2025-09-02T13:10:44.000Z</time>
      </trkpt>
      <trkpt lat="43.89363" lon="2.11023">
        <ele>285</ele>
        <time>2025-09-02T13:10:49.000Z</time>
      </trkpt>
      <trkpt lat="43.89367" lon="2.11015">
        <ele>284</ele>
        <time>2025-09-02T13:10:54.000Z</time>
      </trkpt>
      <trkpt lat="43.89371" lon="2.11009">
        <ele>285</ele>
        <time>2025-09-02T13:10:59.000Z</time>
      </trkpt>
      <trkpt lat="43.89374" lon="2.11002">
        <ele>284</ele>
        <time>2025-09-02T13:11:04.000Z</time>
      </trkpt>
      <trkpt lat="43.89376" lon="2.10996">
        <ele>283</ele>
        <time>2025-09-02T13:11:09.000Z</time>
      </trkpt>
      <trkpt lat="43.89379" lon="2.1099">
        <ele>284</ele>
        <time>2025-09-02T13:11:14.000Z</time>
      </trkpt>
      <trkpt lat="43.89382" lon="2.10983">
        <ele>285</ele>
        <time>2025-09-02T13:11:19.000Z</time>
      </trkpt>
      <trkpt lat="43.89385" lon="2.10977">
        <ele>285</ele>
        <time>2025-09-02T13:11:24.000Z</time>
      </trkpt>
      <trkpt lat="43.89388" lon="2.1097">
        <ele>286</ele>
        <time>2025-09-02T13:11:29.000Z</time>
      </trkpt>
      <trkpt lat="43.89392" lon="2.10963">
        <ele>286</ele>
        <time>2025-09-02T13:11:34.000Z</time>
      </trkpt>
      <trkpt lat="43.89394" lon="2.10956">
        <ele>287</ele>
        <time>2025-09-02T13:11:39.000Z</time>
      </trkpt>
      <trkpt lat="43.89397" lon="2.10951">
        <ele>286</ele>
        <time>2025-09-02T13:11:44.000Z</time>
      </trkpt>
      <trkpt lat="43.894" lon="2.10945">
        <ele>286</ele>
        <time>2025-09-02T13:11:49.000Z</time>
      </trkpt>
      <trkpt lat="43.89403" lon="2.10938">
        <ele>286</ele>
        <time>2025-09-02T13:11:54.000Z</time>
      </trkpt>
      <trkpt lat="43.89404" lon="2.10932">
        <ele>287</ele>
        <time>2025-09-02T13:11:59.000Z</time>
      </trkpt>
      <trkpt lat="43.89407" lon="2.10926">
        <ele>286</ele>
        <time>2025-09-02T13:12:04.000Z</time>
      </trkpt>
      <trkpt lat="43.89411" lon="2.10919">
        <ele>286</ele>
        <time>2025-09-02T13:12:09.000Z</time>
      </trkpt>
      <trkpt lat="43.89416" lon="2.10906">
        <ele>283</ele>
        <time>2025-09-02T13:12:14.000Z</time>
      </trkpt>
      <trkpt lat="43.89417" lon="2.109">
        <ele>284</ele>
        <time>2025-09-02T13:12:19.000Z</time>
      </trkpt>
      <trkpt lat="43.89421" lon="2.10893">
        <ele>285</ele>
        <time>2025-09-02T13:12:24.000Z</time>
      </trkpt>
      <trkpt lat="43.89423" lon="2.10888">
        <ele>286</ele>
        <time>2025-09-02T13:12:29.000Z</time>
      </trkpt>
      <trkpt lat="43.89427" lon="2.10883">
        <ele>288</ele>
        <time>2025-09-02T13:12:34.000Z</time>
      </trkpt>
      <trkpt lat="43.8943" lon="2.1088">
        <ele>287</ele>
        <time>2025-09-02T13:12:39.000Z</time>
      </trkpt>
      <trkpt lat="43.8943" lon="2.10878">
        <ele>286</ele>
        <time>2025-09-02T13:12:44.000Z</time>
      </trkpt>
      <trkpt lat="43.8943" lon="2.10878">
        <ele>286</ele>
        <time>2025-09-02T13:12:49.000Z</time>
      </trkpt>
      <trkpt lat="43.8943" lon="2.10878">
        <ele>286</ele>
        <time>2025-09-02T13:12:54.000Z</time>
      </trkpt>
      <trkpt lat="43.8943" lon="2.10878">
        <ele>286</ele>
        <time>2025-09-02T13:12:59.000Z</time>
      </trkpt>
      <trkpt lat="43.8943" lon="2.10878">
        <ele>286</ele>
        <time>2025-09-02T13:13:04.000Z</time>
      </trkpt>
      <trkpt lat="43.8943" lon="2.10878">
        <ele>286</ele>
        <time>2025-09-02T13:13:09.000Z</time>
      </trkpt>
      <trkpt lat="43.8943" lon="2.10878">
        <ele>286</ele>
        <time>2025-09-02T13:13:14.000Z</time>
      </trkpt>
      <trkpt lat="43.8943" lon="2.10877">
        <ele>287</ele>
        <time>2025-09-02T13:13:19.000Z</time>
      </trkpt>
      <trkpt lat="43.8943" lon="2.10877">
        <ele>287</ele>
        <time>2025-09-02T13:13:24.000Z</time>
      </trkpt>
      <trkpt lat="43.89431" lon="2.10877">
        <ele>287</ele>
        <time>2025-09-02T13:13:29.000Z</time>
      </trkpt>
      <trkpt lat="43.89433" lon="2.10874">
        <ele>287</ele>
        <time>2025-09-02T13:13:34.000Z</time>
      </trkpt>
      <trkpt lat="43.89437" lon="2.1087">
        <ele>288</ele>
        <time>2025-09-02T13:13:39.000Z</time>
      </trkpt>
      <trkpt lat="43.89438" lon="2.10864">
        <ele>289</ele>
        <time>2025-09-02T13:13:44.000Z</time>
      </trkpt>
      <trkpt lat="43.89441" lon="2.1086">
        <ele>290</ele>
        <time>2025-09-02T13:13:49.000Z</time>
      </trkpt>
      <trkpt lat="43.89444" lon="2.10856">
        <ele>290</ele>
        <time>2025-09-02T13:13:54.000Z</time>
      </trkpt>
      <trkpt lat="43.89447" lon="2.10851">
        <ele>290</ele>
        <time>2025-09-02T13:13:59.000Z</time>
      </trkpt>
      <trkpt lat="43.8945" lon="2.10845">
        <ele>292</ele>
        <time>2025-09-02T13:14:04.000Z</time>
      </trkpt>
      <trkpt lat="43.89453" lon="2.10841">
        <ele>293</ele>
        <time>2025-09-02T13:14:09.000Z</time>
      </trkpt>
      <trkpt lat="43.89456" lon="2.10836">
        <ele>293</ele>
        <time>2025-09-02T13:14:14.000Z</time>
      </trkpt>
      <trkpt lat="43.89456" lon="2.10836">
        <ele>293</ele>
        <time>2025-09-02T13:14:19.000Z</time>
      </trkpt>
      <trkpt lat="43.89457" lon="2.10835">
        <ele>293</ele>
        <time>2025-09-02T13:14:24.000Z</time>
      </trkpt>
      <trkpt lat="43.89458" lon="2.1083">
        <ele>293</ele>
        <time>2025-09-02T13:14:29.000Z</time>
      </trkpt>
      <trkpt lat="43.8946" lon="2.10824">
        <ele>292</ele>
        <time>2025-09-02T13:14:34.000Z</time>
      </trkpt>
      <trkpt lat="43.89463" lon="2.10819">
        <ele>291</ele>
        <time>2025-09-02T13:14:39.000Z</time>
      </trkpt>
      <trkpt lat="43.89465" lon="2.10812">
        <ele>290</ele>
        <time>2025-09-02T13:14:44.000Z</time>
      </trkpt>
      <trkpt lat="43.89469" lon="2.10807">
        <ele>290</ele>
        <time>2025-09-02T13:14:49.000Z</time>
      </trkpt>
      <trkpt lat="43.89472" lon="2.108">
        <ele>290</ele>
        <time>2025-09-02T13:14:54.000Z</time>
      </trkpt>
      <trkpt lat="43.89475" lon="2.10796">
        <ele>290</ele>
        <time>2025-09-02T13:14:59.000Z</time>
      </trkpt>
      <trkpt lat="43.89476" lon="2.1079">
        <ele>290</ele>
        <time>2025-09-02T13:15:04.000Z</time>
      </trkpt>
      <trkpt lat="43.89478" lon="2.10784">
        <ele>289</ele>
        <time>2025-09-02T13:15:09.000Z</time>
      </trkpt>
      <trkpt lat="43.89482" lon="2.1078">
        <ele>289</ele>
        <time>2025-09-02T13:15:14.000Z</time>
      </trkpt>
      <trkpt lat="43.89483" lon="2.10775">
        <ele>288</ele>
        <time>2025-09-02T13:15:19.000Z</time>
      </trkpt>
      <trkpt lat="43.89486" lon="2.10767">
        <ele>287</ele>
        <time>2025-09-02T13:15:24.000Z</time>
      </trkpt>
      <trkpt lat="43.89489" lon="2.10763">
        <ele>288</ele>
        <time>2025-09-02T13:15:29.000Z</time>
      </trkpt>
      <trkpt lat="43.89491" lon="2.10757">
        <ele>285</ele>
        <time>2025-09-02T13:15:34.000Z</time>
      </trkpt>
      <trkpt lat="43.89494" lon="2.10753">
        <ele>288</ele>
        <time>2025-09-02T13:15:39.000Z</time>
      </trkpt>
      <trkpt lat="43.89496" lon="2.10747">
        <ele>288</ele>
        <time>2025-09-02T13:15:44.000Z</time>
      </trkpt>
      <trkpt lat="43.89499" lon="2.10743">
        <ele>288</ele>
        <time>2025-09-02T13:15:49.000Z</time>
      </trkpt>
      <trkpt lat="43.89501" lon="2.10735">
        <ele>289</ele>
        <time>2025-09-02T13:15:54.000Z</time>
      </trkpt>
      <trkpt lat="43.89503" lon="2.10728">
        <ele>288</ele>
        <time>2025-09-02T13:15:59.000Z</time>
      </trkpt>
      <trkpt lat="43.89505" lon="2.10721">
        <ele>287</ele>
        <time>2025-09-02T13:16:04.000Z</time>
      </trkpt>
      <trkpt lat="43.89506" lon="2.10714">
        <ele>287</ele>
        <time>2025-09-02T13:16:09.000Z</time>
      </trkpt>
      <trkpt lat="43.89508" lon="2.10706">
        <ele>288</ele>
        <time>2025-09-02T13:16:14.000Z</time>
      </trkpt>
      <trkpt lat="43.89511" lon="2.10699">
        <ele>289</ele>
        <time>2025-09-02T13:16:19.000Z</time>
      </trkpt>
      <trkpt lat="43.89514" lon="2.10692">
        <ele>291</ele>
        <time>2025-09-02T13:16:24.000Z</time>
      </trkpt>
      <trkpt lat="43.89518" lon="2.10684">
        <ele>290</ele>
        <time>2025-09-02T13:16:29.000Z</time>
      </trkpt>
      <trkpt lat="43.8952" lon="2.10675">
        <ele>290</ele>
        <time>2025-09-02T13:16:34.000Z</time>
      </trkpt>
      <trkpt lat="43.89522" lon="2.10668">
        <ele>292</ele>
        <time>2025-09-02T13:16:39.000Z</time>
      </trkpt>
      <trkpt lat="43.89523" lon="2.10662">
        <ele>291</ele>
        <time>2025-09-02T13:16:44.000Z</time>
      </trkpt>
      <trkpt lat="43.89523" lon="2.10655">
        <ele>290</ele>
        <time>2025-09-02T13:16:49.000Z</time>
      </trkpt>
      <trkpt lat="43.89525" lon="2.10646">
        <ele>291</ele>
        <time>2025-09-02T13:16:54.000Z</time>
      </trkpt>
      <trkpt lat="43.89527" lon="2.10637">
        <ele>290</ele>
        <time>2025-09-02T13:16:59.000Z</time>
      </trkpt>
      <trkpt lat="43.89529" lon="2.10629">
        <ele>291</ele>
        <time>2025-09-02T13:17:04.000Z</time>
      </trkpt>
      <trkpt lat="43.8953" lon="2.1062">
        <ele>290</ele>
        <time>2025-09-02T13:17:09.000Z</time>
      </trkpt>
      <trkpt lat="43.89529" lon="2.10614">
        <ele>288</ele>
        <time>2025-09-02T13:17:14.000Z</time>
      </trkpt>
      <trkpt lat="43.89528" lon="2.10608">
        <ele>286</ele>
        <time>2025-09-02T13:17:19.000Z</time>
      </trkpt>
      <trkpt lat="43.89527" lon="2.10601">
        <ele>287</ele>
        <time>2025-09-02T13:17:24.000Z</time>
      </trkpt>
      <trkpt lat="43.89526" lon="2.10594">
        <ele>287</ele>
        <time>2025-09-02T13:17:29.000Z</time>
      </trkpt>
      <trkpt lat="43.89525" lon="2.10587">
        <ele>287</ele>
        <time>2025-09-02T13:17:34.000Z</time>
      </trkpt>
      <trkpt lat="43.89525" lon="2.10579">
        <ele>287</ele>
        <time>2025-09-02T13:17:39.000Z</time>
      </trkpt>
      <trkpt lat="43.89524" lon="2.10572">
        <ele>288</ele>
        <time>2025-09-02T13:17:44.000Z</time>
      </trkpt>
      <trkpt lat="43.89523" lon="2.10563">
        <ele>288</ele>
        <time>2025-09-02T13:17:49.000Z</time>
      </trkpt>
      <trkpt lat="43.89522" lon="2.10555">
        <ele>286</ele>
        <time>2025-09-02T13:17:54.000Z</time>
      </trkpt>
      <trkpt lat="43.89521" lon="2.10547">
        <ele>285</ele>
        <time>2025-09-02T13:17:59.000Z</time>
      </trkpt>
      <trkpt lat="43.89521" lon="2.10538">
        <ele>284</ele>
        <time>2025-09-02T13:18:04.000Z</time>
      </trkpt>
      <trkpt lat="43.8952" lon="2.10531">
        <ele>282</ele>
        <time>2025-09-02T13:18:09.000Z</time>
      </trkpt>
      <trkpt lat="43.89519" lon="2.10523">
        <ele>282</ele>
        <time>2025-09-02T13:18:14.000Z</time>
      </trkpt>
      <trkpt lat="43.89518" lon="2.10516">
        <ele>281</ele>
        <time>2025-09-02T13:18:19.000Z</time>
      </trkpt>
      <trkpt lat="43.89519" lon="2.10507">
        <ele>282</ele>
        <time>2025-09-02T13:18:24.000Z</time>
      </trkpt>
      <trkpt lat="43.89519" lon="2.10497">
        <ele>283</ele>
        <time>2025-09-02T13:18:29.000Z</time>
      </trkpt>
      <trkpt lat="43.89519" lon="2.10489">
        <ele>283</ele>
        <time>2025-09-02T13:18:34.000Z</time>
      </trkpt>
      <trkpt lat="43.89518" lon="2.10483">
        <ele>282</ele>
        <time>2025-09-02T13:18:39.000Z</time>
      </trkpt>
      <trkpt lat="43.89518" lon="2.10475">
        <ele>282</ele>
        <time>2025-09-02T13:18:44.000Z</time>
      </trkpt>
      <trkpt lat="43.89517" lon="2.10467">
        <ele>282</ele>
        <time>2025-09-02T13:18:49.000Z</time>
      </trkpt>
      <trkpt lat="43.89517" lon="2.10459">
        <ele>282</ele>
        <time>2025-09-02T13:18:54.000Z</time>
      </trkpt>
      <trkpt lat="43.89517" lon="2.10451">
        <ele>282</ele>
        <time>2025-09-02T13:18:59.000Z</time>
      </trkpt>
      <trkpt lat="43.89517" lon="2.10443">
        <ele>282</ele>
        <time>2025-09-02T13:19:04.000Z</time>
      </trkpt>
      <trkpt lat="43.89517" lon="2.10435">
        <ele>284</ele>
        <time>2025-09-02T13:19:09.000Z</time>
      </trkpt>
      <trkpt lat="43.89516" lon="2.10427">
        <ele>283</ele>
        <time>2025-09-02T13:19:14.000Z</time>
      </trkpt>
      <trkpt lat="43.89516" lon="2.10419">
        <ele>283</ele>
        <time>2025-09-02T13:19:19.000Z</time>
      </trkpt>
      <trkpt lat="43.89516" lon="2.10412">
        <ele>283</ele>
        <time>2025-09-02T13:19:24.000Z</time>
      </trkpt>
      <trkpt lat="43.89516" lon="2.10403">
        <ele>284</ele>
        <time>2025-09-02T13:19:29.000Z</time>
      </trkpt>
      <trkpt lat="43.89516" lon="2.10395">
        <ele>283</ele>
        <time>2025-09-02T13:19:34.000Z</time>
      </trkpt>
      <trkpt lat="43.89515" lon="2.10387">
        <ele>282</ele>
        <time>2025-09-02T13:19:39.000Z</time>
      </trkpt>
      <trkpt lat="43.89514" lon="2.10378">
        <ele>284</ele>
        <time>2025-09-02T13:19:44.000Z</time>
      </trkpt>
      <trkpt lat="43.89514" lon="2.1037">
        <ele>283</ele>
        <time>2025-09-02T13:19:49.000Z</time>
      </trkpt>
      <trkpt lat="43.89514" lon="2.10363">
        <ele>282</ele>
        <time>2025-09-02T13:19:54.000Z</time>
      </trkpt>
      <trkpt lat="43.89512" lon="2.10355">
        <ele>280</ele>
        <time>2025-09-02T13:19:59.000Z</time>
      </trkpt>
      <trkpt lat="43.89511" lon="2.10346">
        <ele>280</ele>
        <time>2025-09-02T13:20:04.000Z</time>
      </trkpt>
      <trkpt lat="43.89509" lon="2.10341">
        <ele>281</ele>
        <time>2025-09-02T13:20:09.000Z</time>
      </trkpt>
      <trkpt lat="43.89506" lon="2.10334">
        <ele>281</ele>
        <time>2025-09-02T13:20:14.000Z</time>
      </trkpt>
      <trkpt lat="43.89504" lon="2.10327">
        <ele>280</ele>
        <time>2025-09-02T13:20:19.000Z</time>
      </trkpt>
      <trkpt lat="43.89501" lon="2.1032">
        <ele>280</ele>
        <time>2025-09-02T13:20:24.000Z</time>
      </trkpt>
      <trkpt lat="43.89498" lon="2.10315">
        <ele>279</ele>
        <time>2025-09-02T13:20:29.000Z</time>
      </trkpt>
      <trkpt lat="43.89497" lon="2.10306">
        <ele>280</ele>
        <time>2025-09-02T13:20:34.000Z</time>
      </trkpt>
      <trkpt lat="43.89496" lon="2.10299">
        <ele>280</ele>
        <time>2025-09-02T13:20:39.000Z</time>
      </trkpt>
      <trkpt lat="43.89496" lon="2.10292">
        <ele>279</ele>
        <time>2025-09-02T13:20:44.000Z</time>
      </trkpt>
      <trkpt lat="43.89496" lon="2.10286">
        <ele>280</ele>
        <time>2025-09-02T13:20:49.000Z</time>
      </trkpt>
      <trkpt lat="43.89496" lon="2.10278">
        <ele>281</ele>
        <time>2025-09-02T13:20:54.000Z</time>
      </trkpt>
      <trkpt lat="43.89496" lon="2.10272">
        <ele>282</ele>
        <time>2025-09-02T13:20:59.000Z</time>
      </trkpt>
      <trkpt lat="43.89495" lon="2.10265">
        <ele>282</ele>
        <time>2025-09-02T13:21:04.000Z</time>
      </trkpt>
      <trkpt lat="43.89493" lon="2.10259">
        <ele>283</ele>
        <time>2025-09-02T13:21:09.000Z</time>
      </trkpt>
      <trkpt lat="43.89491" lon="2.10254">
        <ele>284</ele>
        <time>2025-09-02T13:21:14.000Z</time>
      </trkpt>
      <trkpt lat="43.89489" lon="2.10247">
        <ele>285</ele>
        <time>2025-09-02T13:21:19.000Z</time>
      </trkpt>
      <trkpt lat="43.89486" lon="2.10243">
        <ele>286</ele>
        <time>2025-09-02T13:21:24.000Z</time>
      </trkpt>
      <trkpt lat="43.89486" lon="2.10237">
        <ele>287</ele>
        <time>2025-09-02T13:21:29.000Z</time>
      </trkpt>
      <trkpt lat="43.89485" lon="2.10237">
        <ele>287</ele>
        <time>2025-09-02T13:21:34.000Z</time>
      </trkpt>
      <trkpt lat="43.89485" lon="2.10236">
        <ele>286</ele>
        <time>2025-09-02T13:21:39.000Z</time>
      </trkpt>
      <trkpt lat="43.89485" lon="2.10236">
        <ele>286</ele>
        <time>2025-09-02T13:21:44.000Z</time>
      </trkpt>
      <trkpt lat="43.89485" lon="2.10236">
        <ele>286</ele>
        <time>2025-09-02T13:21:49.000Z</time>
      </trkpt>
      <trkpt lat="43.89485" lon="2.10236">
        <ele>286</ele>
        <time>2025-09-02T13:21:54.000Z</time>
      </trkpt>
      <trkpt lat="43.89485" lon="2.10237">
        <ele>286</ele>
        <time>2025-09-02T13:21:59.000Z</time>
      </trkpt>
      <trkpt lat="43.89482" lon="2.10241">
        <ele>285</ele>
        <time>2025-09-02T13:22:04.000Z</time>
      </trkpt>
      <trkpt lat="43.8948" lon="2.10246">
        <ele>287</ele>
        <time>2025-09-02T13:22:09.000Z</time>
      </trkpt>
      <trkpt lat="43.89479" lon="2.10251">
        <ele>287</ele>
        <time>2025-09-02T13:22:14.000Z</time>
      </trkpt>
      <trkpt lat="43.89475" lon="2.10256">
        <ele>287</ele>
        <time>2025-09-02T13:22:19.000Z</time>
      </trkpt>
      <trkpt lat="43.89472" lon="2.10258">
        <ele>288</ele>
        <time>2025-09-02T13:22:24.000Z</time>
      </trkpt>
      <trkpt lat="43.89468" lon="2.10262">
        <ele>288</ele>
        <time>2025-09-02T13:22:29.000Z</time>
      </trkpt>
      <trkpt lat="43.89465" lon="2.10266">
        <ele>287</ele>
        <time>2025-09-02T13:22:34.000Z</time>
      </trkpt>
      <trkpt lat="43.89461" lon="2.10268">
        <ele>287</ele>
        <time>2025-09-02T13:22:39.000Z</time>
      </trkpt>
      <trkpt lat="43.89458" lon="2.10271">
        <ele>287</ele>
        <time>2025-09-02T13:22:44.000Z</time>
      </trkpt>
      <trkpt lat="43.89454" lon="2.10276">
        <ele>287</ele>
        <time>2025-09-02T13:22:49.000Z</time>
      </trkpt>
      <trkpt lat="43.89449" lon="2.10279">
        <ele>288</ele>
        <time>2025-09-02T13:22:54.000Z</time>
      </trkpt>
      <trkpt lat="43.89445" lon="2.10283">
        <ele>290</ele>
        <time>2025-09-02T13:22:59.000Z</time>
      </trkpt>
      <trkpt lat="43.89441" lon="2.10285">
        <ele>291</ele>
        <time>2025-09-02T13:23:04.000Z</time>
      </trkpt>
      <trkpt lat="43.89437" lon="2.1029">
        <ele>291</ele>
        <time>2025-09-02T13:23:09.000Z</time>
      </trkpt>
      <trkpt lat="43.89433" lon="2.10293">
        <ele>292</ele>
        <time>2025-09-02T13:23:14.000Z</time>
      </trkpt>
      <trkpt lat="43.89429" lon="2.10297">
        <ele>292</ele>
        <time>2025-09-02T13:23:19.000Z</time>
      </trkpt>
      <trkpt lat="43.89427" lon="2.10302">
        <ele>294</ele>
        <time>2025-09-02T13:23:24.000Z</time>
      </trkpt>
      <trkpt lat="43.89423" lon="2.10307">
        <ele>293</ele>
        <time>2025-09-02T13:23:29.000Z</time>
      </trkpt>
      <trkpt lat="43.8942" lon="2.10311">
        <ele>295</ele>
        <time>2025-09-02T13:23:34.000Z</time>
      </trkpt>
      <trkpt lat="43.89417" lon="2.10316">
        <ele>296</ele>
        <time>2025-09-02T13:23:39.000Z</time>
      </trkpt>
      <trkpt lat="43.89414" lon="2.10319">
        <ele>296</ele>
        <time>2025-09-02T13:23:44.000Z</time>
      </trkpt>
      <trkpt lat="43.89412" lon="2.10324">
        <ele>297</ele>
        <time>2025-09-02T13:23:49.000Z</time>
      </trkpt>
      <trkpt lat="43.89409" lon="2.10329">
        <ele>296</ele>
        <time>2025-09-02T13:23:54.000Z</time>
      </trkpt>
      <trkpt lat="43.89406" lon="2.10334">
        <ele>297</ele>
        <time>2025-09-02T13:23:59.000Z</time>
      </trkpt>
      <trkpt lat="43.89403" lon="2.10338">
        <ele>297</ele>
        <time>2025-09-02T13:24:04.000Z</time>
      </trkpt>
      <trkpt lat="43.89401" lon="2.10343">
        <ele>296</ele>
        <time>2025-09-02T13:24:09.000Z</time>
      </trkpt>
      <trkpt lat="43.89398" lon="2.10348">
        <ele>297</ele>
        <time>2025-09-02T13:24:14.000Z</time>
      </trkpt>
      <trkpt lat="43.89395" lon="2.10353">
        <ele>299</ele>
        <time>2025-09-02T13:24:19.000Z</time>
      </trkpt>
      <trkpt lat="43.89392" lon="2.10357">
        <ele>299</ele>
        <time>2025-09-02T13:24:24.000Z</time>
      </trkpt>
      <trkpt lat="43.89389" lon="2.10361">
        <ele>298</ele>
        <time>2025-09-02T13:24:29.000Z</time>
      </trkpt>
      <trkpt lat="43.89385" lon="2.10364">
        <ele>300</ele>
        <time>2025-09-02T13:24:34.000Z</time>
      </trkpt>
      <trkpt lat="43.89382" lon="2.10367">
        <ele>301</ele>
        <time>2025-09-02T13:24:39.000Z</time>
      </trkpt>
      <trkpt lat="43.8938" lon="2.10373">
        <ele>301</ele>
        <time>2025-09-02T13:24:44.000Z</time>
      </trkpt>
      <trkpt lat="43.89378" lon="2.10378">
        <ele>300</ele>
        <time>2025-09-02T13:24:49.000Z</time>
      </trkpt>
      <trkpt lat="43.89374" lon="2.10382">
        <ele>301</ele>
        <time>2025-09-02T13:24:54.000Z</time>
      </trkpt>
      <trkpt lat="43.89372" lon="2.10387">
        <ele>302</ele>
        <time>2025-09-02T13:24:59.000Z</time>
      </trkpt>
      <trkpt lat="43.89369" lon="2.10393">
        <ele>303</ele>
        <time>2025-09-02T13:25:04.000Z</time>
      </trkpt>
      <trkpt lat="43.89367" lon="2.10397">
        <ele>305</ele>
        <time>2025-09-02T13:25:09.000Z</time>
      </trkpt>
      <trkpt lat="43.89364" lon="2.10401">
        <ele>305</ele>
        <time>2025-09-02T13:25:14.000Z</time>
      </trkpt>
      <trkpt lat="43.89361" lon="2.10406">
        <ele>305</ele>
        <time>2025-09-02T13:25:19.000Z</time>
      </trkpt>
      <trkpt lat="43.89359" lon="2.1041">
        <ele>305</ele>
        <time>2025-09-02T13:25:24.000Z</time>
      </trkpt>
      <trkpt lat="43.89356" lon="2.10415">
        <ele>307</ele>
        <time>2025-09-02T13:25:29.000Z</time>
      </trkpt>
      <trkpt lat="43.89354" lon="2.10419">
        <ele>307</ele>
        <time>2025-09-02T13:25:34.000Z</time>
      </trkpt>
      <trkpt lat="43.8935" lon="2.10422">
        <ele>307</ele>
        <time>2025-09-02T13:25:39.000Z</time>
      </trkpt>
      <trkpt lat="43.89347" lon="2.10425">
        <ele>306</ele>
        <time>2025-09-02T13:25:44.000Z</time>
      </trkpt>
      <trkpt lat="43.89342" lon="2.10429">
        <ele>307</ele>
        <time>2025-09-02T13:25:49.000Z</time>
      </trkpt>
      <trkpt lat="43.89338" lon="2.10435">
        <ele>307</ele>
        <time>2025-09-02T13:25:54.000Z</time>
      </trkpt>
      <trkpt lat="43.89334" lon="2.1044">
        <ele>309</ele>
        <time>2025-09-02T13:25:59.000Z</time>
      </trkpt>
      <trkpt lat="43.89331" lon="2.10444">
        <ele>308</ele>
        <time>2025-09-02T13:26:04.000Z</time>
      </trkpt>
      <trkpt lat="43.89327" lon="2.10449">
        <ele>308</ele>
        <time>2025-09-02T13:26:09.000Z</time>
      </trkpt>
      <trkpt lat="43.89322" lon="2.10453">
        <ele>307</ele>
        <time>2025-09-02T13:26:14.000Z</time>
      </trkpt>
      <trkpt lat="43.89318" lon="2.10456">
        <ele>305</ele>
        <time>2025-09-02T13:26:19.000Z</time>
      </trkpt>
      <trkpt lat="43.89313" lon="2.10459">
        <ele>305</ele>
        <time>2025-09-02T13:26:24.000Z</time>
      </trkpt>
      <trkpt lat="43.89309" lon="2.10463">
        <ele>306</ele>
        <time>2025-09-02T13:26:29.000Z</time>
      </trkpt>
      <trkpt lat="43.89305" lon="2.10468">
        <ele>306</ele>
        <time>2025-09-02T13:26:34.000Z</time>
      </trkpt>
      <trkpt lat="43.893" lon="2.10472">
        <ele>306</ele>
        <time>2025-09-02T13:26:39.000Z</time>
      </trkpt>
      <trkpt lat="43.89297" lon="2.10476">
        <ele>305</ele>
        <time>2025-09-02T13:26:44.000Z</time>
      </trkpt>
      <trkpt lat="43.89292" lon="2.1048">
        <ele>303</ele>
        <time>2025-09-02T13:26:49.000Z</time>
      </trkpt>
      <trkpt lat="43.89288" lon="2.10485">
        <ele>303</ele>
        <time>2025-09-02T13:26:54.000Z</time>
      </trkpt>
      <trkpt lat="43.89285" lon="2.1049">
        <ele>302</ele>
        <time>2025-09-02T13:26:59.000Z</time>
      </trkpt>
      <trkpt lat="43.8928" lon="2.10496">
        <ele>302</ele>
        <time>2025-09-02T13:27:04.000Z</time>
      </trkpt>
      <trkpt lat="43.89275" lon="2.10501">
        <ele>303</ele>
        <time>2025-09-02T13:27:09.000Z</time>
      </trkpt>
      <trkpt lat="43.89271" lon="2.10506">
        <ele>303</ele>
        <time>2025-09-02T13:27:14.000Z</time>
      </trkpt>
      <trkpt lat="43.89268" lon="2.1051">
        <ele>302</ele>
        <time>2025-09-02T13:27:19.000Z</time>
      </trkpt>
      <trkpt lat="43.89262" lon="2.10516">
        <ele>301</ele>
        <time>2025-09-02T13:27:24.000Z</time>
      </trkpt>
      <trkpt lat="43.89256" lon="2.10519">
        <ele>301</ele>
        <time>2025-09-02T13:27:29.000Z</time>
      </trkpt>
      <trkpt lat="43.89251" lon="2.10524">
        <ele>300</ele>
        <time>2025-09-02T13:27:34.000Z</time>
      </trkpt>
      <trkpt lat="43.89246" lon="2.1053">
        <ele>299</ele>
        <time>2025-09-02T13:27:39.000Z</time>
      </trkpt>
      <trkpt lat="43.89242" lon="2.10533">
        <ele>301</ele>
        <time>2025-09-02T13:27:44.000Z</time>
      </trkpt>
      <trkpt lat="43.89237" lon="2.10537">
        <ele>300</ele>
        <time>2025-09-02T13:27:49.000Z</time>
      </trkpt>
      <trkpt lat="43.89232" lon="2.10541">
        <ele>302</ele>
        <time>2025-09-02T13:27:54.000Z</time>
      </trkpt>
      <trkpt lat="43.89228" lon="2.10547">
        <ele>300</ele>
        <time>2025-09-02T13:27:59.000Z</time>
      </trkpt>
      <trkpt lat="43.89222" lon="2.1055">
        <ele>300</ele>
        <time>2025-09-02T13:28:04.000Z</time>
      </trkpt>
      <trkpt lat="43.89217" lon="2.10554">
        <ele>302</ele>
        <time>2025-09-02T13:28:09.000Z</time>
      </trkpt>
      <trkpt lat="43.89213" lon="2.10559">
        <ele>302</ele>
        <time>2025-09-02T13:28:14.000Z</time>
      </trkpt>
      <trkpt lat="43.89209" lon="2.10564">
        <ele>301</ele>
        <time>2025-09-02T13:28:19.000Z</time>
      </trkpt>
      <trkpt lat="43.89206" lon="2.10568">
        <ele>302</ele>
        <time>2025-09-02T13:28:24.000Z</time>
      </trkpt>
      <trkpt lat="43.89201" lon="2.10572">
        <ele>302</ele>
        <time>2025-09-02T13:28:29.000Z</time>
      </trkpt>
      <trkpt lat="43.89198" lon="2.10577">
        <ele>301</ele>
        <time>2025-09-02T13:28:34.000Z</time>
      </trkpt>
      <trkpt lat="43.89194" lon="2.10581">
        <ele>300</ele>
        <time>2025-09-02T13:28:39.000Z</time>
      </trkpt>
      <trkpt lat="43.89189" lon="2.10585">
        <ele>300</ele>
        <time>2025-09-02T13:28:44.000Z</time>
      </trkpt>
      <trkpt lat="43.89183" lon="2.1059">
        <ele>300</ele>
        <time>2025-09-02T13:28:49.000Z</time>
      </trkpt>
      <trkpt lat="43.89179" lon="2.10595">
        <ele>302</ele>
        <time>2025-09-02T13:28:54.000Z</time>
      </trkpt>
      <trkpt lat="43.89174" lon="2.10599">
        <ele>305</ele>
        <time>2025-09-02T13:28:59.000Z</time>
      </trkpt>
      <trkpt lat="43.89168" lon="2.10602">
        <ele>305</ele>
        <time>2025-09-02T13:29:04.000Z</time>
      </trkpt>
      <trkpt lat="43.89165" lon="2.10606">
        <ele>305</ele>
        <time>2025-09-02T13:29:09.000Z</time>
      </trkpt>
      <trkpt lat="43.8916" lon="2.10612">
        <ele>306</ele>
        <time>2025-09-02T13:29:14.000Z</time>
      </trkpt>
      <trkpt lat="43.89155" lon="2.10616">
        <ele>305</ele>
        <time>2025-09-02T13:29:19.000Z</time>
      </trkpt>
      <trkpt lat="43.89151" lon="2.10621">
        <ele>304</ele>
        <time>2025-09-02T13:29:24.000Z</time>
      </trkpt>
      <trkpt lat="43.89148" lon="2.10626">
        <ele>303</ele>
        <time>2025-09-02T13:29:29.000Z</time>
      </trkpt>
      <trkpt lat="43.89144" lon="2.1063">
        <ele>303</ele>
        <time>2025-09-02T13:29:34.000Z</time>
      </trkpt>
      <trkpt lat="43.89139" lon="2.10637">
        <ele>303</ele>
        <time>2025-09-02T13:29:39.000Z</time>
      </trkpt>
      <trkpt lat="43.89134" lon="2.1064">
        <ele>303</ele>
        <time>2025-09-02T13:29:44.000Z</time>
      </trkpt>
      <trkpt lat="43.89129" lon="2.10644">
        <ele>302</ele>
        <time>2025-09-02T13:29:49.000Z</time>
      </trkpt>
      <trkpt lat="43.89124" lon="2.10648">
        <ele>302</ele>
        <time>2025-09-02T13:29:54.000Z</time>
      </trkpt>
      <trkpt lat="43.8912" lon="2.10652">
        <ele>300</ele>
        <time>2025-09-02T13:29:59.000Z</time>
      </trkpt>
      <trkpt lat="43.89114" lon="2.10656">
        <ele>300</ele>
        <time>2025-09-02T13:30:04.000Z</time>
      </trkpt>
      <trkpt lat="43.8911" lon="2.10661">
        <ele>299</ele>
        <time>2025-09-02T13:30:09.000Z</time>
      </trkpt>
      <trkpt lat="43.89106" lon="2.10665">
        <ele>298</ele>
        <time>2025-09-02T13:30:14.000Z</time>
      </trkpt>
      <trkpt lat="43.89101" lon="2.1067">
        <ele>299</ele>
        <time>2025-09-02T13:30:19.000Z</time>
      </trkpt>
      <trkpt lat="43.89098" lon="2.10676">
        <ele>299</ele>
        <time>2025-09-02T13:30:24.000Z</time>
      </trkpt>
      <trkpt lat="43.89094" lon="2.10682">
        <ele>299</ele>
        <time>2025-09-02T13:30:29.000Z</time>
      </trkpt>
      <trkpt lat="43.8909" lon="2.10688">
        <ele>299</ele>
        <time>2025-09-02T13:30:34.000Z</time>
      </trkpt>
      <trkpt lat="43.89087" lon="2.10694">
        <ele>299</ele>
        <time>2025-09-02T13:30:39.000Z</time>
      </trkpt>
      <trkpt lat="43.89085" lon="2.10701">
        <ele>299</ele>
        <time>2025-09-02T13:30:44.000Z</time>
      </trkpt>
      <trkpt lat="43.89082" lon="2.10707">
        <ele>299</ele>
        <time>2025-09-02T13:30:49.000Z</time>
      </trkpt>
      <trkpt lat="43.8908" lon="2.10714">
        <ele>299</ele>
        <time>2025-09-02T13:30:54.000Z</time>
      </trkpt>
      <trkpt lat="43.89078" lon="2.10721">
        <ele>299</ele>
        <time>2025-09-02T13:30:59.000Z</time>
      </trkpt>
      <trkpt lat="43.89075" lon="2.10728">
        <ele>298</ele>
        <time>2025-09-02T13:31:04.000Z</time>
      </trkpt>
      <trkpt lat="43.89074" lon="2.10735">
        <ele>297</ele>
        <time>2025-09-02T13:31:09.000Z</time>
      </trkpt>
      <trkpt lat="43.89071" lon="2.10744">
        <ele>298</ele>
        <time>2025-09-02T13:31:14.000Z</time>
      </trkpt>
      <trkpt lat="43.8907" lon="2.10751">
        <ele>298</ele>
        <time>2025-09-02T13:31:19.000Z</time>
      </trkpt>
      <trkpt lat="43.89068" lon="2.10759">
        <ele>298</ele>
        <time>2025-09-02T13:31:24.000Z</time>
      </trkpt>
      <trkpt lat="43.89067" lon="2.10767">
        <ele>297</ele>
        <time>2025-09-02T13:31:29.000Z</time>
      </trkpt>
      <trkpt lat="43.89066" lon="2.10774">
        <ele>298</ele>
        <time>2025-09-02T13:31:34.000Z</time>
      </trkpt>
      <trkpt lat="43.89066" lon="2.10781">
        <ele>299</ele>
        <time>2025-09-02T13:31:39.000Z</time>
      </trkpt>
      <trkpt lat="43.89064" lon="2.10788">
        <ele>298</ele>
        <time>2025-09-02T13:31:44.000Z</time>
      </trkpt>
      <trkpt lat="43.89058" lon="2.10788">
        <ele>298</ele>
        <time>2025-09-02T13:31:49.000Z</time>
      </trkpt>
      <trkpt lat="43.89053" lon="2.10786">
        <ele>297</ele>
        <time>2025-09-02T13:31:54.000Z</time>
      </trkpt>
      <trkpt lat="43.89047" lon="2.10785">
        <ele>298</ele>
        <time>2025-09-02T13:31:59.000Z</time>
      </trkpt>
      <trkpt lat="43.89042" lon="2.10782">
        <ele>297</ele>
        <time>2025-09-02T13:32:04.000Z</time>
      </trkpt>
      <trkpt lat="43.89037" lon="2.1078">
        <ele>297</ele>
        <time>2025-09-02T13:32:09.000Z</time>
      </trkpt>
      <trkpt lat="43.89032" lon="2.10778">
        <ele>297</ele>
        <time>2025-09-02T13:32:14.000Z</time>
      </trkpt>
      <trkpt lat="43.89028" lon="2.10775">
        <ele>296</ele>
        <time>2025-09-02T13:32:19.000Z</time>
      </trkpt>
      <trkpt lat="43.89022" lon="2.10772">
        <ele>296</ele>
        <time>2025-09-02T13:32:24.000Z</time>
      </trkpt>
      <trkpt lat="43.89018" lon="2.10768">
        <ele>295</ele>
        <time>2025-09-02T13:32:29.000Z</time>
      </trkpt>
      <trkpt lat="43.89013" lon="2.10767">
        <ele>295</ele>
        <time>2025-09-02T13:32:34.000Z</time>
      </trkpt>
      <trkpt lat="43.89008" lon="2.10765">
        <ele>294</ele>
        <time>2025-09-02T13:32:39.000Z</time>
      </trkpt>
      <trkpt lat="43.89003" lon="2.10762">
        <ele>292</ele>
        <time>2025-09-02T13:32:44.000Z</time>
      </trkpt>
      <trkpt lat="43.88997" lon="2.1076">
        <ele>292</ele>
        <time>2025-09-02T13:32:49.000Z</time>
      </trkpt>
      <trkpt lat="43.88992" lon="2.10758">
        <ele>291</ele>
        <time>2025-09-02T13:32:54.000Z</time>
      </trkpt>
      <trkpt lat="43.88986" lon="2.10755">
        <ele>290</ele>
        <time>2025-09-02T13:32:59.000Z</time>
      </trkpt>
      <trkpt lat="43.88981" lon="2.10752">
        <ele>290</ele>
        <time>2025-09-02T13:33:04.000Z</time>
      </trkpt>
      <trkpt lat="43.88976" lon="2.10748">
        <ele>289</ele>
        <time>2025-09-02T13:33:09.000Z</time>
      </trkpt>
      <trkpt lat="43.8897" lon="2.10746">
        <ele>289</ele>
        <time>2025-09-02T13:33:14.000Z</time>
      </trkpt>
      <trkpt lat="43.88966" lon="2.10743">
        <ele>286</ele>
        <time>2025-09-02T13:33:19.000Z</time>
      </trkpt>
      <trkpt lat="43.8896" lon="2.1074">
        <ele>286</ele>
        <time>2025-09-02T13:33:24.000Z</time>
      </trkpt>
      <trkpt lat="43.88955" lon="2.10737">
        <ele>285</ele>
        <time>2025-09-02T13:33:29.000Z</time>
      </trkpt>
      <trkpt lat="43.8895" lon="2.10736">
        <ele>284</ele>
        <time>2025-09-02T13:33:34.000Z</time>
      </trkpt>
      <trkpt lat="43.88944" lon="2.10732">
        <ele>284</ele>
        <time>2025-09-02T13:33:39.000Z</time>
      </trkpt>
      <trkpt lat="43.88938" lon="2.10729">
        <ele>283</ele>
        <time>2025-09-02T13:33:44.000Z</time>
      </trkpt>
      <trkpt lat="43.88932" lon="2.10726">
        <ele>283</ele>
        <time>2025-09-02T13:33:49.000Z</time>
      </trkpt>
      <trkpt lat="43.88927" lon="2.10724">
        <ele>283</ele>
        <time>2025-09-02T13:33:54.000Z</time>
      </trkpt>
      <trkpt lat="43.88922" lon="2.1072">
        <ele>283</ele>
        <time>2025-09-02T13:33:59.000Z</time>
      </trkpt>
      <trkpt lat="43.88917" lon="2.10718">
        <ele>283</ele>
        <time>2025-09-02T13:34:04.000Z</time>
      </trkpt>
      <trkpt lat="43.88912" lon="2.10715">
        <ele>284</ele>
        <time>2025-09-02T13:34:09.000Z</time>
      </trkpt>
      <trkpt lat="43.88906" lon="2.1071">
        <ele>285</ele>
        <time>2025-09-02T13:34:14.000Z</time>
      </trkpt>
      <trkpt lat="43.88902" lon="2.10704">
        <ele>285</ele>
        <time>2025-09-02T13:34:19.000Z</time>
      </trkpt>
      <trkpt lat="43.88902" lon="2.10696">
        <ele>285</ele>
        <time>2025-09-02T13:34:24.000Z</time>
      </trkpt>
      <trkpt lat="43.88902" lon="2.10688">
        <ele>286</ele>
        <time>2025-09-02T13:34:29.000Z</time>
      </trkpt>
      <trkpt lat="43.88903" lon="2.10681">
        <ele>286</ele>
        <time>2025-09-02T13:34:34.000Z</time>
      </trkpt>
      <trkpt lat="43.889" lon="2.10677">
        <ele>286</ele>
        <time>2025-09-02T13:34:39.000Z</time>
      </trkpt>
      <trkpt lat="43.88895" lon="2.10674">
        <ele>285</ele>
        <time>2025-09-02T13:34:44.000Z</time>
      </trkpt>
      <trkpt lat="43.88889" lon="2.10671">
        <ele>286</ele>
        <time>2025-09-02T13:34:49.000Z</time>
      </trkpt>
      <trkpt lat="43.88884" lon="2.10666">
        <ele>285</ele>
        <time>2025-09-02T13:34:54.000Z</time>
      </trkpt>
      <trkpt lat="43.88881" lon="2.1066">
        <ele>283</ele>
        <time>2025-09-02T13:34:59.000Z</time>
      </trkpt>
      <trkpt lat="43.88877" lon="2.10654">
        <ele>282</ele>
        <time>2025-09-02T13:35:04.000Z</time>
      </trkpt>
      <trkpt lat="43.88874" lon="2.10647">
        <ele>282</ele>
        <time>2025-09-02T13:35:09.000Z</time>
      </trkpt>
      <trkpt lat="43.88871" lon="2.10641">
        <ele>283</ele>
        <time>2025-09-02T13:35:14.000Z</time>
      </trkpt>
      <trkpt lat="43.88867" lon="2.10635">
        <ele>284</ele>
        <time>2025-09-02T13:35:19.000Z</time>
      </trkpt>
      <trkpt lat="43.88864" lon="2.10628">
        <ele>283</ele>
        <time>2025-09-02T13:35:24.000Z</time>
      </trkpt>
      <trkpt lat="43.88861" lon="2.10622">
        <ele>282</ele>
        <time>2025-09-02T13:35:29.000Z</time>
      </trkpt>
      <trkpt lat="43.88859" lon="2.10616">
        <ele>281</ele>
        <time>2025-09-02T13:35:34.000Z</time>
      </trkpt>
      <trkpt lat="43.88856" lon="2.10607">
        <ele>281</ele>
        <time>2025-09-02T13:35:39.000Z</time>
      </trkpt>
      <trkpt lat="43.88853" lon="2.106">
        <ele>281</ele>
        <time>2025-09-02T13:35:44.000Z</time>
      </trkpt>
      <trkpt lat="43.8885" lon="2.10593">
        <ele>281</ele>
        <time>2025-09-02T13:35:49.000Z</time>
      </trkpt>
      <trkpt lat="43.88847" lon="2.10586">
        <ele>281</ele>
        <time>2025-09-02T13:35:54.000Z</time>
      </trkpt>
      <trkpt lat="43.88844" lon="2.10581">
        <ele>281</ele>
        <time>2025-09-02T13:35:59.000Z</time>
      </trkpt>
      <trkpt lat="43.8884" lon="2.10577">
        <ele>282</ele>
        <time>2025-09-02T13:36:04.000Z</time>
      </trkpt>
      <trkpt lat="43.88837" lon="2.10574">
        <ele>280</ele>
        <time>2025-09-02T13:36:09.000Z</time>
      </trkpt>
      <trkpt lat="43.88834" lon="2.10567">
        <ele>281</ele>
        <time>2025-09-02T13:36:14.000Z</time>
      </trkpt>
      <trkpt lat="43.88831" lon="2.10562">
        <ele>282</ele>
        <time>2025-09-02T13:36:19.000Z</time>
      </trkpt>
      <trkpt lat="43.88828" lon="2.10556">
        <ele>282</ele>
        <time>2025-09-02T13:36:24.000Z</time>
      </trkpt>
      <trkpt lat="43.88826" lon="2.10549">
        <ele>283</ele>
        <time>2025-09-02T13:36:29.000Z</time>
      </trkpt>
      <trkpt lat="43.88823" lon="2.10543">
        <ele>283</ele>
        <time>2025-09-02T13:36:34.000Z</time>
      </trkpt>
      <trkpt lat="43.88821" lon="2.10537">
        <ele>282</ele>
        <time>2025-09-02T13:36:39.000Z</time>
      </trkpt>
      <trkpt lat="43.88817" lon="2.10533">
        <ele>283</ele>
        <time>2025-09-02T13:36:44.000Z</time>
      </trkpt>
      <trkpt lat="43.88811" lon="2.1053">
        <ele>283</ele>
        <time>2025-09-02T13:36:49.000Z</time>
      </trkpt>
      <trkpt lat="43.88806" lon="2.10528">
        <ele>283</ele>
        <time>2025-09-02T13:36:54.000Z</time>
      </trkpt>
      <trkpt lat="43.88802" lon="2.1053">
        <ele>283</ele>
        <time>2025-09-02T13:36:59.000Z</time>
      </trkpt>
      <trkpt lat="43.88796" lon="2.10534">
        <ele>283</ele>
        <time>2025-09-02T13:37:04.000Z</time>
      </trkpt>
      <trkpt lat="43.88793" lon="2.10539">
        <ele>283</ele>
        <time>2025-09-02T13:37:09.000Z</time>
      </trkpt>
      <trkpt lat="43.88788" lon="2.10542">
        <ele>283</ele>
        <time>2025-09-02T13:37:14.000Z</time>
      </trkpt>
      <trkpt lat="43.88782" lon="2.10544">
        <ele>282</ele>
        <time>2025-09-02T13:37:19.000Z</time>
      </trkpt>
      <trkpt lat="43.88777" lon="2.10547">
        <ele>284</ele>
        <time>2025-09-02T13:37:24.000Z</time>
      </trkpt>
      <trkpt lat="43.88773" lon="2.1055">
        <ele>283</ele>
        <time>2025-09-02T13:37:29.000Z</time>
      </trkpt>
      <trkpt lat="43.88768" lon="2.10554">
        <ele>282</ele>
        <time>2025-09-02T13:37:34.000Z</time>
      </trkpt>
      <trkpt lat="43.88763" lon="2.10558">
        <ele>282</ele>
        <time>2025-09-02T13:37:39.000Z</time>
      </trkpt>
      <trkpt lat="43.88758" lon="2.10561">
        <ele>282</ele>
        <time>2025-09-02T13:37:44.000Z</time>
      </trkpt>
      <trkpt lat="43.88753" lon="2.10565">
        <ele>282</ele>
        <time>2025-09-02T13:37:49.000Z</time>
      </trkpt>
      <trkpt lat="43.88748" lon="2.10567">
        <ele>283</ele>
        <time>2025-09-02T13:37:54.000Z</time>
      </trkpt>
      <trkpt lat="43.88742" lon="2.1057">
        <ele>282</ele>
        <time>2025-09-02T13:37:59.000Z</time>
      </trkpt>
      <trkpt lat="43.88737" lon="2.10574">
        <ele>282</ele>
        <time>2025-09-02T13:38:04.000Z</time>
      </trkpt>
      <trkpt lat="43.88732" lon="2.10577">
        <ele>281</ele>
        <time>2025-09-02T13:38:09.000Z</time>
      </trkpt>
      <trkpt lat="43.88727" lon="2.10578">
        <ele>281</ele>
        <time>2025-09-02T13:38:14.000Z</time>
      </trkpt>
      <trkpt lat="43.88722" lon="2.10581">
        <ele>281</ele>
        <time>2025-09-02T13:38:19.000Z</time>
      </trkpt>
      <trkpt lat="43.88717" lon="2.10583">
        <ele>283</ele>
        <time>2025-09-02T13:38:24.000Z</time>
      </trkpt>
      <trkpt lat="43.88713" lon="2.10587">
        <ele>283</ele>
        <time>2025-09-02T13:38:29.000Z</time>
      </trkpt>
      <trkpt lat="43.88707" lon="2.10591">
        <ele>284</ele>
        <time>2025-09-02T13:38:34.000Z</time>
      </trkpt>
      <trkpt lat="43.88702" lon="2.10591">
        <ele>284</ele>
        <time>2025-09-02T13:38:39.000Z</time>
      </trkpt>
      <trkpt lat="43.88699" lon="2.10583">
        <ele>285</ele>
        <time>2025-09-02T13:38:44.000Z</time>
      </trkpt>
      <trkpt lat="43.88697" lon="2.10577">
        <ele>285</ele>
        <time>2025-09-02T13:38:49.000Z</time>
      </trkpt>
      <trkpt lat="43.88694" lon="2.1057">
        <ele>285</ele>
        <time>2025-09-02T13:38:54.000Z</time>
      </trkpt>
      <trkpt lat="43.88691" lon="2.10563">
        <ele>286</ele>
        <time>2025-09-02T13:38:59.000Z</time>
      </trkpt>
      <trkpt lat="43.88689" lon="2.10555">
        <ele>286</ele>
        <time>2025-09-02T13:39:04.000Z</time>
      </trkpt>
      <trkpt lat="43.88689" lon="2.10547">
        <ele>285</ele>
        <time>2025-09-02T13:39:09.000Z</time>
      </trkpt>
      <trkpt lat="43.88689" lon="2.10538">
        <ele>286</ele>
        <time>2025-09-02T13:39:14.000Z</time>
      </trkpt>
      <trkpt lat="43.88691" lon="2.1053">
        <ele>287</ele>
        <time>2025-09-02T13:39:19.000Z</time>
      </trkpt>
      <trkpt lat="43.88694" lon="2.10522">
        <ele>287</ele>
        <time>2025-09-02T13:39:24.000Z</time>
      </trkpt>
      <trkpt lat="43.88697" lon="2.10516">
        <ele>287</ele>
        <time>2025-09-02T13:39:29.000Z</time>
      </trkpt>
      <trkpt lat="43.88701" lon="2.1051">
        <ele>288</ele>
        <time>2025-09-02T13:39:34.000Z</time>
      </trkpt>
      <trkpt lat="43.88701" lon="2.10509">
        <ele>288</ele>
        <time>2025-09-02T13:39:39.000Z</time>
      </trkpt>
      <trkpt lat="43.887" lon="2.1051">
        <ele>287</ele>
        <time>2025-09-02T13:39:44.000Z</time>
      </trkpt>
      <trkpt lat="43.88699" lon="2.10507">
        <ele>287</ele>
        <time>2025-09-02T13:39:49.000Z</time>
      </trkpt>
      <trkpt lat="43.88699" lon="2.10507">
        <ele>287</ele>
        <time>2025-09-02T13:39:54.000Z</time>
      </trkpt>
      <trkpt lat="43.88699" lon="2.10505">
        <ele>286</ele>
        <time>2025-09-02T13:39:59.000Z</time>
      </trkpt>
      <trkpt lat="43.88703" lon="2.10503">
        <ele>286</ele>
        <time>2025-09-02T13:40:04.000Z</time>
      </trkpt>
      <trkpt lat="43.88707" lon="2.10498">
        <ele>286</ele>
        <time>2025-09-02T13:40:09.000Z</time>
      </trkpt>
      <trkpt lat="43.88709" lon="2.10493">
        <ele>287</ele>
        <time>2025-09-02T13:40:14.000Z</time>
      </trkpt>
      <trkpt lat="43.88712" lon="2.10489">
        <ele>288</ele>
        <time>2025-09-02T13:40:19.000Z</time>
      </trkpt>
      <trkpt lat="43.88715" lon="2.10481">
        <ele>289</ele>
        <time>2025-09-02T13:40:24.000Z</time>
      </trkpt>
      <trkpt lat="43.88717" lon="2.10475">
        <ele>289</ele>
        <time>2025-09-02T13:40:29.000Z</time>
      </trkpt>
      <trkpt lat="43.88719" lon="2.10466">
        <ele>288</ele>
        <time>2025-09-02T13:40:34.000Z</time>
      </trkpt>
      <trkpt lat="43.88721" lon="2.10459">
        <ele>288</ele>
        <time>2025-09-02T13:40:39.000Z</time>
      </trkpt>
      <trkpt lat="43.88723" lon="2.10453">
        <ele>288</ele>
        <time>2025-09-02T13:40:44.000Z</time>
      </trkpt>
      <trkpt lat="43.88728" lon="2.10446">
        <ele>288</ele>
        <time>2025-09-02T13:40:49.000Z</time>
      </trkpt>
      <trkpt lat="43.88733" lon="2.10442">
        <ele>288</ele>
        <time>2025-09-02T13:40:54.000Z</time>
      </trkpt>
      <trkpt lat="43.88737" lon="2.10437">
        <ele>288</ele>
        <time>2025-09-02T13:40:59.000Z</time>
      </trkpt>
      <trkpt lat="43.88743" lon="2.10435">
        <ele>289</ele>
        <time>2025-09-02T13:41:04.000Z</time>
      </trkpt>
      <trkpt lat="43.88748" lon="2.10431">
        <ele>288</ele>
        <time>2025-09-02T13:41:09.000Z</time>
      </trkpt>
      <trkpt lat="43.88752" lon="2.10425">
        <ele>288</ele>
        <time>2025-09-02T13:41:14.000Z</time>
      </trkpt>
      <trkpt lat="43.88755" lon="2.10419">
        <ele>290</ele>
        <time>2025-09-02T13:41:19.000Z</time>
      </trkpt>
      <trkpt lat="43.88761" lon="2.10415">
        <ele>291</ele>
        <time>2025-09-02T13:41:24.000Z</time>
      </trkpt>
      <trkpt lat="43.88765" lon="2.1041">
        <ele>292</ele>
        <time>2025-09-02T13:41:29.000Z</time>
      </trkpt>
      <trkpt lat="43.88771" lon="2.10407">
        <ele>291</ele>
        <time>2025-09-02T13:41:34.000Z</time>
      </trkpt>
      <trkpt lat="43.88775" lon="2.10403">
        <ele>290</ele>
        <time>2025-09-02T13:41:39.000Z</time>
      </trkpt>
      <trkpt lat="43.8878" lon="2.104">
        <ele>290</ele>
        <time>2025-09-02T13:41:44.000Z</time>
      </trkpt>
      <trkpt lat="43.88783" lon="2.10395">
        <ele>290</ele>
        <time>2025-09-02T13:41:49.000Z</time>
      </trkpt>
      <trkpt lat="43.88788" lon="2.10389">
        <ele>290</ele>
        <time>2025-09-02T13:41:54.000Z</time>
      </trkpt>
      <trkpt lat="43.88792" lon="2.10384">
        <ele>289</ele>
        <time>2025-09-02T13:41:59.000Z</time>
      </trkpt>
      <trkpt lat="43.88796" lon="2.1038">
        <ele>290</ele>
        <time>2025-09-02T13:42:04.000Z</time>
      </trkpt>
      <trkpt lat="43.88801" lon="2.10374">
        <ele>290</ele>
        <time>2025-09-02T13:42:09.000Z</time>
      </trkpt>
      <trkpt lat="43.88805" lon="2.10368">
        <ele>291</ele>
        <time>2025-09-02T13:42:14.000Z</time>
      </trkpt>
      <trkpt lat="43.88808" lon="2.10364">
        <ele>290</ele>
        <time>2025-09-02T13:42:19.000Z</time>
      </trkpt>
      <trkpt lat="43.88813" lon="2.10359">
        <ele>290</ele>
        <time>2025-09-02T13:42:24.000Z</time>
      </trkpt>
      <trkpt lat="43.88817" lon="2.10353">
        <ele>289</ele>
        <time>2025-09-02T13:42:29.000Z</time>
      </trkpt>
      <trkpt lat="43.88821" lon="2.10349">
        <ele>291</ele>
        <time>2025-09-02T13:42:34.000Z</time>
      </trkpt>
      <trkpt lat="43.88826" lon="2.10345">
        <ele>291</ele>
        <time>2025-09-02T13:42:39.000Z</time>
      </trkpt>
      <trkpt lat="43.8883" lon="2.10341">
        <ele>290</ele>
        <time>2025-09-02T13:42:44.000Z</time>
      </trkpt>
      <trkpt lat="43.88835" lon="2.10336">
        <ele>290</ele>
        <time>2025-09-02T13:42:49.000Z</time>
      </trkpt>
      <trkpt lat="43.88839" lon="2.1033">
        <ele>289</ele>
        <time>2025-09-02T13:42:54.000Z</time>
      </trkpt>
      <trkpt lat="43.88843" lon="2.10324">
        <ele>291</ele>
        <time>2025-09-02T13:42:59.000Z</time>
      </trkpt>
      <trkpt lat="43.88847" lon="2.1032">
        <ele>291</ele>
        <time>2025-09-02T13:43:04.000Z</time>
      </trkpt>
      <trkpt lat="43.88852" lon="2.10315">
        <ele>292</ele>
        <time>2025-09-02T13:43:09.000Z</time>
      </trkpt>
      <trkpt lat="43.88857" lon="2.10311">
        <ele>290</ele>
        <time>2025-09-02T13:43:14.000Z</time>
      </trkpt>
      <trkpt lat="43.88862" lon="2.10307">
        <ele>291</ele>
        <time>2025-09-02T13:43:19.000Z</time>
      </trkpt>
      <trkpt lat="43.88865" lon="2.10302">
        <ele>291</ele>
        <time>2025-09-02T13:43:24.000Z</time>
      </trkpt>
      <trkpt lat="43.8887" lon="2.10297">
        <ele>291</ele>
        <time>2025-09-02T13:43:29.000Z</time>
      </trkpt>
      <trkpt lat="43.88873" lon="2.1029">
        <ele>291</ele>
        <time>2025-09-02T13:43:34.000Z</time>
      </trkpt>
      <trkpt lat="43.88877" lon="2.10286">
        <ele>291</ele>
        <time>2025-09-02T13:43:39.000Z</time>
      </trkpt>
      <trkpt lat="43.8888" lon="2.10281">
        <ele>291</ele>
        <time>2025-09-02T13:43:44.000Z</time>
      </trkpt>
      <trkpt lat="43.88885" lon="2.10277">
        <ele>291</ele>
        <time>2025-09-02T13:43:49.000Z</time>
      </trkpt>
      <trkpt lat="43.88888" lon="2.10272">
        <ele>293</ele>
        <time>2025-09-02T13:43:54.000Z</time>
      </trkpt>
      <trkpt lat="43.88892" lon="2.10267">
        <ele>292</ele>
        <time>2025-09-02T13:43:59.000Z</time>
      </trkpt>
      <trkpt lat="43.88896" lon="2.10261">
        <ele>294</ele>
        <time>2025-09-02T13:44:04.000Z</time>
      </trkpt>
      <trkpt lat="43.88898" lon="2.10256">
        <ele>294</ele>
        <time>2025-09-02T13:44:09.000Z</time>
      </trkpt>
      <trkpt lat="43.88901" lon="2.10248">
        <ele>294</ele>
        <time>2025-09-02T13:44:14.000Z</time>
      </trkpt>
      <trkpt lat="43.88904" lon="2.10243">
        <ele>294</ele>
        <time>2025-09-02T13:44:19.000Z</time>
      </trkpt>
      <trkpt lat="43.88907" lon="2.10237">
        <ele>294</ele>
        <time>2025-09-02T13:44:24.000Z</time>
      </trkpt>
      <trkpt lat="43.88909" lon="2.10229">
        <ele>294</ele>
        <time>2025-09-02T13:44:29.000Z</time>
      </trkpt>
      <trkpt lat="43.88912" lon="2.10222">
        <ele>295</ele>
        <time>2025-09-02T13:44:34.000Z</time>
      </trkpt>
      <trkpt lat="43.88914" lon="2.10217">
        <ele>295</ele>
        <time>2025-09-02T13:44:39.000Z</time>
      </trkpt>
      <trkpt lat="43.88916" lon="2.1021">
        <ele>296</ele>
        <time>2025-09-02T13:44:44.000Z</time>
      </trkpt>
      <trkpt lat="43.88918" lon="2.10204">
        <ele>296</ele>
        <time>2025-09-02T13:44:49.000Z</time>
      </trkpt>
      <trkpt lat="43.88921" lon="2.10199">
        <ele>298</ele>
        <time>2025-09-02T13:44:54.000Z</time>
      </trkpt>
      <trkpt lat="43.88923" lon="2.10193">
        <ele>297</ele>
        <time>2025-09-02T13:44:59.000Z</time>
      </trkpt>
      <trkpt lat="43.88925" lon="2.10187">
        <ele>297</ele>
        <time>2025-09-02T13:45:04.000Z</time>
      </trkpt>
      <trkpt lat="43.88926" lon="2.10181">
        <ele>299</ele>
        <time>2025-09-02T13:45:09.000Z</time>
      </trkpt>
      <trkpt lat="43.88927" lon="2.10175">
        <ele>299</ele>
        <time>2025-09-02T13:45:14.000Z</time>
      </trkpt>
      <trkpt lat="43.88929" lon="2.10168">
        <ele>300</ele>
        <time>2025-09-02T13:45:19.000Z</time>
      </trkpt>
      <trkpt lat="43.88929" lon="2.10161">
        <ele>301</ele>
        <time>2025-09-02T13:45:24.000Z</time>
      </trkpt>
      <trkpt lat="43.88929" lon="2.10154">
        <ele>302</ele>
        <time>2025-09-02T13:45:29.000Z</time>
      </trkpt>
      <trkpt lat="43.8893" lon="2.10148">
        <ele>302</ele>
        <time>2025-09-02T13:45:34.000Z</time>
      </trkpt>
      <trkpt lat="43.88932" lon="2.10142">
        <ele>303</ele>
        <time>2025-09-02T13:45:39.000Z</time>
      </trkpt>
      <trkpt lat="43.88933" lon="2.10136">
        <ele>304</ele>
        <time>2025-09-02T13:45:44.000Z</time>
      </trkpt>
      <trkpt lat="43.88934" lon="2.10128">
        <ele>304</ele>
        <time>2025-09-02T13:45:49.000Z</time>
      </trkpt>
      <trkpt lat="43.88936" lon="2.10121">
        <ele>305</ele>
        <time>2025-09-02T13:45:54.000Z</time>
      </trkpt>
      <trkpt lat="43.88937" lon="2.10114">
        <ele>304</ele>
        <time>2025-09-02T13:45:59.000Z</time>
      </trkpt>
      <trkpt lat="43.8894" lon="2.10107">
        <ele>305</ele>
        <time>2025-09-02T13:46:04.000Z</time>
      </trkpt>
      <trkpt lat="43.88942" lon="2.10101">
        <ele>304</ele>
        <time>2025-09-02T13:46:09.000Z</time>
      </trkpt>
      <trkpt lat="43.88945" lon="2.10094">
        <ele>306</ele>
        <time>2025-09-02T13:46:14.000Z</time>
      </trkpt>
      <trkpt lat="43.88947" lon="2.10088">
        <ele>305</ele>
        <time>2025-09-02T13:46:19.000Z</time>
      </trkpt>
      <trkpt lat="43.8895" lon="2.10082">
        <ele>305</ele>
        <time>2025-09-02T13:46:24.000Z</time>
      </trkpt>
      <trkpt lat="43.88954" lon="2.10077">
        <ele>305</ele>
        <time>2025-09-02T13:46:29.000Z</time>
      </trkpt>
      <trkpt lat="43.88957" lon="2.10072">
        <ele>304</ele>
        <time>2025-09-02T13:46:34.000Z</time>
      </trkpt>
      <trkpt lat="43.88959" lon="2.10066">
        <ele>305</ele>
        <time>2025-09-02T13:46:39.000Z</time>
      </trkpt>
      <trkpt lat="43.88962" lon="2.10062">
        <ele>306</ele>
        <time>2025-09-02T13:46:44.000Z</time>
      </trkpt>
      <trkpt lat="43.88964" lon="2.10055">
        <ele>306</ele>
        <time>2025-09-02T13:46:49.000Z</time>
      </trkpt>
      <trkpt lat="43.88966" lon="2.10049">
        <ele>304</ele>
        <time>2025-09-02T13:46:54.000Z</time>
      </trkpt>
      <trkpt lat="43.88969" lon="2.10042">
        <ele>304</ele>
        <time>2025-09-02T13:46:59.000Z</time>
      </trkpt>
      <trkpt lat="43.88971" lon="2.10036">
        <ele>304</ele>
        <time>2025-09-02T13:47:04.000Z</time>
      </trkpt>
      <trkpt lat="43.88975" lon="2.1003">
        <ele>303</ele>
        <time>2025-09-02T13:47:09.000Z</time>
      </trkpt>
      <trkpt lat="43.88977" lon="2.10025">
        <ele>305</ele>
        <time>2025-09-02T13:47:14.000Z</time>
      </trkpt>
      <trkpt lat="43.88979" lon="2.10018">
        <ele>304</ele>
        <time>2025-09-02T13:47:19.000Z</time>
      </trkpt>
      <trkpt lat="43.8898" lon="2.10011">
        <ele>305</ele>
        <time>2025-09-02T13:47:24.000Z</time>
      </trkpt>
      <trkpt lat="43.8898" lon="2.10004">
        <ele>307</ele>
        <time>2025-09-02T13:47:29.000Z</time>
      </trkpt>
      <trkpt lat="43.88981" lon="2.09997">
        <ele>309</ele>
        <time>2025-09-02T13:47:34.000Z</time>
      </trkpt>
      <trkpt lat="43.88983" lon="2.09991">
        <ele>307</ele>
        <time>2025-09-02T13:47:39.000Z</time>
      </trkpt>
      <trkpt lat="43.88983" lon="2.09983">
        <ele>308</ele>
        <time>2025-09-02T13:47:44.000Z</time>
      </trkpt>
      <trkpt lat="43.88985" lon="2.09975">
        <ele>307</ele>
        <time>2025-09-02T13:47:49.000Z</time>
      </trkpt>
      <trkpt lat="43.88986" lon="2.09967">
        <ele>308</ele>
        <time>2025-09-02T13:47:54.000Z</time>
      </trkpt>
      <trkpt lat="43.88988" lon="2.0996">
        <ele>307</ele>
        <time>2025-09-02T13:47:59.000Z</time>
      </trkpt>
      <trkpt lat="43.8899" lon="2.09952">
        <ele>307</ele>
        <time>2025-09-02T13:48:04.000Z</time>
      </trkpt>
      <trkpt lat="43.88991" lon="2.09946">
        <ele>310</ele>
        <time>2025-09-02T13:48:09.000Z</time>
      </trkpt>
      <trkpt lat="43.88992" lon="2.09938">
        <ele>309</ele>
        <time>2025-09-02T13:48:14.000Z</time>
      </trkpt>
      <trkpt lat="43.88992" lon="2.0993">
        <ele>309</ele>
        <time>2025-09-02T13:48:19.000Z</time>
      </trkpt>
      <trkpt lat="43.88991" lon="2.09923">
        <ele>310</ele>
        <time>2025-09-02T13:48:24.000Z</time>
      </trkpt>
      <trkpt lat="43.88992" lon="2.09916">
        <ele>310</ele>
        <time>2025-09-02T13:48:29.000Z</time>
      </trkpt>
      <trkpt lat="43.88993" lon="2.09909">
        <ele>311</ele>
        <time>2025-09-02T13:48:34.000Z</time>
      </trkpt>
      <trkpt lat="43.88993" lon="2.09902">
        <ele>312</ele>
        <time>2025-09-02T13:48:39.000Z</time>
      </trkpt>
      <trkpt lat="43.88993" lon="2.09895">
        <ele>313</ele>
        <time>2025-09-02T13:48:44.000Z</time>
      </trkpt>
      <trkpt lat="43.88993" lon="2.09887">
        <ele>315</ele>
        <time>2025-09-02T13:48:49.000Z</time>
      </trkpt>
      <trkpt lat="43.88994" lon="2.09881">
        <ele>315</ele>
        <time>2025-09-02T13:48:54.000Z</time>
      </trkpt>
      <trkpt lat="43.88997" lon="2.09874">
        <ele>317</ele>
        <time>2025-09-02T13:48:59.000Z</time>
      </trkpt>
      <trkpt lat="43.88999" lon="2.09867">
        <ele>316</ele>
        <time>2025-09-02T13:49:04.000Z</time>
      </trkpt>
      <trkpt lat="43.89" lon="2.09861">
        <ele>316</ele>
        <time>2025-09-02T13:49:09.000Z</time>
      </trkpt>
      <trkpt lat="43.89001" lon="2.09854">
        <ele>317</ele>
        <time>2025-09-02T13:49:14.000Z</time>
      </trkpt>
      <trkpt lat="43.89003" lon="2.09845">
        <ele>316</ele>
        <time>2025-09-02T13:49:19.000Z</time>
      </trkpt>
      <trkpt lat="43.89004" lon="2.0984">
        <ele>316</ele>
        <time>2025-09-02T13:49:24.000Z</time>
      </trkpt>
      <trkpt lat="43.89007" lon="2.09835">
        <ele>318</ele>
        <time>2025-09-02T13:49:29.000Z</time>
      </trkpt>
      <trkpt lat="43.8901" lon="2.09829">
        <ele>319</ele>
        <time>2025-09-02T13:49:34.000Z</time>
      </trkpt>
      <trkpt lat="43.89011" lon="2.09824">
        <ele>321</ele>
        <time>2025-09-02T13:49:39.000Z</time>
      </trkpt>
      <trkpt lat="43.89011" lon="2.09819">
        <ele>322</ele>
        <time>2025-09-02T13:49:44.000Z</time>
      </trkpt>
      <trkpt lat="43.89014" lon="2.09812">
        <ele>319</ele>
        <time>2025-09-02T13:49:49.000Z</time>
      </trkpt>
      <trkpt lat="43.89015" lon="2.09804">
        <ele>320</ele>
        <time>2025-09-02T13:49:54.000Z</time>
      </trkpt>
      <trkpt lat="43.89018" lon="2.09798">
        <ele>320</ele>
        <time>2025-09-02T13:49:59.000Z</time>
      </trkpt>
      <trkpt lat="43.89019" lon="2.09792">
        <ele>321</ele>
        <time>2025-09-02T13:50:04.000Z</time>
      </trkpt>
      <trkpt lat="43.89021" lon="2.09786">
        <ele>319</ele>
        <time>2025-09-02T13:50:09.000Z</time>
      </trkpt>
      <trkpt lat="43.89022" lon="2.09778">
        <ele>320</ele>
        <time>2025-09-02T13:50:14.000Z</time>
      </trkpt>
      <trkpt lat="43.89024" lon="2.09769">
        <ele>319</ele>
        <time>2025-09-02T13:50:19.000Z</time>
      </trkpt>
      <trkpt lat="43.89024" lon="2.09762">
        <ele>320</ele>
        <time>2025-09-02T13:50:24.000Z</time>
      </trkpt>
      <trkpt lat="43.89027" lon="2.09755">
        <ele>322</ele>
        <time>2025-09-02T13:50:29.000Z</time>
      </trkpt>
      <trkpt lat="43.89029" lon="2.09747">
        <ele>320</ele>
        <time>2025-09-02T13:50:34.000Z</time>
      </trkpt>
      <trkpt lat="43.89033" lon="2.0974">
        <ele>320</ele>
        <time>2025-09-02T13:50:39.000Z</time>
      </trkpt>
      <trkpt lat="43.89036" lon="2.09735">
        <ele>319</ele>
        <time>2025-09-02T13:50:44.000Z</time>
      </trkpt>
      <trkpt lat="43.89038" lon="2.09727">
        <ele>318</ele>
        <time>2025-09-02T13:50:49.000Z</time>
      </trkpt>
      <trkpt lat="43.89041" lon="2.0972">
        <ele>318</ele>
        <time>2025-09-02T13:50:54.000Z</time>
      </trkpt>
      <trkpt lat="43.89044" lon="2.09714">
        <ele>319</ele>
        <time>2025-09-02T13:50:59.000Z</time>
      </trkpt>
      <trkpt lat="43.89046" lon="2.09706">
        <ele>318</ele>
        <time>2025-09-02T13:51:04.000Z</time>
      </trkpt>
      <trkpt lat="43.89048" lon="2.09699">
        <ele>318</ele>
        <time>2025-09-02T13:51:09.000Z</time>
      </trkpt>
      <trkpt lat="43.8905" lon="2.09691">
        <ele>320</ele>
        <time>2025-09-02T13:51:14.000Z</time>
      </trkpt>
      <trkpt lat="43.89053" lon="2.09684">
        <ele>320</ele>
        <time>2025-09-02T13:51:19.000Z</time>
      </trkpt>
      <trkpt lat="43.89056" lon="2.09677">
        <ele>320</ele>
        <time>2025-09-02T13:51:24.000Z</time>
      </trkpt>
      <trkpt lat="43.89059" lon="2.09673">
        <ele>319</ele>
        <time>2025-09-02T13:51:29.000Z</time>
      </trkpt>
      <trkpt lat="43.89062" lon="2.09668">
        <ele>319</ele>
        <time>2025-09-02T13:51:34.000Z</time>
      </trkpt>
      <trkpt lat="43.89066" lon="2.09663">
        <ele>320</ele>
        <time>2025-09-02T13:51:39.000Z</time>
      </trkpt>
      <trkpt lat="43.89069" lon="2.09658">
        <ele>319</ele>
        <time>2025-09-02T13:51:44.000Z</time>
      </trkpt>
      <trkpt lat="43.8907" lon="2.0965">
        <ele>317</ele>
        <time>2025-09-02T13:51:49.000Z</time>
      </trkpt>
      <trkpt lat="43.89072" lon="2.09646">
        <ele>317</ele>
        <time>2025-09-02T13:51:54.000Z</time>
      </trkpt>
      <trkpt lat="43.89074" lon="2.09639">
        <ele>315</ele>
        <time>2025-09-02T13:51:59.000Z</time>
      </trkpt>
      <trkpt lat="43.89077" lon="2.0963">
        <ele>316</ele>
        <time>2025-09-02T13:52:04.000Z</time>
      </trkpt>
      <trkpt lat="43.89078" lon="2.09622">
        <ele>316</ele>
        <time>2025-09-02T13:52:09.000Z</time>
      </trkpt>
      <trkpt lat="43.8908" lon="2.09615">
        <ele>315</ele>
        <time>2025-09-02T13:52:14.000Z</time>
      </trkpt>
      <trkpt lat="43.89082" lon="2.09607">
        <ele>316</ele>
        <time>2025-09-02T13:52:19.000Z</time>
      </trkpt>
      <trkpt lat="43.89083" lon="2.09601">
        <ele>314</ele>
        <time>2025-09-02T13:52:24.000Z</time>
      </trkpt>
      <trkpt lat="43.89084" lon="2.09594">
        <ele>314</ele>
        <time>2025-09-02T13:52:29.000Z</time>
      </trkpt>
      <trkpt lat="43.89086" lon="2.09588">
        <ele>313</ele>
        <time>2025-09-02T13:52:34.000Z</time>
      </trkpt>
      <trkpt lat="43.89088" lon="2.09581">
        <ele>312</ele>
        <time>2025-09-02T13:52:39.000Z</time>
      </trkpt>
      <trkpt lat="43.8909" lon="2.09574">
        <ele>312</ele>
        <time>2025-09-02T13:52:44.000Z</time>
      </trkpt>
      <trkpt lat="43.89092" lon="2.09567">
        <ele>311</ele>
        <time>2025-09-02T13:52:49.000Z</time>
      </trkpt>
      <trkpt lat="43.89094" lon="2.0956">
        <ele>309</ele>
        <time>2025-09-02T13:52:54.000Z</time>
      </trkpt>
      <trkpt lat="43.89094" lon="2.09552">
        <ele>307</ele>
        <time>2025-09-02T13:52:59.000Z</time>
      </trkpt>
      <trkpt lat="43.89096" lon="2.09544">
        <ele>306</ele>
        <time>2025-09-02T13:53:04.000Z</time>
      </trkpt>
      <trkpt lat="43.89097" lon="2.09537">
        <ele>306</ele>
        <time>2025-09-02T13:53:09.000Z</time>
      </trkpt>
      <trkpt lat="43.89097" lon="2.09527">
        <ele>305</ele>
        <time>2025-09-02T13:53:14.000Z</time>
      </trkpt>
      <trkpt lat="43.89097" lon="2.09519">
        <ele>305</ele>
        <time>2025-09-02T13:53:19.000Z</time>
      </trkpt>
      <trkpt lat="43.89097" lon="2.09512">
        <ele>306</ele>
        <time>2025-09-02T13:53:24.000Z</time>
      </trkpt>
      <trkpt lat="43.89097" lon="2.09505">
        <ele>305</ele>
        <time>2025-09-02T13:53:29.000Z</time>
      </trkpt>
      <trkpt lat="43.89097" lon="2.09496">
        <ele>305</ele>
        <time>2025-09-02T13:53:34.000Z</time>
      </trkpt>
      <trkpt lat="43.89099" lon="2.09488">
        <ele>304</ele>
        <time>2025-09-02T13:53:39.000Z</time>
      </trkpt>
      <trkpt lat="43.89101" lon="2.09481">
        <ele>303</ele>
        <time>2025-09-02T13:53:44.000Z</time>
      </trkpt>
      <trkpt lat="43.89101" lon="2.09475">
        <ele>302</ele>
        <time>2025-09-02T13:53:49.000Z</time>
      </trkpt>
      <trkpt lat="43.89102" lon="2.0947">
        <ele>301</ele>
        <time>2025-09-02T13:53:54.000Z</time>
      </trkpt>
      <trkpt lat="43.89103" lon="2.09462">
        <ele>300</ele>
        <time>2025-09-02T13:53:59.000Z</time>
      </trkpt>
      <trkpt lat="43.89105" lon="2.09454">
        <ele>300</ele>
        <time>2025-09-02T13:54:04.000Z</time>
      </trkpt>
      <trkpt lat="43.89108" lon="2.09447">
        <ele>302</ele>
        <time>2025-09-02T13:54:09.000Z</time>
      </trkpt>
      <trkpt lat="43.8911" lon="2.09443">
        <ele>301</ele>
        <time>2025-09-02T13:54:14.000Z</time>
      </trkpt>
      <trkpt lat="43.8911" lon="2.09443">
        <ele>300</ele>
        <time>2025-09-02T13:54:19.000Z</time>
      </trkpt>
      <trkpt lat="43.89112" lon="2.09438">
        <ele>302</ele>
        <time>2025-09-02T13:54:24.000Z</time>
      </trkpt>
      <trkpt lat="43.89114" lon="2.09434">
        <ele>302</ele>
        <time>2025-09-02T13:54:29.000Z</time>
      </trkpt>
      <trkpt lat="43.89116" lon="2.09431">
        <ele>302</ele>
        <time>2025-09-02T13:54:34.000Z</time>
      </trkpt>
      <trkpt lat="43.89116" lon="2.09431">
        <ele>303</ele>
        <time>2025-09-02T13:54:39.000Z</time>
      </trkpt>
      <trkpt lat="43.89116" lon="2.09431">
        <ele>303</ele>
        <time>2025-09-02T13:54:44.000Z</time>
      </trkpt>
      <trkpt lat="43.89116" lon="2.09431">
        <ele>303</ele>
        <time>2025-09-02T13:54:49.000Z</time>
      </trkpt>
      <trkpt lat="43.89116" lon="2.09431">
        <ele>303</ele>
        <time>2025-09-02T13:54:54.000Z</time>
      </trkpt>
      <trkpt lat="43.89116" lon="2.09431">
        <ele>303</ele>
        <time>2025-09-02T13:54:59.000Z</time>
      </trkpt>
      <trkpt lat="43.89116" lon="2.09431">
        <ele>303</ele>
        <time>2025-09-02T13:55:04.000Z</time>
      </trkpt>
      <trkpt lat="43.89116" lon="2.09431">
        <ele>303</ele>
        <time>2025-09-02T13:55:09.000Z</time>
      </trkpt>
      <trkpt lat="43.89116" lon="2.09431">
        <ele>303</ele>
        <time>2025-09-02T13:55:14.000Z</time>
      </trkpt>
      <trkpt lat="43.89116" lon="2.09431">
        <ele>303</ele>
        <time>2025-09-02T13:55:19.000Z</time>
      </trkpt>
      <trkpt lat="43.89118" lon="2.09428">
        <ele>303</ele>
        <time>2025-09-02T13:55:24.000Z</time>
      </trkpt>
      <trkpt lat="43.8912" lon="2.09423">
        <ele>302</ele>
        <time>2025-09-02T13:55:29.000Z</time>
      </trkpt>
      <trkpt lat="43.89123" lon="2.09418">
        <ele>301</ele>
        <time>2025-09-02T13:55:34.000Z</time>
      </trkpt>
      <trkpt lat="43.89127" lon="2.09411">
        <ele>299</ele>
        <time>2025-09-02T13:55:39.000Z</time>
      </trkpt>
      <trkpt lat="43.89131" lon="2.09404">
        <ele>298</ele>
        <time>2025-09-02T13:55:44.000Z</time>
      </trkpt>
      <trkpt lat="43.89135" lon="2.09399">
        <ele>296</ele>
        <time>2025-09-02T13:55:49.000Z</time>
      </trkpt>
      <trkpt lat="43.89137" lon="2.09394">
        <ele>297</ele>
        <time>2025-09-02T13:55:54.000Z</time>
      </trkpt>
      <trkpt lat="43.8914" lon="2.09387">
        <ele>299</ele>
        <time>2025-09-02T13:55:59.000Z</time>
      </trkpt>
      <trkpt lat="43.89144" lon="2.09381">
        <ele>298</ele>
        <time>2025-09-02T13:56:04.000Z</time>
      </trkpt>
      <trkpt lat="43.89148" lon="2.09377">
        <ele>299</ele>
        <time>2025-09-02T13:56:09.000Z</time>
      </trkpt>
      <trkpt lat="43.89152" lon="2.09372">
        <ele>298</ele>
        <time>2025-09-02T13:56:14.000Z</time>
      </trkpt>
      <trkpt lat="43.89156" lon="2.09366">
        <ele>295</ele>
        <time>2025-09-02T13:56:19.000Z</time>
      </trkpt>
      <trkpt lat="43.89159" lon="2.09359">
        <ele>296</ele>
        <time>2025-09-02T13:56:24.000Z</time>
      </trkpt>
      <trkpt lat="43.89162" lon="2.09354">
        <ele>297</ele>
        <time>2025-09-02T13:56:29.000Z</time>
      </trkpt>
      <trkpt lat="43.89166" lon="2.09349">
        <ele>297</ele>
        <time>2025-09-02T13:56:34.000Z</time>
      </trkpt>
      <trkpt lat="43.89169" lon="2.09343">
        <ele>297</ele>
        <time>2025-09-02T13:56:39.000Z</time>
      </trkpt>
      <trkpt lat="43.89173" lon="2.09337">
        <ele>296</ele>
        <time>2025-09-02T13:56:44.000Z</time>
      </trkpt>
      <trkpt lat="43.89177" lon="2.09331">
        <ele>295</ele>
        <time>2025-09-02T13:56:49.000Z</time>
      </trkpt>
      <trkpt lat="43.89181" lon="2.09326">
        <ele>295</ele>
        <time>2025-09-02T13:56:54.000Z</time>
      </trkpt>
      <trkpt lat="43.89185" lon="2.09321">
        <ele>297</ele>
        <time>2025-09-02T13:56:59.000Z</time>
      </trkpt>
      <trkpt lat="43.89189" lon="2.09317">
        <ele>297</ele>
        <time>2025-09-02T13:57:04.000Z</time>
      </trkpt>
      <trkpt lat="43.89193" lon="2.09313">
        <ele>296</ele>
        <time>2025-09-02T13:57:09.000Z</time>
      </trkpt>
      <trkpt lat="43.89198" lon="2.0931">
        <ele>297</ele>
        <time>2025-09-02T13:57:14.000Z</time>
      </trkpt>
      <trkpt lat="43.89201" lon="2.09308">
        <ele>298</ele>
        <time>2025-09-02T13:57:19.000Z</time>
      </trkpt>
      <trkpt lat="43.89207" lon="2.09305">
        <ele>298</ele>
        <time>2025-09-02T13:57:24.000Z</time>
      </trkpt>
      <trkpt lat="43.89212" lon="2.09303">
        <ele>299</ele>
        <time>2025-09-02T13:57:29.000Z</time>
      </trkpt>
      <trkpt lat="43.89216" lon="2.09299">
        <ele>300</ele>
        <time>2025-09-02T13:57:34.000Z</time>
      </trkpt>
      <trkpt lat="43.89222" lon="2.09299">
        <ele>300</ele>
        <time>2025-09-02T13:57:39.000Z</time>
      </trkpt>
      <trkpt lat="43.89226" lon="2.09297">
        <ele>298</ele>
        <time>2025-09-02T13:57:44.000Z</time>
      </trkpt>
      <trkpt lat="43.8923" lon="2.09299">
        <ele>297</ele>
        <time>2025-09-02T13:57:49.000Z</time>
      </trkpt>
      <trkpt lat="43.89235" lon="2.09301">
        <ele>297</ele>
        <time>2025-09-02T13:57:54.000Z</time>
      </trkpt>
      <trkpt lat="43.8924" lon="2.09303">
        <ele>297</ele>
        <time>2025-09-02T13:57:59.000Z</time>
      </trkpt>
      <trkpt lat="43.89246" lon="2.09306">
        <ele>296</ele>
        <time>2025-09-02T13:58:04.000Z</time>
      </trkpt>
      <trkpt lat="43.89251" lon="2.09309">
        <ele>295</ele>
        <time>2025-09-02T13:58:09.000Z</time>
      </trkpt>
      <trkpt lat="43.89257" lon="2.09313">
        <ele>295</ele>
        <time>2025-09-02T13:58:14.000Z</time>
      </trkpt>
      <trkpt lat="43.89264" lon="2.09314">
        <ele>293</ele>
        <time>2025-09-02T13:58:19.000Z</time>
      </trkpt>
      <trkpt lat="43.89269" lon="2.09317">
        <ele>291</ele>
        <time>2025-09-02T13:58:24.000Z</time>
      </trkpt>
      <trkpt lat="43.89273" lon="2.09318">
        <ele>291</ele>
        <time>2025-09-02T13:58:29.000Z</time>
      </trkpt>
      <trkpt lat="43.89278" lon="2.09317">
        <ele>290</ele>
        <time>2025-09-02T13:58:34.000Z</time>
      </trkpt>
      <trkpt lat="43.89284" lon="2.09316">
        <ele>290</ele>
        <time>2025-09-02T13:58:39.000Z</time>
      </trkpt>
      <trkpt lat="43.8929" lon="2.09316">
        <ele>287</ele>
        <time>2025-09-02T13:58:44.000Z</time>
      </trkpt>
      <trkpt lat="43.89295" lon="2.09314">
        <ele>286</ele>
        <time>2025-09-02T13:58:49.000Z</time>
      </trkpt>
      <trkpt lat="43.893" lon="2.09313">
        <ele>286</ele>
        <time>2025-09-02T13:58:54.000Z</time>
      </trkpt>
      <trkpt lat="43.89302" lon="2.09314">
        <ele>287</ele>
        <time>2025-09-02T13:58:59.000Z</time>
      </trkpt>
      <trkpt lat="43.89302" lon="2.09314">
        <ele>287</ele>
        <time>2025-09-02T13:59:04.000Z</time>
      </trkpt>
      <trkpt lat="43.89302" lon="2.09314">
        <ele>287</ele>
        <time>2025-09-02T13:59:09.000Z</time>
      </trkpt>
      <trkpt lat="43.89304" lon="2.09311">
        <ele>288</ele>
        <time>2025-09-02T13:59:14.000Z</time>
      </trkpt>
      <trkpt lat="43.89305" lon="2.09311">
        <ele>287</ele>
        <time>2025-09-02T13:59:19.000Z</time>
      </trkpt>
      <trkpt lat="43.89305" lon="2.09311">
        <ele>287</ele>
        <time>2025-09-02T13:59:24.000Z</time>
      </trkpt>
      <trkpt lat="43.89305" lon="2.09311">
        <ele>287</ele>
        <time>2025-09-02T13:59:29.000Z</time>
      </trkpt>
      <trkpt lat="43.89307" lon="2.09311">
        <ele>286</ele>
        <time>2025-09-02T13:59:34.000Z</time>
      </trkpt>
      <trkpt lat="43.89312" lon="2.09308">
        <ele>286</ele>
        <time>2025-09-02T13:59:39.000Z</time>
      </trkpt>
      <trkpt lat="43.89317" lon="2.09307">
        <ele>287</ele>
        <time>2025-09-02T13:59:44.000Z</time>
      </trkpt>
      <trkpt lat="43.89322" lon="2.09305">
        <ele>287</ele>
        <time>2025-09-02T13:59:49.000Z</time>
      </trkpt>
      <trkpt lat="43.89327" lon="2.09305">
        <ele>287</ele>
        <time>2025-09-02T13:59:54.000Z</time>
      </trkpt>
      <trkpt lat="43.89331" lon="2.09305">
        <ele>286</ele>
        <time>2025-09-02T13:59:59.000Z</time>
      </trkpt>
      <trkpt lat="43.89336" lon="2.09303">
        <ele>285</ele>
        <time>2025-09-02T14:00:04.000Z</time>
      </trkpt>
      <trkpt lat="43.89341" lon="2.09301">
        <ele>285</ele>
        <time>2025-09-02T14:00:09.000Z</time>
      </trkpt>
      <trkpt lat="43.89345" lon="2.09299">
        <ele>285</ele>
        <time>2025-09-02T14:00:14.000Z</time>
      </trkpt>
      <trkpt lat="43.89351" lon="2.09295">
        <ele>284</ele>
        <time>2025-09-02T14:00:19.000Z</time>
      </trkpt>
      <trkpt lat="43.89356" lon="2.09295">
        <ele>283</ele>
        <time>2025-09-02T14:00:24.000Z</time>
      </trkpt>
      <trkpt lat="43.89361" lon="2.09294">
        <ele>282</ele>
        <time>2025-09-02T14:00:29.000Z</time>
      </trkpt>
      <trkpt lat="43.89367" lon="2.09295">
        <ele>280</ele>
        <time>2025-09-02T14:00:34.000Z</time>
      </trkpt>
      <trkpt lat="43.89371" lon="2.09298">
        <ele>280</ele>
        <time>2025-09-02T14:00:39.000Z</time>
      </trkpt>
      <trkpt lat="43.89376" lon="2.09302">
        <ele>278</ele>
        <time>2025-09-02T14:00:44.000Z</time>
      </trkpt>
      <trkpt lat="43.89381" lon="2.09303">
        <ele>277</ele>
        <time>2025-09-02T14:00:49.000Z</time>
      </trkpt>
      <trkpt lat="43.89387" lon="2.09301">
        <ele>276</ele>
        <time>2025-09-02T14:00:54.000Z</time>
      </trkpt>
      <trkpt lat="43.89391" lon="2.09299">
        <ele>276</ele>
        <time>2025-09-02T14:00:59.000Z</time>
      </trkpt>
      <trkpt lat="43.89394" lon="2.09296">
        <ele>277</ele>
        <time>2025-09-02T14:01:04.000Z</time>
      </trkpt>
      <trkpt lat="43.89396" lon="2.09294">
        <ele>277</ele>
        <time>2025-09-02T14:01:09.000Z</time>
      </trkpt>
      <trkpt lat="43.89401" lon="2.09293">
        <ele>276</ele>
        <time>2025-09-02T14:01:14.000Z</time>
      </trkpt>
      <trkpt lat="43.89407" lon="2.0929">
        <ele>275</ele>
        <time>2025-09-02T14:01:19.000Z</time>
      </trkpt>
      <trkpt lat="43.89412" lon="2.09286">
        <ele>275</ele>
        <time>2025-09-02T14:01:24.000Z</time>
      </trkpt>
      <trkpt lat="43.89418" lon="2.09284">
        <ele>273</ele>
        <time>2025-09-02T14:01:29.000Z</time>
      </trkpt>
      <trkpt lat="43.89423" lon="2.09281">
        <ele>273</ele>
        <time>2025-09-02T14:01:34.000Z</time>
      </trkpt>
      <trkpt lat="43.89429" lon="2.09278">
        <ele>271</ele>
        <time>2025-09-02T14:01:39.000Z</time>
      </trkpt>
      <trkpt lat="43.89433" lon="2.09276">
        <ele>272</ele>
        <time>2025-09-02T14:01:44.000Z</time>
      </trkpt>
      <trkpt lat="43.89438" lon="2.09275">
        <ele>272</ele>
        <time>2025-09-02T14:01:49.000Z</time>
      </trkpt>
      <trkpt lat="43.89444" lon="2.09274">
        <ele>271</ele>
        <time>2025-09-02T14:01:54.000Z</time>
      </trkpt>
      <trkpt lat="43.8945" lon="2.09275">
        <ele>271</ele>
        <time>2025-09-02T14:01:59.000Z</time>
      </trkpt>
      <trkpt lat="43.89454" lon="2.09281">
        <ele>270</ele>
        <time>2025-09-02T14:02:04.000Z</time>
      </trkpt>
      <trkpt lat="43.89456" lon="2.09287">
        <ele>269</ele>
        <time>2025-09-02T14:02:09.000Z</time>
      </trkpt>
      <trkpt lat="43.89458" lon="2.09292">
        <ele>269</ele>
        <time>2025-09-02T14:02:14.000Z</time>
      </trkpt>
      <trkpt lat="43.89462" lon="2.09299">
        <ele>267</ele>
        <time>2025-09-02T14:02:19.000Z</time>
      </trkpt>
      <trkpt lat="43.89465" lon="2.09306">
        <ele>267</ele>
        <time>2025-09-02T14:02:24.000Z</time>
      </trkpt>
      <trkpt lat="43.89468" lon="2.09312">
        <ele>265</ele>
        <time>2025-09-02T14:02:29.000Z</time>
      </trkpt>
      <trkpt lat="43.89471" lon="2.09317">
        <ele>265</ele>
        <time>2025-09-02T14:02:34.000Z</time>
      </trkpt>
      <trkpt lat="43.89474" lon="2.09323">
        <ele>264</ele>
        <time>2025-09-02T14:02:39.000Z</time>
      </trkpt>
      <trkpt lat="43.89478" lon="2.0933">
        <ele>264</ele>
        <time>2025-09-02T14:02:44.000Z</time>
      </trkpt>
      <trkpt lat="43.89482" lon="2.09337">
        <ele>264</ele>
        <time>2025-09-02T14:02:49.000Z</time>
      </trkpt>
      <trkpt lat="43.89485" lon="2.09344">
        <ele>264</ele>
        <time>2025-09-02T14:02:54.000Z</time>
      </trkpt>
      <trkpt lat="43.89486" lon="2.09352">
        <ele>263</ele>
        <time>2025-09-02T14:02:59.000Z</time>
      </trkpt>
      <trkpt lat="43.89485" lon="2.0936">
        <ele>263</ele>
        <time>2025-09-02T14:03:04.000Z</time>
      </trkpt>
      <trkpt lat="43.89485" lon="2.09368">
        <ele>264</ele>
        <time>2025-09-02T14:03:09.000Z</time>
      </trkpt>
      <trkpt lat="43.89485" lon="2.09376">
        <ele>263</ele>
        <time>2025-09-02T14:03:14.000Z</time>
      </trkpt>
      <trkpt lat="43.89483" lon="2.09384">
        <ele>262</ele>
        <time>2025-09-02T14:03:19.000Z</time>
      </trkpt>
      <trkpt lat="43.89481" lon="2.0939">
        <ele>261</ele>
        <time>2025-09-02T14:03:24.000Z</time>
      </trkpt>
      <trkpt lat="43.8948" lon="2.09398">
        <ele>260</ele>
        <time>2025-09-02T14:03:29.000Z</time>
      </trkpt>
      <trkpt lat="43.89477" lon="2.09406">
        <ele>260</ele>
        <time>2025-09-02T14:03:34.000Z</time>
      </trkpt>
      <trkpt lat="43.89476" lon="2.09414">
        <ele>259</ele>
        <time>2025-09-02T14:03:39.000Z</time>
      </trkpt>
      <trkpt lat="43.89476" lon="2.09421">
        <ele>259</ele>
        <time>2025-09-02T14:03:44.000Z</time>
      </trkpt>
      <trkpt lat="43.89475" lon="2.09427">
        <ele>259</ele>
        <time>2025-09-02T14:03:49.000Z</time>
      </trkpt>
      <trkpt lat="43.89474" lon="2.09434">
        <ele>258</ele>
        <time>2025-09-02T14:03:54.000Z</time>
      </trkpt>
      <trkpt lat="43.89473" lon="2.0944">
        <ele>257</ele>
        <time>2025-09-02T14:03:59.000Z</time>
      </trkpt>
      <trkpt lat="43.89478" lon="2.0944">
        <ele>256</ele>
        <time>2025-09-02T14:04:04.000Z</time>
      </trkpt>
      <trkpt lat="43.89481" lon="2.09435">
        <ele>257</ele>
        <time>2025-09-02T14:04:09.000Z</time>
      </trkpt>
      <trkpt lat="43.89484" lon="2.09427">
        <ele>256</ele>
        <time>2025-09-02T14:04:14.000Z</time>
      </trkpt>
      <trkpt lat="43.89487" lon="2.0942">
        <ele>256</ele>
        <time>2025-09-02T14:04:19.000Z</time>
      </trkpt>
      <trkpt lat="43.89491" lon="2.09416">
        <ele>256</ele>
        <time>2025-09-02T14:04:24.000Z</time>
      </trkpt>
      <trkpt lat="43.89495" lon="2.09412">
        <ele>256</ele>
        <time>2025-09-02T14:04:29.000Z</time>
      </trkpt>
      <trkpt lat="43.89501" lon="2.09405">
        <ele>256</ele>
        <time>2025-09-02T14:04:34.000Z</time>
      </trkpt>
      <trkpt lat="43.89504" lon="2.094">
        <ele>256</ele>
        <time>2025-09-02T14:04:39.000Z</time>
      </trkpt>
      <trkpt lat="43.89509" lon="2.09396">
        <ele>255</ele>
        <time>2025-09-02T14:04:44.000Z</time>
      </trkpt>
      <trkpt lat="43.89515" lon="2.09394">
        <ele>253</ele>
        <time>2025-09-02T14:04:49.000Z</time>
      </trkpt>
      <trkpt lat="43.8952" lon="2.09391">
        <ele>253</ele>
        <time>2025-09-02T14:04:54.000Z</time>
      </trkpt>
      <trkpt lat="43.89525" lon="2.09392">
        <ele>253</ele>
        <time>2025-09-02T14:04:59.000Z</time>
      </trkpt>
      <trkpt lat="43.89532" lon="2.09394">
        <ele>253</ele>
        <time>2025-09-02T14:05:04.000Z</time>
      </trkpt>
      <trkpt lat="43.89538" lon="2.09395">
        <ele>253</ele>
        <time>2025-09-02T14:05:09.000Z</time>
      </trkpt>
      <trkpt lat="43.89544" lon="2.09397">
        <ele>252</ele>
        <time>2025-09-02T14:05:14.000Z</time>
      </trkpt>
      <trkpt lat="43.89549" lon="2.094">
        <ele>252</ele>
        <time>2025-09-02T14:05:19.000Z</time>
      </trkpt>
      <trkpt lat="43.89555" lon="2.09402">
        <ele>250</ele>
        <time>2025-09-02T14:05:24.000Z</time>
      </trkpt>
      <trkpt lat="43.89561" lon="2.09403">
        <ele>250</ele>
        <time>2025-09-02T14:05:29.000Z</time>
      </trkpt>
      <trkpt lat="43.89564" lon="2.09405">
        <ele>249</ele>
        <time>2025-09-02T14:05:34.000Z</time>
      </trkpt>
      <trkpt lat="43.89568" lon="2.09407">
        <ele>249</ele>
        <time>2025-09-02T14:05:39.000Z</time>
      </trkpt>
      <trkpt lat="43.89574" lon="2.09408">
        <ele>248</ele>
        <time>2025-09-02T14:05:44.000Z</time>
      </trkpt>
      <trkpt lat="43.89581" lon="2.09407">
        <ele>249</ele>
        <time>2025-09-02T14:05:49.000Z</time>
      </trkpt>
      <trkpt lat="43.89587" lon="2.09406">
        <ele>247</ele>
        <time>2025-09-02T14:05:54.000Z</time>
      </trkpt>
      <trkpt lat="43.89591" lon="2.09405">
        <ele>247</ele>
        <time>2025-09-02T14:05:59.000Z</time>
      </trkpt>
      <trkpt lat="43.89596" lon="2.09403">
        <ele>248</ele>
        <time>2025-09-02T14:06:04.000Z</time>
      </trkpt>
      <trkpt lat="43.89601" lon="2.094">
        <ele>249</ele>
        <time>2025-09-02T14:06:09.000Z</time>
      </trkpt>
      <trkpt lat="43.89606" lon="2.09396">
        <ele>249</ele>
        <time>2025-09-02T14:06:14.000Z</time>
      </trkpt>
      <trkpt lat="43.89611" lon="2.09392">
        <ele>250</ele>
        <time>2025-09-02T14:06:19.000Z</time>
      </trkpt>
      <trkpt lat="43.89616" lon="2.09386">
        <ele>249</ele>
        <time>2025-09-02T14:06:24.000Z</time>
      </trkpt>
      <trkpt lat="43.89621" lon="2.09383">
        <ele>249</ele>
        <time>2025-09-02T14:06:29.000Z</time>
      </trkpt>
      <trkpt lat="43.89624" lon="2.09379">
        <ele>251</ele>
        <time>2025-09-02T14:06:34.000Z</time>
      </trkpt>
      <trkpt lat="43.89629" lon="2.09375">
        <ele>251</ele>
        <time>2025-09-02T14:06:39.000Z</time>
      </trkpt>
      <trkpt lat="43.89633" lon="2.0937">
        <ele>252</ele>
        <time>2025-09-02T14:06:44.000Z</time>
      </trkpt>
      <trkpt lat="43.89638" lon="2.09366">
        <ele>251</ele>
        <time>2025-09-02T14:06:49.000Z</time>
      </trkpt>
      <trkpt lat="43.89644" lon="2.09363">
        <ele>252</ele>
        <time>2025-09-02T14:06:54.000Z</time>
      </trkpt>
      <trkpt lat="43.8965" lon="2.09359">
        <ele>252</ele>
        <time>2025-09-02T14:06:59.000Z</time>
      </trkpt>
      <trkpt lat="43.89656" lon="2.09357">
        <ele>252</ele>
        <time>2025-09-02T14:07:04.000Z</time>
      </trkpt>
      <trkpt lat="43.89661" lon="2.09356">
        <ele>251</ele>
        <time>2025-09-02T14:07:09.000Z</time>
      </trkpt>
      <trkpt lat="43.89667" lon="2.09356">
        <ele>252</ele>
        <time>2025-09-02T14:07:14.000Z</time>
      </trkpt>
      <trkpt lat="43.89674" lon="2.09356">
        <ele>252</ele>
        <time>2025-09-02T14:07:19.000Z</time>
      </trkpt>
      <trkpt lat="43.89679" lon="2.09357">
        <ele>253</ele>
        <time>2025-09-02T14:07:24.000Z</time>
      </trkpt>
      <trkpt lat="43.89684" lon="2.09358">
        <ele>251</ele>
        <time>2025-09-02T14:07:29.000Z</time>
      </trkpt>
      <trkpt lat="43.8969" lon="2.0936">
        <ele>251</ele>
        <time>2025-09-02T14:07:34.000Z</time>
      </trkpt>
      <trkpt lat="43.89696" lon="2.09362">
        <ele>250</ele>
        <time>2025-09-02T14:07:39.000Z</time>
      </trkpt>
      <trkpt lat="43.89702" lon="2.09364">
        <ele>251</ele>
        <time>2025-09-02T14:07:44.000Z</time>
      </trkpt>
      <trkpt lat="43.89706" lon="2.09369">
        <ele>251</ele>
        <time>2025-09-02T14:07:49.000Z</time>
      </trkpt>
      <trkpt lat="43.89711" lon="2.09372">
        <ele>251</ele>
        <time>2025-09-02T14:07:54.000Z</time>
      </trkpt>
      <trkpt lat="43.89716" lon="2.09375">
        <ele>252</ele>
        <time>2025-09-02T14:07:59.000Z</time>
      </trkpt>
      <trkpt lat="43.89721" lon="2.09379">
        <ele>251</ele>
        <time>2025-09-02T14:08:04.000Z</time>
      </trkpt>
      <trkpt lat="43.89726" lon="2.09385">
        <ele>252</ele>
        <time>2025-09-02T14:08:09.000Z</time>
      </trkpt>
      <trkpt lat="43.89731" lon="2.09389">
        <ele>251</ele>
        <time>2025-09-02T14:08:14.000Z</time>
      </trkpt>
      <trkpt lat="43.89734" lon="2.09393">
        <ele>252</ele>
        <time>2025-09-02T14:08:19.000Z</time>
      </trkpt>
      <trkpt lat="43.89739" lon="2.09397">
        <ele>252</ele>
        <time>2025-09-02T14:08:24.000Z</time>
      </trkpt>
      <trkpt lat="43.89745" lon="2.09401">
        <ele>252</ele>
        <time>2025-09-02T14:08:29.000Z</time>
      </trkpt>
      <trkpt lat="43.89749" lon="2.09404">
        <ele>251</ele>
        <time>2025-09-02T14:08:34.000Z</time>
      </trkpt>
      <trkpt lat="43.89752" lon="2.09409">
        <ele>252</ele>
        <time>2025-09-02T14:08:39.000Z</time>
      </trkpt>
      <trkpt lat="43.89758" lon="2.09414">
        <ele>253</ele>
        <time>2025-09-02T14:08:44.000Z</time>
      </trkpt>
      <trkpt lat="43.89763" lon="2.09418">
        <ele>251</ele>
        <time>2025-09-02T14:08:49.000Z</time>
      </trkpt>
      <trkpt lat="43.89767" lon="2.09424">
        <ele>251</ele>
        <time>2025-09-02T14:08:54.000Z</time>
      </trkpt>
      <trkpt lat="43.89772" lon="2.09429">
        <ele>251</ele>
        <time>2025-09-02T14:08:59.000Z</time>
      </trkpt>
      <trkpt lat="43.89777" lon="2.09433">
        <ele>252</ele>
        <time>2025-09-02T14:09:04.000Z</time>
      </trkpt>
      <trkpt lat="43.89782" lon="2.09436">
        <ele>252</ele>
        <time>2025-09-02T14:09:09.000Z</time>
      </trkpt>
      <trkpt lat="43.89786" lon="2.09439">
        <ele>251</ele>
        <time>2025-09-02T14:09:14.000Z</time>
      </trkpt>
      <trkpt lat="43.89791" lon="2.09443">
        <ele>251</ele>
        <time>2025-09-02T14:09:19.000Z</time>
      </trkpt>
      <trkpt lat="43.89795" lon="2.09445">
        <ele>250</ele>
        <time>2025-09-02T14:09:24.000Z</time>
      </trkpt>
      <trkpt lat="43.89801" lon="2.09449">
        <ele>250</ele>
        <time>2025-09-02T14:09:29.000Z</time>
      </trkpt>
      <trkpt lat="43.89808" lon="2.09453">
        <ele>249</ele>
        <time>2025-09-02T14:09:34.000Z</time>
      </trkpt>
      <trkpt lat="43.89814" lon="2.09456">
        <ele>249</ele>
        <time>2025-09-02T14:09:39.000Z</time>
      </trkpt>
      <trkpt lat="43.8982" lon="2.09459">
        <ele>249</ele>
        <time>2025-09-02T14:09:44.000Z</time>
      </trkpt>
      <trkpt lat="43.89825" lon="2.0946">
        <ele>249</ele>
        <time>2025-09-02T14:09:49.000Z</time>
      </trkpt>
      <trkpt lat="43.89829" lon="2.09463">
        <ele>247</ele>
        <time>2025-09-02T14:09:54.000Z</time>
      </trkpt>
      <trkpt lat="43.89834" lon="2.09465">
        <ele>248</ele>
        <time>2025-09-02T14:09:59.000Z</time>
      </trkpt>
      <trkpt lat="43.8984" lon="2.09467">
        <ele>249</ele>
        <time>2025-09-02T14:10:04.000Z</time>
      </trkpt>
      <trkpt lat="43.89846" lon="2.09471">
        <ele>248</ele>
        <time>2025-09-02T14:10:09.000Z</time>
      </trkpt>
      <trkpt lat="43.89851" lon="2.09473">
        <ele>247</ele>
        <time>2025-09-02T14:10:14.000Z</time>
      </trkpt>
      <trkpt lat="43.89856" lon="2.09475">
        <ele>248</ele>
        <time>2025-09-02T14:10:19.000Z</time>
      </trkpt>
      <trkpt lat="43.89861" lon="2.09478">
        <ele>248</ele>
        <time>2025-09-02T14:10:24.000Z</time>
      </trkpt>
      <trkpt lat="43.89866" lon="2.09481">
        <ele>247</ele>
        <time>2025-09-02T14:10:29.000Z</time>
      </trkpt>
      <trkpt lat="43.89871" lon="2.09484">
        <ele>244</ele>
        <time>2025-09-02T14:10:34.000Z</time>
      </trkpt>
      <trkpt lat="43.89872" lon="2.09481">
        <ele>243</ele>
        <time>2025-09-02T14:10:39.000Z</time>
      </trkpt>
      <trkpt lat="43.89872" lon="2.09482">
        <ele>243</ele>
        <time>2025-09-02T14:10:44.000Z</time>
      </trkpt>
      <trkpt lat="43.89871" lon="2.09481">
        <ele>243</ele>
        <time>2025-09-02T14:10:49.000Z</time>
      </trkpt>
      <trkpt lat="43.89871" lon="2.09481">
        <ele>243</ele>
        <time>2025-09-02T14:10:54.000Z</time>
      </trkpt>
      <trkpt lat="43.89873" lon="2.09484">
        <ele>244</ele>
        <time>2025-09-02T14:10:59.000Z</time>
      </trkpt>
      <trkpt lat="43.89878" lon="2.09488">
        <ele>243</ele>
        <time>2025-09-02T14:11:04.000Z</time>
      </trkpt>
      <trkpt lat="43.89883" lon="2.09493">
        <ele>244</ele>
        <time>2025-09-02T14:11:09.000Z</time>
      </trkpt>
      <trkpt lat="43.89887" lon="2.09499">
        <ele>245</ele>
        <time>2025-09-02T14:11:14.000Z</time>
      </trkpt>
      <trkpt lat="43.89891" lon="2.09503">
        <ele>243</ele>
        <time>2025-09-02T14:11:19.000Z</time>
      </trkpt>
      <trkpt lat="43.89895" lon="2.09509">
        <ele>242</ele>
        <time>2025-09-02T14:11:24.000Z</time>
      </trkpt>
      <trkpt lat="43.899" lon="2.09513">
        <ele>241</ele>
        <time>2025-09-02T14:11:29.000Z</time>
      </trkpt>
      <trkpt lat="43.89905" lon="2.09516">
        <ele>240</ele>
        <time>2025-09-02T14:11:34.000Z</time>
      </trkpt>
      <trkpt lat="43.8991" lon="2.0952">
        <ele>242</ele>
        <time>2025-09-02T14:11:39.000Z</time>
      </trkpt>
      <trkpt lat="43.89916" lon="2.09524">
        <ele>240</ele>
        <time>2025-09-02T14:11:44.000Z</time>
      </trkpt>
      <trkpt lat="43.89921" lon="2.09529">
        <ele>241</ele>
        <time>2025-09-02T14:11:49.000Z</time>
      </trkpt>
      <trkpt lat="43.89925" lon="2.09534">
        <ele>241</ele>
        <time>2025-09-02T14:11:54.000Z</time>
      </trkpt>
      <trkpt lat="43.8993" lon="2.09535">
        <ele>240</ele>
        <time>2025-09-02T14:11:59.000Z</time>
      </trkpt>
      <trkpt lat="43.89936" lon="2.09539">
        <ele>239</ele>
        <time>2025-09-02T14:12:04.000Z</time>
      </trkpt>
      <trkpt lat="43.8994" lon="2.0954">
        <ele>238</ele>
        <time>2025-09-02T14:12:09.000Z</time>
      </trkpt>
      <trkpt lat="43.89944" lon="2.09539">
        <ele>239</ele>
        <time>2025-09-02T14:12:14.000Z</time>
      </trkpt>
      <trkpt lat="43.8995" lon="2.09535">
        <ele>237</ele>
        <time>2025-09-02T14:12:19.000Z</time>
      </trkpt>
      <trkpt lat="43.89954" lon="2.09529">
        <ele>236</ele>
        <time>2025-09-02T14:12:24.000Z</time>
      </trkpt>
      <trkpt lat="43.89957" lon="2.09523">
        <ele>237</ele>
        <time>2025-09-02T14:12:29.000Z</time>
      </trkpt>
      <trkpt lat="43.89961" lon="2.09517">
        <ele>237</ele>
        <time>2025-09-02T14:12:34.000Z</time>
      </trkpt>
      <trkpt lat="43.89966" lon="2.09512">
        <ele>236</ele>
        <time>2025-09-02T14:12:39.000Z</time>
      </trkpt>
      <trkpt lat="43.89971" lon="2.09506">
        <ele>234</ele>
        <time>2025-09-02T14:12:44.000Z</time>
      </trkpt>
      <trkpt lat="43.89976" lon="2.09499">
        <ele>234</ele>
        <time>2025-09-02T14:12:49.000Z</time>
      </trkpt>
      <trkpt lat="43.89981" lon="2.09493">
        <ele>233</ele>
        <time>2025-09-02T14:12:54.000Z</time>
      </trkpt>
      <trkpt lat="43.89984" lon="2.09485">
        <ele>234</ele>
        <time>2025-09-02T14:12:59.000Z</time>
      </trkpt>
      <trkpt lat="43.89987" lon="2.0948">
        <ele>234</ele>
        <time>2025-09-02T14:13:04.000Z</time>
      </trkpt>
      <trkpt lat="43.89991" lon="2.09475">
        <ele>233</ele>
        <time>2025-09-02T14:13:09.000Z</time>
      </trkpt>
      <trkpt lat="43.89995" lon="2.09471">
        <ele>232</ele>
        <time>2025-09-02T14:13:14.000Z</time>
      </trkpt>
      <trkpt lat="43.9" lon="2.09466">
        <ele>232</ele>
        <time>2025-09-02T14:13:19.000Z</time>
      </trkpt>
      <trkpt lat="43.90004" lon="2.09461">
        <ele>232</ele>
        <time>2025-09-02T14:13:24.000Z</time>
      </trkpt>
      <trkpt lat="43.90009" lon="2.09459">
        <ele>232</ele>
        <time>2025-09-02T14:13:29.000Z</time>
      </trkpt>
      <trkpt lat="43.90012" lon="2.09453">
        <ele>231</ele>
        <time>2025-09-02T14:13:34.000Z</time>
      </trkpt>
      <trkpt lat="43.90017" lon="2.0945">
        <ele>232</ele>
        <time>2025-09-02T14:13:39.000Z</time>
      </trkpt>
      <trkpt lat="43.90023" lon="2.09447">
        <ele>231</ele>
        <time>2025-09-02T14:13:44.000Z</time>
      </trkpt>
      <trkpt lat="43.90028" lon="2.09443">
        <ele>230</ele>
        <time>2025-09-02T14:13:49.000Z</time>
      </trkpt>
      <trkpt lat="43.90033" lon="2.0944">
        <ele>230</ele>
        <time>2025-09-02T14:13:54.000Z</time>
      </trkpt>
      <trkpt lat="43.90038" lon="2.09435">
        <ele>230</ele>
        <time>2025-09-02T14:13:59.000Z</time>
      </trkpt>
      <trkpt lat="43.90042" lon="2.09432">
        <ele>231</ele>
        <time>2025-09-02T14:14:04.000Z</time>
      </trkpt>
      <trkpt lat="43.90047" lon="2.09428">
        <ele>232</ele>
        <time>2025-09-02T14:14:09.000Z</time>
      </trkpt>
      <trkpt lat="43.90053" lon="2.09424">
        <ele>232</ele>
        <time>2025-09-02T14:14:14.000Z</time>
      </trkpt>
      <trkpt lat="43.90058" lon="2.09423">
        <ele>233</ele>
        <time>2025-09-02T14:14:19.000Z</time>
      </trkpt>
      <trkpt lat="43.90063" lon="2.09421">
        <ele>232</ele>
        <time>2025-09-02T14:14:24.000Z</time>
      </trkpt>
      <trkpt lat="43.90068" lon="2.09417">
        <ele>233</ele>
        <time>2025-09-02T14:14:29.000Z</time>
      </trkpt>
      <trkpt lat="43.90074" lon="2.09416">
        <ele>234</ele>
        <time>2025-09-02T14:14:34.000Z</time>
      </trkpt>
      <trkpt lat="43.90079" lon="2.09417">
        <ele>235</ele>
        <time>2025-09-02T14:14:39.000Z</time>
      </trkpt>
      <trkpt lat="43.90085" lon="2.09419">
        <ele>235</ele>
        <time>2025-09-02T14:14:44.000Z</time>
      </trkpt>
      <trkpt lat="43.90091" lon="2.09421">
        <ele>235</ele>
        <time>2025-09-02T14:14:49.000Z</time>
      </trkpt>
      <trkpt lat="43.90096" lon="2.09424">
        <ele>234</ele>
        <time>2025-09-02T14:14:54.000Z</time>
      </trkpt>
      <trkpt lat="43.90101" lon="2.09427">
        <ele>235</ele>
        <time>2025-09-02T14:14:59.000Z</time>
      </trkpt>
      <trkpt lat="43.90106" lon="2.0943">
        <ele>234</ele>
        <time>2025-09-02T14:15:04.000Z</time>
      </trkpt>
      <trkpt lat="43.9011" lon="2.09434">
        <ele>234</ele>
        <time>2025-09-02T14:15:09.000Z</time>
      </trkpt>
      <trkpt lat="43.90114" lon="2.09439">
        <ele>235</ele>
        <time>2025-09-02T14:15:14.000Z</time>
      </trkpt>
      <trkpt lat="43.90119" lon="2.09443">
        <ele>233</ele>
        <time>2025-09-02T14:15:19.000Z</time>
      </trkpt>
      <trkpt lat="43.90125" lon="2.09446">
        <ele>232</ele>
        <time>2025-09-02T14:15:24.000Z</time>
      </trkpt>
      <trkpt lat="43.9013" lon="2.09451">
        <ele>232</ele>
        <time>2025-09-02T14:15:29.000Z</time>
      </trkpt>
      <trkpt lat="43.90135" lon="2.09454">
        <ele>231</ele>
        <time>2025-09-02T14:15:34.000Z</time>
      </trkpt>
      <trkpt lat="43.90141" lon="2.09459">
        <ele>230</ele>
        <time>2025-09-02T14:15:39.000Z</time>
      </trkpt>
      <trkpt lat="43.90146" lon="2.09462">
        <ele>230</ele>
        <time>2025-09-02T14:15:44.000Z</time>
      </trkpt>
      <trkpt lat="43.90151" lon="2.09464">
        <ele>231</ele>
        <time>2025-09-02T14:15:49.000Z</time>
      </trkpt>
      <trkpt lat="43.90156" lon="2.09464">
        <ele>230</ele>
        <time>2025-09-02T14:15:54.000Z</time>
      </trkpt>
      <trkpt lat="43.90162" lon="2.09464">
        <ele>229</ele>
        <time>2025-09-02T14:15:59.000Z</time>
      </trkpt>
      <trkpt lat="43.90169" lon="2.09463">
        <ele>230</ele>
        <time>2025-09-02T14:16:04.000Z</time>
      </trkpt>
      <trkpt lat="43.90175" lon="2.09461">
        <ele>229</ele>
        <time>2025-09-02T14:16:09.000Z</time>
      </trkpt>
      <trkpt lat="43.9018" lon="2.09459">
        <ele>229</ele>
        <time>2025-09-02T14:16:14.000Z</time>
      </trkpt>
      <trkpt lat="43.90185" lon="2.09458">
        <ele>228</ele>
        <time>2025-09-02T14:16:19.000Z</time>
      </trkpt>
      <trkpt lat="43.9019" lon="2.09455">
        <ele>229</ele>
        <time>2025-09-02T14:16:24.000Z</time>
      </trkpt>
      <trkpt lat="43.90195" lon="2.09449">
        <ele>230</ele>
        <time>2025-09-02T14:16:29.000Z</time>
      </trkpt>
      <trkpt lat="43.90199" lon="2.09445">
        <ele>229</ele>
        <time>2025-09-02T14:16:34.000Z</time>
      </trkpt>
      <trkpt lat="43.90205" lon="2.09442">
        <ele>230</ele>
        <time>2025-09-02T14:16:39.000Z</time>
      </trkpt>
      <trkpt lat="43.9021" lon="2.09446">
        <ele>228</ele>
        <time>2025-09-02T14:16:44.000Z</time>
      </trkpt>
      <trkpt lat="43.90214" lon="2.09449">
        <ele>226</ele>
        <time>2025-09-02T14:16:49.000Z</time>
      </trkpt>
      <trkpt lat="43.9022" lon="2.09448">
        <ele>226</ele>
        <time>2025-09-02T14:16:54.000Z</time>
      </trkpt>
      <trkpt lat="43.90226" lon="2.09449">
        <ele>226</ele>
        <time>2025-09-02T14:16:59.000Z</time>
      </trkpt>
      <trkpt lat="43.90231" lon="2.0945">
        <ele>225</ele>
        <time>2025-09-02T14:17:04.000Z</time>
      </trkpt>
      <trkpt lat="43.90237" lon="2.09451">
        <ele>224</ele>
        <time>2025-09-02T14:17:09.000Z</time>
      </trkpt>
      <trkpt lat="43.90241" lon="2.09453">
        <ele>225</ele>
        <time>2025-09-02T14:17:14.000Z</time>
      </trkpt>
      <trkpt lat="43.90247" lon="2.09455">
        <ele>224</ele>
        <time>2025-09-02T14:17:19.000Z</time>
      </trkpt>
      <trkpt lat="43.90252" lon="2.09457">
        <ele>224</ele>
        <time>2025-09-02T14:17:24.000Z</time>
      </trkpt>
      <trkpt lat="43.90258" lon="2.0946">
        <ele>223</ele>
        <time>2025-09-02T14:17:29.000Z</time>
      </trkpt>
      <trkpt lat="43.90265" lon="2.09462">
        <ele>222</ele>
        <time>2025-09-02T14:17:34.000Z</time>
      </trkpt>
      <trkpt lat="43.90271" lon="2.09465">
        <ele>222</ele>
        <time>2025-09-02T14:17:39.000Z</time>
      </trkpt>
      <trkpt lat="43.90276" lon="2.09468">
        <ele>221</ele>
        <time>2025-09-02T14:17:44.000Z</time>
      </trkpt>
      <trkpt lat="43.90281" lon="2.09471">
        <ele>221</ele>
        <time>2025-09-02T14:17:49.000Z</time>
      </trkpt>
      <trkpt lat="43.90286" lon="2.09472">
        <ele>221</ele>
        <time>2025-09-02T14:17:54.000Z</time>
      </trkpt>
      <trkpt lat="43.9029" lon="2.09474">
        <ele>222</ele>
        <time>2025-09-02T14:17:59.000Z</time>
      </trkpt>
      <trkpt lat="43.90294" lon="2.09477">
        <ele>221</ele>
        <time>2025-09-02T14:18:04.000Z</time>
      </trkpt>
      <trkpt lat="43.90297" lon="2.09482">
        <ele>220</ele>
        <time>2025-09-02T14:18:09.000Z</time>
      </trkpt>
      <trkpt lat="43.903" lon="2.09488">
        <ele>220</ele>
        <time>2025-09-02T14:18:14.000Z</time>
      </trkpt>
      <trkpt lat="43.90302" lon="2.09495">
        <ele>219</ele>
        <time>2025-09-02T14:18:19.000Z</time>
      </trkpt>
      <trkpt lat="43.90303" lon="2.09503">
        <ele>219</ele>
        <time>2025-09-02T14:18:24.000Z</time>
      </trkpt>
      <trkpt lat="43.90304" lon="2.0951">
        <ele>219</ele>
        <time>2025-09-02T14:18:29.000Z</time>
      </trkpt>
      <trkpt lat="43.90304" lon="2.09518">
        <ele>219</ele>
        <time>2025-09-02T14:18:34.000Z</time>
      </trkpt>
      <trkpt lat="43.90304" lon="2.09524">
        <ele>220</ele>
        <time>2025-09-02T14:18:39.000Z</time>
      </trkpt>
      <trkpt lat="43.90304" lon="2.09532">
        <ele>220</ele>
        <time>2025-09-02T14:18:44.000Z</time>
      </trkpt>
      <trkpt lat="43.90305" lon="2.0954">
        <ele>220</ele>
        <time>2025-09-02T14:18:49.000Z</time>
      </trkpt>
      <trkpt lat="43.90305" lon="2.09547">
        <ele>220</ele>
        <time>2025-09-02T14:18:54.000Z</time>
      </trkpt>
      <trkpt lat="43.90304" lon="2.09555">
        <ele>219</ele>
        <time>2025-09-02T14:18:59.000Z</time>
      </trkpt>
      <trkpt lat="43.90305" lon="2.0956">
        <ele>220</ele>
        <time>2025-09-02T14:19:04.000Z</time>
      </trkpt>
      <trkpt lat="43.90308" lon="2.09563">
        <ele>221</ele>
        <time>2025-09-02T14:19:09.000Z</time>
      </trkpt>
      <trkpt lat="43.90312" lon="2.09565">
        <ele>223</ele>
        <time>2025-09-02T14:19:14.000Z</time>
      </trkpt>
      <trkpt lat="43.90315" lon="2.0957">
        <ele>222</ele>
        <time>2025-09-02T14:19:19.000Z</time>
      </trkpt>
      <trkpt lat="43.90319" lon="2.09574">
        <ele>221</ele>
        <time>2025-09-02T14:19:24.000Z</time>
      </trkpt>
      <trkpt lat="43.90324" lon="2.09579">
        <ele>222</ele>
        <time>2025-09-02T14:19:29.000Z</time>
      </trkpt>
      <trkpt lat="43.90327" lon="2.09585">
        <ele>220</ele>
        <time>2025-09-02T14:19:34.000Z</time>
      </trkpt>
      <trkpt lat="43.90331" lon="2.0959">
        <ele>221</ele>
        <time>2025-09-02T14:19:39.000Z</time>
      </trkpt>
      <trkpt lat="43.90334" lon="2.09595">
        <ele>219</ele>
        <time>2025-09-02T14:19:44.000Z</time>
      </trkpt>
      <trkpt lat="43.90337" lon="2.096">
        <ele>219</ele>
        <time>2025-09-02T14:19:49.000Z</time>
      </trkpt>
      <trkpt lat="43.90339" lon="2.09606">
        <ele>218</ele>
        <time>2025-09-02T14:19:54.000Z</time>
      </trkpt>
      <trkpt lat="43.90342" lon="2.09612">
        <ele>218</ele>
        <time>2025-09-02T14:19:59.000Z</time>
      </trkpt>
      <trkpt lat="43.90345" lon="2.09619">
        <ele>217</ele>
        <time>2025-09-02T14:20:04.000Z</time>
      </trkpt>
      <trkpt lat="43.90348" lon="2.09624">
        <ele>217</ele>
        <time>2025-09-02T14:20:09.000Z</time>
      </trkpt>
      <trkpt lat="43.90351" lon="2.0963">
        <ele>217</ele>
        <time>2025-09-02T14:20:14.000Z</time>
      </trkpt>
      <trkpt lat="43.90354" lon="2.09636">
        <ele>216</ele>
        <time>2025-09-02T14:20:19.000Z</time>
      </trkpt>
      <trkpt lat="43.90357" lon="2.0964">
        <ele>215</ele>
        <time>2025-09-02T14:20:24.000Z</time>
      </trkpt>
      <trkpt lat="43.9036" lon="2.09646">
        <ele>216</ele>
        <time>2025-09-02T14:20:29.000Z</time>
      </trkpt>
      <trkpt lat="43.90363" lon="2.09652">
        <ele>218</ele>
        <time>2025-09-02T14:20:34.000Z</time>
      </trkpt>
      <trkpt lat="43.90365" lon="2.09657">
        <ele>220</ele>
        <time>2025-09-02T14:20:39.000Z</time>
      </trkpt>
      <trkpt lat="43.90368" lon="2.09662">
        <ele>221</ele>
        <time>2025-09-02T14:20:44.000Z</time>
      </trkpt>
      <trkpt lat="43.90371" lon="2.09667">
        <ele>223</ele>
        <time>2025-09-02T14:20:49.000Z</time>
      </trkpt>
      <trkpt lat="43.90373" lon="2.09673">
        <ele>224</ele>
        <time>2025-09-02T14:20:54.000Z</time>
      </trkpt>
      <trkpt lat="43.90376" lon="2.09677">
        <ele>224</ele>
        <time>2025-09-02T14:20:59.000Z</time>
      </trkpt>
      <trkpt lat="43.90378" lon="2.09682">
        <ele>224</ele>
        <time>2025-09-02T14:21:04.000Z</time>
      </trkpt>
      <trkpt lat="43.9038" lon="2.09686">
        <ele>226</ele>
        <time>2025-09-02T14:21:09.000Z</time>
      </trkpt>
      <trkpt lat="43.90381" lon="2.0969">
        <ele>226</ele>
        <time>2025-09-02T14:21:14.000Z</time>
      </trkpt>
      <trkpt lat="43.90382" lon="2.09694">
        <ele>226</ele>
        <time>2025-09-02T14:21:19.000Z</time>
      </trkpt>
      <trkpt lat="43.90382" lon="2.09695">
        <ele>228</ele>
        <time>2025-09-02T14:21:24.000Z</time>
      </trkpt>
      <trkpt lat="43.90382" lon="2.09695">
        <ele>228</ele>
        <time>2025-09-02T14:21:29.000Z</time>
      </trkpt>
      <trkpt lat="43.90382" lon="2.09695">
        <ele>228</ele>
        <time>2025-09-02T14:21:34.000Z</time>
      </trkpt>
      <trkpt lat="43.90382" lon="2.09695">
        <ele>228</ele>
        <time>2025-09-02T14:21:39.000Z</time>
      </trkpt>
      <trkpt lat="43.90383" lon="2.09696">
        <ele>228</ele>
        <time>2025-09-02T14:21:44.000Z</time>
      </trkpt>
      <trkpt lat="43.90382" lon="2.09695">
        <ele>229</ele>
        <time>2025-09-02T14:21:49.000Z</time>
      </trkpt>
      <trkpt lat="43.90382" lon="2.09696">
        <ele>228</ele>
        <time>2025-09-02T14:21:54.000Z</time>
      </trkpt>
      <trkpt lat="43.90382" lon="2.09696">
        <ele>227</ele>
        <time>2025-09-02T14:21:59.000Z</time>
      </trkpt>
      <trkpt lat="43.90382" lon="2.09696">
        <ele>227</ele>
        <time>2025-09-02T14:22:04.000Z</time>
      </trkpt>
      <trkpt lat="43.90381" lon="2.09693">
        <ele>228</ele>
        <time>2025-09-02T14:22:09.000Z</time>
      </trkpt>
      <trkpt lat="43.90381" lon="2.09694">
        <ele>229</ele>
        <time>2025-09-02T14:22:14.000Z</time>
      </trkpt>
      <trkpt lat="43.90381" lon="2.09694">
        <ele>229</ele>
        <time>2025-09-02T14:22:19.000Z</time>
      </trkpt>
      <trkpt lat="43.90381" lon="2.09694">
        <ele>229</ele>
        <time>2025-09-02T14:22:24.000Z</time>
      </trkpt>
      <trkpt lat="43.90381" lon="2.09693">
        <ele>228</ele>
        <time>2025-09-02T14:22:29.000Z</time>
      </trkpt>
      <trkpt lat="43.90381" lon="2.09693">
        <ele>228</ele>
        <time>2025-09-02T14:22:34.000Z</time>
      </trkpt>
      <trkpt lat="43.90381" lon="2.09693">
        <ele>228</ele>
        <time>2025-09-02T14:22:39.000Z</time>
      </trkpt>
      <trkpt lat="43.90381" lon="2.09693">
        <ele>228</ele>
        <time>2025-09-02T14:22:44.000Z</time>
      </trkpt>
      <trkpt lat="43.90381" lon="2.09693">
        <ele>228</ele>
        <time>2025-09-02T14:22:49.000Z</time>
      </trkpt>
      <trkpt lat="43.9038" lon="2.09694">
        <ele>227</ele>
        <time>2025-09-02T14:22:54.000Z</time>
      </trkpt>
      <trkpt lat="43.9038" lon="2.09694">
        <ele>227</ele>
        <time>2025-09-02T14:22:59.000Z</time>
      </trkpt>
      <trkpt lat="43.9038" lon="2.09694">
        <ele>227</ele>
        <time>2025-09-02T14:23:04.000Z</time>
      </trkpt>
      <trkpt lat="43.9038" lon="2.09694">
        <ele>227</ele>
        <time>2025-09-02T14:23:09.000Z</time>
      </trkpt>
      <trkpt lat="43.9038" lon="2.09695">
        <ele>227</ele>
        <time>2025-09-02T14:23:14.000Z</time>
      </trkpt>
      <trkpt lat="43.9038" lon="2.09695">
        <ele>225</ele>
        <time>2025-09-02T14:23:19.000Z</time>
      </trkpt>
      <trkpt lat="43.90381" lon="2.09695">
        <ele>225</ele>
        <time>2025-09-02T14:23:24.000Z</time>
      </trkpt>
      <trkpt lat="43.90381" lon="2.09695">
        <ele>225</ele>
        <time>2025-09-02T14:23:29.000Z</time>
      </trkpt>
      <trkpt lat="43.90381" lon="2.09695">
        <ele>225</ele>
        <time>2025-09-02T14:23:34.000Z</time>
      </trkpt>
      <trkpt lat="43.90381" lon="2.09695">
        <ele>225</ele>
        <time>2025-09-02T14:23:39.000Z</time>
      </trkpt>
      <trkpt lat="43.90382" lon="2.09696">
        <ele>227</ele>
        <time>2025-09-02T14:23:44.000Z</time>
      </trkpt>
      <trkpt lat="43.90383" lon="2.09699">
        <ele>228</ele>
        <time>2025-09-02T14:23:49.000Z</time>
      </trkpt>
      <trkpt lat="43.90384" lon="2.09701">
        <ele>227</ele>
        <time>2025-09-02T14:23:54.000Z</time>
      </trkpt>
      <trkpt lat="43.90385" lon="2.09703">
        <ele>227</ele>
        <time>2025-09-02T14:23:59.000Z</time>
      </trkpt>
      <trkpt lat="43.90386" lon="2.09706">
        <ele>226</ele>
        <time>2025-09-02T14:24:04.000Z</time>
      </trkpt>
      <trkpt lat="43.90387" lon="2.09709">
        <ele>227</ele>
        <time>2025-09-02T14:24:09.000Z</time>
      </trkpt>
      <trkpt lat="43.90389" lon="2.09712">
        <ele>225</ele>
        <time>2025-09-02T14:24:14.000Z</time>
      </trkpt>
      <trkpt lat="43.90391" lon="2.09716">
        <ele>227</ele>
        <time>2025-09-02T14:24:19.000Z</time>
      </trkpt>
      <trkpt lat="43.90392" lon="2.09718">
        <ele>227</ele>
        <time>2025-09-02T14:24:24.000Z</time>
      </trkpt>
      <trkpt lat="43.90393" lon="2.09718">
        <ele>228</ele>
        <time>2025-09-02T14:24:29.000Z</time>
      </trkpt>
      <trkpt lat="43.90396" lon="2.0972">
        <ele>227</ele>
        <time>2025-09-02T14:24:34.000Z</time>
      </trkpt>
      <trkpt lat="43.90397" lon="2.09723">
        <ele>228</ele>
        <time>2025-09-02T14:24:39.000Z</time>
      </trkpt>
      <trkpt lat="43.904" lon="2.09725">
        <ele>228</ele>
        <time>2025-09-02T14:24:44.000Z</time>
      </trkpt>
      <trkpt lat="43.90402" lon="2.09728">
        <ele>229</ele>
        <time>2025-09-02T14:24:49.000Z</time>
      </trkpt>
      <trkpt lat="43.90404" lon="2.09732">
        <ele>230</ele>
        <time>2025-09-02T14:24:54.000Z</time>
      </trkpt>
      <trkpt lat="43.90406" lon="2.09734">
        <ele>231</ele>
        <time>2025-09-02T14:24:59.000Z</time>
      </trkpt>
      <trkpt lat="43.90406" lon="2.09739">
        <ele>232</ele>
        <time>2025-09-02T14:25:04.000Z</time>
      </trkpt>
      <trkpt lat="43.90408" lon="2.09743">
        <ele>232</ele>
        <time>2025-09-02T14:25:09.000Z</time>
      </trkpt>
      <trkpt lat="43.90409" lon="2.09746">
        <ele>233</ele>
        <time>2025-09-02T14:25:14.000Z</time>
      </trkpt>
      <trkpt lat="43.90411" lon="2.09749">
        <ele>235</ele>
        <time>2025-09-02T14:25:19.000Z</time>
      </trkpt>
      <trkpt lat="43.90413" lon="2.09752">
        <ele>236</ele>
        <time>2025-09-02T14:25:24.000Z</time>
      </trkpt>
      <trkpt lat="43.90412" lon="2.09755">
        <ele>236</ele>
        <time>2025-09-02T14:25:29.000Z</time>
      </trkpt>
      <trkpt lat="43.90413" lon="2.09757">
        <ele>236</ele>
        <time>2025-09-02T14:25:34.000Z</time>
      </trkpt>
      <trkpt lat="43.90414" lon="2.09759">
        <ele>236</ele>
        <time>2025-09-02T14:25:39.000Z</time>
      </trkpt>
      <trkpt lat="43.90415" lon="2.09763">
        <ele>238</ele>
        <time>2025-09-02T14:25:44.000Z</time>
      </trkpt>
      <trkpt lat="43.90417" lon="2.09767">
        <ele>239</ele>
        <time>2025-09-02T14:25:49.000Z</time>
      </trkpt>
      <trkpt lat="43.90419" lon="2.09769">
        <ele>239</ele>
        <time>2025-09-02T14:25:54.000Z</time>
      </trkpt>
      <trkpt lat="43.90422" lon="2.09773">
        <ele>239</ele>
        <time>2025-09-02T14:25:59.000Z</time>
      </trkpt>
      <trkpt lat="43.90422" lon="2.09776">
        <ele>239</ele>
        <time>2025-09-02T14:26:04.000Z</time>
      </trkpt>
      <trkpt lat="43.90423" lon="2.09779">
        <ele>239</ele>
        <time>2025-09-02T14:26:09.000Z</time>
      </trkpt>
      <trkpt lat="43.90425" lon="2.09782">
        <ele>240</ele>
        <time>2025-09-02T14:26:14.000Z</time>
      </trkpt>
      <trkpt lat="43.90426" lon="2.09786">
        <ele>240</ele>
        <time>2025-09-02T14:26:19.000Z</time>
      </trkpt>
      <trkpt lat="43.90429" lon="2.09786">
        <ele>242</ele>
        <time>2025-09-02T14:26:24.000Z</time>
      </trkpt>
      <trkpt lat="43.90431" lon="2.09786">
        <ele>244</ele>
        <time>2025-09-02T14:26:29.000Z</time>
      </trkpt>
      <trkpt lat="43.90435" lon="2.09787">
        <ele>244</ele>
        <time>2025-09-02T14:26:34.000Z</time>
      </trkpt>
      <trkpt lat="43.90437" lon="2.09789">
        <ele>245</ele>
        <time>2025-09-02T14:26:39.000Z</time>
      </trkpt>
      <trkpt lat="43.9044" lon="2.09791">
        <ele>247</ele>
        <time>2025-09-02T14:26:44.000Z</time>
      </trkpt>
      <trkpt lat="43.90443" lon="2.0979">
        <ele>247</ele>
        <time>2025-09-02T14:26:49.000Z</time>
      </trkpt>
      <trkpt lat="43.90446" lon="2.09793">
        <ele>248</ele>
        <time>2025-09-02T14:26:54.000Z</time>
      </trkpt>
      <trkpt lat="43.9045" lon="2.09796">
        <ele>248</ele>
        <time>2025-09-02T14:26:59.000Z</time>
      </trkpt>
      <trkpt lat="43.90453" lon="2.09798">
        <ele>248</ele>
        <time>2025-09-02T14:27:04.000Z</time>
      </trkpt>
      <trkpt lat="43.90456" lon="2.098">
        <ele>249</ele>
        <time>2025-09-02T14:27:09.000Z</time>
      </trkpt>
      <trkpt lat="43.90458" lon="2.09803">
        <ele>249</ele>
        <time>2025-09-02T14:27:14.000Z</time>
      </trkpt>
      <trkpt lat="43.9046" lon="2.09806">
        <ele>250</ele>
        <time>2025-09-02T14:27:19.000Z</time>
      </trkpt>
      <trkpt lat="43.90463" lon="2.0981">
        <ele>250</ele>
        <time>2025-09-02T14:27:24.000Z</time>
      </trkpt>
      <trkpt lat="43.90465" lon="2.09813">
        <ele>250</ele>
        <time>2025-09-02T14:27:29.000Z</time>
      </trkpt>
      <trkpt lat="43.90468" lon="2.09816">
        <ele>252</ele>
        <time>2025-09-02T14:27:34.000Z</time>
      </trkpt>
      <trkpt lat="43.90471" lon="2.09819">
        <ele>254</ele>
        <time>2025-09-02T14:27:39.000Z</time>
      </trkpt>
      <trkpt lat="43.90473" lon="2.09823">
        <ele>253</ele>
        <time>2025-09-02T14:27:44.000Z</time>
      </trkpt>
      <trkpt lat="43.90475" lon="2.09827">
        <ele>254</ele>
        <time>2025-09-02T14:27:49.000Z</time>
      </trkpt>
      <trkpt lat="43.90476" lon="2.09829">
        <ele>254</ele>
        <time>2025-09-02T14:27:54.000Z</time>
      </trkpt>
      <trkpt lat="43.90479" lon="2.09832">
        <ele>255</ele>
        <time>2025-09-02T14:27:59.000Z</time>
      </trkpt>
      <trkpt lat="43.90482" lon="2.09835">
        <ele>255</ele>
        <time>2025-09-02T14:28:04.000Z</time>
      </trkpt>
      <trkpt lat="43.90484" lon="2.09836">
        <ele>256</ele>
        <time>2025-09-02T14:28:09.000Z</time>
      </trkpt>
      <trkpt lat="43.90486" lon="2.09839">
        <ele>256</ele>
        <time>2025-09-02T14:28:14.000Z</time>
      </trkpt>
      <trkpt lat="43.90489" lon="2.09843">
        <ele>257</ele>
        <time>2025-09-02T14:28:19.000Z</time>
      </trkpt>
      <trkpt lat="43.90493" lon="2.09846">
        <ele>257</ele>
        <time>2025-09-02T14:28:24.000Z</time>
      </trkpt>
      <trkpt lat="43.90495" lon="2.09849">
        <ele>257</ele>
        <time>2025-09-02T14:28:29.000Z</time>
      </trkpt>
      <trkpt lat="43.90496" lon="2.09852">
        <ele>258</ele>
        <time>2025-09-02T14:28:34.000Z</time>
      </trkpt>
      <trkpt lat="43.90498" lon="2.09857">
        <ele>257</ele>
        <time>2025-09-02T14:28:39.000Z</time>
      </trkpt>
      <trkpt lat="43.90503" lon="2.09862">
        <ele>258</ele>
        <time>2025-09-02T14:28:44.000Z</time>
      </trkpt>
      <trkpt lat="43.90506" lon="2.09864">
        <ele>257</ele>
        <time>2025-09-02T14:28:49.000Z</time>
      </trkpt>
      <trkpt lat="43.90507" lon="2.09869">
        <ele>258</ele>
        <time>2025-09-02T14:28:54.000Z</time>
      </trkpt>
      <trkpt lat="43.90508" lon="2.09872">
        <ele>259</ele>
        <time>2025-09-02T14:28:59.000Z</time>
      </trkpt>
      <trkpt lat="43.90511" lon="2.09875">
        <ele>260</ele>
        <time>2025-09-02T14:29:04.000Z</time>
      </trkpt>
      <trkpt lat="43.90514" lon="2.09878">
        <ele>261</ele>
        <time>2025-09-02T14:29:09.000Z</time>
      </trkpt>
      <trkpt lat="43.90516" lon="2.09879">
        <ele>262</ele>
        <time>2025-09-02T14:29:14.000Z</time>
      </trkpt>
      <trkpt lat="43.90519" lon="2.09883">
        <ele>262</ele>
        <time>2025-09-02T14:29:19.000Z</time>
      </trkpt>
      <trkpt lat="43.9052" lon="2.09886">
        <ele>263</ele>
        <time>2025-09-02T14:29:24.000Z</time>
      </trkpt>
      <trkpt lat="43.90523" lon="2.09889">
        <ele>263</ele>
        <time>2025-09-02T14:29:29.000Z</time>
      </trkpt>
      <trkpt lat="43.90525" lon="2.09893">
        <ele>264</ele>
        <time>2025-09-02T14:29:34.000Z</time>
      </trkpt>
      <trkpt lat="43.90527" lon="2.09897">
        <ele>264</ele>
        <time>2025-09-02T14:29:39.000Z</time>
      </trkpt>
      <trkpt lat="43.90529" lon="2.099">
        <ele>266</ele>
        <time>2025-09-02T14:29:44.000Z</time>
      </trkpt>
      <trkpt lat="43.90532" lon="2.09903">
        <ele>267</ele>
        <time>2025-09-02T14:29:49.000Z</time>
      </trkpt>
      <trkpt lat="43.90535" lon="2.09906">
        <ele>265</ele>
        <time>2025-09-02T14:29:54.000Z</time>
      </trkpt>
      <trkpt lat="43.90536" lon="2.09909">
        <ele>266</ele>
        <time>2025-09-02T14:29:59.000Z</time>
      </trkpt>
      <trkpt lat="43.90539" lon="2.09912">
        <ele>265</ele>
        <time>2025-09-02T14:30:04.000Z</time>
      </trkpt>
      <trkpt lat="43.90542" lon="2.09916">
        <ele>266</ele>
        <time>2025-09-02T14:30:09.000Z</time>
      </trkpt>
      <trkpt lat="43.90547" lon="2.09919">
        <ele>265</ele>
        <time>2025-09-02T14:30:14.000Z</time>
      </trkpt>
      <trkpt lat="43.90551" lon="2.09924">
        <ele>265</ele>
        <time>2025-09-02T14:30:19.000Z</time>
      </trkpt>
      <trkpt lat="43.90553" lon="2.0993">
        <ele>265</ele>
        <time>2025-09-02T14:30:24.000Z</time>
      </trkpt>
      <trkpt lat="43.90554" lon="2.09935">
        <ele>266</ele>
        <time>2025-09-02T14:30:29.000Z</time>
      </trkpt>
      <trkpt lat="43.90555" lon="2.09939">
        <ele>268</ele>
        <time>2025-09-02T14:30:34.000Z</time>
      </trkpt>
      <trkpt lat="43.90557" lon="2.09946">
        <ele>267</ele>
        <time>2025-09-02T14:30:39.000Z</time>
      </trkpt>
      <trkpt lat="43.90559" lon="2.0995">
        <ele>268</ele>
        <time>2025-09-02T14:30:44.000Z</time>
      </trkpt>
      <trkpt lat="43.90561" lon="2.09949">
        <ele>269</ele>
        <time>2025-09-02T14:30:49.000Z</time>
      </trkpt>
      <trkpt lat="43.90564" lon="2.09944">
        <ele>269</ele>
        <time>2025-09-02T14:30:54.000Z</time>
      </trkpt>
      <trkpt lat="43.90569" lon="2.09938">
        <ele>271</ele>
        <time>2025-09-02T14:30:59.000Z</time>
      </trkpt>
      <trkpt lat="43.90574" lon="2.09937">
        <ele>272</ele>
        <time>2025-09-02T14:31:04.000Z</time>
      </trkpt>
      <trkpt lat="43.90579" lon="2.09939">
        <ele>274</ele>
        <time>2025-09-02T14:31:09.000Z</time>
      </trkpt>
      <trkpt lat="43.90584" lon="2.0994">
        <ele>275</ele>
        <time>2025-09-02T14:31:14.000Z</time>
      </trkpt>
      <trkpt lat="43.90589" lon="2.09941">
        <ele>275</ele>
        <time>2025-09-02T14:31:19.000Z</time>
      </trkpt>
      <trkpt lat="43.90594" lon="2.09941">
        <ele>275</ele>
        <time>2025-09-02T14:31:24.000Z</time>
      </trkpt>
      <trkpt lat="43.90599" lon="2.09942">
        <ele>275</ele>
        <time>2025-09-02T14:31:29.000Z</time>
      </trkpt>
      <trkpt lat="43.90603" lon="2.09941">
        <ele>274</ele>
        <time>2025-09-02T14:31:34.000Z</time>
      </trkpt>
      <trkpt lat="43.90608" lon="2.09941">
        <ele>273</ele>
        <time>2025-09-02T14:31:39.000Z</time>
      </trkpt>
      <trkpt lat="43.90613" lon="2.09942">
        <ele>272</ele>
        <time>2025-09-02T14:31:44.000Z</time>
      </trkpt>
      <trkpt lat="43.90618" lon="2.09944">
        <ele>271</ele>
        <time>2025-09-02T14:31:49.000Z</time>
      </trkpt>
      <trkpt lat="43.90622" lon="2.09948">
        <ele>271</ele>
        <time>2025-09-02T14:31:54.000Z</time>
      </trkpt>
      <trkpt lat="43.90627" lon="2.09948">
        <ele>272</ele>
        <time>2025-09-02T14:31:59.000Z</time>
      </trkpt>
      <trkpt lat="43.90628" lon="2.0995">
        <ele>270</ele>
        <time>2025-09-02T14:32:04.000Z</time>
      </trkpt>
      <trkpt lat="43.90632" lon="2.09949">
        <ele>269</ele>
        <time>2025-09-02T14:32:09.000Z</time>
      </trkpt>
      <trkpt lat="43.90635" lon="2.09951">
        <ele>268</ele>
        <time>2025-09-02T14:32:14.000Z</time>
      </trkpt>
      <trkpt lat="43.90635" lon="2.09955">
        <ele>267</ele>
        <time>2025-09-02T14:32:19.000Z</time>
      </trkpt>
      <trkpt lat="43.90634" lon="2.09957">
        <ele>266</ele>
        <time>2025-09-02T14:32:24.000Z</time>
      </trkpt>
      <trkpt lat="43.90634" lon="2.09957">
        <ele>266</ele>
        <time>2025-09-02T14:32:29.000Z</time>
      </trkpt>
      <trkpt lat="43.90636" lon="2.09957">
        <ele>264</ele>
        <time>2025-09-02T14:32:34.000Z</time>
      </trkpt>
      <trkpt lat="43.90637" lon="2.0996">
        <ele>266</ele>
        <time>2025-09-02T14:32:39.000Z</time>
      </trkpt>
      <trkpt lat="43.9064" lon="2.09965">
        <ele>265</ele>
        <time>2025-09-02T14:32:44.000Z</time>
      </trkpt>
      <trkpt lat="43.90642" lon="2.09971">
        <ele>265</ele>
        <time>2025-09-02T14:32:49.000Z</time>
      </trkpt>
      <trkpt lat="43.90644" lon="2.09976">
        <ele>264</ele>
        <time>2025-09-02T14:32:54.000Z</time>
      </trkpt>
      <trkpt lat="43.90648" lon="2.09979">
        <ele>263</ele>
        <time>2025-09-02T14:32:59.000Z</time>
      </trkpt>
      <trkpt lat="43.90651" lon="2.09982">
        <ele>262</ele>
        <time>2025-09-02T14:33:04.000Z</time>
      </trkpt>
      <trkpt lat="43.90654" lon="2.09984">
        <ele>261</ele>
        <time>2025-09-02T14:33:09.000Z</time>
      </trkpt>
      <trkpt lat="43.90657" lon="2.09986">
        <ele>259</ele>
        <time>2025-09-02T14:33:14.000Z</time>
      </trkpt>
      <trkpt lat="43.9066" lon="2.09989">
        <ele>257</ele>
        <time>2025-09-02T14:33:19.000Z</time>
      </trkpt>
      <trkpt lat="43.90663" lon="2.09994">
        <ele>256</ele>
        <time>2025-09-02T14:33:24.000Z</time>
      </trkpt>
      <trkpt lat="43.90667" lon="2.09998">
        <ele>256</ele>
        <time>2025-09-02T14:33:29.000Z</time>
      </trkpt>
      <trkpt lat="43.90671" lon="2.10002">
        <ele>256</ele>
        <time>2025-09-02T14:33:34.000Z</time>
      </trkpt>
      <trkpt lat="43.90673" lon="2.10006">
        <ele>254</ele>
        <time>2025-09-02T14:33:39.000Z</time>
      </trkpt>
      <trkpt lat="43.90676" lon="2.10008">
        <ele>253</ele>
        <time>2025-09-02T14:33:44.000Z</time>
      </trkpt>
      <trkpt lat="43.90678" lon="2.10013">
        <ele>250</ele>
        <time>2025-09-02T14:33:49.000Z</time>
      </trkpt>
      <trkpt lat="43.90682" lon="2.10015">
        <ele>250</ele>
        <time>2025-09-02T14:33:54.000Z</time>
      </trkpt>
      <trkpt lat="43.90684" lon="2.10017">
        <ele>248</ele>
        <time>2025-09-02T14:33:59.000Z</time>
      </trkpt>
      <trkpt lat="43.90687" lon="2.10019">
        <ele>247</ele>
        <time>2025-09-02T14:34:04.000Z</time>
      </trkpt>
      <trkpt lat="43.9069" lon="2.10021">
        <ele>246</ele>
        <time>2025-09-02T14:34:09.000Z</time>
      </trkpt>
      <trkpt lat="43.90693" lon="2.10023">
        <ele>245</ele>
        <time>2025-09-02T14:34:14.000Z</time>
      </trkpt>
      <trkpt lat="43.90693" lon="2.10024">
        <ele>242</ele>
        <time>2025-09-02T14:34:19.000Z</time>
      </trkpt>
      <trkpt lat="43.90697" lon="2.10029">
        <ele>242</ele>
        <time>2025-09-02T14:34:24.000Z</time>
      </trkpt>
      <trkpt lat="43.90701" lon="2.10033">
        <ele>242</ele>
        <time>2025-09-02T14:34:29.000Z</time>
      </trkpt>
      <trkpt lat="43.90702" lon="2.10032">
        <ele>243</ele>
        <time>2025-09-02T14:34:34.000Z</time>
      </trkpt>
      <trkpt lat="43.90702" lon="2.10033">
        <ele>242</ele>
        <time>2025-09-02T14:34:39.000Z</time>
      </trkpt>
      <trkpt lat="43.90703" lon="2.10035">
        <ele>243</ele>
        <time>2025-09-02T14:34:44.000Z</time>
      </trkpt>
      <trkpt lat="43.90708" lon="2.10039">
        <ele>242</ele>
        <time>2025-09-02T14:34:49.000Z</time>
      </trkpt>
      <trkpt lat="43.90713" lon="2.10043">
        <ele>240</ele>
        <time>2025-09-02T14:34:54.000Z</time>
      </trkpt>
      <trkpt lat="43.90717" lon="2.10045">
        <ele>239</ele>
        <time>2025-09-02T14:34:59.000Z</time>
      </trkpt>
      <trkpt lat="43.90721" lon="2.10045">
        <ele>239</ele>
        <time>2025-09-02T14:35:04.000Z</time>
      </trkpt>
      <trkpt lat="43.90727" lon="2.10047">
        <ele>238</ele>
        <time>2025-09-02T14:35:09.000Z</time>
      </trkpt>
      <trkpt lat="43.90732" lon="2.1005">
        <ele>236</ele>
        <time>2025-09-02T14:35:14.000Z</time>
      </trkpt>
      <trkpt lat="43.90738" lon="2.10054">
        <ele>236</ele>
        <time>2025-09-02T14:35:19.000Z</time>
      </trkpt>
      <trkpt lat="43.90741" lon="2.10056">
        <ele>235</ele>
        <time>2025-09-02T14:35:24.000Z</time>
      </trkpt>
      <trkpt lat="43.90745" lon="2.10059">
        <ele>233</ele>
        <time>2025-09-02T14:35:29.000Z</time>
      </trkpt>
      <trkpt lat="43.9075" lon="2.10061">
        <ele>232</ele>
        <time>2025-09-02T14:35:34.000Z</time>
      </trkpt>
      <trkpt lat="43.90755" lon="2.10063">
        <ele>231</ele>
        <time>2025-09-02T14:35:39.000Z</time>
      </trkpt>
      <trkpt lat="43.90759" lon="2.10064">
        <ele>229</ele>
        <time>2025-09-02T14:35:44.000Z</time>
      </trkpt>
      <trkpt lat="43.90765" lon="2.10064">
        <ele>230</ele>
        <time>2025-09-02T14:35:49.000Z</time>
      </trkpt>
      <trkpt lat="43.90769" lon="2.10067">
        <ele>228</ele>
        <time>2025-09-02T14:35:54.000Z</time>
      </trkpt>
      <trkpt lat="43.90775" lon="2.1007">
        <ele>225</ele>
        <time>2025-09-02T14:35:59.000Z</time>
      </trkpt>
      <trkpt lat="43.9078" lon="2.10072">
        <ele>225</ele>
        <time>2025-09-02T14:36:04.000Z</time>
      </trkpt>
      <trkpt lat="43.90784" lon="2.10074">
        <ele>226</ele>
        <time>2025-09-02T14:36:09.000Z</time>
      </trkpt>
      <trkpt lat="43.90789" lon="2.10075">
        <ele>222</ele>
        <time>2025-09-02T14:36:14.000Z</time>
      </trkpt>
      <trkpt lat="43.90794" lon="2.10078">
        <ele>223</ele>
        <time>2025-09-02T14:36:19.000Z</time>
      </trkpt>
      <trkpt lat="43.908" lon="2.1008">
        <ele>223</ele>
        <time>2025-09-02T14:36:24.000Z</time>
      </trkpt>
      <trkpt lat="43.90805" lon="2.10081">
        <ele>225</ele>
        <time>2025-09-02T14:36:29.000Z</time>
      </trkpt>
      <trkpt lat="43.90811" lon="2.10082">
        <ele>225</ele>
        <time>2025-09-02T14:36:34.000Z</time>
      </trkpt>
      <trkpt lat="43.90815" lon="2.10083">
        <ele>226</ele>
        <time>2025-09-02T14:36:39.000Z</time>
      </trkpt>
      <trkpt lat="43.90821" lon="2.10084">
        <ele>225</ele>
        <time>2025-09-02T14:36:44.000Z</time>
      </trkpt>
      <trkpt lat="43.90827" lon="2.10087">
        <ele>224</ele>
        <time>2025-09-02T14:36:49.000Z</time>
      </trkpt>
      <trkpt lat="43.90832" lon="2.1009">
        <ele>221</ele>
        <time>2025-09-02T14:36:54.000Z</time>
      </trkpt>
      <trkpt lat="43.90837" lon="2.10091">
        <ele>222</ele>
        <time>2025-09-02T14:36:59.000Z</time>
      </trkpt>
      <trkpt lat="43.90843" lon="2.10091">
        <ele>222</ele>
        <time>2025-09-02T14:37:04.000Z</time>
      </trkpt>
      <trkpt lat="43.90848" lon="2.10092">
        <ele>221</ele>
        <time>2025-09-02T14:37:09.000Z</time>
      </trkpt>
      <trkpt lat="43.90852" lon="2.10094">
        <ele>221</ele>
        <time>2025-09-02T14:37:14.000Z</time>
      </trkpt>
      <trkpt lat="43.90858" lon="2.10094">
        <ele>222</ele>
        <time>2025-09-02T14:37:19.000Z</time>
      </trkpt>
      <trkpt lat="43.90863" lon="2.10094">
        <ele>222</ele>
        <time>2025-09-02T14:37:24.000Z</time>
      </trkpt>
      <trkpt lat="43.90868" lon="2.10096">
        <ele>221</ele>
        <time>2025-09-02T14:37:29.000Z</time>
      </trkpt>
      <trkpt lat="43.90874" lon="2.10097">
        <ele>222</ele>
        <time>2025-09-02T14:37:34.000Z</time>
      </trkpt>
      <trkpt lat="43.90877" lon="2.10099">
        <ele>223</ele>
        <time>2025-09-02T14:37:39.000Z</time>
      </trkpt>
      <trkpt lat="43.9088" lon="2.10099">
        <ele>222</ele>
        <time>2025-09-02T14:37:44.000Z</time>
      </trkpt>
      <trkpt lat="43.90887" lon="2.10102">
        <ele>221</ele>
        <time>2025-09-02T14:37:49.000Z</time>
      </trkpt>
      <trkpt lat="43.90891" lon="2.10102">
        <ele>221</ele>
        <time>2025-09-02T14:37:54.000Z</time>
      </trkpt>
      <trkpt lat="43.90896" lon="2.10104">
        <ele>221</ele>
        <time>2025-09-02T14:37:59.000Z</time>
      </trkpt>
      <trkpt lat="43.90901" lon="2.10105">
        <ele>219</ele>
        <time>2025-09-02T14:38:04.000Z</time>
      </trkpt>
      <trkpt lat="43.90906" lon="2.10104">
        <ele>218</ele>
        <time>2025-09-02T14:38:09.000Z</time>
      </trkpt>
      <trkpt lat="43.90912" lon="2.10105">
        <ele>218</ele>
        <time>2025-09-02T14:38:14.000Z</time>
      </trkpt>
      <trkpt lat="43.90917" lon="2.10105">
        <ele>219</ele>
        <time>2025-09-02T14:38:19.000Z</time>
      </trkpt>
      <trkpt lat="43.90921" lon="2.10106">
        <ele>217</ele>
        <time>2025-09-02T14:38:24.000Z</time>
      </trkpt>
      <trkpt lat="43.90926" lon="2.10107">
        <ele>217</ele>
        <time>2025-09-02T14:38:29.000Z</time>
      </trkpt>
      <trkpt lat="43.90932" lon="2.10108">
        <ele>217</ele>
        <time>2025-09-02T14:38:34.000Z</time>
      </trkpt>
      <trkpt lat="43.90936" lon="2.10109">
        <ele>217</ele>
        <time>2025-09-02T14:38:39.000Z</time>
      </trkpt>
      <trkpt lat="43.90942" lon="2.10111">
        <ele>217</ele>
        <time>2025-09-02T14:38:44.000Z</time>
      </trkpt>
      <trkpt lat="43.90942" lon="2.10111">
        <ele>216</ele>
        <time>2025-09-02T14:38:49.000Z</time>
      </trkpt>
      <trkpt lat="43.90947" lon="2.10111">
        <ele>217</ele>
        <time>2025-09-02T14:38:54.000Z</time>
      </trkpt>
      <trkpt lat="43.90951" lon="2.10111">
        <ele>217</ele>
        <time>2025-09-02T14:38:59.000Z</time>
      </trkpt>
      <trkpt lat="43.90957" lon="2.10111">
        <ele>218</ele>
        <time>2025-09-02T14:39:04.000Z</time>
      </trkpt>
      <trkpt lat="43.90963" lon="2.10111">
        <ele>218</ele>
        <time>2025-09-02T14:39:09.000Z</time>
      </trkpt>
      <trkpt lat="43.90968" lon="2.10114">
        <ele>217</ele>
        <time>2025-09-02T14:39:14.000Z</time>
      </trkpt>
      <trkpt lat="43.90973" lon="2.10115">
        <ele>218</ele>
        <time>2025-09-02T14:39:19.000Z</time>
      </trkpt>
      <trkpt lat="43.90979" lon="2.10116">
        <ele>218</ele>
        <time>2025-09-02T14:39:24.000Z</time>
      </trkpt>
      <trkpt lat="43.90985" lon="2.10117">
        <ele>218</ele>
        <time>2025-09-02T14:39:29.000Z</time>
      </trkpt>
      <trkpt lat="43.9099" lon="2.10117">
        <ele>218</ele>
        <time>2025-09-02T14:39:34.000Z</time>
      </trkpt>
      <trkpt lat="43.90994" lon="2.10117">
        <ele>219</ele>
        <time>2025-09-02T14:39:39.000Z</time>
      </trkpt>
      <trkpt lat="43.91001" lon="2.10114">
        <ele>218</ele>
        <time>2025-09-02T14:39:44.000Z</time>
      </trkpt>
      <trkpt lat="43.91007" lon="2.10111">
        <ele>219</ele>
        <time>2025-09-02T14:39:49.000Z</time>
      </trkpt>
      <trkpt lat="43.91012" lon="2.10114">
        <ele>219</ele>
        <time>2025-09-02T14:39:54.000Z</time>
      </trkpt>
      <trkpt lat="43.91016" lon="2.10118">
        <ele>217</ele>
        <time>2025-09-02T14:39:59.000Z</time>
      </trkpt>
      <trkpt lat="43.91018" lon="2.10123">
        <ele>217</ele>
        <time>2025-09-02T14:40:04.000Z</time>
      </trkpt>
      <trkpt lat="43.91022" lon="2.10125">
        <ele>217</ele>
        <time>2025-09-02T14:40:09.000Z</time>
      </trkpt>
      <trkpt lat="43.91028" lon="2.10126">
        <ele>217</ele>
        <time>2025-09-02T14:40:14.000Z</time>
      </trkpt>
      <trkpt lat="43.91035" lon="2.10127">
        <ele>217</ele>
        <time>2025-09-02T14:40:19.000Z</time>
      </trkpt>
      <trkpt lat="43.91041" lon="2.10129">
        <ele>217</ele>
        <time>2025-09-02T14:40:24.000Z</time>
      </trkpt>
      <trkpt lat="43.91045" lon="2.10131">
        <ele>217</ele>
        <time>2025-09-02T14:40:29.000Z</time>
      </trkpt>
      <trkpt lat="43.9105" lon="2.10132">
        <ele>217</ele>
        <time>2025-09-02T14:40:34.000Z</time>
      </trkpt>
      <trkpt lat="43.91054" lon="2.10131">
        <ele>216</ele>
        <time>2025-09-02T14:40:39.000Z</time>
      </trkpt>
      <trkpt lat="43.91059" lon="2.10133">
        <ele>216</ele>
        <time>2025-09-02T14:40:44.000Z</time>
      </trkpt>
      <trkpt lat="43.91065" lon="2.10134">
        <ele>214</ele>
        <time>2025-09-02T14:40:49.000Z</time>
      </trkpt>
      <trkpt lat="43.91072" lon="2.10134">
        <ele>215</ele>
        <time>2025-09-02T14:40:54.000Z</time>
      </trkpt>
      <trkpt lat="43.91078" lon="2.10136">
        <ele>216</ele>
        <time>2025-09-02T14:40:59.000Z</time>
      </trkpt>
      <trkpt lat="43.91083" lon="2.10137">
        <ele>217</ele>
        <time>2025-09-02T14:41:04.000Z</time>
      </trkpt>
      <trkpt lat="43.9109" lon="2.10139">
        <ele>217</ele>
        <time>2025-09-02T14:41:09.000Z</time>
      </trkpt>
      <trkpt lat="43.91096" lon="2.10141">
        <ele>218</ele>
        <time>2025-09-02T14:41:14.000Z</time>
      </trkpt>
      <trkpt lat="43.911" lon="2.10142">
        <ele>217</ele>
        <time>2025-09-02T14:41:19.000Z</time>
      </trkpt>
      <trkpt lat="43.91105" lon="2.10142">
        <ele>216</ele>
        <time>2025-09-02T14:41:24.000Z</time>
      </trkpt>
      <trkpt lat="43.91111" lon="2.10142">
        <ele>216</ele>
        <time>2025-09-02T14:41:29.000Z</time>
      </trkpt>
      <trkpt lat="43.91118" lon="2.10142">
        <ele>215</ele>
        <time>2025-09-02T14:41:34.000Z</time>
      </trkpt>
      <trkpt lat="43.91124" lon="2.10142">
        <ele>215</ele>
        <time>2025-09-02T14:41:39.000Z</time>
      </trkpt>
      <trkpt lat="43.91129" lon="2.1014">
        <ele>216</ele>
        <time>2025-09-02T14:41:44.000Z</time>
      </trkpt>
      <trkpt lat="43.91136" lon="2.1014">
        <ele>215</ele>
        <time>2025-09-02T14:41:49.000Z</time>
      </trkpt>
      <trkpt lat="43.91141" lon="2.10139">
        <ele>216</ele>
        <time>2025-09-02T14:41:54.000Z</time>
      </trkpt>
      <trkpt lat="43.91145" lon="2.10137">
        <ele>215</ele>
        <time>2025-09-02T14:41:59.000Z</time>
      </trkpt>
      <trkpt lat="43.9115" lon="2.10132">
        <ele>216</ele>
        <time>2025-09-02T14:42:04.000Z</time>
      </trkpt>
      <trkpt lat="43.91154" lon="2.10128">
        <ele>216</ele>
        <time>2025-09-02T14:42:09.000Z</time>
      </trkpt>
      <trkpt lat="43.91158" lon="2.10121">
        <ele>217</ele>
        <time>2025-09-02T14:42:14.000Z</time>
      </trkpt>
      <trkpt lat="43.91162" lon="2.10115">
        <ele>216</ele>
        <time>2025-09-02T14:42:19.000Z</time>
      </trkpt>
      <trkpt lat="43.91167" lon="2.10111">
        <ele>216</ele>
        <time>2025-09-02T14:42:24.000Z</time>
      </trkpt>
      <trkpt lat="43.9117" lon="2.10103">
        <ele>216</ele>
        <time>2025-09-02T14:42:29.000Z</time>
      </trkpt>
      <trkpt lat="43.91173" lon="2.10097">
        <ele>216</ele>
        <time>2025-09-02T14:42:34.000Z</time>
      </trkpt>
      <trkpt lat="43.91176" lon="2.10091">
        <ele>216</ele>
        <time>2025-09-02T14:42:39.000Z</time>
      </trkpt>
      <trkpt lat="43.9118" lon="2.10084">
        <ele>218</ele>
        <time>2025-09-02T14:42:44.000Z</time>
      </trkpt>
      <trkpt lat="43.91182" lon="2.10077">
        <ele>219</ele>
        <time>2025-09-02T14:42:49.000Z</time>
      </trkpt>
      <trkpt lat="43.91185" lon="2.10069">
        <ele>220</ele>
        <time>2025-09-02T14:42:54.000Z</time>
      </trkpt>
      <trkpt lat="43.91189" lon="2.10064">
        <ele>221</ele>
        <time>2025-09-02T14:42:59.000Z</time>
      </trkpt>
      <trkpt lat="43.91192" lon="2.10058">
        <ele>220</ele>
        <time>2025-09-02T14:43:04.000Z</time>
      </trkpt>
      <trkpt lat="43.91196" lon="2.10053">
        <ele>219</ele>
        <time>2025-09-02T14:43:09.000Z</time>
      </trkpt>
      <trkpt lat="43.912" lon="2.10048">
        <ele>220</ele>
        <time>2025-09-02T14:43:14.000Z</time>
      </trkpt>
      <trkpt lat="43.91204" lon="2.10042">
        <ele>220</ele>
        <time>2025-09-02T14:43:19.000Z</time>
      </trkpt>
      <trkpt lat="43.91208" lon="2.10037">
        <ele>219</ele>
        <time>2025-09-02T14:43:24.000Z</time>
      </trkpt>
      <trkpt lat="43.91212" lon="2.10031">
        <ele>220</ele>
        <time>2025-09-02T14:43:29.000Z</time>
      </trkpt>
      <trkpt lat="43.91217" lon="2.10026">
        <ele>219</ele>
        <time>2025-09-02T14:43:34.000Z</time>
      </trkpt>
      <trkpt lat="43.91222" lon="2.10021">
        <ele>220</ele>
        <time>2025-09-02T14:43:39.000Z</time>
      </trkpt>
      <trkpt lat="43.91227" lon="2.10017">
        <ele>221</ele>
        <time>2025-09-02T14:43:44.000Z</time>
      </trkpt>
      <trkpt lat="43.91231" lon="2.10013">
        <ele>220</ele>
        <time>2025-09-02T14:43:49.000Z</time>
      </trkpt>
      <trkpt lat="43.91236" lon="2.10008">
        <ele>220</ele>
        <time>2025-09-02T14:43:54.000Z</time>
      </trkpt>
      <trkpt lat="43.91241" lon="2.10006">
        <ele>220</ele>
        <time>2025-09-02T14:43:59.000Z</time>
      </trkpt>
      <trkpt lat="43.91246" lon="2.10003">
        <ele>220</ele>
        <time>2025-09-02T14:44:04.000Z</time>
      </trkpt>
      <trkpt lat="43.91251" lon="2.09999">
        <ele>220</ele>
        <time>2025-09-02T14:44:09.000Z</time>
      </trkpt>
      <trkpt lat="43.91257" lon="2.09997">
        <ele>220</ele>
        <time>2025-09-02T14:44:14.000Z</time>
      </trkpt>
      <trkpt lat="43.91261" lon="2.09996">
        <ele>219</ele>
        <time>2025-09-02T14:44:19.000Z</time>
      </trkpt>
      <trkpt lat="43.91266" lon="2.09993">
        <ele>218</ele>
        <time>2025-09-02T14:44:24.000Z</time>
      </trkpt>
      <trkpt lat="43.91272" lon="2.09991">
        <ele>217</ele>
        <time>2025-09-02T14:44:29.000Z</time>
      </trkpt>
      <trkpt lat="43.91278" lon="2.0999">
        <ele>218</ele>
        <time>2025-09-02T14:44:34.000Z</time>
      </trkpt>
      <trkpt lat="43.91284" lon="2.09989">
        <ele>219</ele>
        <time>2025-09-02T14:44:39.000Z</time>
      </trkpt>
      <trkpt lat="43.91291" lon="2.09989">
        <ele>218</ele>
        <time>2025-09-02T14:44:44.000Z</time>
      </trkpt>
      <trkpt lat="43.91297" lon="2.09988">
        <ele>217</ele>
        <time>2025-09-02T14:44:49.000Z</time>
      </trkpt>
      <trkpt lat="43.91302" lon="2.09988">
        <ele>217</ele>
        <time>2025-09-02T14:44:54.000Z</time>
      </trkpt>
      <trkpt lat="43.91309" lon="2.09987">
        <ele>217</ele>
        <time>2025-09-02T14:44:59.000Z</time>
      </trkpt>
      <trkpt lat="43.91315" lon="2.09987">
        <ele>216</ele>
        <time>2025-09-02T14:45:04.000Z</time>
      </trkpt>
      <trkpt lat="43.9132" lon="2.09987">
        <ele>217</ele>
        <time>2025-09-02T14:45:09.000Z</time>
      </trkpt>
      <trkpt lat="43.91327" lon="2.09986">
        <ele>217</ele>
        <time>2025-09-02T14:45:14.000Z</time>
      </trkpt>
      <trkpt lat="43.91334" lon="2.09987">
        <ele>217</ele>
        <time>2025-09-02T14:45:19.000Z</time>
      </trkpt>
      <trkpt lat="43.91339" lon="2.09987">
        <ele>216</ele>
        <time>2025-09-02T14:45:24.000Z</time>
      </trkpt>
      <trkpt lat="43.91345" lon="2.09987">
        <ele>217</ele>
        <time>2025-09-02T14:45:29.000Z</time>
      </trkpt>
      <trkpt lat="43.91351" lon="2.09988">
        <ele>217</ele>
        <time>2025-09-02T14:45:34.000Z</time>
      </trkpt>
      <trkpt lat="43.91357" lon="2.0999">
        <ele>216</ele>
        <time>2025-09-02T14:45:39.000Z</time>
      </trkpt>
      <trkpt lat="43.91364" lon="2.09991">
        <ele>218</ele>
        <time>2025-09-02T14:45:44.000Z</time>
      </trkpt>
      <trkpt lat="43.9137" lon="2.09992">
        <ele>218</ele>
        <time>2025-09-02T14:45:49.000Z</time>
      </trkpt>
      <trkpt lat="43.91376" lon="2.09994">
        <ele>218</ele>
        <time>2025-09-02T14:45:54.000Z</time>
      </trkpt>
      <trkpt lat="43.91381" lon="2.09995">
        <ele>217</ele>
        <time>2025-09-02T14:45:59.000Z</time>
      </trkpt>
      <trkpt lat="43.91388" lon="2.09996">
        <ele>217</ele>
        <time>2025-09-02T14:46:04.000Z</time>
      </trkpt>
      <trkpt lat="43.91393" lon="2.09997">
        <ele>217</ele>
        <time>2025-09-02T14:46:09.000Z</time>
      </trkpt>
      <trkpt lat="43.91397" lon="2.09999">
        <ele>216</ele>
        <time>2025-09-02T14:46:14.000Z</time>
      </trkpt>
      <trkpt lat="43.91402" lon="2.1">
        <ele>216</ele>
        <time>2025-09-02T14:46:19.000Z</time>
      </trkpt>
      <trkpt lat="43.91408" lon="2.10003">
        <ele>215</ele>
        <time>2025-09-02T14:46:24.000Z</time>
      </trkpt>
      <trkpt lat="43.91411" lon="2.10004">
        <ele>216</ele>
        <time>2025-09-02T14:46:29.000Z</time>
      </trkpt>
      <trkpt lat="43.91417" lon="2.10008">
        <ele>217</ele>
        <time>2025-09-02T14:46:34.000Z</time>
      </trkpt>
      <trkpt lat="43.91424" lon="2.10013">
        <ele>216</ele>
        <time>2025-09-02T14:46:39.000Z</time>
      </trkpt>
      <trkpt lat="43.91429" lon="2.10018">
        <ele>216</ele>
        <time>2025-09-02T14:46:44.000Z</time>
      </trkpt>
      <trkpt lat="43.91433" lon="2.10024">
        <ele>215</ele>
        <time>2025-09-02T14:46:49.000Z</time>
      </trkpt>
      <trkpt lat="43.91437" lon="2.10029">
        <ele>214</ele>
        <time>2025-09-02T14:46:54.000Z</time>
      </trkpt>
      <trkpt lat="43.91442" lon="2.10034">
        <ele>215</ele>
        <time>2025-09-02T14:46:59.000Z</time>
      </trkpt>
      <trkpt lat="43.91447" lon="2.10041">
        <ele>215</ele>
        <time>2025-09-02T14:47:04.000Z</time>
      </trkpt>
      <trkpt lat="43.91452" lon="2.10047">
        <ele>216</ele>
        <time>2025-09-02T14:47:09.000Z</time>
      </trkpt>
      <trkpt lat="43.91456" lon="2.10052">
        <ele>217</ele>
        <time>2025-09-02T14:47:14.000Z</time>
      </trkpt>
      <trkpt lat="43.9146" lon="2.10057">
        <ele>217</ele>
        <time>2025-09-02T14:47:19.000Z</time>
      </trkpt>
      <trkpt lat="43.91464" lon="2.10062">
        <ele>217</ele>
        <time>2025-09-02T14:47:24.000Z</time>
      </trkpt>
      <trkpt lat="43.91468" lon="2.10069">
        <ele>218</ele>
        <time>2025-09-02T14:47:29.000Z</time>
      </trkpt>
      <trkpt lat="43.91473" lon="2.10076">
        <ele>217</ele>
        <time>2025-09-02T14:47:34.000Z</time>
      </trkpt>
      <trkpt lat="43.91476" lon="2.10081">
        <ele>218</ele>
        <time>2025-09-02T14:47:39.000Z</time>
      </trkpt>
      <trkpt lat="43.9148" lon="2.10088">
        <ele>219</ele>
        <time>2025-09-02T14:47:44.000Z</time>
      </trkpt>
      <trkpt lat="43.91484" lon="2.10094">
        <ele>218</ele>
        <time>2025-09-02T14:47:49.000Z</time>
      </trkpt>
      <trkpt lat="43.91488" lon="2.101">
        <ele>220</ele>
        <time>2025-09-02T14:47:54.000Z</time>
      </trkpt>
      <trkpt lat="43.91491" lon="2.10108">
        <ele>221</ele>
        <time>2025-09-02T14:47:59.000Z</time>
      </trkpt>
      <trkpt lat="43.91492" lon="2.10114">
        <ele>221</ele>
        <time>2025-09-02T14:48:04.000Z</time>
      </trkpt>
      <trkpt lat="43.91487" lon="2.10121">
        <ele>220</ele>
        <time>2025-09-02T14:48:09.000Z</time>
      </trkpt>
      <trkpt lat="43.91484" lon="2.10128">
        <ele>218</ele>
        <time>2025-09-02T14:48:14.000Z</time>
      </trkpt>
      <trkpt lat="43.91481" lon="2.10135">
        <ele>218</ele>
        <time>2025-09-02T14:48:19.000Z</time>
      </trkpt>
      <trkpt lat="43.9148" lon="2.10143">
        <ele>218</ele>
        <time>2025-09-02T14:48:24.000Z</time>
      </trkpt>
      <trkpt lat="43.91482" lon="2.10151">
        <ele>217</ele>
        <time>2025-09-02T14:48:29.000Z</time>
      </trkpt>
      <trkpt lat="43.91484" lon="2.10159">
        <ele>217</ele>
        <time>2025-09-02T14:48:34.000Z</time>
      </trkpt>
      <trkpt lat="43.91485" lon="2.10165">
        <ele>216</ele>
        <time>2025-09-02T14:48:39.000Z</time>
      </trkpt>
      <trkpt lat="43.91488" lon="2.10173">
        <ele>215</ele>
        <time>2025-09-02T14:48:44.000Z</time>
      </trkpt>
      <trkpt lat="43.91489" lon="2.10181">
        <ele>215</ele>
        <time>2025-09-02T14:48:49.000Z</time>
      </trkpt>
      <trkpt lat="43.9149" lon="2.10189">
        <ele>214</ele>
        <time>2025-09-02T14:48:54.000Z</time>
      </trkpt>
      <trkpt lat="43.91491" lon="2.10196">
        <ele>213</ele>
        <time>2025-09-02T14:48:59.000Z</time>
      </trkpt>
      <trkpt lat="43.91492" lon="2.10204">
        <ele>215</ele>
        <time>2025-09-02T14:49:04.000Z</time>
      </trkpt>
      <trkpt lat="43.91492" lon="2.10212">
        <ele>215</ele>
        <time>2025-09-02T14:49:09.000Z</time>
      </trkpt>
      <trkpt lat="43.91493" lon="2.1022">
        <ele>216</ele>
        <time>2025-09-02T14:49:14.000Z</time>
      </trkpt>
      <trkpt lat="43.91493" lon="2.10228">
        <ele>216</ele>
        <time>2025-09-02T14:49:19.000Z</time>
      </trkpt>
      <trkpt lat="43.91493" lon="2.10235">
        <ele>216</ele>
        <time>2025-09-02T14:49:24.000Z</time>
      </trkpt>
      <trkpt lat="43.91492" lon="2.10243">
        <ele>217</ele>
        <time>2025-09-02T14:49:29.000Z</time>
      </trkpt>
      <trkpt lat="43.9149" lon="2.10252">
        <ele>216</ele>
        <time>2025-09-02T14:49:34.000Z</time>
      </trkpt>
      <trkpt lat="43.91489" lon="2.10259">
        <ele>215</ele>
        <time>2025-09-02T14:49:39.000Z</time>
      </trkpt>
      <trkpt lat="43.91487" lon="2.10266">
        <ele>216</ele>
        <time>2025-09-02T14:49:44.000Z</time>
      </trkpt>
      <trkpt lat="43.91485" lon="2.10274">
        <ele>215</ele>
        <time>2025-09-02T14:49:49.000Z</time>
      </trkpt>
      <trkpt lat="43.91485" lon="2.10281">
        <ele>215</ele>
        <time>2025-09-02T14:49:54.000Z</time>
      </trkpt>
      <trkpt lat="43.91483" lon="2.10289">
        <ele>215</ele>
        <time>2025-09-02T14:49:59.000Z</time>
      </trkpt>
      <trkpt lat="43.9148" lon="2.10296">
        <ele>216</ele>
        <time>2025-09-02T14:50:04.000Z</time>
      </trkpt>
      <trkpt lat="43.91477" lon="2.10303">
        <ele>216</ele>
        <time>2025-09-02T14:50:09.000Z</time>
      </trkpt>
      <trkpt lat="43.91476" lon="2.10311">
        <ele>216</ele>
        <time>2025-09-02T14:50:14.000Z</time>
      </trkpt>
      <trkpt lat="43.91473" lon="2.10318">
        <ele>216</ele>
        <time>2025-09-02T14:50:19.000Z</time>
      </trkpt>
      <trkpt lat="43.91471" lon="2.10325">
        <ele>215</ele>
        <time>2025-09-02T14:50:24.000Z</time>
      </trkpt>
      <trkpt lat="43.91475" lon="2.10332">
        <ele>215</ele>
        <time>2025-09-02T14:50:29.000Z</time>
      </trkpt>
      <trkpt lat="43.91476" lon="2.10339">
        <ele>216</ele>
        <time>2025-09-02T14:50:34.000Z</time>
      </trkpt>
      <trkpt lat="43.91476" lon="2.10348">
        <ele>216</ele>
        <time>2025-09-02T14:50:39.000Z</time>
      </trkpt>
      <trkpt lat="43.91476" lon="2.10356">
        <ele>215</ele>
        <time>2025-09-02T14:50:44.000Z</time>
      </trkpt>
      <trkpt lat="43.91474" lon="2.10361">
        <ele>215</ele>
        <time>2025-09-02T14:50:49.000Z</time>
      </trkpt>
      <trkpt lat="43.91472" lon="2.10369">
        <ele>215</ele>
        <time>2025-09-02T14:50:54.000Z</time>
      </trkpt>
      <trkpt lat="43.9147" lon="2.10377">
        <ele>215</ele>
        <time>2025-09-02T14:50:59.000Z</time>
      </trkpt>
      <trkpt lat="43.91468" lon="2.10383">
        <ele>217</ele>
        <time>2025-09-02T14:51:04.000Z</time>
      </trkpt>
      <trkpt lat="43.91466" lon="2.1039">
        <ele>218</ele>
        <time>2025-09-02T14:51:09.000Z</time>
      </trkpt>
      <trkpt lat="43.91462" lon="2.10396">
        <ele>217</ele>
        <time>2025-09-02T14:51:14.000Z</time>
      </trkpt>
      <trkpt lat="43.91461" lon="2.10404">
        <ele>216</ele>
        <time>2025-09-02T14:51:19.000Z</time>
      </trkpt>
      <trkpt lat="43.91459" lon="2.10411">
        <ele>216</ele>
        <time>2025-09-02T14:51:24.000Z</time>
      </trkpt>
      <trkpt lat="43.91456" lon="2.10417">
        <ele>214</ele>
        <time>2025-09-02T14:51:29.000Z</time>
      </trkpt>
      <trkpt lat="43.91454" lon="2.10423">
        <ele>214</ele>
        <time>2025-09-02T14:51:34.000Z</time>
      </trkpt>
      <trkpt lat="43.91451" lon="2.1043">
        <ele>214</ele>
        <time>2025-09-02T14:51:39.000Z</time>
      </trkpt>
      <trkpt lat="43.91449" lon="2.10437">
        <ele>215</ele>
        <time>2025-09-02T14:51:44.000Z</time>
      </trkpt>
      <trkpt lat="43.91447" lon="2.10443">
        <ele>214</ele>
        <time>2025-09-02T14:51:49.000Z</time>
      </trkpt>
      <trkpt lat="43.91445" lon="2.1045">
        <ele>217</ele>
        <time>2025-09-02T14:51:54.000Z</time>
      </trkpt>
      <trkpt lat="43.91442" lon="2.10458">
        <ele>216</ele>
        <time>2025-09-02T14:51:59.000Z</time>
      </trkpt>
      <trkpt lat="43.9144" lon="2.10465">
        <ele>215</ele>
        <time>2025-09-02T14:52:04.000Z</time>
      </trkpt>
      <trkpt lat="43.91439" lon="2.10473">
        <ele>215</ele>
        <time>2025-09-02T14:52:09.000Z</time>
      </trkpt>
      <trkpt lat="43.91439" lon="2.1048">
        <ele>217</ele>
        <time>2025-09-02T14:52:14.000Z</time>
      </trkpt>
      <trkpt lat="43.91439" lon="2.10487">
        <ele>217</ele>
        <time>2025-09-02T14:52:19.000Z</time>
      </trkpt>
      <trkpt lat="43.91439" lon="2.10496">
        <ele>217</ele>
        <time>2025-09-02T14:52:24.000Z</time>
      </trkpt>
      <trkpt lat="43.9144" lon="2.10504">
        <ele>217</ele>
        <time>2025-09-02T14:52:29.000Z</time>
      </trkpt>
      <trkpt lat="43.91441" lon="2.1051">
        <ele>215</ele>
        <time>2025-09-02T14:52:34.000Z</time>
      </trkpt>
      <trkpt lat="43.91443" lon="2.10517">
        <ele>215</ele>
        <time>2025-09-02T14:52:39.000Z</time>
      </trkpt>
      <trkpt lat="43.91445" lon="2.10524">
        <ele>214</ele>
        <time>2025-09-02T14:52:44.000Z</time>
      </trkpt>
      <trkpt lat="43.91448" lon="2.10532">
        <ele>216</ele>
        <time>2025-09-02T14:52:49.000Z</time>
      </trkpt>
      <trkpt lat="43.9145" lon="2.10539">
        <ele>216</ele>
        <time>2025-09-02T14:52:54.000Z</time>
      </trkpt>
      <trkpt lat="43.9145" lon="2.10546">
        <ele>216</ele>
        <time>2025-09-02T14:52:59.000Z</time>
      </trkpt>
      <trkpt lat="43.91453" lon="2.10552">
        <ele>217</ele>
        <time>2025-09-02T14:53:04.000Z</time>
      </trkpt>
      <trkpt lat="43.91456" lon="2.10558">
        <ele>216</ele>
        <time>2025-09-02T14:53:09.000Z</time>
      </trkpt>
      <trkpt lat="43.91458" lon="2.10566">
        <ele>216</ele>
        <time>2025-09-02T14:53:14.000Z</time>
      </trkpt>
      <trkpt lat="43.9146" lon="2.10571">
        <ele>215</ele>
        <time>2025-09-02T14:53:19.000Z</time>
      </trkpt>
      <trkpt lat="43.91463" lon="2.10576">
        <ele>214</ele>
        <time>2025-09-02T14:53:24.000Z</time>
      </trkpt>
      <trkpt lat="43.91467" lon="2.10584">
        <ele>215</ele>
        <time>2025-09-02T14:53:29.000Z</time>
      </trkpt>
      <trkpt lat="43.91469" lon="2.10591">
        <ele>214</ele>
        <time>2025-09-02T14:53:34.000Z</time>
      </trkpt>
      <trkpt lat="43.91471" lon="2.10597">
        <ele>216</ele>
        <time>2025-09-02T14:53:39.000Z</time>
      </trkpt>
      <trkpt lat="43.91473" lon="2.10603">
        <ele>215</ele>
        <time>2025-09-02T14:53:44.000Z</time>
      </trkpt>
      <trkpt lat="43.91476" lon="2.10611">
        <ele>216</ele>
        <time>2025-09-02T14:53:49.000Z</time>
      </trkpt>
      <trkpt lat="43.91478" lon="2.10618">
        <ele>215</ele>
        <time>2025-09-02T14:53:54.000Z</time>
      </trkpt>
      <trkpt lat="43.91481" lon="2.10624">
        <ele>216</ele>
        <time>2025-09-02T14:53:59.000Z</time>
      </trkpt>
      <trkpt lat="43.91484" lon="2.1063">
        <ele>217</ele>
        <time>2025-09-02T14:54:04.000Z</time>
      </trkpt>
      <trkpt lat="43.91487" lon="2.10637">
        <ele>217</ele>
        <time>2025-09-02T14:54:09.000Z</time>
      </trkpt>
      <trkpt lat="43.91491" lon="2.10642">
        <ele>217</ele>
        <time>2025-09-02T14:54:14.000Z</time>
      </trkpt>
      <trkpt lat="43.91494" lon="2.10647">
        <ele>216</ele>
        <time>2025-09-02T14:54:19.000Z</time>
      </trkpt>
      <trkpt lat="43.91497" lon="2.10653">
        <ele>216</ele>
        <time>2025-09-02T14:54:24.000Z</time>
      </trkpt>
      <trkpt lat="43.915" lon="2.10657">
        <ele>216</ele>
        <time>2025-09-02T14:54:29.000Z</time>
      </trkpt>
      <trkpt lat="43.91503" lon="2.10663">
        <ele>219</ele>
        <time>2025-09-02T14:54:34.000Z</time>
      </trkpt>
      <trkpt lat="43.91507" lon="2.10668">
        <ele>220</ele>
        <time>2025-09-02T14:54:39.000Z</time>
      </trkpt>
      <trkpt lat="43.9151" lon="2.10675">
        <ele>218</ele>
        <time>2025-09-02T14:54:44.000Z</time>
      </trkpt>
      <trkpt lat="43.91514" lon="2.1068">
        <ele>218</ele>
        <time>2025-09-02T14:54:49.000Z</time>
      </trkpt>
      <trkpt lat="43.91517" lon="2.10685">
        <ele>218</ele>
        <time>2025-09-02T14:54:54.000Z</time>
      </trkpt>
      <trkpt lat="43.91521" lon="2.1069">
        <ele>219</ele>
        <time>2025-09-02T14:54:59.000Z</time>
      </trkpt>
      <trkpt lat="43.91525" lon="2.10697">
        <ele>218</ele>
        <time>2025-09-02T14:55:04.000Z</time>
      </trkpt>
      <trkpt lat="43.91528" lon="2.10702">
        <ele>218</ele>
        <time>2025-09-02T14:55:09.000Z</time>
      </trkpt>
      <trkpt lat="43.91531" lon="2.10708">
        <ele>217</ele>
        <time>2025-09-02T14:55:14.000Z</time>
      </trkpt>
      <trkpt lat="43.91534" lon="2.10714">
        <ele>217</ele>
        <time>2025-09-02T14:55:19.000Z</time>
      </trkpt>
      <trkpt lat="43.91539" lon="2.1072">
        <ele>216</ele>
        <time>2025-09-02T14:55:24.000Z</time>
      </trkpt>
      <trkpt lat="43.91544" lon="2.10726">
        <ele>217</ele>
        <time>2025-09-02T14:55:29.000Z</time>
      </trkpt>
      <trkpt lat="43.91547" lon="2.10732">
        <ele>216</ele>
        <time>2025-09-02T14:55:34.000Z</time>
      </trkpt>
      <trkpt lat="43.91551" lon="2.10737">
        <ele>218</ele>
        <time>2025-09-02T14:55:39.000Z</time>
      </trkpt>
      <trkpt lat="43.91555" lon="2.10743">
        <ele>218</ele>
        <time>2025-09-02T14:55:44.000Z</time>
      </trkpt>
      <trkpt lat="43.91558" lon="2.1075">
        <ele>219</ele>
        <time>2025-09-02T14:55:49.000Z</time>
      </trkpt>
      <trkpt lat="43.91561" lon="2.10756">
        <ele>218</ele>
        <time>2025-09-02T14:55:54.000Z</time>
      </trkpt>
      <trkpt lat="43.91564" lon="2.1076">
        <ele>218</ele>
        <time>2025-09-02T14:55:59.000Z</time>
      </trkpt>
      <trkpt lat="43.91567" lon="2.10765">
        <ele>218</ele>
        <time>2025-09-02T14:56:04.000Z</time>
      </trkpt>
      <trkpt lat="43.9157" lon="2.10772">
        <ele>219</ele>
        <time>2025-09-02T14:56:09.000Z</time>
      </trkpt>
      <trkpt lat="43.91574" lon="2.10777">
        <ele>219</ele>
        <time>2025-09-02T14:56:14.000Z</time>
      </trkpt>
      <trkpt lat="43.91578" lon="2.10781">
        <ele>219</ele>
        <time>2025-09-02T14:56:19.000Z</time>
      </trkpt>
      <trkpt lat="43.91583" lon="2.10787">
        <ele>220</ele>
        <time>2025-09-02T14:56:24.000Z</time>
      </trkpt>
      <trkpt lat="43.91586" lon="2.10791">
        <ele>219</ele>
        <time>2025-09-02T14:56:29.000Z</time>
      </trkpt>
      <trkpt lat="43.9159" lon="2.10797">
        <ele>219</ele>
        <time>2025-09-02T14:56:34.000Z</time>
      </trkpt>
      <trkpt lat="43.91595" lon="2.10802">
        <ele>220</ele>
        <time>2025-09-02T14:56:39.000Z</time>
      </trkpt>
      <trkpt lat="43.91599" lon="2.10807">
        <ele>219</ele>
        <time>2025-09-02T14:56:44.000Z</time>
      </trkpt>
      <trkpt lat="43.91603" lon="2.10811">
        <ele>217</ele>
        <time>2025-09-02T14:56:49.000Z</time>
      </trkpt>
      <trkpt lat="43.91606" lon="2.10819">
        <ele>217</ele>
        <time>2025-09-02T14:56:54.000Z</time>
      </trkpt>
      <trkpt lat="43.91607" lon="2.10824">
        <ele>218</ele>
        <time>2025-09-02T14:56:59.000Z</time>
      </trkpt>
      <trkpt lat="43.91605" lon="2.10832">
        <ele>218</ele>
        <time>2025-09-02T14:57:04.000Z</time>
      </trkpt>
      <trkpt lat="43.91608" lon="2.10838">
        <ele>218</ele>
        <time>2025-09-02T14:57:09.000Z</time>
      </trkpt>
      <trkpt lat="43.91609" lon="2.10845">
        <ele>219</ele>
        <time>2025-09-02T14:57:14.000Z</time>
      </trkpt>
      <trkpt lat="43.91608" lon="2.10853">
        <ele>219</ele>
        <time>2025-09-02T14:57:19.000Z</time>
      </trkpt>
      <trkpt lat="43.91608" lon="2.10861">
        <ele>218</ele>
        <time>2025-09-02T14:57:24.000Z</time>
      </trkpt>
      <trkpt lat="43.91608" lon="2.1087">
        <ele>218</ele>
        <time>2025-09-02T14:57:29.000Z</time>
      </trkpt>
      <trkpt lat="43.91608" lon="2.10877">
        <ele>219</ele>
        <time>2025-09-02T14:57:34.000Z</time>
      </trkpt>
      <trkpt lat="43.9161" lon="2.10883">
        <ele>219</ele>
        <time>2025-09-02T14:57:39.000Z</time>
      </trkpt>
      <trkpt lat="43.91612" lon="2.10891">
        <ele>221</ele>
        <time>2025-09-02T14:57:44.000Z</time>
      </trkpt>
      <trkpt lat="43.91615" lon="2.10898">
        <ele>220</ele>
        <time>2025-09-02T14:57:49.000Z</time>
      </trkpt>
      <trkpt lat="43.91619" lon="2.10904">
        <ele>221</ele>
        <time>2025-09-02T14:57:54.000Z</time>
      </trkpt>
      <trkpt lat="43.9162" lon="2.10911">
        <ele>221</ele>
        <time>2025-09-02T14:57:59.000Z</time>
      </trkpt>
      <trkpt lat="43.9162" lon="2.10917">
        <ele>220</ele>
        <time>2025-09-02T14:58:04.000Z</time>
      </trkpt>
      <trkpt lat="43.91622" lon="2.10921">
        <ele>220</ele>
        <time>2025-09-02T14:58:09.000Z</time>
      </trkpt>
      <trkpt lat="43.91623" lon="2.10927">
        <ele>218</ele>
        <time>2025-09-02T14:58:14.000Z</time>
      </trkpt>
      <trkpt lat="43.91623" lon="2.10936">
        <ele>218</ele>
        <time>2025-09-02T14:58:19.000Z</time>
      </trkpt>
      <trkpt lat="43.91624" lon="2.10945">
        <ele>218</ele>
        <time>2025-09-02T14:58:24.000Z</time>
      </trkpt>
      <trkpt lat="43.91624" lon="2.10952">
        <ele>220</ele>
        <time>2025-09-02T14:58:29.000Z</time>
      </trkpt>
      <trkpt lat="43.91625" lon="2.1096">
        <ele>220</ele>
        <time>2025-09-02T14:58:34.000Z</time>
      </trkpt>
      <trkpt lat="43.91626" lon="2.10967">
        <ele>220</ele>
        <time>2025-09-02T14:58:39.000Z</time>
      </trkpt>
      <trkpt lat="43.91627" lon="2.10975">
        <ele>220</ele>
        <time>2025-09-02T14:58:44.000Z</time>
      </trkpt>
      <trkpt lat="43.91628" lon="2.10982">
        <ele>218</ele>
        <time>2025-09-02T14:58:49.000Z</time>
      </trkpt>
      <trkpt lat="43.91629" lon="2.1099">
        <ele>220</ele>
        <time>2025-09-02T14:58:54.000Z</time>
      </trkpt>
      <trkpt lat="43.91629" lon="2.10997">
        <ele>220</ele>
        <time>2025-09-02T14:58:59.000Z</time>
      </trkpt>
      <trkpt lat="43.91631" lon="2.11005">
        <ele>217</ele>
        <time>2025-09-02T14:59:04.000Z</time>
      </trkpt>
      <trkpt lat="43.91631" lon="2.11012">
        <ele>218</ele>
        <time>2025-09-02T14:59:09.000Z</time>
      </trkpt>
      <trkpt lat="43.91632" lon="2.1102">
        <ele>217</ele>
        <time>2025-09-02T14:59:14.000Z</time>
      </trkpt>
      <trkpt lat="43.91633" lon="2.11027">
        <ele>216</ele>
        <time>2025-09-02T14:59:19.000Z</time>
      </trkpt>
      <trkpt lat="43.91633" lon="2.11035">
        <ele>218</ele>
        <time>2025-09-02T14:59:24.000Z</time>
      </trkpt>
      <trkpt lat="43.91634" lon="2.11043">
        <ele>219</ele>
        <time>2025-09-02T14:59:29.000Z</time>
      </trkpt>
      <trkpt lat="43.91636" lon="2.11049">
        <ele>220</ele>
        <time>2025-09-02T14:59:34.000Z</time>
      </trkpt>
      <trkpt lat="43.91635" lon="2.11056">
        <ele>222</ele>
        <time>2025-09-02T14:59:39.000Z</time>
      </trkpt>
      <trkpt lat="43.91638" lon="2.11062">
        <ele>221</ele>
        <time>2025-09-02T14:59:44.000Z</time>
      </trkpt>
      <trkpt lat="43.91641" lon="2.11068">
        <ele>222</ele>
        <time>2025-09-02T14:59:49.000Z</time>
      </trkpt>
      <trkpt lat="43.91642" lon="2.11076">
        <ele>224</ele>
        <time>2025-09-02T14:59:54.000Z</time>
      </trkpt>
      <trkpt lat="43.91642" lon="2.11085">
        <ele>224</ele>
        <time>2025-09-02T14:59:59.000Z</time>
      </trkpt>
      <trkpt lat="43.91643" lon="2.11092">
        <ele>222</ele>
        <time>2025-09-02T15:00:04.000Z</time>
      </trkpt>
      <trkpt lat="43.91644" lon="2.11099">
        <ele>222</ele>
        <time>2025-09-02T15:00:09.000Z</time>
      </trkpt>
      <trkpt lat="43.91644" lon="2.11107">
        <ele>222</ele>
        <time>2025-09-02T15:00:14.000Z</time>
      </trkpt>
      <trkpt lat="43.91646" lon="2.11114">
        <ele>222</ele>
        <time>2025-09-02T15:00:19.000Z</time>
      </trkpt>
      <trkpt lat="43.91648" lon="2.11122">
        <ele>223</ele>
        <time>2025-09-02T15:00:24.000Z</time>
      </trkpt>
      <trkpt lat="43.9165" lon="2.11129">
        <ele>223</ele>
        <time>2025-09-02T15:00:29.000Z</time>
      </trkpt>
      <trkpt lat="43.9165" lon="2.11137">
        <ele>223</ele>
        <time>2025-09-02T15:00:34.000Z</time>
      </trkpt>
      <trkpt lat="43.9165" lon="2.11144">
        <ele>223</ele>
        <time>2025-09-02T15:00:39.000Z</time>
      </trkpt>
      <trkpt lat="43.9165" lon="2.11152">
        <ele>222</ele>
        <time>2025-09-02T15:00:44.000Z</time>
      </trkpt>
      <trkpt lat="43.9165" lon="2.1116">
        <ele>221</ele>
        <time>2025-09-02T15:00:49.000Z</time>
      </trkpt>
      <trkpt lat="43.91649" lon="2.11169">
        <ele>221</ele>
        <time>2025-09-02T15:00:54.000Z</time>
      </trkpt>
      <trkpt lat="43.91649" lon="2.11176">
        <ele>221</ele>
        <time>2025-09-02T15:00:59.000Z</time>
      </trkpt>
      <trkpt lat="43.91647" lon="2.11184">
        <ele>222</ele>
        <time>2025-09-02T15:01:04.000Z</time>
      </trkpt>
      <trkpt lat="43.91647" lon="2.11191">
        <ele>222</ele>
        <time>2025-09-02T15:01:09.000Z</time>
      </trkpt>
      <trkpt lat="43.91647" lon="2.11198">
        <ele>223</ele>
        <time>2025-09-02T15:01:14.000Z</time>
      </trkpt>
      <trkpt lat="43.91647" lon="2.11206">
        <ele>224</ele>
        <time>2025-09-02T15:01:19.000Z</time>
      </trkpt>
      <trkpt lat="43.91646" lon="2.11213">
        <ele>226</ele>
        <time>2025-09-02T15:01:24.000Z</time>
      </trkpt>
      <trkpt lat="43.91647" lon="2.1122">
        <ele>226</ele>
        <time>2025-09-02T15:01:29.000Z</time>
      </trkpt>
      <trkpt lat="43.91646" lon="2.11229">
        <ele>226</ele>
        <time>2025-09-02T15:01:34.000Z</time>
      </trkpt>
      <trkpt lat="43.91646" lon="2.11237">
        <ele>225</ele>
        <time>2025-09-02T15:01:39.000Z</time>
      </trkpt>
      <trkpt lat="43.91646" lon="2.11244">
        <ele>222</ele>
        <time>2025-09-02T15:01:44.000Z</time>
      </trkpt>
      <trkpt lat="43.91646" lon="2.11251">
        <ele>222</ele>
        <time>2025-09-02T15:01:49.000Z</time>
      </trkpt>
      <trkpt lat="43.91647" lon="2.11257">
        <ele>223</ele>
        <time>2025-09-02T15:01:54.000Z</time>
      </trkpt>
      <trkpt lat="43.91646" lon="2.11266">
        <ele>222</ele>
        <time>2025-09-02T15:01:59.000Z</time>
      </trkpt>
      <trkpt lat="43.91645" lon="2.11276">
        <ele>223</ele>
        <time>2025-09-02T15:02:04.000Z</time>
      </trkpt>
      <trkpt lat="43.91644" lon="2.11285">
        <ele>222</ele>
        <time>2025-09-02T15:02:09.000Z</time>
      </trkpt>
      <trkpt lat="43.91644" lon="2.11292">
        <ele>221</ele>
        <time>2025-09-02T15:02:14.000Z</time>
      </trkpt>
      <trkpt lat="43.91644" lon="2.113">
        <ele>222</ele>
        <time>2025-09-02T15:02:19.000Z</time>
      </trkpt>
      <trkpt lat="43.91644" lon="2.11308">
        <ele>222</ele>
        <time>2025-09-02T15:02:24.000Z</time>
      </trkpt>
      <trkpt lat="43.91646" lon="2.11313">
        <ele>220</ele>
        <time>2025-09-02T15:02:29.000Z</time>
      </trkpt>
      <trkpt lat="43.91646" lon="2.11321">
        <ele>222</ele>
        <time>2025-09-02T15:02:34.000Z</time>
      </trkpt>
      <trkpt lat="43.91646" lon="2.11327">
        <ele>221</ele>
        <time>2025-09-02T15:02:39.000Z</time>
      </trkpt>
      <trkpt lat="43.91645" lon="2.11335">
        <ele>220</ele>
        <time>2025-09-02T15:02:44.000Z</time>
      </trkpt>
      <trkpt lat="43.91646" lon="2.11341">
        <ele>220</ele>
        <time>2025-09-02T15:02:49.000Z</time>
      </trkpt>
      <trkpt lat="43.91645" lon="2.11348">
        <ele>220</ele>
        <time>2025-09-02T15:02:54.000Z</time>
      </trkpt>
      <trkpt lat="43.91644" lon="2.11356">
        <ele>222</ele>
        <time>2025-09-02T15:02:59.000Z</time>
      </trkpt>
      <trkpt lat="43.91644" lon="2.11362">
        <ele>221</ele>
        <time>2025-09-02T15:03:04.000Z</time>
      </trkpt>
      <trkpt lat="43.91646" lon="2.11369">
        <ele>220</ele>
        <time>2025-09-02T15:03:09.000Z</time>
      </trkpt>
      <trkpt lat="43.91648" lon="2.11374">
        <ele>219</ele>
        <time>2025-09-02T15:03:14.000Z</time>
      </trkpt>
      <trkpt lat="43.91652" lon="2.11377">
        <ele>221</ele>
        <time>2025-09-02T15:03:19.000Z</time>
      </trkpt>
      <trkpt lat="43.91655" lon="2.1138">
        <ele>220</ele>
        <time>2025-09-02T15:03:24.000Z</time>
      </trkpt>
      <trkpt lat="43.91661" lon="2.11383">
        <ele>221</ele>
        <time>2025-09-02T15:03:29.000Z</time>
      </trkpt>
      <trkpt lat="43.91665" lon="2.11385">
        <ele>221</ele>
        <time>2025-09-02T15:03:34.000Z</time>
      </trkpt>
      <trkpt lat="43.9167" lon="2.11386">
        <ele>221</ele>
        <time>2025-09-02T15:03:39.000Z</time>
      </trkpt>
      <trkpt lat="43.91675" lon="2.11386">
        <ele>220</ele>
        <time>2025-09-02T15:03:44.000Z</time>
      </trkpt>
      <trkpt lat="43.9168" lon="2.11382">
        <ele>221</ele>
        <time>2025-09-02T15:03:49.000Z</time>
      </trkpt>
      <trkpt lat="43.91685" lon="2.11379">
        <ele>223</ele>
        <time>2025-09-02T15:03:54.000Z</time>
      </trkpt>
      <trkpt lat="43.91691" lon="2.11379">
        <ele>224</ele>
        <time>2025-09-02T15:03:59.000Z</time>
      </trkpt>
      <trkpt lat="43.91696" lon="2.11378">
        <ele>224</ele>
        <time>2025-09-02T15:04:04.000Z</time>
      </trkpt>
      <trkpt lat="43.91702" lon="2.11378">
        <ele>226</ele>
        <time>2025-09-02T15:04:09.000Z</time>
      </trkpt>
      <trkpt lat="43.9171" lon="2.11377">
        <ele>227</ele>
        <time>2025-09-02T15:04:14.000Z</time>
      </trkpt>
      <trkpt lat="43.91715" lon="2.11377">
        <ele>227</ele>
        <time>2025-09-02T15:04:19.000Z</time>
      </trkpt>
      <trkpt lat="43.91721" lon="2.11377">
        <ele>227</ele>
        <time>2025-09-02T15:04:24.000Z</time>
      </trkpt>
      <trkpt lat="43.91726" lon="2.11377">
        <ele>226</ele>
        <time>2025-09-02T15:04:29.000Z</time>
      </trkpt>
      <trkpt lat="43.9173" lon="2.11378">
        <ele>226</ele>
        <time>2025-09-02T15:04:34.000Z</time>
      </trkpt>
      <trkpt lat="43.91735" lon="2.11378">
        <ele>227</ele>
        <time>2025-09-02T15:04:39.000Z</time>
      </trkpt>
      <trkpt lat="43.9174" lon="2.1138">
        <ele>227</ele>
        <time>2025-09-02T15:04:44.000Z</time>
      </trkpt>
      <trkpt lat="43.91746" lon="2.1138">
        <ele>227</ele>
        <time>2025-09-02T15:04:49.000Z</time>
      </trkpt>
      <trkpt lat="43.91752" lon="2.1138">
        <ele>229</ele>
        <time>2025-09-02T15:04:54.000Z</time>
      </trkpt>
      <trkpt lat="43.91759" lon="2.11378">
        <ele>226</ele>
        <time>2025-09-02T15:04:59.000Z</time>
      </trkpt>
      <trkpt lat="43.91765" lon="2.11379">
        <ele>225</ele>
        <time>2025-09-02T15:05:04.000Z</time>
      </trkpt>
      <trkpt lat="43.91769" lon="2.1138">
        <ele>225</ele>
        <time>2025-09-02T15:05:09.000Z</time>
      </trkpt>
      <trkpt lat="43.91773" lon="2.1138">
        <ele>225</ele>
        <time>2025-09-02T15:05:14.000Z</time>
      </trkpt>
      <trkpt lat="43.91778" lon="2.11381">
        <ele>227</ele>
        <time>2025-09-02T15:05:19.000Z</time>
      </trkpt>
      <trkpt lat="43.91782" lon="2.11379">
        <ele>226</ele>
        <time>2025-09-02T15:05:24.000Z</time>
      </trkpt>
      <trkpt lat="43.91788" lon="2.11379">
        <ele>226</ele>
        <time>2025-09-02T15:05:29.000Z</time>
      </trkpt>
      <trkpt lat="43.91793" lon="2.11379">
        <ele>227</ele>
        <time>2025-09-02T15:05:34.000Z</time>
      </trkpt>
      <trkpt lat="43.91798" lon="2.11383">
        <ele>225</ele>
        <time>2025-09-02T15:05:39.000Z</time>
      </trkpt>
      <trkpt lat="43.918" lon="2.11391">
        <ele>224</ele>
        <time>2025-09-02T15:05:44.000Z</time>
      </trkpt>
      <trkpt lat="43.91801" lon="2.11401">
        <ele>224</ele>
        <time>2025-09-02T15:05:49.000Z</time>
      </trkpt>
      <trkpt lat="43.91801" lon="2.11408">
        <ele>223</ele>
        <time>2025-09-02T15:05:54.000Z</time>
      </trkpt>
      <trkpt lat="43.91801" lon="2.11415">
        <ele>223</ele>
        <time>2025-09-02T15:05:59.000Z</time>
      </trkpt>
      <trkpt lat="43.91801" lon="2.11422">
        <ele>222</ele>
        <time>2025-09-02T15:06:04.000Z</time>
      </trkpt>
      <trkpt lat="43.91801" lon="2.1143">
        <ele>223</ele>
        <time>2025-09-02T15:06:09.000Z</time>
      </trkpt>
      <trkpt lat="43.918" lon="2.11438">
        <ele>223</ele>
        <time>2025-09-02T15:06:14.000Z</time>
      </trkpt>
      <trkpt lat="43.91799" lon="2.11445">
        <ele>223</ele>
        <time>2025-09-02T15:06:19.000Z</time>
      </trkpt>
      <trkpt lat="43.91798" lon="2.11451">
        <ele>221</ele>
        <time>2025-09-02T15:06:24.000Z</time>
      </trkpt>
      <trkpt lat="43.91797" lon="2.11459">
        <ele>221</ele>
        <time>2025-09-02T15:06:29.000Z</time>
      </trkpt>
      <trkpt lat="43.91795" lon="2.11467">
        <ele>223</ele>
        <time>2025-09-02T15:06:34.000Z</time>
      </trkpt>
      <trkpt lat="43.91794" lon="2.11473">
        <ele>222</ele>
        <time>2025-09-02T15:06:39.000Z</time>
      </trkpt>
      <trkpt lat="43.91791" lon="2.1148">
        <ele>222</ele>
        <time>2025-09-02T15:06:44.000Z</time>
      </trkpt>
      <trkpt lat="43.9179" lon="2.11485">
        <ele>223</ele>
        <time>2025-09-02T15:06:49.000Z</time>
      </trkpt>
      <trkpt lat="43.91785" lon="2.1149">
        <ele>222</ele>
        <time>2025-09-02T15:06:54.000Z</time>
      </trkpt>
      <trkpt lat="43.91782" lon="2.11497">
        <ele>223</ele>
        <time>2025-09-02T15:06:59.000Z</time>
      </trkpt>
      <trkpt lat="43.91781" lon="2.11504">
        <ele>222</ele>
        <time>2025-09-02T15:07:04.000Z</time>
      </trkpt>
      <trkpt lat="43.91782" lon="2.11513">
        <ele>222</ele>
        <time>2025-09-02T15:07:09.000Z</time>
      </trkpt>
      <trkpt lat="43.91783" lon="2.11519">
        <ele>222</ele>
        <time>2025-09-02T15:07:14.000Z</time>
      </trkpt>
      <trkpt lat="43.91785" lon="2.11526">
        <ele>222</ele>
        <time>2025-09-02T15:07:19.000Z</time>
      </trkpt>
      <trkpt lat="43.91787" lon="2.11534">
        <ele>223</ele>
        <time>2025-09-02T15:07:24.000Z</time>
      </trkpt>
      <trkpt lat="43.91787" lon="2.11542">
        <ele>224</ele>
        <time>2025-09-02T15:07:29.000Z</time>
      </trkpt>
      <trkpt lat="43.91787" lon="2.11549">
        <ele>223</ele>
        <time>2025-09-02T15:07:34.000Z</time>
      </trkpt>
      <trkpt lat="43.91787" lon="2.11557">
        <ele>223</ele>
        <time>2025-09-02T15:07:39.000Z</time>
      </trkpt>
      <trkpt lat="43.91787" lon="2.11564">
        <ele>223</ele>
        <time>2025-09-02T15:07:44.000Z</time>
      </trkpt>
      <trkpt lat="43.91786" lon="2.11573">
        <ele>223</ele>
        <time>2025-09-02T15:07:49.000Z</time>
      </trkpt>
      <trkpt lat="43.91784" lon="2.11581">
        <ele>224</ele>
        <time>2025-09-02T15:07:54.000Z</time>
      </trkpt>
      <trkpt lat="43.91782" lon="2.11588">
        <ele>224</ele>
        <time>2025-09-02T15:07:59.000Z</time>
      </trkpt>
      <trkpt lat="43.9178" lon="2.11594">
        <ele>224</ele>
        <time>2025-09-02T15:08:04.000Z</time>
      </trkpt>
      <trkpt lat="43.91778" lon="2.11602">
        <ele>225</ele>
        <time>2025-09-02T15:08:09.000Z</time>
      </trkpt>
      <trkpt lat="43.91776" lon="2.11608">
        <ele>226</ele>
        <time>2025-09-02T15:08:14.000Z</time>
      </trkpt>
      <trkpt lat="43.91773" lon="2.11615">
        <ele>224</ele>
        <time>2025-09-02T15:08:19.000Z</time>
      </trkpt>
      <trkpt lat="43.91768" lon="2.11621">
        <ele>223</ele>
        <time>2025-09-02T15:08:24.000Z</time>
      </trkpt>
      <trkpt lat="43.91765" lon="2.11627">
        <ele>223</ele>
        <time>2025-09-02T15:08:29.000Z</time>
      </trkpt>
      <trkpt lat="43.91762" lon="2.11634">
        <ele>223</ele>
        <time>2025-09-02T15:08:34.000Z</time>
      </trkpt>
      <trkpt lat="43.91758" lon="2.1164">
        <ele>222</ele>
        <time>2025-09-02T15:08:39.000Z</time>
      </trkpt>
      <trkpt lat="43.91754" lon="2.11645">
        <ele>221</ele>
        <time>2025-09-02T15:08:44.000Z</time>
      </trkpt>
      <trkpt lat="43.9175" lon="2.11652">
        <ele>221</ele>
        <time>2025-09-02T15:08:49.000Z</time>
      </trkpt>
      <trkpt lat="43.91748" lon="2.11656">
        <ele>222</ele>
        <time>2025-09-02T15:08:54.000Z</time>
      </trkpt>
      <trkpt lat="43.91744" lon="2.11663">
        <ele>221</ele>
        <time>2025-09-02T15:08:59.000Z</time>
      </trkpt>
      <trkpt lat="43.91741" lon="2.11671">
        <ele>222</ele>
        <time>2025-09-02T15:09:04.000Z</time>
      </trkpt>
      <trkpt lat="43.91739" lon="2.11677">
        <ele>221</ele>
        <time>2025-09-02T15:09:09.000Z</time>
      </trkpt>
      <trkpt lat="43.91737" lon="2.11684">
        <ele>223</ele>
        <time>2025-09-02T15:09:14.000Z</time>
      </trkpt>
      <trkpt lat="43.91733" lon="2.11692">
        <ele>224</ele>
        <time>2025-09-02T15:09:19.000Z</time>
      </trkpt>
      <trkpt lat="43.91732" lon="2.11699">
        <ele>223</ele>
        <time>2025-09-02T15:09:24.000Z</time>
      </trkpt>
      <trkpt lat="43.9173" lon="2.11707">
        <ele>224</ele>
        <time>2025-09-02T15:09:29.000Z</time>
      </trkpt>
      <trkpt lat="43.91727" lon="2.11713">
        <ele>224</ele>
        <time>2025-09-02T15:09:34.000Z</time>
      </trkpt>
      <trkpt lat="43.91723" lon="2.11719">
        <ele>223</ele>
        <time>2025-09-02T15:09:39.000Z</time>
      </trkpt>
      <trkpt lat="43.91719" lon="2.11726">
        <ele>224</ele>
        <time>2025-09-02T15:09:44.000Z</time>
      </trkpt>
      <trkpt lat="43.91715" lon="2.1173">
        <ele>224</ele>
        <time>2025-09-02T15:09:49.000Z</time>
      </trkpt>
      <trkpt lat="43.91711" lon="2.11734">
        <ele>222</ele>
        <time>2025-09-02T15:09:54.000Z</time>
      </trkpt>
      <trkpt lat="43.91709" lon="2.11741">
        <ele>222</ele>
        <time>2025-09-02T15:09:59.000Z</time>
      </trkpt>
      <trkpt lat="43.91707" lon="2.11748">
        <ele>223</ele>
        <time>2025-09-02T15:10:04.000Z</time>
      </trkpt>
      <trkpt lat="43.91706" lon="2.11756">
        <ele>223</ele>
        <time>2025-09-02T15:10:09.000Z</time>
      </trkpt>
      <trkpt lat="43.91705" lon="2.11763">
        <ele>224</ele>
        <time>2025-09-02T15:10:14.000Z</time>
      </trkpt>
      <trkpt lat="43.91704" lon="2.11771">
        <ele>225</ele>
        <time>2025-09-02T15:10:19.000Z</time>
      </trkpt>
      <trkpt lat="43.91703" lon="2.11778">
        <ele>225</ele>
        <time>2025-09-02T15:10:24.000Z</time>
      </trkpt>
      <trkpt lat="43.917" lon="2.11783">
        <ele>224</ele>
        <time>2025-09-02T15:10:29.000Z</time>
      </trkpt>
      <trkpt lat="43.91696" lon="2.11789">
        <ele>223</ele>
        <time>2025-09-02T15:10:34.000Z</time>
      </trkpt>
      <trkpt lat="43.91694" lon="2.11795">
        <ele>225</ele>
        <time>2025-09-02T15:10:39.000Z</time>
      </trkpt>
      <trkpt lat="43.91691" lon="2.11801">
        <ele>225</ele>
        <time>2025-09-02T15:10:44.000Z</time>
      </trkpt>
      <trkpt lat="43.91687" lon="2.11808">
        <ele>224</ele>
        <time>2025-09-02T15:10:49.000Z</time>
      </trkpt>
      <trkpt lat="43.91685" lon="2.11816">
        <ele>224</ele>
        <time>2025-09-02T15:10:54.000Z</time>
      </trkpt>
      <trkpt lat="43.91683" lon="2.11823">
        <ele>224</ele>
        <time>2025-09-02T15:10:59.000Z</time>
      </trkpt>
      <trkpt lat="43.91681" lon="2.1183">
        <ele>224</ele>
        <time>2025-09-02T15:11:04.000Z</time>
      </trkpt>
      <trkpt lat="43.91677" lon="2.11838">
        <ele>223</ele>
        <time>2025-09-02T15:11:09.000Z</time>
      </trkpt>
      <trkpt lat="43.91674" lon="2.11844">
        <ele>223</ele>
        <time>2025-09-02T15:11:14.000Z</time>
      </trkpt>
      <trkpt lat="43.91672" lon="2.1185">
        <ele>222</ele>
        <time>2025-09-02T15:11:19.000Z</time>
      </trkpt>
      <trkpt lat="43.91669" lon="2.11857">
        <ele>223</ele>
        <time>2025-09-02T15:11:24.000Z</time>
      </trkpt>
      <trkpt lat="43.91666" lon="2.11863">
        <ele>223</ele>
        <time>2025-09-02T15:11:29.000Z</time>
      </trkpt>
      <trkpt lat="43.91664" lon="2.11869">
        <ele>223</ele>
        <time>2025-09-02T15:11:34.000Z</time>
      </trkpt>
      <trkpt lat="43.9166" lon="2.11875">
        <ele>224</ele>
        <time>2025-09-02T15:11:39.000Z</time>
      </trkpt>
      <trkpt lat="43.91657" lon="2.11882">
        <ele>223</ele>
        <time>2025-09-02T15:11:44.000Z</time>
      </trkpt>
      <trkpt lat="43.91654" lon="2.11887">
        <ele>222</ele>
        <time>2025-09-02T15:11:49.000Z</time>
      </trkpt>
      <trkpt lat="43.91651" lon="2.11893">
        <ele>221</ele>
        <time>2025-09-02T15:11:54.000Z</time>
      </trkpt>
      <trkpt lat="43.91648" lon="2.119">
        <ele>221</ele>
        <time>2025-09-02T15:11:59.000Z</time>
      </trkpt>
      <trkpt lat="43.91645" lon="2.11906">
        <ele>222</ele>
        <time>2025-09-02T15:12:04.000Z</time>
      </trkpt>
      <trkpt lat="43.91642" lon="2.11913">
        <ele>222</ele>
        <time>2025-09-02T15:12:09.000Z</time>
      </trkpt>
      <trkpt lat="43.91638" lon="2.1192">
        <ele>221</ele>
        <time>2025-09-02T15:12:14.000Z</time>
      </trkpt>
      <trkpt lat="43.91635" lon="2.11926">
        <ele>220</ele>
        <time>2025-09-02T15:12:19.000Z</time>
      </trkpt>
      <trkpt lat="43.91632" lon="2.11932">
        <ele>220</ele>
        <time>2025-09-02T15:12:24.000Z</time>
      </trkpt>
      <trkpt lat="43.91629" lon="2.11938">
        <ele>221</ele>
        <time>2025-09-02T15:12:29.000Z</time>
      </trkpt>
      <trkpt lat="43.91626" lon="2.11944">
        <ele>221</ele>
        <time>2025-09-02T15:12:34.000Z</time>
      </trkpt>
      <trkpt lat="43.91625" lon="2.11948">
        <ele>220</ele>
        <time>2025-09-02T15:12:39.000Z</time>
      </trkpt>
      <trkpt lat="43.91624" lon="2.11948">
        <ele>220</ele>
        <time>2025-09-02T15:12:44.000Z</time>
      </trkpt>
      <trkpt lat="43.91624" lon="2.11949">
        <ele>220</ele>
        <time>2025-09-02T15:12:49.000Z</time>
      </trkpt>
      <trkpt lat="43.91624" lon="2.11949">
        <ele>220</ele>
        <time>2025-09-02T15:12:54.000Z</time>
      </trkpt>
      <trkpt lat="43.91624" lon="2.11949">
        <ele>220</ele>
        <time>2025-09-02T15:12:59.000Z</time>
      </trkpt>
      <trkpt lat="43.91623" lon="2.11948">
        <ele>220</ele>
        <time>2025-09-02T15:13:04.000Z</time>
      </trkpt>
      <trkpt lat="43.91623" lon="2.11948">
        <ele>220</ele>
        <time>2025-09-02T15:13:09.000Z</time>
      </trkpt>
      <trkpt lat="43.91623" lon="2.11948">
        <ele>220</ele>
        <time>2025-09-02T15:13:14.000Z</time>
      </trkpt>
      <trkpt lat="43.91623" lon="2.11948">
        <ele>220</ele>
        <time>2025-09-02T15:13:19.000Z</time>
      </trkpt>
      <trkpt lat="43.91623" lon="2.11948">
        <ele>220</ele>
        <time>2025-09-02T15:13:24.000Z</time>
      </trkpt>
      <trkpt lat="43.91623" lon="2.11948">
        <ele>220</ele>
        <time>2025-09-02T15:13:29.000Z</time>
      </trkpt>
      <trkpt lat="43.91623" lon="2.11948">
        <ele>220</ele>
        <time>2025-09-02T15:13:34.000Z</time>
      </trkpt>
      <trkpt lat="43.91623" lon="2.11948">
        <ele>220</ele>
        <time>2025-09-02T15:13:39.000Z</time>
      </trkpt>
      <trkpt lat="43.91623" lon="2.11948">
        <ele>220</ele>
        <time>2025-09-02T15:13:44.000Z</time>
      </trkpt>
      <trkpt lat="43.91623" lon="2.11948">
        <ele>220</ele>
        <time>2025-09-02T15:13:49.000Z</time>
      </trkpt>
      <trkpt lat="43.91623" lon="2.11949">
        <ele>221</ele>
        <time>2025-09-02T15:13:54.000Z</time>
      </trkpt>
      <trkpt lat="43.91621" lon="2.11955">
        <ele>222</ele>
        <time>2025-09-02T15:13:59.000Z</time>
      </trkpt>
      <trkpt lat="43.91619" lon="2.11962">
        <ele>221</ele>
        <time>2025-09-02T15:14:04.000Z</time>
      </trkpt>
      <trkpt lat="43.91617" lon="2.11967">
        <ele>222</ele>
        <time>2025-09-02T15:14:09.000Z</time>
      </trkpt>
      <trkpt lat="43.91613" lon="2.11973">
        <ele>221</ele>
        <time>2025-09-02T15:14:14.000Z</time>
      </trkpt>
      <trkpt lat="43.9161" lon="2.11979">
        <ele>221</ele>
        <time>2025-09-02T15:14:19.000Z</time>
      </trkpt>
      <trkpt lat="43.91608" lon="2.11985">
        <ele>222</ele>
        <time>2025-09-02T15:14:24.000Z</time>
      </trkpt>
      <trkpt lat="43.91605" lon="2.11991">
        <ele>220</ele>
        <time>2025-09-02T15:14:29.000Z</time>
      </trkpt>
      <trkpt lat="43.91603" lon="2.11998">
        <ele>220</ele>
        <time>2025-09-02T15:14:34.000Z</time>
      </trkpt>
      <trkpt lat="43.916" lon="2.12004">
        <ele>220</ele>
        <time>2025-09-02T15:14:39.000Z</time>
      </trkpt>
      <trkpt lat="43.91597" lon="2.1201">
        <ele>220</ele>
        <time>2025-09-02T15:14:44.000Z</time>
      </trkpt>
      <trkpt lat="43.91594" lon="2.12016">
        <ele>220</ele>
        <time>2025-09-02T15:14:49.000Z</time>
      </trkpt>
      <trkpt lat="43.91591" lon="2.12022">
        <ele>220</ele>
        <time>2025-09-02T15:14:54.000Z</time>
      </trkpt>
      <trkpt lat="43.91588" lon="2.12028">
        <ele>220</ele>
        <time>2025-09-02T15:14:59.000Z</time>
      </trkpt>
      <trkpt lat="43.91586" lon="2.12035">
        <ele>221</ele>
        <time>2025-09-02T15:15:04.000Z</time>
      </trkpt>
      <trkpt lat="43.91582" lon="2.12041">
        <ele>223</ele>
        <time>2025-09-02T15:15:09.000Z</time>
      </trkpt>
      <trkpt lat="43.9158" lon="2.12049">
        <ele>222</ele>
        <time>2025-09-02T15:15:14.000Z</time>
      </trkpt>
      <trkpt lat="43.91577" lon="2.12054">
        <ele>221</ele>
        <time>2025-09-02T15:15:19.000Z</time>
      </trkpt>
      <trkpt lat="43.91573" lon="2.12061">
        <ele>221</ele>
        <time>2025-09-02T15:15:24.000Z</time>
      </trkpt>
      <trkpt lat="43.9157" lon="2.12067">
        <ele>222</ele>
        <time>2025-09-02T15:15:29.000Z</time>
      </trkpt>
      <trkpt lat="43.91567" lon="2.12072">
        <ele>223</ele>
        <time>2025-09-02T15:15:34.000Z</time>
      </trkpt>
      <trkpt lat="43.91563" lon="2.12077">
        <ele>222</ele>
        <time>2025-09-02T15:15:39.000Z</time>
      </trkpt>
      <trkpt lat="43.91559" lon="2.12083">
        <ele>221</ele>
        <time>2025-09-02T15:15:44.000Z</time>
      </trkpt>
      <trkpt lat="43.91555" lon="2.12089">
        <ele>220</ele>
        <time>2025-09-02T15:15:49.000Z</time>
      </trkpt>
      <trkpt lat="43.9155" lon="2.12095">
        <ele>220</ele>
        <time>2025-09-02T15:15:54.000Z</time>
      </trkpt>
      <trkpt lat="43.91546" lon="2.12101">
        <ele>220</ele>
        <time>2025-09-02T15:15:59.000Z</time>
      </trkpt>
      <trkpt lat="43.91543" lon="2.12106">
        <ele>221</ele>
        <time>2025-09-02T15:16:04.000Z</time>
      </trkpt>
      <trkpt lat="43.9154" lon="2.12112">
        <ele>221</ele>
        <time>2025-09-02T15:16:09.000Z</time>
      </trkpt>
      <trkpt lat="43.91537" lon="2.12118">
        <ele>220</ele>
        <time>2025-09-02T15:16:14.000Z</time>
      </trkpt>
      <trkpt lat="43.91534" lon="2.12124">
        <ele>219</ele>
        <time>2025-09-02T15:16:19.000Z</time>
      </trkpt>
      <trkpt lat="43.9153" lon="2.1213">
        <ele>221</ele>
        <time>2025-09-02T15:16:24.000Z</time>
      </trkpt>
      <trkpt lat="43.91525" lon="2.12135">
        <ele>220</ele>
        <time>2025-09-02T15:16:29.000Z</time>
      </trkpt>
      <trkpt lat="43.91522" lon="2.1214">
        <ele>220</ele>
        <time>2025-09-02T15:16:34.000Z</time>
      </trkpt>
      <trkpt lat="43.91518" lon="2.12146">
        <ele>221</ele>
        <time>2025-09-02T15:16:39.000Z</time>
      </trkpt>
      <trkpt lat="43.91515" lon="2.12152">
        <ele>220</ele>
        <time>2025-09-02T15:16:44.000Z</time>
      </trkpt>
      <trkpt lat="43.91511" lon="2.12158">
        <ele>221</ele>
        <time>2025-09-02T15:16:49.000Z</time>
      </trkpt>
      <trkpt lat="43.91507" lon="2.12163">
        <ele>222</ele>
        <time>2025-09-02T15:16:54.000Z</time>
      </trkpt>
      <trkpt lat="43.91503" lon="2.12169">
        <ele>223</ele>
        <time>2025-09-02T15:16:59.000Z</time>
      </trkpt>
      <trkpt lat="43.91499" lon="2.12175">
        <ele>221</ele>
        <time>2025-09-02T15:17:04.000Z</time>
      </trkpt>
      <trkpt lat="43.91495" lon="2.12181">
        <ele>221</ele>
        <time>2025-09-02T15:17:09.000Z</time>
      </trkpt>
      <trkpt lat="43.9149" lon="2.12186">
        <ele>220</ele>
        <time>2025-09-02T15:17:14.000Z</time>
      </trkpt>
      <trkpt lat="43.91485" lon="2.12191">
        <ele>221</ele>
        <time>2025-09-02T15:17:19.000Z</time>
      </trkpt>
      <trkpt lat="43.91481" lon="2.12195">
        <ele>222</ele>
        <time>2025-09-02T15:17:24.000Z</time>
      </trkpt>
      <trkpt lat="43.91476" lon="2.12201">
        <ele>222</ele>
        <time>2025-09-02T15:17:29.000Z</time>
      </trkpt>
      <trkpt lat="43.91471" lon="2.12205">
        <ele>222</ele>
        <time>2025-09-02T15:17:34.000Z</time>
      </trkpt>
      <trkpt lat="43.91466" lon="2.12209">
        <ele>221</ele>
        <time>2025-09-02T15:17:39.000Z</time>
      </trkpt>
      <trkpt lat="43.9146" lon="2.12211">
        <ele>221</ele>
        <time>2025-09-02T15:17:44.000Z</time>
      </trkpt>
      <trkpt lat="43.91456" lon="2.12212">
        <ele>220</ele>
        <time>2025-09-02T15:17:49.000Z</time>
      </trkpt>
      <trkpt lat="43.91451" lon="2.12215">
        <ele>222</ele>
        <time>2025-09-02T15:17:54.000Z</time>
      </trkpt>
      <trkpt lat="43.91445" lon="2.12218">
        <ele>222</ele>
        <time>2025-09-02T15:17:59.000Z</time>
      </trkpt>
      <trkpt lat="43.91441" lon="2.1222">
        <ele>222</ele>
        <time>2025-09-02T15:18:04.000Z</time>
      </trkpt>
      <trkpt lat="43.91437" lon="2.12225">
        <ele>221</ele>
        <time>2025-09-02T15:18:09.000Z</time>
      </trkpt>
      <trkpt lat="43.91439" lon="2.12229">
        <ele>221</ele>
        <time>2025-09-02T15:18:14.000Z</time>
      </trkpt>
      <trkpt lat="43.91443" lon="2.12235">
        <ele>220</ele>
        <time>2025-09-02T15:18:19.000Z</time>
      </trkpt>
      <trkpt lat="43.91443" lon="2.12243">
        <ele>220</ele>
        <time>2025-09-02T15:18:24.000Z</time>
      </trkpt>
      <trkpt lat="43.91445" lon="2.12252">
        <ele>220</ele>
        <time>2025-09-02T15:18:29.000Z</time>
      </trkpt>
      <trkpt lat="43.91447" lon="2.12259">
        <ele>219</ele>
        <time>2025-09-02T15:18:34.000Z</time>
      </trkpt>
      <trkpt lat="43.91452" lon="2.12262">
        <ele>219</ele>
        <time>2025-09-02T15:18:39.000Z</time>
      </trkpt>
      <trkpt lat="43.91453" lon="2.12267">
        <ele>219</ele>
        <time>2025-09-02T15:18:44.000Z</time>
      </trkpt>
      <trkpt lat="43.91488" lon="2.12285">
        <ele>226</ele>
        <time>2025-09-02T15:19:11.000Z</time>
      </trkpt>
      <trkpt lat="43.91489" lon="2.12284">
        <ele>222</ele>
        <time>2025-09-02T15:19:16.000Z</time>
      </trkpt>
      <trkpt lat="43.91493" lon="2.12287">
        <ele>222</ele>
        <time>2025-09-02T15:19:21.000Z</time>
      </trkpt>
      <trkpt lat="43.91499" lon="2.12289">
        <ele>222</ele>
        <time>2025-09-02T15:19:26.000Z</time>
      </trkpt>
      <trkpt lat="43.91503" lon="2.12292">
        <ele>222</ele>
        <time>2025-09-02T15:19:31.000Z</time>
      </trkpt>
      <trkpt lat="43.91509" lon="2.12294">
        <ele>221</ele>
        <time>2025-09-02T15:19:36.000Z</time>
      </trkpt>
      <trkpt lat="43.91516" lon="2.12298">
        <ele>221</ele>
        <time>2025-09-02T15:19:41.000Z</time>
      </trkpt>
      <trkpt lat="43.9152" lon="2.123">
        <ele>220</ele>
        <time>2025-09-02T15:19:46.000Z</time>
      </trkpt>
      <trkpt lat="43.91525" lon="2.12304">
        <ele>219</ele>
        <time>2025-09-02T15:19:51.000Z</time>
      </trkpt>
      <trkpt lat="43.91531" lon="2.12308">
        <ele>219</ele>
        <time>2025-09-02T15:19:56.000Z</time>
      </trkpt>
      <trkpt lat="43.91537" lon="2.12311">
        <ele>219</ele>
        <time>2025-09-02T15:20:01.000Z</time>
      </trkpt>
      <trkpt lat="43.91541" lon="2.12313">
        <ele>219</ele>
        <time>2025-09-02T15:20:06.000Z</time>
      </trkpt>
      <trkpt lat="43.91547" lon="2.12315">
        <ele>220</ele>
        <time>2025-09-02T15:20:11.000Z</time>
      </trkpt>
      <trkpt lat="43.91552" lon="2.12318">
        <ele>221</ele>
        <time>2025-09-02T15:20:16.000Z</time>
      </trkpt>
      <trkpt lat="43.91557" lon="2.12319">
        <ele>220</ele>
        <time>2025-09-02T15:20:21.000Z</time>
      </trkpt>
      <trkpt lat="43.91564" lon="2.12322">
        <ele>221</ele>
        <time>2025-09-02T15:20:26.000Z</time>
      </trkpt>
      <trkpt lat="43.91569" lon="2.12325">
        <ele>222</ele>
        <time>2025-09-02T15:20:31.000Z</time>
      </trkpt>
      <trkpt lat="43.91574" lon="2.12325">
        <ele>222</ele>
        <time>2025-09-02T15:20:36.000Z</time>
      </trkpt>
      <trkpt lat="43.91579" lon="2.12328">
        <ele>222</ele>
        <time>2025-09-02T15:20:41.000Z</time>
      </trkpt>
      <trkpt lat="43.91585" lon="2.12329">
        <ele>223</ele>
        <time>2025-09-02T15:20:46.000Z</time>
      </trkpt>
      <trkpt lat="43.9159" lon="2.1233">
        <ele>222</ele>
        <time>2025-09-02T15:20:51.000Z</time>
      </trkpt>
      <trkpt lat="43.91596" lon="2.12331">
        <ele>222</ele>
        <time>2025-09-02T15:20:56.000Z</time>
      </trkpt>
      <trkpt lat="43.91601" lon="2.1233">
        <ele>224</ele>
        <time>2025-09-02T15:21:01.000Z</time>
      </trkpt>
      <trkpt lat="43.91606" lon="2.12333">
        <ele>221</ele>
        <time>2025-09-02T15:21:06.000Z</time>
      </trkpt>
      <trkpt lat="43.91612" lon="2.12336">
        <ele>223</ele>
        <time>2025-09-02T15:21:11.000Z</time>
      </trkpt>
      <trkpt lat="43.91617" lon="2.12338">
        <ele>224</ele>
        <time>2025-09-02T15:21:16.000Z</time>
      </trkpt>
      <trkpt lat="43.91624" lon="2.12341">
        <ele>223</ele>
        <time>2025-09-02T15:21:21.000Z</time>
      </trkpt>
      <trkpt lat="43.91629" lon="2.12345">
        <ele>222</ele>
        <time>2025-09-02T15:21:26.000Z</time>
      </trkpt>
      <trkpt lat="43.91634" lon="2.12349">
        <ele>222</ele>
        <time>2025-09-02T15:21:31.000Z</time>
      </trkpt>
      <trkpt lat="43.91639" lon="2.12351">
        <ele>221</ele>
        <time>2025-09-02T15:21:36.000Z</time>
      </trkpt>
      <trkpt lat="43.91644" lon="2.12355">
        <ele>222</ele>
        <time>2025-09-02T15:21:41.000Z</time>
      </trkpt>
      <trkpt lat="43.91648" lon="2.12358">
        <ele>222</ele>
        <time>2025-09-02T15:21:46.000Z</time>
      </trkpt>
      <trkpt lat="43.91653" lon="2.12361">
        <ele>223</ele>
        <time>2025-09-02T15:21:51.000Z</time>
      </trkpt>
      <trkpt lat="43.91658" lon="2.12364">
        <ele>223</ele>
        <time>2025-09-02T15:21:56.000Z</time>
      </trkpt>
      <trkpt lat="43.91663" lon="2.1237">
        <ele>221</ele>
        <time>2025-09-02T15:22:01.000Z</time>
      </trkpt>
      <trkpt lat="43.91668" lon="2.12374">
        <ele>221</ele>
        <time>2025-09-02T15:22:06.000Z</time>
      </trkpt>
      <trkpt lat="43.91672" lon="2.12378">
        <ele>221</ele>
        <time>2025-09-02T15:22:11.000Z</time>
      </trkpt>
      <trkpt lat="43.91676" lon="2.12381">
        <ele>221</ele>
        <time>2025-09-02T15:22:16.000Z</time>
      </trkpt>
      <trkpt lat="43.91679" lon="2.12385">
        <ele>221</ele>
        <time>2025-09-02T15:22:21.000Z</time>
      </trkpt>
      <trkpt lat="43.91684" lon="2.12389">
        <ele>220</ele>
        <time>2025-09-02T15:22:26.000Z</time>
      </trkpt>
      <trkpt lat="43.91686" lon="2.12398">
        <ele>218</ele>
        <time>2025-09-02T15:22:31.000Z</time>
      </trkpt>
      <trkpt lat="43.91685" lon="2.12406">
        <ele>219</ele>
        <time>2025-09-02T15:22:36.000Z</time>
      </trkpt>
      <trkpt lat="43.91685" lon="2.12414">
        <ele>219</ele>
        <time>2025-09-02T15:22:41.000Z</time>
      </trkpt>
      <trkpt lat="43.91684" lon="2.12423">
        <ele>218</ele>
        <time>2025-09-02T15:22:46.000Z</time>
      </trkpt>
      <trkpt lat="43.91685" lon="2.1243">
        <ele>219</ele>
        <time>2025-09-02T15:22:51.000Z</time>
      </trkpt>
      <trkpt lat="43.91683" lon="2.12438">
        <ele>219</ele>
        <time>2025-09-02T15:22:56.000Z</time>
      </trkpt>
      <trkpt lat="43.91682" lon="2.12445">
        <ele>220</ele>
        <time>2025-09-02T15:23:01.000Z</time>
      </trkpt>
      <trkpt lat="43.91681" lon="2.12453">
        <ele>219</ele>
        <time>2025-09-02T15:23:06.000Z</time>
      </trkpt>
      <trkpt lat="43.91681" lon="2.12459">
        <ele>219</ele>
        <time>2025-09-02T15:23:11.000Z</time>
      </trkpt>
      <trkpt lat="43.9168" lon="2.12468">
        <ele>220</ele>
        <time>2025-09-02T15:23:16.000Z</time>
      </trkpt>
      <trkpt lat="43.9168" lon="2.12476">
        <ele>221</ele>
        <time>2025-09-02T15:23:21.000Z</time>
      </trkpt>
      <trkpt lat="43.91679" lon="2.12484">
        <ele>220</ele>
        <time>2025-09-02T15:23:26.000Z</time>
      </trkpt>
      <trkpt lat="43.91678" lon="2.12492">
        <ele>221</ele>
        <time>2025-09-02T15:23:31.000Z</time>
      </trkpt>
      <trkpt lat="43.91678" lon="2.125">
        <ele>221</ele>
        <time>2025-09-02T15:23:36.000Z</time>
      </trkpt>
      <trkpt lat="43.91677" lon="2.12507">
        <ele>221</ele>
        <time>2025-09-02T15:23:41.000Z</time>
      </trkpt>
      <trkpt lat="43.91676" lon="2.12514">
        <ele>221</ele>
        <time>2025-09-02T15:23:46.000Z</time>
      </trkpt>
      <trkpt lat="43.91675" lon="2.12522">
        <ele>222</ele>
        <time>2025-09-02T15:23:51.000Z</time>
      </trkpt>
      <trkpt lat="43.91674" lon="2.1253">
        <ele>223</ele>
        <time>2025-09-02T15:23:56.000Z</time>
      </trkpt>
      <trkpt lat="43.91673" lon="2.12537">
        <ele>222</ele>
        <time>2025-09-02T15:24:01.000Z</time>
      </trkpt>
      <trkpt lat="43.91669" lon="2.12544">
        <ele>222</ele>
        <time>2025-09-02T15:24:06.000Z</time>
      </trkpt>
      <trkpt lat="43.91666" lon="2.12551">
        <ele>220</ele>
        <time>2025-09-02T15:24:11.000Z</time>
      </trkpt>
      <trkpt lat="43.91664" lon="2.12557">
        <ele>220</ele>
        <time>2025-09-02T15:24:16.000Z</time>
      </trkpt>
      <trkpt lat="43.91662" lon="2.12564">
        <ele>220</ele>
        <time>2025-09-02T15:24:21.000Z</time>
      </trkpt>
      <trkpt lat="43.91662" lon="2.12572">
        <ele>222</ele>
        <time>2025-09-02T15:24:26.000Z</time>
      </trkpt>
      <trkpt lat="43.9166" lon="2.1258">
        <ele>222</ele>
        <time>2025-09-02T15:24:31.000Z</time>
      </trkpt>
      <trkpt lat="43.91659" lon="2.12588">
        <ele>222</ele>
        <time>2025-09-02T15:24:36.000Z</time>
      </trkpt>
      <trkpt lat="43.91657" lon="2.12594">
        <ele>222</ele>
        <time>2025-09-02T15:24:41.000Z</time>
      </trkpt>
      <trkpt lat="43.91655" lon="2.12601">
        <ele>222</ele>
        <time>2025-09-02T15:24:46.000Z</time>
      </trkpt>
      <trkpt lat="43.91655" lon="2.12609">
        <ele>222</ele>
        <time>2025-09-02T15:24:51.000Z</time>
      </trkpt>
      <trkpt lat="43.91653" lon="2.12617">
        <ele>223</ele>
        <time>2025-09-02T15:24:56.000Z</time>
      </trkpt>
      <trkpt lat="43.9165" lon="2.12623">
        <ele>223</ele>
        <time>2025-09-02T15:25:01.000Z</time>
      </trkpt>
      <trkpt lat="43.91648" lon="2.12629">
        <ele>223</ele>
        <time>2025-09-02T15:25:06.000Z</time>
      </trkpt>
      <trkpt lat="43.91646" lon="2.12636">
        <ele>222</ele>
        <time>2025-09-02T15:25:11.000Z</time>
      </trkpt>
      <trkpt lat="43.91643" lon="2.12644">
        <ele>221</ele>
        <time>2025-09-02T15:25:16.000Z</time>
      </trkpt>
      <trkpt lat="43.91641" lon="2.12652">
        <ele>221</ele>
        <time>2025-09-02T15:25:21.000Z</time>
      </trkpt>
      <trkpt lat="43.91639" lon="2.12659">
        <ele>221</ele>
        <time>2025-09-02T15:25:26.000Z</time>
      </trkpt>
      <trkpt lat="43.91638" lon="2.12667">
        <ele>221</ele>
        <time>2025-09-02T15:25:31.000Z</time>
      </trkpt>
      <trkpt lat="43.91636" lon="2.12675">
        <ele>220</ele>
        <time>2025-09-02T15:25:36.000Z</time>
      </trkpt>
      <trkpt lat="43.91635" lon="2.12682">
        <ele>221</ele>
        <time>2025-09-02T15:25:41.000Z</time>
      </trkpt>
      <trkpt lat="43.91634" lon="2.12689">
        <ele>223</ele>
        <time>2025-09-02T15:25:46.000Z</time>
      </trkpt>
      <trkpt lat="43.91631" lon="2.12695">
        <ele>222</ele>
        <time>2025-09-02T15:25:51.000Z</time>
      </trkpt>
      <trkpt lat="43.91629" lon="2.12702">
        <ele>222</ele>
        <time>2025-09-02T15:25:56.000Z</time>
      </trkpt>
      <trkpt lat="43.91628" lon="2.12709">
        <ele>221</ele>
        <time>2025-09-02T15:26:01.000Z</time>
      </trkpt>
      <trkpt lat="43.91626" lon="2.12715">
        <ele>221</ele>
        <time>2025-09-02T15:26:06.000Z</time>
      </trkpt>
      <trkpt lat="43.91625" lon="2.12723">
        <ele>220</ele>
        <time>2025-09-02T15:26:11.000Z</time>
      </trkpt>
      <trkpt lat="43.91624" lon="2.12729">
        <ele>221</ele>
        <time>2025-09-02T15:26:16.000Z</time>
      </trkpt>
      <trkpt lat="43.91622" lon="2.12736">
        <ele>221</ele>
        <time>2025-09-02T15:26:21.000Z</time>
      </trkpt>
      <trkpt lat="43.9162" lon="2.12743">
        <ele>221</ele>
        <time>2025-09-02T15:26:26.000Z</time>
      </trkpt>
      <trkpt lat="43.9162" lon="2.1275">
        <ele>221</ele>
        <time>2025-09-02T15:26:31.000Z</time>
      </trkpt>
      <trkpt lat="43.91619" lon="2.12756">
        <ele>220</ele>
        <time>2025-09-02T15:26:36.000Z</time>
      </trkpt>
      <trkpt lat="43.91622" lon="2.12761">
        <ele>221</ele>
        <time>2025-09-02T15:26:41.000Z</time>
      </trkpt>
      <trkpt lat="43.91627" lon="2.12764">
        <ele>220</ele>
        <time>2025-09-02T15:26:46.000Z</time>
      </trkpt>
      <trkpt lat="43.91632" lon="2.12767">
        <ele>219</ele>
        <time>2025-09-02T15:26:51.000Z</time>
      </trkpt>
      <trkpt lat="43.91638" lon="2.1277">
        <ele>220</ele>
        <time>2025-09-02T15:26:56.000Z</time>
      </trkpt>
      <trkpt lat="43.91643" lon="2.12774">
        <ele>220</ele>
        <time>2025-09-02T15:27:01.000Z</time>
      </trkpt>
      <trkpt lat="43.91648" lon="2.12778">
        <ele>221</ele>
        <time>2025-09-02T15:27:06.000Z</time>
      </trkpt>
      <trkpt lat="43.91653" lon="2.12782">
        <ele>221</ele>
        <time>2025-09-02T15:27:11.000Z</time>
      </trkpt>
      <trkpt lat="43.91656" lon="2.12785">
        <ele>222</ele>
        <time>2025-09-02T15:27:16.000Z</time>
      </trkpt>
      <trkpt lat="43.91661" lon="2.12789">
        <ele>221</ele>
        <time>2025-09-02T15:27:21.000Z</time>
      </trkpt>
      <trkpt lat="43.91666" lon="2.12795">
        <ele>223</ele>
        <time>2025-09-02T15:27:26.000Z</time>
      </trkpt>
      <trkpt lat="43.9167" lon="2.12798">
        <ele>222</ele>
        <time>2025-09-02T15:27:31.000Z</time>
      </trkpt>
      <trkpt lat="43.91673" lon="2.12806">
        <ele>222</ele>
        <time>2025-09-02T15:27:36.000Z</time>
      </trkpt>
      <trkpt lat="43.91677" lon="2.12814">
        <ele>222</ele>
        <time>2025-09-02T15:27:41.000Z</time>
      </trkpt>
      <trkpt lat="43.91679" lon="2.12821">
        <ele>221</ele>
        <time>2025-09-02T15:27:46.000Z</time>
      </trkpt>
      <trkpt lat="43.91682" lon="2.12827">
        <ele>221</ele>
        <time>2025-09-02T15:27:51.000Z</time>
      </trkpt>
      <trkpt lat="43.91684" lon="2.12834">
        <ele>222</ele>
        <time>2025-09-02T15:27:56.000Z</time>
      </trkpt>
      <trkpt lat="43.91686" lon="2.12842">
        <ele>221</ele>
        <time>2025-09-02T15:28:01.000Z</time>
      </trkpt>
      <trkpt lat="43.9169" lon="2.12848">
        <ele>221</ele>
        <time>2025-09-02T15:28:06.000Z</time>
      </trkpt>
      <trkpt lat="43.91695" lon="2.12853">
        <ele>222</ele>
        <time>2025-09-02T15:28:11.000Z</time>
      </trkpt>
      <trkpt lat="43.91699" lon="2.1285">
        <ele>221</ele>
        <time>2025-09-02T15:28:16.000Z</time>
      </trkpt>
      <trkpt lat="43.91703" lon="2.12852">
        <ele>221</ele>
        <time>2025-09-02T15:28:21.000Z</time>
      </trkpt>
      <trkpt lat="43.91707" lon="2.12856">
        <ele>220</ele>
        <time>2025-09-02T15:28:26.000Z</time>
      </trkpt>
      <trkpt lat="43.91711" lon="2.1286">
        <ele>222</ele>
        <time>2025-09-02T15:28:31.000Z</time>
      </trkpt>
      <trkpt lat="43.91716" lon="2.12862">
        <ele>223</ele>
        <time>2025-09-02T15:28:36.000Z</time>
      </trkpt>
      <trkpt lat="43.91722" lon="2.12865">
        <ele>223</ele>
        <time>2025-09-02T15:28:41.000Z</time>
      </trkpt>
      <trkpt lat="43.91727" lon="2.12868">
        <ele>223</ele>
        <time>2025-09-02T15:28:46.000Z</time>
      </trkpt>
      <trkpt lat="43.91731" lon="2.12871">
        <ele>223</ele>
        <time>2025-09-02T15:28:51.000Z</time>
      </trkpt>
      <trkpt lat="43.91737" lon="2.12874">
        <ele>223</ele>
        <time>2025-09-02T15:28:56.000Z</time>
      </trkpt>
      <trkpt lat="43.91743" lon="2.12878">
        <ele>222</ele>
        <time>2025-09-02T15:29:01.000Z</time>
      </trkpt>
      <trkpt lat="43.91749" lon="2.1288">
        <ele>223</ele>
        <time>2025-09-02T15:29:06.000Z</time>
      </trkpt>
      <trkpt lat="43.91754" lon="2.12882">
        <ele>223</ele>
        <time>2025-09-02T15:29:11.000Z</time>
      </trkpt>
      <trkpt lat="43.91759" lon="2.12884">
        <ele>222</ele>
        <time>2025-09-02T15:29:16.000Z</time>
      </trkpt>
      <trkpt lat="43.91764" lon="2.12887">
        <ele>222</ele>
        <time>2025-09-02T15:29:21.000Z</time>
      </trkpt>
      <trkpt lat="43.91768" lon="2.12889">
        <ele>222</ele>
        <time>2025-09-02T15:29:26.000Z</time>
      </trkpt>
      <trkpt lat="43.91773" lon="2.12892">
        <ele>223</ele>
        <time>2025-09-02T15:29:31.000Z</time>
      </trkpt>
      <trkpt lat="43.91778" lon="2.12895">
        <ele>222</ele>
        <time>2025-09-02T15:29:36.000Z</time>
      </trkpt>
      <trkpt lat="43.91784" lon="2.12897">
        <ele>222</ele>
        <time>2025-09-02T15:29:41.000Z</time>
      </trkpt>
      <trkpt lat="43.9179" lon="2.12898">
        <ele>222</ele>
        <time>2025-09-02T15:29:46.000Z</time>
      </trkpt>
      <trkpt lat="43.91795" lon="2.12901">
        <ele>222</ele>
        <time>2025-09-02T15:29:51.000Z</time>
      </trkpt>
      <trkpt lat="43.918" lon="2.12904">
        <ele>222</ele>
        <time>2025-09-02T15:29:56.000Z</time>
      </trkpt>
      <trkpt lat="43.91805" lon="2.12906">
        <ele>223</ele>
        <time>2025-09-02T15:30:01.000Z</time>
      </trkpt>
      <trkpt lat="43.91811" lon="2.12909">
        <ele>222</ele>
        <time>2025-09-02T15:30:06.000Z</time>
      </trkpt>
      <trkpt lat="43.91816" lon="2.12914">
        <ele>221</ele>
        <time>2025-09-02T15:30:11.000Z</time>
      </trkpt>
      <trkpt lat="43.91821" lon="2.12916">
        <ele>222</ele>
        <time>2025-09-02T15:30:16.000Z</time>
      </trkpt>
      <trkpt lat="43.91827" lon="2.1292">
        <ele>221</ele>
        <time>2025-09-02T15:30:21.000Z</time>
      </trkpt>
      <trkpt lat="43.91831" lon="2.12923">
        <ele>221</ele>
        <time>2025-09-02T15:30:26.000Z</time>
      </trkpt>
      <trkpt lat="43.91836" lon="2.12927">
        <ele>220</ele>
        <time>2025-09-02T15:30:31.000Z</time>
      </trkpt>
      <trkpt lat="43.91842" lon="2.12931">
        <ele>221</ele>
        <time>2025-09-02T15:30:36.000Z</time>
      </trkpt>
      <trkpt lat="43.91846" lon="2.12933">
        <ele>222</ele>
        <time>2025-09-02T15:30:41.000Z</time>
      </trkpt>
      <trkpt lat="43.91852" lon="2.12935">
        <ele>222</ele>
        <time>2025-09-02T15:30:46.000Z</time>
      </trkpt>
      <trkpt lat="43.91857" lon="2.12938">
        <ele>222</ele>
        <time>2025-09-02T15:30:51.000Z</time>
      </trkpt>
      <trkpt lat="43.91862" lon="2.1294">
        <ele>222</ele>
        <time>2025-09-02T15:30:56.000Z</time>
      </trkpt>
      <trkpt lat="43.91866" lon="2.12944">
        <ele>223</ele>
        <time>2025-09-02T15:31:01.000Z</time>
      </trkpt>
      <trkpt lat="43.91872" lon="2.12948">
        <ele>222</ele>
        <time>2025-09-02T15:31:06.000Z</time>
      </trkpt>
      <trkpt lat="43.91878" lon="2.1295">
        <ele>220</ele>
        <time>2025-09-02T15:31:11.000Z</time>
      </trkpt>
      <trkpt lat="43.91883" lon="2.12956">
        <ele>222</ele>
        <time>2025-09-02T15:31:16.000Z</time>
      </trkpt>
      <trkpt lat="43.91887" lon="2.12961">
        <ele>222</ele>
        <time>2025-09-02T15:31:21.000Z</time>
      </trkpt>
      <trkpt lat="43.91891" lon="2.12964">
        <ele>221</ele>
        <time>2025-09-02T15:31:26.000Z</time>
      </trkpt>
      <trkpt lat="43.91895" lon="2.12967">
        <ele>221</ele>
        <time>2025-09-02T15:31:31.000Z</time>
      </trkpt>
      <trkpt lat="43.919" lon="2.12971">
        <ele>221</ele>
        <time>2025-09-02T15:31:36.000Z</time>
      </trkpt>
      <trkpt lat="43.91906" lon="2.12974">
        <ele>222</ele>
        <time>2025-09-02T15:31:41.000Z</time>
      </trkpt>
      <trkpt lat="43.91911" lon="2.12977">
        <ele>223</ele>
        <time>2025-09-02T15:31:46.000Z</time>
      </trkpt>
      <trkpt lat="43.91916" lon="2.12981">
        <ele>224</ele>
        <time>2025-09-02T15:31:51.000Z</time>
      </trkpt>
      <trkpt lat="43.9192" lon="2.12987">
        <ele>225</ele>
        <time>2025-09-02T15:31:56.000Z</time>
      </trkpt>
      <trkpt lat="43.91924" lon="2.12992">
        <ele>225</ele>
        <time>2025-09-02T15:32:01.000Z</time>
      </trkpt>
      <trkpt lat="43.91929" lon="2.12997">
        <ele>224</ele>
        <time>2025-09-02T15:32:06.000Z</time>
      </trkpt>
      <trkpt lat="43.91934" lon="2.13001">
        <ele>224</ele>
        <time>2025-09-02T15:32:11.000Z</time>
      </trkpt>
      <trkpt lat="43.91936" lon="2.13008">
        <ele>222</ele>
        <time>2025-09-02T15:32:16.000Z</time>
      </trkpt>
      <trkpt lat="43.91937" lon="2.13015">
        <ele>222</ele>
        <time>2025-09-02T15:32:21.000Z</time>
      </trkpt>
      <trkpt lat="43.91937" lon="2.13024">
        <ele>220</ele>
        <time>2025-09-02T15:32:26.000Z</time>
      </trkpt>
      <trkpt lat="43.91938" lon="2.13032">
        <ele>221</ele>
        <time>2025-09-02T15:32:31.000Z</time>
      </trkpt>
      <trkpt lat="43.91938" lon="2.13041">
        <ele>221</ele>
        <time>2025-09-02T15:32:36.000Z</time>
      </trkpt>
      <trkpt lat="43.91937" lon="2.13048">
        <ele>221</ele>
        <time>2025-09-02T15:32:41.000Z</time>
      </trkpt>
      <trkpt lat="43.9194" lon="2.13048">
        <ele>220</ele>
        <time>2025-09-02T15:32:46.000Z</time>
      </trkpt>
      <trkpt lat="43.91944" lon="2.1305">
        <ele>220</ele>
        <time>2025-09-02T15:32:51.000Z</time>
      </trkpt>
      <trkpt lat="43.9195" lon="2.13054">
        <ele>223</ele>
        <time>2025-09-02T15:32:56.000Z</time>
      </trkpt>
      <trkpt lat="43.91951" lon="2.13063">
        <ele>220</ele>
        <time>2025-09-02T15:33:01.000Z</time>
      </trkpt>
      <trkpt lat="43.91952" lon="2.13071">
        <ele>220</ele>
        <time>2025-09-02T15:33:06.000Z</time>
      </trkpt>
      <trkpt lat="43.91953" lon="2.13078">
        <ele>220</ele>
        <time>2025-09-02T15:33:11.000Z</time>
      </trkpt>
      <trkpt lat="43.91953" lon="2.13086">
        <ele>220</ele>
        <time>2025-09-02T15:33:16.000Z</time>
      </trkpt>
      <trkpt lat="43.91952" lon="2.13094">
        <ele>220</ele>
        <time>2025-09-02T15:33:21.000Z</time>
      </trkpt>
      <trkpt lat="43.91953" lon="2.13102">
        <ele>221</ele>
        <time>2025-09-02T15:33:26.000Z</time>
      </trkpt>
      <trkpt lat="43.91954" lon="2.13109">
        <ele>222</ele>
        <time>2025-09-02T15:33:31.000Z</time>
      </trkpt>
      <trkpt lat="43.91955" lon="2.13116">
        <ele>222</ele>
        <time>2025-09-02T15:33:36.000Z</time>
      </trkpt>
      <trkpt lat="43.91955" lon="2.13122">
        <ele>221</ele>
        <time>2025-09-02T15:33:41.000Z</time>
      </trkpt>
      <trkpt lat="43.91956" lon="2.13128">
        <ele>223</ele>
        <time>2025-09-02T15:33:46.000Z</time>
      </trkpt>
      <trkpt lat="43.91957" lon="2.13136">
        <ele>223</ele>
        <time>2025-09-02T15:33:51.000Z</time>
      </trkpt>
      <trkpt lat="43.91959" lon="2.13144">
        <ele>223</ele>
        <time>2025-09-02T15:33:56.000Z</time>
      </trkpt>
      <trkpt lat="43.9196" lon="2.13154">
        <ele>223</ele>
        <time>2025-09-02T15:34:01.000Z</time>
      </trkpt>
      <trkpt lat="43.9196" lon="2.13162">
        <ele>225</ele>
        <time>2025-09-02T15:34:06.000Z</time>
      </trkpt>
      <trkpt lat="43.9196" lon="2.1317">
        <ele>224</ele>
        <time>2025-09-02T15:34:11.000Z</time>
      </trkpt>
      <trkpt lat="43.9196" lon="2.13176">
        <ele>223</ele>
        <time>2025-09-02T15:34:16.000Z</time>
      </trkpt>
      <trkpt lat="43.91961" lon="2.13184">
        <ele>224</ele>
        <time>2025-09-02T15:34:21.000Z</time>
      </trkpt>
      <trkpt lat="43.9196" lon="2.13191">
        <ele>224</ele>
        <time>2025-09-02T15:34:26.000Z</time>
      </trkpt>
      <trkpt lat="43.9196" lon="2.13199">
        <ele>223</ele>
        <time>2025-09-02T15:34:31.000Z</time>
      </trkpt>
      <trkpt lat="43.9196" lon="2.13206">
        <ele>222</ele>
        <time>2025-09-02T15:34:36.000Z</time>
      </trkpt>
      <trkpt lat="43.9196" lon="2.13214">
        <ele>222</ele>
        <time>2025-09-02T15:34:41.000Z</time>
      </trkpt>
      <trkpt lat="43.91961" lon="2.13221">
        <ele>221</ele>
        <time>2025-09-02T15:34:46.000Z</time>
      </trkpt>
      <trkpt lat="43.91962" lon="2.13229">
        <ele>222</ele>
        <time>2025-09-02T15:34:51.000Z</time>
      </trkpt>
      <trkpt lat="43.91961" lon="2.13238">
        <ele>221</ele>
        <time>2025-09-02T15:34:56.000Z</time>
      </trkpt>
      <trkpt lat="43.91962" lon="2.13246">
        <ele>221</ele>
        <time>2025-09-02T15:35:01.000Z</time>
      </trkpt>
      <trkpt lat="43.91963" lon="2.13254">
        <ele>221</ele>
        <time>2025-09-02T15:35:06.000Z</time>
      </trkpt>
      <trkpt lat="43.91964" lon="2.13261">
        <ele>222</ele>
        <time>2025-09-02T15:35:11.000Z</time>
      </trkpt>
      <trkpt lat="43.91964" lon="2.13268">
        <ele>222</ele>
        <time>2025-09-02T15:35:16.000Z</time>
      </trkpt>
      <trkpt lat="43.91965" lon="2.13275">
        <ele>224</ele>
        <time>2025-09-02T15:35:21.000Z</time>
      </trkpt>
      <trkpt lat="43.91965" lon="2.13282">
        <ele>225</ele>
        <time>2025-09-02T15:35:26.000Z</time>
      </trkpt>
      <trkpt lat="43.91965" lon="2.1329">
        <ele>225</ele>
        <time>2025-09-02T15:35:31.000Z</time>
      </trkpt>
      <trkpt lat="43.91965" lon="2.13298">
        <ele>224</ele>
        <time>2025-09-02T15:35:36.000Z</time>
      </trkpt>
      <trkpt lat="43.91966" lon="2.13305">
        <ele>223</ele>
        <time>2025-09-02T15:35:41.000Z</time>
      </trkpt>
      <trkpt lat="43.91967" lon="2.13311">
        <ele>222</ele>
        <time>2025-09-02T15:35:46.000Z</time>
      </trkpt>
      <trkpt lat="43.91971" lon="2.13313">
        <ele>222</ele>
        <time>2025-09-02T15:35:51.000Z</time>
      </trkpt>
      <trkpt lat="43.91975" lon="2.13316">
        <ele>221</ele>
        <time>2025-09-02T15:35:56.000Z</time>
      </trkpt>
      <trkpt lat="43.91982" lon="2.13317">
        <ele>220</ele>
        <time>2025-09-02T15:36:01.000Z</time>
      </trkpt>
      <trkpt lat="43.91988" lon="2.13317">
        <ele>219</ele>
        <time>2025-09-02T15:36:06.000Z</time>
      </trkpt>
      <trkpt lat="43.91993" lon="2.13319">
        <ele>218</ele>
        <time>2025-09-02T15:36:11.000Z</time>
      </trkpt>
      <trkpt lat="43.91998" lon="2.13321">
        <ele>218</ele>
        <time>2025-09-02T15:36:16.000Z</time>
      </trkpt>
      <trkpt lat="43.92003" lon="2.13325">
        <ele>218</ele>
        <time>2025-09-02T15:36:21.000Z</time>
      </trkpt>
      <trkpt lat="43.92006" lon="2.13326">
        <ele>218</ele>
        <time>2025-09-02T15:36:26.000Z</time>
      </trkpt>
      <trkpt lat="43.92012" lon="2.13329">
        <ele>218</ele>
        <time>2025-09-02T15:36:31.000Z</time>
      </trkpt>
      <trkpt lat="43.92015" lon="2.13333">
        <ele>220</ele>
        <time>2025-09-02T15:36:36.000Z</time>
      </trkpt>
      <trkpt lat="43.92017" lon="2.13339">
        <ele>221</ele>
        <time>2025-09-02T15:36:41.000Z</time>
      </trkpt>
      <trkpt lat="43.92021" lon="2.13342">
        <ele>222</ele>
        <time>2025-09-02T15:36:46.000Z</time>
      </trkpt>
      <trkpt lat="43.92026" lon="2.13344">
        <ele>221</ele>
        <time>2025-09-02T15:36:51.000Z</time>
      </trkpt>
      <trkpt lat="43.92031" lon="2.13349">
        <ele>221</ele>
        <time>2025-09-02T15:36:56.000Z</time>
      </trkpt>
      <trkpt lat="43.92035" lon="2.13355">
        <ele>220</ele>
        <time>2025-09-02T15:37:01.000Z</time>
      </trkpt>
      <trkpt lat="43.92036" lon="2.13363">
        <ele>219</ele>
        <time>2025-09-02T15:37:06.000Z</time>
      </trkpt>
      <trkpt lat="43.92038" lon="2.1337">
        <ele>219</ele>
        <time>2025-09-02T15:37:11.000Z</time>
      </trkpt>
      <trkpt lat="43.92038" lon="2.13373">
        <ele>220</ele>
        <time>2025-09-02T15:37:16.000Z</time>
      </trkpt>
      <trkpt lat="43.92037" lon="2.13373">
        <ele>219</ele>
        <time>2025-09-02T15:37:21.000Z</time>
      </trkpt>
      <trkpt lat="43.92037" lon="2.13373">
        <ele>219</ele>
        <time>2025-09-02T15:37:26.000Z</time>
      </trkpt>
      <trkpt lat="43.92037" lon="2.13373">
        <ele>219</ele>
        <time>2025-09-02T15:37:31.000Z</time>
      </trkpt>
      <trkpt lat="43.92037" lon="2.13374">
        <ele>220</ele>
        <time>2025-09-02T15:37:36.000Z</time>
      </trkpt>
      <trkpt lat="43.92037" lon="2.13374">
        <ele>220</ele>
        <time>2025-09-02T15:37:41.000Z</time>
      </trkpt>
      <trkpt lat="43.92036" lon="2.13374">
        <ele>219</ele>
        <time>2025-09-02T15:37:46.000Z</time>
      </trkpt>
      <trkpt lat="43.92036" lon="2.13374">
        <ele>220</ele>
        <time>2025-09-02T15:37:51.000Z</time>
      </trkpt>
      <trkpt lat="43.92035" lon="2.13376">
        <ele>220</ele>
        <time>2025-09-02T15:37:56.000Z</time>
      </trkpt>
      <trkpt lat="43.92036" lon="2.13377">
        <ele>219</ele>
        <time>2025-09-02T15:38:01.000Z</time>
      </trkpt>
      <trkpt lat="43.92039" lon="2.13381">
        <ele>221</ele>
        <time>2025-09-02T15:38:06.000Z</time>
      </trkpt>
      <trkpt lat="43.92041" lon="2.13385">
        <ele>223</ele>
        <time>2025-09-02T15:38:11.000Z</time>
      </trkpt>
      <trkpt lat="43.92042" lon="2.13388">
        <ele>225</ele>
        <time>2025-09-02T15:38:16.000Z</time>
      </trkpt>
      <trkpt lat="43.92042" lon="2.13387">
        <ele>226</ele>
        <time>2025-09-02T15:38:21.000Z</time>
      </trkpt>
      <trkpt lat="43.92043" lon="2.13388">
        <ele>226</ele>
        <time>2025-09-02T15:38:26.000Z</time>
      </trkpt>
      <trkpt lat="43.92042" lon="2.13388">
        <ele>226</ele>
        <time>2025-09-02T15:38:31.000Z</time>
      </trkpt>
      <trkpt lat="43.92041" lon="2.1339">
        <ele>226</ele>
        <time>2025-09-02T15:38:36.000Z</time>
      </trkpt>
      <trkpt lat="43.92041" lon="2.13392">
        <ele>227</ele>
        <time>2025-09-02T15:38:41.000Z</time>
      </trkpt>
      <trkpt lat="43.92041" lon="2.13392">
        <ele>227</ele>
        <time>2025-09-02T15:38:46.000Z</time>
      </trkpt>
      <trkpt lat="43.92042" lon="2.13392">
        <ele>227</ele>
        <time>2025-09-02T15:38:51.000Z</time>
      </trkpt>
      <trkpt lat="43.92042" lon="2.13397">
        <ele>228</ele>
        <time>2025-09-02T15:38:56.000Z</time>
      </trkpt>
      <trkpt lat="43.92042" lon="2.13395">
        <ele>228</ele>
        <time>2025-09-02T15:39:01.000Z</time>
      </trkpt>
      <trkpt lat="43.92044" lon="2.13393">
        <ele>226</ele>
        <time>2025-09-02T15:39:06.000Z</time>
      </trkpt>
      <trkpt lat="43.92045" lon="2.13394">
        <ele>226</ele>
        <time>2025-09-02T15:39:11.000Z</time>
      </trkpt>
      <trkpt lat="43.92046" lon="2.13396">
        <ele>226</ele>
        <time>2025-09-02T15:39:16.000Z</time>
      </trkpt>
      <trkpt lat="43.92045" lon="2.13393">
        <ele>225</ele>
        <time>2025-09-02T15:39:21.000Z</time>
      </trkpt>
      <trkpt lat="43.92045" lon="2.13394">
        <ele>224</ele>
        <time>2025-09-02T15:39:26.000Z</time>
      </trkpt>
      <trkpt lat="43.92044" lon="2.13392">
        <ele>220</ele>
        <time>2025-09-02T15:39:31.000Z</time>
      </trkpt>
      <trkpt lat="43.92044" lon="2.13394">
        <ele>220</ele>
        <time>2025-09-02T15:39:36.000Z</time>
      </trkpt>
      <trkpt lat="43.92045" lon="2.13397">
        <ele>218</ele>
        <time>2025-09-02T15:39:41.000Z</time>
      </trkpt>
      <trkpt lat="43.92046" lon="2.13395">
        <ele>218</ele>
        <time>2025-09-02T15:39:46.000Z</time>
      </trkpt>
      <trkpt lat="43.92047" lon="2.13393">
        <ele>219</ele>
        <time>2025-09-02T15:39:51.000Z</time>
      </trkpt>
      <trkpt lat="43.92046" lon="2.13397">
        <ele>218</ele>
        <time>2025-09-02T15:39:56.000Z</time>
      </trkpt>
      <trkpt lat="43.92047" lon="2.13401">
        <ele>218</ele>
        <time>2025-09-02T15:40:01.000Z</time>
      </trkpt>
      <trkpt lat="43.92047" lon="2.13404">
        <ele>219</ele>
        <time>2025-09-02T15:40:06.000Z</time>
      </trkpt>
      <trkpt lat="43.92048" lon="2.13394">
        <ele>216</ele>
        <time>2025-09-02T15:40:11.000Z</time>
      </trkpt>
      <trkpt lat="43.92047" lon="2.13392">
        <ele>216</ele>
        <time>2025-09-02T15:40:16.000Z</time>
      </trkpt>
      <trkpt lat="43.92046" lon="2.13394">
        <ele>217</ele>
        <time>2025-09-02T15:40:21.000Z</time>
      </trkpt>
      <trkpt lat="43.92047" lon="2.13395">
        <ele>217</ele>
        <time>2025-09-02T15:40:26.000Z</time>
      </trkpt>
      <trkpt lat="43.92046" lon="2.13399">
        <ele>220</ele>
        <time>2025-09-02T15:40:31.000Z</time>
      </trkpt>
      <trkpt lat="43.92046" lon="2.13399">
        <ele>220</ele>
        <time>2025-09-02T15:40:36.000Z</time>
      </trkpt>
      <trkpt lat="43.92046" lon="2.13399">
        <ele>220</ele>
        <time>2025-09-02T15:40:41.000Z</time>
      </trkpt>
      <trkpt lat="43.92046" lon="2.13402">
        <ele>217</ele>
        <time>2025-09-02T15:40:46.000Z</time>
      </trkpt>
      <trkpt lat="43.92046" lon="2.13402">
        <ele>217</ele>
        <time>2025-09-02T15:40:51.000Z</time>
      </trkpt>
      <trkpt lat="43.92046" lon="2.13403">
        <ele>217</ele>
        <time>2025-09-02T15:40:56.000Z</time>
      </trkpt>
      <trkpt lat="43.92045" lon="2.13404">
        <ele>217</ele>
        <time>2025-09-02T15:41:01.000Z</time>
      </trkpt>
      <trkpt lat="43.92045" lon="2.13401">
        <ele>216</ele>
        <time>2025-09-02T15:41:06.000Z</time>
      </trkpt>
      <trkpt lat="43.92045" lon="2.13399">
        <ele>215</ele>
        <time>2025-09-02T15:41:11.000Z</time>
      </trkpt>
      <trkpt lat="43.92045" lon="2.13397">
        <ele>216</ele>
        <time>2025-09-02T15:41:16.000Z</time>
      </trkpt>
      <trkpt lat="43.92045" lon="2.13397">
        <ele>216</ele>
        <time>2025-09-02T15:41:21.000Z</time>
      </trkpt>
      <trkpt lat="43.92045" lon="2.13397">
        <ele>216</ele>
        <time>2025-09-02T15:41:26.000Z</time>
      </trkpt>
      <trkpt lat="43.92045" lon="2.13397">
        <ele>216</ele>
        <time>2025-09-02T15:41:31.000Z</time>
      </trkpt>
      <trkpt lat="43.92045" lon="2.13397">
        <ele>216</ele>
        <time>2025-09-02T15:41:36.000Z</time>
      </trkpt>
      <trkpt lat="43.92045" lon="2.13397">
        <ele>216</ele>
        <time>2025-09-02T15:41:41.000Z</time>
      </trkpt>
      <trkpt lat="43.92045" lon="2.13397">
        <ele>216</ele>
        <time>2025-09-02T15:41:46.000Z</time>
      </trkpt>
      <trkpt lat="43.92045" lon="2.13397">
        <ele>216</ele>
        <time>2025-09-02T15:41:51.000Z</time>
      </trkpt>
      <trkpt lat="43.92045" lon="2.13397">
        <ele>216</ele>
        <time>2025-09-02T15:41:56.000Z</time>
      </trkpt>
      <trkpt lat="43.92045" lon="2.13397">
        <ele>216</ele>
        <time>2025-09-02T15:42:01.000Z</time>
      </trkpt>
      <trkpt lat="43.92045" lon="2.13397">
        <ele>216</ele>
        <time>2025-09-02T15:42:06.000Z</time>
      </trkpt>
      <trkpt lat="43.92045" lon="2.13397">
        <ele>216</ele>
        <time>2025-09-02T15:42:11.000Z</time>
      </trkpt>
      <trkpt lat="43.92045" lon="2.13397">
        <ele>216</ele>
        <time>2025-09-02T15:42:16.000Z</time>
      </trkpt>
      <trkpt lat="43.92045" lon="2.13397">
        <ele>216</ele>
        <time>2025-09-02T15:42:21.000Z</time>
      </trkpt>
      <trkpt lat="43.92045" lon="2.13397">
        <ele>216</ele>
        <time>2025-09-02T15:42:26.000Z</time>
      </trkpt>
      <trkpt lat="43.92045" lon="2.13397">
        <ele>216</ele>
        <time>2025-09-02T15:42:31.000Z</time>
      </trkpt>
      <trkpt lat="43.92045" lon="2.13397">
        <ele>216</ele>
        <time>2025-09-02T15:42:36.000Z</time>
      </trkpt>
      <trkpt lat="43.92045" lon="2.13397">
        <ele>216</ele>
        <time>2025-09-02T15:42:41.000Z</time>
      </trkpt>
      <trkpt lat="43.92045" lon="2.13397">
        <ele>216</ele>
        <time>2025-09-02T15:42:46.000Z</time>
      </trkpt>
      <trkpt lat="43.92045" lon="2.13397">
        <ele>216</ele>
        <time>2025-09-02T15:42:51.000Z</time>
      </trkpt>
      <trkpt lat="43.92045" lon="2.13397">
        <ele>216</ele>
        <time>2025-09-02T15:42:56.000Z</time>
      </trkpt>
      <trkpt lat="43.92045" lon="2.13397">
        <ele>216</ele>
        <time>2025-09-02T15:43:01.000Z</time>
      </trkpt>
      <trkpt lat="43.92045" lon="2.13397">
        <ele>216</ele>
        <time>2025-09-02T15:43:06.000Z</time>
      </trkpt>
      <trkpt lat="43.92045" lon="2.13397">
        <ele>216</ele>
        <time>2025-09-02T15:43:11.000Z</time>
      </trkpt>
      <trkpt lat="43.92045" lon="2.13397">
        <ele>216</ele>
        <time>2025-09-02T15:43:16.000Z</time>
      </trkpt>
      <trkpt lat="43.92045" lon="2.13396">
        <ele>216</ele>
        <time>2025-09-02T15:43:21.000Z</time>
      </trkpt>
      <trkpt lat="43.92045" lon="2.13397">
        <ele>216</ele>
        <time>2025-09-02T15:43:26.000Z</time>
      </trkpt>
      <trkpt lat="43.92045" lon="2.13397">
        <ele>216</ele>
        <time>2025-09-02T15:43:31.000Z</time>
      </trkpt>
      <trkpt lat="43.92045" lon="2.13397">
        <ele>216</ele>
        <time>2025-09-02T15:43:36.000Z</time>
      </trkpt>
      <trkpt lat="43.92045" lon="2.13397">
        <ele>216</ele>
        <time>2025-09-02T15:43:41.000Z</time>
      </trkpt>
      <trkpt lat="43.92045" lon="2.13397">
        <ele>216</ele>
        <time>2025-09-02T15:43:46.000Z</time>
      </trkpt>
      <trkpt lat="43.92045" lon="2.13397">
        <ele>216</ele>
        <time>2025-09-02T15:43:51.000Z</time>
      </trkpt>
      <trkpt lat="43.92045" lon="2.13397">
        <ele>216</ele>
        <time>2025-09-02T15:43:56.000Z</time>
      </trkpt>
      <trkpt lat="43.92045" lon="2.13397">
        <ele>216</ele>
        <time>2025-09-02T15:44:01.000Z</time>
      </trkpt>
      <trkpt lat="43.92045" lon="2.13397">
        <ele>216</ele>
        <time>2025-09-02T15:44:06.000Z</time>
      </trkpt>
      <trkpt lat="43.92045" lon="2.13397">
        <ele>216</ele>
        <time>2025-09-02T15:50:00.130Z</time>
      </trkpt>
      <trkpt lat="43.92045" lon="2.13397">
        <ele>216</ele>
        <time>2025-09-02T15:58:10.896Z</time>
      </trkpt>
      <trkpt lat="43.92045" lon="2.13397">
        <ele>216</ele>
        <time>2025-09-02T15:58:15.935Z</time>
      </trkpt>
      <trkpt lat="43.92045" lon="2.13397">
        <ele>216</ele>
        <time>2025-09-02T15:58:21.021Z</time>
      </trkpt>
      <trkpt lat="43.92046" lon="2.13396">
        <ele>214</ele>
        <time>2025-09-02T15:58:27.000Z</time>
      </trkpt>
      <trkpt lat="43.92043" lon="2.13405">
        <ele>214</ele>
        <time>2025-09-02T15:58:32.000Z</time>
      </trkpt>
      <trkpt lat="43.92045" lon="2.13408">
        <ele>216</ele>
        <time>2025-09-02T15:58:37.000Z</time>
      </trkpt>
      <trkpt lat="43.92045" lon="2.13409">
        <ele>217</ele>
        <time>2025-09-02T15:58:42.000Z</time>
      </trkpt>
      <trkpt lat="43.92046" lon="2.13408">
        <ele>216</ele>
        <time>2025-09-02T15:58:47.000Z</time>
      </trkpt>
      <trkpt lat="43.92045" lon="2.13409">
        <ele>216</ele>
        <time>2025-09-02T15:58:52.000Z</time>
      </trkpt>
      <trkpt lat="43.92044" lon="2.13409">
        <ele>216</ele>
        <time>2025-09-02T15:58:57.000Z</time>
      </trkpt>
      <trkpt lat="43.92043" lon="2.13407">
        <ele>216</ele>
        <time>2025-09-02T15:59:02.000Z</time>
      </trkpt>
      <trkpt lat="43.92043" lon="2.13407">
        <ele>216</ele>
        <time>2025-09-02T15:59:07.000Z</time>
      </trkpt>
      <trkpt lat="43.92043" lon="2.13407">
        <ele>217</ele>
        <time>2025-09-02T15:59:12.000Z</time>
      </trkpt>
      <trkpt lat="43.92043" lon="2.13407">
        <ele>217</ele>
        <time>2025-09-02T15:59:17.000Z</time>
      </trkpt>
      <trkpt lat="43.92043" lon="2.13407">
        <ele>217</ele>
        <time>2025-09-02T15:59:22.000Z</time>
      </trkpt>
      <trkpt lat="43.92043" lon="2.13407">
        <ele>218</ele>
        <time>2025-09-02T15:59:27.000Z</time>
      </trkpt>
      <trkpt lat="43.92043" lon="2.1341">
        <ele>218</ele>
        <time>2025-09-02T15:59:32.000Z</time>
      </trkpt>
      <trkpt lat="43.92043" lon="2.1341">
        <ele>218</ele>
        <time>2025-09-02T15:59:37.000Z</time>
      </trkpt>
      <trkpt lat="43.92042" lon="2.13409">
        <ele>219</ele>
        <time>2025-09-02T15:59:42.000Z</time>
      </trkpt>
      <trkpt lat="43.92043" lon="2.13408">
        <ele>220</ele>
        <time>2025-09-02T15:59:47.000Z</time>
      </trkpt>
      <trkpt lat="43.92043" lon="2.13407">
        <ele>220</ele>
        <time>2025-09-02T15:59:52.000Z</time>
      </trkpt>
      <trkpt lat="43.92043" lon="2.13406">
        <ele>220</ele>
        <time>2025-09-02T15:59:57.000Z</time>
      </trkpt>
      <trkpt lat="43.92043" lon="2.13406">
        <ele>220</ele>
        <time>2025-09-02T16:00:02.000Z</time>
      </trkpt>
      <trkpt lat="43.92043" lon="2.13406">
        <ele>220</ele>
        <time>2025-09-02T16:00:07.000Z</time>
      </trkpt>
      <trkpt lat="43.92043" lon="2.13404">
        <ele>218</ele>
        <time>2025-09-02T16:00:12.000Z</time>
      </trkpt>
      <trkpt lat="43.92043" lon="2.13404">
        <ele>218</ele>
        <time>2025-09-02T16:00:17.000Z</time>
      </trkpt>
      <trkpt lat="43.92043" lon="2.13404">
        <ele>218</ele>
        <time>2025-09-02T16:00:22.000Z</time>
      </trkpt>
      <trkpt lat="43.92042" lon="2.13404">
        <ele>218</ele>
        <time>2025-09-02T16:00:27.000Z</time>
      </trkpt>
      <trkpt lat="43.92042" lon="2.13404">
        <ele>219</ele>
        <time>2025-09-02T16:00:32.000Z</time>
      </trkpt>
      <trkpt lat="43.92041" lon="2.13403">
        <ele>220</ele>
        <time>2025-09-02T16:00:37.000Z</time>
      </trkpt>
      <trkpt lat="43.92042" lon="2.13405">
        <ele>220</ele>
        <time>2025-09-02T16:00:42.000Z</time>
      </trkpt>
      <trkpt lat="43.9204" lon="2.13401">
        <ele>221</ele>
        <time>2025-09-02T16:00:47.000Z</time>
      </trkpt>
      <trkpt lat="43.9204" lon="2.13403">
        <ele>221</ele>
        <time>2025-09-02T16:00:52.000Z</time>
      </trkpt>
      <trkpt lat="43.9204" lon="2.13401">
        <ele>221</ele>
        <time>2025-09-02T16:00:57.000Z</time>
      </trkpt>
    </trkseg>
  </trk>
</gpx>